<?xml version="1.0" encoding="UTF-8" standalone="no" ?><gpx xmlns="http://www.topografix.com/GPX/1/1" xmlns:gpxx="http://www.garmin.com/xmlschemas/GpxExtensions/v3" xmlns:wptx1="http://www.garmin.com/xmlschemas/WaypointExtension/v1" xmlns:gpxtpx="http://www.garmin.com/xmlschemas/TrackPointExtension/v1" creator="GuideVTT.com" version="1.1" xmlns:xsi="http://www.w3.org/2001/XMLSchema-instance" xsi:schemaLocation="http://www.topografix.com/GPX/1/1 http://www.topografix.com/GPX/1/1/gpx.xsd http://www.garmin.com/xmlschemas/GpxExtensions/v3 http://www8.garmin.com/xmlschemas/GpxExtensionsv3.xsd http://www.garmin.com/xmlschemas/WaypointExtension/v1 http://www8.garmin.com/xmlschemas/WaypointExtensionv1.xsd http://www.garmin.com/xmlschemas/TrackPointExtension/v1 http://www.garmin.com/xmlschemas/TrackPointExtensionv1.xsd">
<metadata><link href="http://www.garmin.com"><text>Garmin International</text></link><time>2013-06-22T15:13:50Z</time></metadata>
<trk><name>2010-07-15.gpx_.gpx</name><extensions><gpxx:TrackExtension><gpxx:DisplayColor>Cyan</gpxx:DisplayColor></gpxx:TrackExtension></extensions><trkseg>
<trkpt lat="48.22661664" lon="-4.36814166"><ele></ele><time>2020-3-13T15:20:46Z</time></trkpt>
<trkpt lat="48.22564484" lon="-4.36934161"><ele></ele><time>2020-3-13T15:20:49Z</time></trkpt>
<trkpt lat="48.22572330" lon="-4.36929652"><ele></ele><time>2020-3-13T15:20:52Z</time></trkpt>
<trkpt lat="48.22574492" lon="-4.36934664"><ele></ele><time>2020-3-13T15:20:55Z</time></trkpt>
<trkpt lat="48.22578649" lon="-4.36936995"><ele></ele><time>2020-3-13T15:20:58Z</time></trkpt>
<trkpt lat="48.22578499" lon="-4.36937665"><ele></ele><time>2020-3-13T15:21:1Z</time></trkpt>
<trkpt lat="48.22578331" lon="-4.36937984"><ele></ele><time>2020-3-13T15:21:4Z</time></trkpt>
<trkpt lat="48.22578163" lon="-4.36938319"><ele></ele><time>2020-3-13T15:21:7Z</time></trkpt>
<trkpt lat="48.22577996" lon="-4.36938486"><ele></ele><time>2020-3-13T15:21:10Z</time></trkpt>
<trkpt lat="48.22577828" lon="-4.36938654"><ele></ele><time>2020-3-13T15:21:13Z</time></trkpt>
<trkpt lat="48.22577660" lon="-4.36938822"><ele></ele><time>2020-3-13T15:21:16Z</time></trkpt>
<trkpt lat="48.22577660" lon="-4.36938989"><ele></ele><time>2020-3-13T15:21:19Z</time></trkpt>
<trkpt lat="48.22577493" lon="-4.36938989"><ele></ele><time>2020-3-13T15:21:22Z</time></trkpt>
<trkpt lat="48.22577493" lon="-4.36939157"><ele></ele><time>2020-3-13T15:21:25Z</time></trkpt>
<trkpt lat="48.22577325" lon="-4.36939157"><ele></ele><time>2020-3-13T15:21:28Z</time></trkpt>
<trkpt lat="48.22577325" lon="-4.36939325"><ele></ele><time>2020-3-13T15:21:31Z</time></trkpt>
<trkpt lat="48.22577157" lon="-4.36939325"><ele></ele><time>2020-3-13T15:21:34Z</time></trkpt>
<trkpt lat="48.22577157" lon="-4.36939325"><ele></ele><time>2020-3-13T15:21:37Z</time></trkpt>
<trkpt lat="48.22584165" lon="-4.36930658"><ele></ele><time>2020-3-13T15:21:40Z</time></trkpt>
<trkpt lat="48.22584651" lon="-4.36930155"><ele></ele><time>2020-3-13T15:21:43Z</time></trkpt>
<trkpt lat="48.22585154" lon="-4.36929652"><ele></ele><time>2020-3-13T15:21:46Z</time></trkpt>
<trkpt lat="48.22585657" lon="-4.36928998"><ele></ele><time>2020-3-13T15:21:49Z</time></trkpt>
<trkpt lat="48.22586160" lon="-4.36928495"><ele></ele><time>2020-3-13T15:21:52Z</time></trkpt>
<trkpt lat="48.22586830" lon="-4.36927825"><ele></ele><time>2020-3-13T15:21:55Z</time></trkpt>
<trkpt lat="48.22587316" lon="-4.36927154"><ele></ele><time>2020-3-13T15:21:58Z</time></trkpt>
<trkpt lat="48.22587819" lon="-4.36926484"><ele></ele><time>2020-3-13T15:22:1Z</time></trkpt>
<trkpt lat="48.22588490" lon="-4.36925830"><ele></ele><time>2020-3-13T15:22:4Z</time></trkpt>
<trkpt lat="48.22588993" lon="-4.36925159"><ele></ele><time>2020-3-13T15:22:7Z</time></trkpt>
<trkpt lat="48.22589496" lon="-4.36924656"><ele></ele><time>2020-3-13T15:22:10Z</time></trkpt>
<trkpt lat="48.22589999" lon="-4.36923986"><ele></ele><time>2020-3-13T15:22:13Z</time></trkpt>
<trkpt lat="48.22590485" lon="-4.36923332"><ele></ele><time>2020-3-13T15:22:16Z</time></trkpt>
<trkpt lat="48.22590988" lon="-4.36922829"><ele></ele><time>2020-3-13T15:22:19Z</time></trkpt>
<trkpt lat="48.22591491" lon="-4.36922159"><ele></ele><time>2020-3-13T15:22:22Z</time></trkpt>
<trkpt lat="48.22591826" lon="-4.36921656"><ele></ele><time>2020-3-13T15:22:25Z</time></trkpt>
<trkpt lat="48.22592496" lon="-4.36920650"><ele></ele><time>2020-3-13T15:22:28Z</time></trkpt>
<trkpt lat="48.22593150" lon="-4.36919828"><ele></ele><time>2020-3-13T15:22:31Z</time></trkpt>
<trkpt lat="48.22594994" lon="-4.36916995"><ele></ele><time>2020-3-13T15:22:34Z</time></trkpt>
<trkpt lat="48.22595329" lon="-4.36916157"><ele></ele><time>2020-3-13T15:22:37Z</time></trkpt>
<trkpt lat="48.22595832" lon="-4.36915487"><ele></ele><time>2020-3-13T15:22:40Z</time></trkpt>
<trkpt lat="48.22596151" lon="-4.36914833"><ele></ele><time>2020-3-13T15:22:43Z</time></trkpt>
<trkpt lat="48.22596654" lon="-4.36914330"><ele></ele><time>2020-3-13T15:22:46Z</time></trkpt>
<trkpt lat="48.22596989" lon="-4.36913827"><ele></ele><time>2020-3-13T15:22:49Z</time></trkpt>
<trkpt lat="48.22597324" lon="-4.36913324"><ele></ele><time>2020-3-13T15:22:52Z</time></trkpt>
<trkpt lat="48.22597660" lon="-4.36912989"><ele></ele><time>2020-3-13T15:22:55Z</time></trkpt>
<trkpt lat="48.22597827" lon="-4.36912486"><ele></ele><time>2020-3-13T15:22:58Z</time></trkpt>
<trkpt lat="48.22598163" lon="-4.36912151"><ele></ele><time>2020-3-13T15:23:1Z</time></trkpt>
<trkpt lat="48.22598498" lon="-4.36911832"><ele></ele><time>2020-3-13T15:23:4Z</time></trkpt>
<trkpt lat="48.22598665" lon="-4.36911497"><ele></ele><time>2020-3-13T15:23:7Z</time></trkpt>
<trkpt lat="48.22598984" lon="-4.36910994"><ele></ele><time>2020-3-13T15:23:10Z</time></trkpt>
<trkpt lat="48.22599152" lon="-4.36910826"><ele></ele><time>2020-3-13T15:23:13Z</time></trkpt>
<trkpt lat="48.22599487" lon="-4.36910323"><ele></ele><time>2020-3-13T15:23:16Z</time></trkpt>
<trkpt lat="48.22599655" lon="-4.36909988"><ele></ele><time>2020-3-13T15:23:19Z</time></trkpt>
<trkpt lat="48.22599822" lon="-4.36909653"><ele></ele><time>2020-3-13T15:23:22Z</time></trkpt>
<trkpt lat="48.22599990" lon="-4.36909485"><ele></ele><time>2020-3-13T15:23:25Z</time></trkpt>
<trkpt lat="48.22600157" lon="-4.36909150"><ele></ele><time>2020-3-13T15:23:28Z</time></trkpt>
<trkpt lat="48.22600325" lon="-4.36908831"><ele></ele><time>2020-3-13T15:23:31Z</time></trkpt>
<trkpt lat="48.22600493" lon="-4.36908664"><ele></ele><time>2020-3-13T15:23:34Z</time></trkpt>
<trkpt lat="48.22600660" lon="-4.36908328"><ele></ele><time>2020-3-13T15:23:37Z</time></trkpt>
<trkpt lat="48.22600828" lon="-4.36908161"><ele></ele><time>2020-3-13T15:23:40Z</time></trkpt>
<trkpt lat="48.22600996" lon="-4.36907993"><ele></ele><time>2020-3-13T15:23:43Z</time></trkpt>
<trkpt lat="48.22600996" lon="-4.36907658"><ele></ele><time>2020-3-13T15:23:46Z</time></trkpt>
<trkpt lat="48.22601163" lon="-4.36907490"><ele></ele><time>2020-3-13T15:23:49Z</time></trkpt>
<trkpt lat="48.22601163" lon="-4.36907323"><ele></ele><time>2020-3-13T15:23:52Z</time></trkpt>
<trkpt lat="48.22601331" lon="-4.36906987"><ele></ele><time>2020-3-13T15:23:55Z</time></trkpt>
<trkpt lat="48.22601499" lon="-4.36906484"><ele></ele><time>2020-3-13T15:23:58Z</time></trkpt>
<trkpt lat="48.22601499" lon="-4.36906166"><ele></ele><time>2020-3-13T15:24:1Z</time></trkpt>
<trkpt lat="48.22601649" lon="-4.36905998"><ele></ele><time>2020-3-13T15:24:4Z</time></trkpt>
<trkpt lat="48.22601649" lon="-4.36905831"><ele></ele><time>2020-3-13T15:24:7Z</time></trkpt>
<trkpt lat="48.22601649" lon="-4.36905663"><ele></ele><time>2020-3-13T15:24:10Z</time></trkpt>
<trkpt lat="48.22601649" lon="-4.36905495"><ele></ele><time>2020-3-13T15:24:13Z</time></trkpt>
<trkpt lat="48.22601649" lon="-4.36905495"><ele></ele><time>2020-3-13T15:24:16Z</time></trkpt>
<trkpt lat="48.22601649" lon="-4.36905160"><ele></ele><time>2020-3-13T15:24:19Z</time></trkpt>
<trkpt lat="48.22601817" lon="-4.36904992"><ele></ele><time>2020-3-13T15:24:22Z</time></trkpt>
<trkpt lat="48.22601817" lon="-4.36904825"><ele></ele><time>2020-3-13T15:24:25Z</time></trkpt>
<trkpt lat="48.22601817" lon="-4.36904825"><ele></ele><time>2020-3-13T15:24:28Z</time></trkpt>
<trkpt lat="48.22601817" lon="-4.36904657"><ele></ele><time>2020-3-13T15:24:31Z</time></trkpt>
<trkpt lat="48.22601817" lon="-4.36904489"><ele></ele><time>2020-3-13T15:24:34Z</time></trkpt>
<trkpt lat="48.22601817" lon="-4.36904322"><ele></ele><time>2020-3-13T15:24:37Z</time></trkpt>
<trkpt lat="48.22601817" lon="-4.36904322"><ele></ele><time>2020-3-13T15:24:40Z</time></trkpt>
<trkpt lat="48.22601817" lon="-4.36904154"><ele></ele><time>2020-3-13T15:24:43Z</time></trkpt>
<trkpt lat="48.22601817" lon="-4.36903987"><ele></ele><time>2020-3-13T15:24:46Z</time></trkpt>
<trkpt lat="48.22601817" lon="-4.36903987"><ele></ele><time>2020-3-13T15:24:49Z</time></trkpt>
<trkpt lat="48.22601817" lon="-4.36903819"><ele></ele><time>2020-3-13T15:24:52Z</time></trkpt>
<trkpt lat="48.22601817" lon="-4.36903651"><ele></ele><time>2020-3-13T15:24:55Z</time></trkpt>
<trkpt lat="48.22601817" lon="-4.36903651"><ele></ele><time>2020-3-13T15:24:58Z</time></trkpt>
<trkpt lat="48.22601817" lon="-4.36903484"><ele></ele><time>2020-3-13T15:25:1Z</time></trkpt>
<trkpt lat="48.22601985" lon="-4.36903651"><ele></ele><time>2020-3-13T15:25:4Z</time></trkpt>
<trkpt lat="48.22601985" lon="-4.36903651"><ele></ele><time>2020-3-13T15:25:7Z</time></trkpt>
<trkpt lat="48.22601985" lon="-4.36903651"><ele></ele><time>2020-3-13T15:25:10Z</time></trkpt>
<trkpt lat="48.22601817" lon="-4.36903484"><ele></ele><time>2020-3-13T15:25:13Z</time></trkpt>
<trkpt lat="48.22601985" lon="-4.36903484"><ele></ele><time>2020-3-13T15:25:16Z</time></trkpt>
<trkpt lat="48.22601985" lon="-4.36903651"><ele></ele><time>2020-3-13T15:25:19Z</time></trkpt>
<trkpt lat="48.22601985" lon="-4.36903987"><ele></ele><time>2020-3-13T15:25:22Z</time></trkpt>
<trkpt lat="48.22602488" lon="-4.36904657"><ele></ele><time>2020-3-13T15:25:25Z</time></trkpt>
<trkpt lat="48.22602823" lon="-4.36904489"><ele></ele><time>2020-3-13T15:25:28Z</time></trkpt>
<trkpt lat="48.22603326" lon="-4.36905328"><ele></ele><time>2020-3-13T15:25:31Z</time></trkpt>
<trkpt lat="48.22603493" lon="-4.36905831"><ele></ele><time>2020-3-13T15:25:34Z</time></trkpt>
<trkpt lat="48.22603326" lon="-4.36905998"><ele></ele><time>2020-3-13T15:25:37Z</time></trkpt>
<trkpt lat="48.22602991" lon="-4.36905663"><ele></ele><time>2020-3-13T15:25:40Z</time></trkpt>
<trkpt lat="48.22602655" lon="-4.36905328"><ele></ele><time>2020-3-13T15:25:43Z</time></trkpt>
<trkpt lat="48.22602320" lon="-4.36904992"><ele></ele><time>2020-3-13T15:25:46Z</time></trkpt>
<trkpt lat="48.22602152" lon="-4.36904657"><ele></ele><time>2020-3-13T15:25:49Z</time></trkpt>
<trkpt lat="48.22601331" lon="-4.36902998"><ele></ele><time>2020-3-13T15:25:52Z</time></trkpt>
<trkpt lat="48.22600996" lon="-4.36902662"><ele></ele><time>2020-3-13T15:25:55Z</time></trkpt>
<trkpt lat="48.22600828" lon="-4.36901992"><ele></ele><time>2020-3-13T15:25:58Z</time></trkpt>
<trkpt lat="48.22600325" lon="-4.36901153"><ele></ele><time>2020-3-13T15:26:1Z</time></trkpt>
<trkpt lat="48.22600157" lon="-4.36900818"><ele></ele><time>2020-3-13T15:26:4Z</time></trkpt>
<trkpt lat="48.22600157" lon="-4.36900986"><ele></ele><time>2020-3-13T15:26:7Z</time></trkpt>
<trkpt lat="48.22600157" lon="-4.36900986"><ele></ele><time>2020-3-13T15:26:10Z</time></trkpt>
<trkpt lat="48.22600157" lon="-4.36901153"><ele></ele><time>2020-3-13T15:26:13Z</time></trkpt>
<trkpt lat="48.22600325" lon="-4.36901321"><ele></ele><time>2020-3-13T15:26:16Z</time></trkpt>
<trkpt lat="48.22600493" lon="-4.36901824"><ele></ele><time>2020-3-13T15:26:19Z</time></trkpt>
<trkpt lat="48.22601331" lon="-4.36903987"><ele></ele><time>2020-3-13T15:26:22Z</time></trkpt>
<trkpt lat="48.22600996" lon="-4.36903333"><ele></ele><time>2020-3-13T15:26:25Z</time></trkpt>
<trkpt lat="48.22601649" lon="-4.36904825"><ele></ele><time>2020-3-13T15:26:28Z</time></trkpt>
<trkpt lat="48.22601331" lon="-4.36903819"><ele></ele><time>2020-3-13T15:26:31Z</time></trkpt>
<trkpt lat="48.22601817" lon="-4.36904825"><ele></ele><time>2020-3-13T15:26:34Z</time></trkpt>
<trkpt lat="48.22601817" lon="-4.36904489"><ele></ele><time>2020-3-13T15:26:37Z</time></trkpt>
<trkpt lat="48.22602655" lon="-4.36906166"><ele></ele><time>2020-3-13T15:26:40Z</time></trkpt>
<trkpt lat="48.22602488" lon="-4.36905160"><ele></ele><time>2020-3-13T15:26:43Z</time></trkpt>
<trkpt lat="48.22602655" lon="-4.36905328"><ele></ele><time>2020-3-13T15:26:46Z</time></trkpt>
<trkpt lat="48.22602991" lon="-4.36906166"><ele></ele><time>2020-3-13T15:26:49Z</time></trkpt>
<trkpt lat="48.22602655" lon="-4.36906987"><ele></ele><time>2020-3-13T15:26:52Z</time></trkpt>
<trkpt lat="48.22602823" lon="-4.36906987"><ele></ele><time>2020-3-13T15:26:55Z</time></trkpt>
<trkpt lat="48.22602991" lon="-4.36906987"><ele></ele><time>2020-3-13T15:26:58Z</time></trkpt>
<trkpt lat="48.22602991" lon="-4.36906987"><ele></ele><time>2020-3-13T15:27:1Z</time></trkpt>
<trkpt lat="48.22602823" lon="-4.36907155"><ele></ele><time>2020-3-13T15:27:4Z</time></trkpt>
<trkpt lat="48.22602991" lon="-4.36907155"><ele></ele><time>2020-3-13T15:27:7Z</time></trkpt>
<trkpt lat="48.22603158" lon="-4.36907155"><ele></ele><time>2020-3-13T15:27:10Z</time></trkpt>
<trkpt lat="48.22603158" lon="-4.36907155"><ele></ele><time>2020-3-13T15:27:13Z</time></trkpt>
<trkpt lat="48.22603326" lon="-4.36907155"><ele></ele><time>2020-3-13T15:27:16Z</time></trkpt>
<trkpt lat="48.22603493" lon="-4.36906987"><ele></ele><time>2020-3-13T15:27:19Z</time></trkpt>
<trkpt lat="48.22603493" lon="-4.36906987"><ele></ele><time>2020-3-13T15:27:22Z</time></trkpt>
<trkpt lat="48.22603661" lon="-4.36906987"><ele></ele><time>2020-3-13T15:27:25Z</time></trkpt>
<trkpt lat="48.22603661" lon="-4.36906820"><ele></ele><time>2020-3-13T15:27:28Z</time></trkpt>
<trkpt lat="48.22603829" lon="-4.36906820"><ele></ele><time>2020-3-13T15:27:31Z</time></trkpt>
<trkpt lat="48.22603829" lon="-4.36906820"><ele></ele><time>2020-3-13T15:27:34Z</time></trkpt>
<trkpt lat="48.22603829" lon="-4.36906820"><ele></ele><time>2020-3-13T15:27:37Z</time></trkpt>
<trkpt lat="48.22603996" lon="-4.36906820"><ele></ele><time>2020-3-13T15:27:40Z</time></trkpt>
<trkpt lat="48.22603996" lon="-4.36906820"><ele></ele><time>2020-3-13T15:27:43Z</time></trkpt>
<trkpt lat="48.22603996" lon="-4.36906652"><ele></ele><time>2020-3-13T15:27:46Z</time></trkpt>
<trkpt lat="48.22603996" lon="-4.36906652"><ele></ele><time>2020-3-13T15:27:49Z</time></trkpt>
<trkpt lat="48.22603996" lon="-4.36906484"><ele></ele><time>2020-3-13T15:27:52Z</time></trkpt>
<trkpt lat="48.22603996" lon="-4.36906484"><ele></ele><time>2020-3-13T15:27:55Z</time></trkpt>
<trkpt lat="48.22604164" lon="-4.36906484"><ele></ele><time>2020-3-13T15:27:58Z</time></trkpt>
<trkpt lat="48.22604164" lon="-4.36906484"><ele></ele><time>2020-3-13T15:28:1Z</time></trkpt>
<trkpt lat="48.22604164" lon="-4.36906484"><ele></ele><time>2020-3-13T15:28:4Z</time></trkpt>
<trkpt lat="48.22604164" lon="-4.36906484"><ele></ele><time>2020-3-13T15:28:7Z</time></trkpt>
<trkpt lat="48.22604164" lon="-4.36906484"><ele></ele><time>2020-3-13T15:28:10Z</time></trkpt>
<trkpt lat="48.22604164" lon="-4.36906484"><ele></ele><time>2020-3-13T15:28:13Z</time></trkpt>
<trkpt lat="48.22604332" lon="-4.36906484"><ele></ele><time>2020-3-13T15:28:16Z</time></trkpt>
<trkpt lat="48.22604332" lon="-4.36906484"><ele></ele><time>2020-3-13T15:28:19Z</time></trkpt>
<trkpt lat="48.22604332" lon="-4.36906484"><ele></ele><time>2020-3-13T15:28:22Z</time></trkpt>
<trkpt lat="48.22604332" lon="-4.36906317"><ele></ele><time>2020-3-13T15:28:25Z</time></trkpt>
<trkpt lat="48.22604332" lon="-4.36906317"><ele></ele><time>2020-3-13T15:28:28Z</time></trkpt>
<trkpt lat="48.22604332" lon="-4.36906317"><ele></ele><time>2020-3-13T15:28:31Z</time></trkpt>
<trkpt lat="48.22604332" lon="-4.36906317"><ele></ele><time>2020-3-13T15:28:34Z</time></trkpt>
<trkpt lat="48.22604332" lon="-4.36906317"><ele></ele><time>2020-3-13T15:28:37Z</time></trkpt>
<trkpt lat="48.22604332" lon="-4.36906166"><ele></ele><time>2020-3-13T15:28:40Z</time></trkpt>
<trkpt lat="48.22604332" lon="-4.36906166"><ele></ele><time>2020-3-13T15:28:43Z</time></trkpt>
<trkpt lat="48.22604499" lon="-4.36906166"><ele></ele><time>2020-3-13T15:28:46Z</time></trkpt>
<trkpt lat="48.22604499" lon="-4.36906166"><ele></ele><time>2020-3-13T15:28:49Z</time></trkpt>
<trkpt lat="48.22604499" lon="-4.36905998"><ele></ele><time>2020-3-13T15:28:52Z</time></trkpt>
<trkpt lat="48.22604499" lon="-4.36905998"><ele></ele><time>2020-3-13T15:28:55Z</time></trkpt>
<trkpt lat="48.22604499" lon="-4.36905998"><ele></ele><time>2020-3-13T15:28:58Z</time></trkpt>
<trkpt lat="48.22604499" lon="-4.36905831"><ele></ele><time>2020-3-13T15:29:1Z</time></trkpt>
<trkpt lat="48.22604499" lon="-4.36905831"><ele></ele><time>2020-3-13T15:29:4Z</time></trkpt>
<trkpt lat="48.22604499" lon="-4.36905831"><ele></ele><time>2020-3-13T15:29:7Z</time></trkpt>
<trkpt lat="48.22604499" lon="-4.36905831"><ele></ele><time>2020-3-13T15:29:10Z</time></trkpt>
<trkpt lat="48.22604499" lon="-4.36905831"><ele></ele><time>2020-3-13T15:29:13Z</time></trkpt>
<trkpt lat="48.22604650" lon="-4.36905663"><ele></ele><time>2020-3-13T15:29:16Z</time></trkpt>
<trkpt lat="48.22604650" lon="-4.36905663"><ele></ele><time>2020-3-13T15:29:19Z</time></trkpt>
<trkpt lat="48.22604650" lon="-4.36905663"><ele></ele><time>2020-3-13T15:29:22Z</time></trkpt>
<trkpt lat="48.22604650" lon="-4.36905495"><ele></ele><time>2020-3-13T15:29:25Z</time></trkpt>
<trkpt lat="48.22604650" lon="-4.36905495"><ele></ele><time>2020-3-13T15:29:28Z</time></trkpt>
<trkpt lat="48.22604650" lon="-4.36905495"><ele></ele><time>2020-3-13T15:29:31Z</time></trkpt>
<trkpt lat="48.22604650" lon="-4.36905495"><ele></ele><time>2020-3-13T15:29:34Z</time></trkpt>
<trkpt lat="48.22604650" lon="-4.36905495"><ele></ele><time>2020-3-13T15:29:37Z</time></trkpt>
<trkpt lat="48.22604650" lon="-4.36905495"><ele></ele><time>2020-3-13T15:29:40Z</time></trkpt>
<trkpt lat="48.22604650" lon="-4.36905495"><ele></ele><time>2020-3-13T15:29:43Z</time></trkpt>
<trkpt lat="48.22604650" lon="-4.36905495"><ele></ele><time>2020-3-13T15:29:46Z</time></trkpt>
<trkpt lat="48.22604650" lon="-4.36905495"><ele></ele><time>2020-3-13T15:29:49Z</time></trkpt>
<trkpt lat="48.22604650" lon="-4.36905495"><ele></ele><time>2020-3-13T15:29:52Z</time></trkpt>
<trkpt lat="48.22604650" lon="-4.36905495"><ele></ele><time>2020-3-13T15:29:55Z</time></trkpt>
<trkpt lat="48.22604818" lon="-4.36905663"><ele></ele><time>2020-3-13T15:29:58Z</time></trkpt>
<trkpt lat="48.22604818" lon="-4.36905495"><ele></ele><time>2020-3-13T15:30:1Z</time></trkpt>
<trkpt lat="48.22604818" lon="-4.36905495"><ele></ele><time>2020-3-13T15:30:4Z</time></trkpt>
<trkpt lat="48.22604818" lon="-4.36905663"><ele></ele><time>2020-3-13T15:30:7Z</time></trkpt>
<trkpt lat="48.22604818" lon="-4.36905663"><ele></ele><time>2020-3-13T15:30:10Z</time></trkpt>
<trkpt lat="48.22604818" lon="-4.36905663"><ele></ele><time>2020-3-13T15:30:13Z</time></trkpt>
<trkpt lat="48.22604818" lon="-4.36905663"><ele></ele><time>2020-3-13T15:30:16Z</time></trkpt>
<trkpt lat="48.22604818" lon="-4.36905663"><ele></ele><time>2020-3-13T15:30:19Z</time></trkpt>
<trkpt lat="48.22604818" lon="-4.36905663"><ele></ele><time>2020-3-13T15:30:22Z</time></trkpt>
<trkpt lat="48.22604818" lon="-4.36905663"><ele></ele><time>2020-3-13T15:30:25Z</time></trkpt>
<trkpt lat="48.22604985" lon="-4.36905663"><ele></ele><time>2020-3-13T15:30:28Z</time></trkpt>
<trkpt lat="48.22604985" lon="-4.36905663"><ele></ele><time>2020-3-13T15:30:31Z</time></trkpt>
<trkpt lat="48.22604985" lon="-4.36905495"><ele></ele><time>2020-3-13T15:30:34Z</time></trkpt>
<trkpt lat="48.22604985" lon="-4.36905495"><ele></ele><time>2020-3-13T15:30:37Z</time></trkpt>
<trkpt lat="48.22604985" lon="-4.36905495"><ele></ele><time>2020-3-13T15:30:40Z</time></trkpt>
<trkpt lat="48.22604985" lon="-4.36905495"><ele></ele><time>2020-3-13T15:30:43Z</time></trkpt>
<trkpt lat="48.22604985" lon="-4.36905495"><ele></ele><time>2020-3-13T15:30:46Z</time></trkpt>
<trkpt lat="48.22604985" lon="-4.36905495"><ele></ele><time>2020-3-13T15:30:49Z</time></trkpt>
<trkpt lat="48.22604985" lon="-4.36905495"><ele></ele><time>2020-3-13T15:30:52Z</time></trkpt>
<trkpt lat="48.22604818" lon="-4.36905328"><ele></ele><time>2020-3-13T15:30:55Z</time></trkpt>
<trkpt lat="48.22604818" lon="-4.36905328"><ele></ele><time>2020-3-13T15:30:58Z</time></trkpt>
<trkpt lat="48.22604818" lon="-4.36905328"><ele></ele><time>2020-3-13T15:31:1Z</time></trkpt>
<trkpt lat="48.22604818" lon="-4.36905328"><ele></ele><time>2020-3-13T15:31:4Z</time></trkpt>
<trkpt lat="48.22604818" lon="-4.36905328"><ele></ele><time>2020-3-13T15:31:7Z</time></trkpt>
<trkpt lat="48.22604818" lon="-4.36905328"><ele></ele><time>2020-3-13T15:31:10Z</time></trkpt>
<trkpt lat="48.22604818" lon="-4.36905328"><ele></ele><time>2020-3-13T15:31:13Z</time></trkpt>
<trkpt lat="48.22604818" lon="-4.36905328"><ele></ele><time>2020-3-13T15:31:16Z</time></trkpt>
<trkpt lat="48.22604818" lon="-4.36905328"><ele></ele><time>2020-3-13T15:31:19Z</time></trkpt>
<trkpt lat="48.22604818" lon="-4.36905328"><ele></ele><time>2020-3-13T15:31:22Z</time></trkpt>
<trkpt lat="48.22604818" lon="-4.36905328"><ele></ele><time>2020-3-13T15:31:25Z</time></trkpt>
<trkpt lat="48.22604818" lon="-4.36905328"><ele></ele><time>2020-3-13T15:31:28Z</time></trkpt>
<trkpt lat="48.22604818" lon="-4.36905328"><ele></ele><time>2020-3-13T15:31:31Z</time></trkpt>
<trkpt lat="48.22604818" lon="-4.36905328"><ele></ele><time>2020-3-13T15:31:34Z</time></trkpt>
<trkpt lat="48.22604818" lon="-4.36905328"><ele></ele><time>2020-3-13T15:31:37Z</time></trkpt>
<trkpt lat="48.22604818" lon="-4.36905328"><ele></ele><time>2020-3-13T15:31:40Z</time></trkpt>
<trkpt lat="48.22604818" lon="-4.36905328"><ele></ele><time>2020-3-13T15:31:43Z</time></trkpt>
<trkpt lat="48.22604818" lon="-4.36905328"><ele></ele><time>2020-3-13T15:31:46Z</time></trkpt>
<trkpt lat="48.22604818" lon="-4.36905328"><ele></ele><time>2020-3-13T15:31:49Z</time></trkpt>
<trkpt lat="48.22604818" lon="-4.36905328"><ele></ele><time>2020-3-13T15:31:52Z</time></trkpt>
<trkpt lat="48.22604818" lon="-4.36905328"><ele></ele><time>2020-3-13T15:31:55Z</time></trkpt>
<trkpt lat="48.22604818" lon="-4.36905160"><ele></ele><time>2020-3-13T15:31:58Z</time></trkpt>
<trkpt lat="48.22604818" lon="-4.36905160"><ele></ele><time>2020-3-13T15:32:1Z</time></trkpt>
<trkpt lat="48.22604818" lon="-4.36905160"><ele></ele><time>2020-3-13T15:32:4Z</time></trkpt>
<trkpt lat="48.22604650" lon="-4.36904992"><ele></ele><time>2020-3-13T15:32:7Z</time></trkpt>
<trkpt lat="48.22604650" lon="-4.36904992"><ele></ele><time>2020-3-13T15:32:10Z</time></trkpt>
<trkpt lat="48.22604650" lon="-4.36904992"><ele></ele><time>2020-3-13T15:32:13Z</time></trkpt>
<trkpt lat="48.22604650" lon="-4.36904992"><ele></ele><time>2020-3-13T15:32:16Z</time></trkpt>
<trkpt lat="48.22604650" lon="-4.36904825"><ele></ele><time>2020-3-13T15:32:19Z</time></trkpt>
<trkpt lat="48.22604650" lon="-4.36904825"><ele></ele><time>2020-3-13T15:32:22Z</time></trkpt>
<trkpt lat="48.22604650" lon="-4.36904825"><ele></ele><time>2020-3-13T15:32:25Z</time></trkpt>
<trkpt lat="48.22604650" lon="-4.36904825"><ele></ele><time>2020-3-13T15:32:28Z</time></trkpt>
<trkpt lat="48.22604650" lon="-4.36904825"><ele></ele><time>2020-3-13T15:32:31Z</time></trkpt>
<trkpt lat="48.22604650" lon="-4.36904825"><ele></ele><time>2020-3-13T15:32:34Z</time></trkpt>
<trkpt lat="48.22604650" lon="-4.36904825"><ele></ele><time>2020-3-13T15:32:37Z</time></trkpt>
<trkpt lat="48.22604650" lon="-4.36904825"><ele></ele><time>2020-3-13T15:32:40Z</time></trkpt>
<trkpt lat="48.22604650" lon="-4.36904825"><ele></ele><time>2020-3-13T15:32:43Z</time></trkpt>
<trkpt lat="48.22604499" lon="-4.36904825"><ele></ele><time>2020-3-13T15:32:46Z</time></trkpt>
<trkpt lat="48.22604499" lon="-4.36904657"><ele></ele><time>2020-3-13T15:32:49Z</time></trkpt>
<trkpt lat="48.22604499" lon="-4.36904657"><ele></ele><time>2020-3-13T15:32:52Z</time></trkpt>
<trkpt lat="48.22604499" lon="-4.36904657"><ele></ele><time>2020-3-13T15:32:55Z</time></trkpt>
<trkpt lat="48.22604499" lon="-4.36904657"><ele></ele><time>2020-3-13T15:32:58Z</time></trkpt>
<trkpt lat="48.22604499" lon="-4.36904657"><ele></ele><time>2020-3-13T15:33:1Z</time></trkpt>
<trkpt lat="48.22604499" lon="-4.36904657"><ele></ele><time>2020-3-13T15:33:4Z</time></trkpt>
<trkpt lat="48.22604499" lon="-4.36904657"><ele></ele><time>2020-3-13T15:33:7Z</time></trkpt>
<trkpt lat="48.22604499" lon="-4.36904657"><ele></ele><time>2020-3-13T15:33:10Z</time></trkpt>
<trkpt lat="48.22604499" lon="-4.36904489"><ele></ele><time>2020-3-13T15:33:13Z</time></trkpt>
<trkpt lat="48.22604499" lon="-4.36904489"><ele></ele><time>2020-3-13T15:33:16Z</time></trkpt>
<trkpt lat="48.22604332" lon="-4.36904489"><ele></ele><time>2020-3-13T15:33:19Z</time></trkpt>
<trkpt lat="48.22604332" lon="-4.36904489"><ele></ele><time>2020-3-13T15:33:22Z</time></trkpt>
<trkpt lat="48.22604332" lon="-4.36904489"><ele></ele><time>2020-3-13T15:33:25Z</time></trkpt>
<trkpt lat="48.22604332" lon="-4.36904489"><ele></ele><time>2020-3-13T15:33:28Z</time></trkpt>
<trkpt lat="48.22604332" lon="-4.36904322"><ele></ele><time>2020-3-13T15:33:31Z</time></trkpt>
<trkpt lat="48.22604332" lon="-4.36904322"><ele></ele><time>2020-3-13T15:33:34Z</time></trkpt>
<trkpt lat="48.22604332" lon="-4.36904322"><ele></ele><time>2020-3-13T15:33:37Z</time></trkpt>
<trkpt lat="48.22604332" lon="-4.36904322"><ele></ele><time>2020-3-13T15:33:40Z</time></trkpt>
<trkpt lat="48.22604332" lon="-4.36904322"><ele></ele><time>2020-3-13T15:33:43Z</time></trkpt>
<trkpt lat="48.22604332" lon="-4.36904322"><ele></ele><time>2020-3-13T15:33:46Z</time></trkpt>
<trkpt lat="48.22604332" lon="-4.36904322"><ele></ele><time>2020-3-13T15:33:49Z</time></trkpt>
<trkpt lat="48.22604332" lon="-4.36904154"><ele></ele><time>2020-3-13T15:33:52Z</time></trkpt>
<trkpt lat="48.22604164" lon="-4.36904154"><ele></ele><time>2020-3-13T15:33:55Z</time></trkpt>
<trkpt lat="48.22604164" lon="-4.36904154"><ele></ele><time>2020-3-13T15:33:58Z</time></trkpt>
<trkpt lat="48.22604164" lon="-4.36904154"><ele></ele><time>2020-3-13T15:34:1Z</time></trkpt>
<trkpt lat="48.22604164" lon="-4.36903987"><ele></ele><time>2020-3-13T15:34:4Z</time></trkpt>
<trkpt lat="48.22604164" lon="-4.36903987"><ele></ele><time>2020-3-13T15:34:7Z</time></trkpt>
<trkpt lat="48.22604164" lon="-4.36903987"><ele></ele><time>2020-3-13T15:34:10Z</time></trkpt>
<trkpt lat="48.22604164" lon="-4.36903987"><ele></ele><time>2020-3-13T15:34:13Z</time></trkpt>
<trkpt lat="48.22604164" lon="-4.36903987"><ele></ele><time>2020-3-13T15:34:16Z</time></trkpt>
<trkpt lat="48.22604164" lon="-4.36903987"><ele></ele><time>2020-3-13T15:34:19Z</time></trkpt>
<trkpt lat="48.22604164" lon="-4.36903987"><ele></ele><time>2020-3-13T15:34:22Z</time></trkpt>
<trkpt lat="48.22604164" lon="-4.36903987"><ele></ele><time>2020-3-13T15:34:25Z</time></trkpt>
<trkpt lat="48.22604164" lon="-4.36903987"><ele></ele><time>2020-3-13T15:34:28Z</time></trkpt>
<trkpt lat="48.22604164" lon="-4.36903987"><ele></ele><time>2020-3-13T15:34:31Z</time></trkpt>
<trkpt lat="48.22604164" lon="-4.36904154"><ele></ele><time>2020-3-13T15:34:34Z</time></trkpt>
<trkpt lat="48.22604164" lon="-4.36904154"><ele></ele><time>2020-3-13T15:34:37Z</time></trkpt>
<trkpt lat="48.22604164" lon="-4.36904154"><ele></ele><time>2020-3-13T15:34:40Z</time></trkpt>
<trkpt lat="48.22604332" lon="-4.36904154"><ele></ele><time>2020-3-13T15:34:43Z</time></trkpt>
<trkpt lat="48.22604332" lon="-4.36904154"><ele></ele><time>2020-3-13T15:34:46Z</time></trkpt>
<trkpt lat="48.22604332" lon="-4.36904154"><ele></ele><time>2020-3-13T15:34:49Z</time></trkpt>
<trkpt lat="48.22604332" lon="-4.36904154"><ele></ele><time>2020-3-13T15:34:52Z</time></trkpt>
<trkpt lat="48.22604332" lon="-4.36904154"><ele></ele><time>2020-3-13T15:34:55Z</time></trkpt>
<trkpt lat="48.22604332" lon="-4.36904154"><ele></ele><time>2020-3-13T15:34:58Z</time></trkpt>
<trkpt lat="48.22604332" lon="-4.36904154"><ele></ele><time>2020-3-13T15:35:1Z</time></trkpt>
<trkpt lat="48.22604332" lon="-4.36904322"><ele></ele><time>2020-3-13T15:35:4Z</time></trkpt>
<trkpt lat="48.22604332" lon="-4.36904322"><ele></ele><time>2020-3-13T15:35:7Z</time></trkpt>
<trkpt lat="48.22604332" lon="-4.36904322"><ele></ele><time>2020-3-13T15:35:10Z</time></trkpt>
<trkpt lat="48.22604499" lon="-4.36904489"><ele></ele><time>2020-3-13T15:35:13Z</time></trkpt>
<trkpt lat="48.22604499" lon="-4.36904489"><ele></ele><time>2020-3-13T15:35:16Z</time></trkpt>
<trkpt lat="48.22604499" lon="-4.36904657"><ele></ele><time>2020-3-13T15:35:19Z</time></trkpt>
<trkpt lat="48.22604499" lon="-4.36904657"><ele></ele><time>2020-3-13T15:35:22Z</time></trkpt>
<trkpt lat="48.22604499" lon="-4.36904657"><ele></ele><time>2020-3-13T15:35:25Z</time></trkpt>
<trkpt lat="48.22604499" lon="-4.36904657"><ele></ele><time>2020-3-13T15:35:28Z</time></trkpt>
<trkpt lat="48.22604499" lon="-4.36904825"><ele></ele><time>2020-3-13T15:35:31Z</time></trkpt>
<trkpt lat="48.22604499" lon="-4.36904825"><ele></ele><time>2020-3-13T15:35:34Z</time></trkpt>
<trkpt lat="48.22604650" lon="-4.36904825"><ele></ele><time>2020-3-13T15:35:37Z</time></trkpt>
<trkpt lat="48.22604650" lon="-4.36904825"><ele></ele><time>2020-3-13T15:35:40Z</time></trkpt>
<trkpt lat="48.22604650" lon="-4.36904825"><ele></ele><time>2020-3-13T15:35:43Z</time></trkpt>
<trkpt lat="48.22604650" lon="-4.36904825"><ele></ele><time>2020-3-13T15:35:46Z</time></trkpt>
<trkpt lat="48.22604650" lon="-4.36904825"><ele></ele><time>2020-3-13T15:35:49Z</time></trkpt>
<trkpt lat="48.22604650" lon="-4.36904825"><ele></ele><time>2020-3-13T15:35:52Z</time></trkpt>
<trkpt lat="48.22604650" lon="-4.36904825"><ele></ele><time>2020-3-13T15:35:55Z</time></trkpt>
<trkpt lat="48.22604650" lon="-4.36904825"><ele></ele><time>2020-3-13T15:35:58Z</time></trkpt>
<trkpt lat="48.22604650" lon="-4.36904825"><ele></ele><time>2020-3-13T15:36:1Z</time></trkpt>
<trkpt lat="48.22604650" lon="-4.36904825"><ele></ele><time>2020-3-13T15:36:4Z</time></trkpt>
<trkpt lat="48.22604650" lon="-4.36904825"><ele></ele><time>2020-3-13T15:36:7Z</time></trkpt>
<trkpt lat="48.22604818" lon="-4.36904825"><ele></ele><time>2020-3-13T15:36:10Z</time></trkpt>
<trkpt lat="48.22604818" lon="-4.36904825"><ele></ele><time>2020-3-13T15:36:13Z</time></trkpt>
<trkpt lat="48.22604818" lon="-4.36904825"><ele></ele><time>2020-3-13T15:36:16Z</time></trkpt>
<trkpt lat="48.22604818" lon="-4.36904825"><ele></ele><time>2020-3-13T15:36:19Z</time></trkpt>
<trkpt lat="48.22604818" lon="-4.36904825"><ele></ele><time>2020-3-13T15:36:22Z</time></trkpt>
<trkpt lat="48.22604818" lon="-4.36904825"><ele></ele><time>2020-3-13T15:36:25Z</time></trkpt>
<trkpt lat="48.22604818" lon="-4.36904825"><ele></ele><time>2020-3-13T15:36:28Z</time></trkpt>
<trkpt lat="48.22604818" lon="-4.36904825"><ele></ele><time>2020-3-13T15:36:31Z</time></trkpt>
<trkpt lat="48.22604818" lon="-4.36904825"><ele></ele><time>2020-3-13T15:36:34Z</time></trkpt>
<trkpt lat="48.22604818" lon="-4.36904992"><ele></ele><time>2020-3-13T15:36:37Z</time></trkpt>
<trkpt lat="48.22604818" lon="-4.36904992"><ele></ele><time>2020-3-13T15:36:40Z</time></trkpt>
<trkpt lat="48.22604818" lon="-4.36904992"><ele></ele><time>2020-3-13T15:36:43Z</time></trkpt>
<trkpt lat="48.22604818" lon="-4.36904992"><ele></ele><time>2020-3-13T15:36:46Z</time></trkpt>
<trkpt lat="48.22604818" lon="-4.36904992"><ele></ele><time>2020-3-13T15:36:49Z</time></trkpt>
<trkpt lat="48.22604818" lon="-4.36905160"><ele></ele><time>2020-3-13T15:36:52Z</time></trkpt>
<trkpt lat="48.22604818" lon="-4.36905160"><ele></ele><time>2020-3-13T15:36:55Z</time></trkpt>
<trkpt lat="48.22604818" lon="-4.36904992"><ele></ele><time>2020-3-13T15:36:58Z</time></trkpt>
<trkpt lat="48.22604818" lon="-4.36904992"><ele></ele><time>2020-3-13T15:37:1Z</time></trkpt>
<trkpt lat="48.22604818" lon="-4.36904825"><ele></ele><time>2020-3-13T15:37:4Z</time></trkpt>
<trkpt lat="48.22604818" lon="-4.36904992"><ele></ele><time>2020-3-13T15:37:7Z</time></trkpt>
<trkpt lat="48.22604818" lon="-4.36904825"><ele></ele><time>2020-3-13T15:37:10Z</time></trkpt>
<trkpt lat="48.22604818" lon="-4.36904992"><ele></ele><time>2020-3-13T15:37:13Z</time></trkpt>
<trkpt lat="48.22604818" lon="-4.36904992"><ele></ele><time>2020-3-13T15:37:16Z</time></trkpt>
<trkpt lat="48.22604818" lon="-4.36904992"><ele></ele><time>2020-3-13T15:37:19Z</time></trkpt>
<trkpt lat="48.22604818" lon="-4.36904825"><ele></ele><time>2020-3-13T15:37:22Z</time></trkpt>
<trkpt lat="48.22604818" lon="-4.36904825"><ele></ele><time>2020-3-13T15:37:25Z</time></trkpt>
<trkpt lat="48.22604818" lon="-4.36904825"><ele></ele><time>2020-3-13T15:37:28Z</time></trkpt>
<trkpt lat="48.22604818" lon="-4.36904825"><ele></ele><time>2020-3-13T15:37:31Z</time></trkpt>
<trkpt lat="48.22604818" lon="-4.36904657"><ele></ele><time>2020-3-13T15:37:34Z</time></trkpt>
<trkpt lat="48.22604818" lon="-4.36904657"><ele></ele><time>2020-3-13T15:37:37Z</time></trkpt>
<trkpt lat="48.22604818" lon="-4.36904657"><ele></ele><time>2020-3-13T15:37:40Z</time></trkpt>
<trkpt lat="48.22604818" lon="-4.36904489"><ele></ele><time>2020-3-13T15:37:43Z</time></trkpt>
<trkpt lat="48.22604818" lon="-4.36904489"><ele></ele><time>2020-3-13T15:37:46Z</time></trkpt>
<trkpt lat="48.22604818" lon="-4.36904489"><ele></ele><time>2020-3-13T15:37:49Z</time></trkpt>
<trkpt lat="48.22604818" lon="-4.36904657"><ele></ele><time>2020-3-13T15:37:52Z</time></trkpt>
<trkpt lat="48.22604818" lon="-4.36904657"><ele></ele><time>2020-3-13T15:37:55Z</time></trkpt>
<trkpt lat="48.22604818" lon="-4.36904489"><ele></ele><time>2020-3-13T15:37:58Z</time></trkpt>
<trkpt lat="48.22604818" lon="-4.36904489"><ele></ele><time>2020-3-13T15:38:1Z</time></trkpt>
<trkpt lat="48.22604818" lon="-4.36904489"><ele></ele><time>2020-3-13T15:38:4Z</time></trkpt>
<trkpt lat="48.22604818" lon="-4.36904489"><ele></ele><time>2020-3-13T15:38:7Z</time></trkpt>
<trkpt lat="48.22604818" lon="-4.36904322"><ele></ele><time>2020-3-13T15:38:10Z</time></trkpt>
<trkpt lat="48.22604650" lon="-4.36904154"><ele></ele><time>2020-3-13T15:38:13Z</time></trkpt>
<trkpt lat="48.22604650" lon="-4.36903987"><ele></ele><time>2020-3-13T15:38:16Z</time></trkpt>
<trkpt lat="48.22604650" lon="-4.36903987"><ele></ele><time>2020-3-13T15:38:19Z</time></trkpt>
<trkpt lat="48.22604650" lon="-4.36903987"><ele></ele><time>2020-3-13T15:38:22Z</time></trkpt>
<trkpt lat="48.22604650" lon="-4.36903819"><ele></ele><time>2020-3-13T15:38:25Z</time></trkpt>
<trkpt lat="48.22604499" lon="-4.36903651"><ele></ele><time>2020-3-13T15:38:28Z</time></trkpt>
<trkpt lat="48.22604499" lon="-4.36903651"><ele></ele><time>2020-3-13T15:38:31Z</time></trkpt>
<trkpt lat="48.22604499" lon="-4.36903484"><ele></ele><time>2020-3-13T15:38:34Z</time></trkpt>
<trkpt lat="48.22604499" lon="-4.36903484"><ele></ele><time>2020-3-13T15:38:37Z</time></trkpt>
<trkpt lat="48.22604499" lon="-4.36903484"><ele></ele><time>2020-3-13T15:38:40Z</time></trkpt>
<trkpt lat="48.22604499" lon="-4.36903484"><ele></ele><time>2020-3-13T15:38:43Z</time></trkpt>
<trkpt lat="48.22604499" lon="-4.36903484"><ele></ele><time>2020-3-13T15:38:46Z</time></trkpt>
<trkpt lat="48.22604499" lon="-4.36903484"><ele></ele><time>2020-3-13T15:38:49Z</time></trkpt>
<trkpt lat="48.22604650" lon="-4.36903651"><ele></ele><time>2020-3-13T15:38:52Z</time></trkpt>
<trkpt lat="48.22604650" lon="-4.36903651"><ele></ele><time>2020-3-13T15:38:55Z</time></trkpt>
<trkpt lat="48.22604650" lon="-4.36903651"><ele></ele><time>2020-3-13T15:38:58Z</time></trkpt>
<trkpt lat="48.22604650" lon="-4.36903651"><ele></ele><time>2020-3-13T15:39:1Z</time></trkpt>
<trkpt lat="48.22604650" lon="-4.36903651"><ele></ele><time>2020-3-13T15:39:4Z</time></trkpt>
<trkpt lat="48.22604650" lon="-4.36903819"><ele></ele><time>2020-3-13T15:39:7Z</time></trkpt>
<trkpt lat="48.22604650" lon="-4.36903819"><ele></ele><time>2020-3-13T15:39:10Z</time></trkpt>
<trkpt lat="48.22604818" lon="-4.36903987"><ele></ele><time>2020-3-13T15:39:13Z</time></trkpt>
<trkpt lat="48.22604818" lon="-4.36903987"><ele></ele><time>2020-3-13T15:39:16Z</time></trkpt>
<trkpt lat="48.22604818" lon="-4.36903987"><ele></ele><time>2020-3-13T15:39:19Z</time></trkpt>
<trkpt lat="48.22604818" lon="-4.36903987"><ele></ele><time>2020-3-13T15:39:22Z</time></trkpt>
<trkpt lat="48.22604818" lon="-4.36903987"><ele></ele><time>2020-3-13T15:39:25Z</time></trkpt>
<trkpt lat="48.22604818" lon="-4.36903987"><ele></ele><time>2020-3-13T15:39:28Z</time></trkpt>
<trkpt lat="48.22604818" lon="-4.36904154"><ele></ele><time>2020-3-13T15:39:31Z</time></trkpt>
<trkpt lat="48.22604818" lon="-4.36904154"><ele></ele><time>2020-3-13T15:39:34Z</time></trkpt>
<trkpt lat="48.22604818" lon="-4.36904154"><ele></ele><time>2020-3-13T15:39:37Z</time></trkpt>
<trkpt lat="48.22604818" lon="-4.36904154"><ele></ele><time>2020-3-13T15:39:40Z</time></trkpt>
<trkpt lat="48.22604818" lon="-4.36904154"><ele></ele><time>2020-3-13T15:39:43Z</time></trkpt>
<trkpt lat="48.22604818" lon="-4.36904154"><ele></ele><time>2020-3-13T15:39:46Z</time></trkpt>
<trkpt lat="48.22604818" lon="-4.36904154"><ele></ele><time>2020-3-13T15:39:49Z</time></trkpt>
<trkpt lat="48.22604818" lon="-4.36904154"><ele></ele><time>2020-3-13T15:39:52Z</time></trkpt>
<trkpt lat="48.22604818" lon="-4.36903987"><ele></ele><time>2020-3-13T15:39:55Z</time></trkpt>
<trkpt lat="48.22604818" lon="-4.36904154"><ele></ele><time>2020-3-13T15:39:58Z</time></trkpt>
<trkpt lat="48.22604818" lon="-4.36904154"><ele></ele><time>2020-3-13T15:40:1Z</time></trkpt>
<trkpt lat="48.22604818" lon="-4.36904154"><ele></ele><time>2020-3-13T15:40:4Z</time></trkpt>
<trkpt lat="48.22604818" lon="-4.36904154"><ele></ele><time>2020-3-13T15:40:7Z</time></trkpt>
<trkpt lat="48.22604818" lon="-4.36904154"><ele></ele><time>2020-3-13T15:40:10Z</time></trkpt>
<trkpt lat="48.22604818" lon="-4.36903987"><ele></ele><time>2020-3-13T15:40:13Z</time></trkpt>
<trkpt lat="48.22604818" lon="-4.36903987"><ele></ele><time>2020-3-13T15:40:16Z</time></trkpt>
<trkpt lat="48.22604818" lon="-4.36903987"><ele></ele><time>2020-3-13T15:40:19Z</time></trkpt>
<trkpt lat="48.22604818" lon="-4.36903987"><ele></ele><time>2020-3-13T15:40:22Z</time></trkpt>
<trkpt lat="48.22604818" lon="-4.36903819"><ele></ele><time>2020-3-13T15:40:25Z</time></trkpt>
<trkpt lat="48.22604650" lon="-4.36903651"><ele></ele><time>2020-3-13T15:40:28Z</time></trkpt>
<trkpt lat="48.22604818" lon="-4.36904154"><ele></ele><time>2020-3-13T15:40:31Z</time></trkpt>
<trkpt lat="48.22604818" lon="-4.36903987"><ele></ele><time>2020-3-13T15:40:34Z</time></trkpt>
<trkpt lat="48.22604650" lon="-4.36903819"><ele></ele><time>2020-3-13T15:40:37Z</time></trkpt>
<trkpt lat="48.22604332" lon="-4.36903819"><ele></ele><time>2020-3-13T15:40:40Z</time></trkpt>
<trkpt lat="48.22604332" lon="-4.36904154"><ele></ele><time>2020-3-13T15:40:43Z</time></trkpt>
<trkpt lat="48.22604164" lon="-4.36904489"><ele></ele><time>2020-3-13T15:40:46Z</time></trkpt>
<trkpt lat="48.22604164" lon="-4.36904825"><ele></ele><time>2020-3-13T15:40:49Z</time></trkpt>
<trkpt lat="48.22604164" lon="-4.36904825"><ele></ele><time>2020-3-13T15:40:52Z</time></trkpt>
<trkpt lat="48.22604164" lon="-4.36904992"><ele></ele><time>2020-3-13T15:40:55Z</time></trkpt>
<trkpt lat="48.22604164" lon="-4.36905328"><ele></ele><time>2020-3-13T15:40:58Z</time></trkpt>
<trkpt lat="48.22603829" lon="-4.36905160"><ele></ele><time>2020-3-13T15:41:1Z</time></trkpt>
<trkpt lat="48.22603829" lon="-4.36904992"><ele></ele><time>2020-3-13T15:41:4Z</time></trkpt>
<trkpt lat="48.22603661" lon="-4.36904825"><ele></ele><time>2020-3-13T15:41:7Z</time></trkpt>
<trkpt lat="48.22603661" lon="-4.36904657"><ele></ele><time>2020-3-13T15:41:10Z</time></trkpt>
<trkpt lat="48.22603493" lon="-4.36904825"><ele></ele><time>2020-3-13T15:41:13Z</time></trkpt>
<trkpt lat="48.22603326" lon="-4.36904992"><ele></ele><time>2020-3-13T15:41:16Z</time></trkpt>
<trkpt lat="48.22603326" lon="-4.36905160"><ele></ele><time>2020-3-13T15:41:19Z</time></trkpt>
<trkpt lat="48.22603326" lon="-4.36905328"><ele></ele><time>2020-3-13T15:41:22Z</time></trkpt>
<trkpt lat="48.22603493" lon="-4.36905160"><ele></ele><time>2020-3-13T15:41:25Z</time></trkpt>
<trkpt lat="48.22603661" lon="-4.36904992"><ele></ele><time>2020-3-13T15:41:28Z</time></trkpt>
<trkpt lat="48.22603493" lon="-4.36904657"><ele></ele><time>2020-3-13T15:41:31Z</time></trkpt>
<trkpt lat="48.22603493" lon="-4.36904992"><ele></ele><time>2020-3-13T15:41:34Z</time></trkpt>
<trkpt lat="48.22603326" lon="-4.36905160"><ele></ele><time>2020-3-13T15:41:37Z</time></trkpt>
<trkpt lat="48.22603158" lon="-4.36904992"><ele></ele><time>2020-3-13T15:41:40Z</time></trkpt>
<trkpt lat="48.22603158" lon="-4.36904992"><ele></ele><time>2020-3-13T15:41:43Z</time></trkpt>
<trkpt lat="48.22602991" lon="-4.36904992"><ele></ele><time>2020-3-13T15:41:46Z</time></trkpt>
<trkpt lat="48.22602991" lon="-4.36905160"><ele></ele><time>2020-3-13T15:41:49Z</time></trkpt>
<trkpt lat="48.22602991" lon="-4.36905160"><ele></ele><time>2020-3-13T15:41:52Z</time></trkpt>
<trkpt lat="48.22602991" lon="-4.36905160"><ele></ele><time>2020-3-13T15:41:55Z</time></trkpt>
<trkpt lat="48.22602823" lon="-4.36905160"><ele></ele><time>2020-3-13T15:41:58Z</time></trkpt>
<trkpt lat="48.22602823" lon="-4.36905160"><ele></ele><time>2020-3-13T15:42:1Z</time></trkpt>
<trkpt lat="48.22602655" lon="-4.36904992"><ele></ele><time>2020-3-13T15:42:4Z</time></trkpt>
<trkpt lat="48.22602488" lon="-4.36904992"><ele></ele><time>2020-3-13T15:42:7Z</time></trkpt>
<trkpt lat="48.22602488" lon="-4.36905160"><ele></ele><time>2020-3-13T15:42:10Z</time></trkpt>
<trkpt lat="48.22602488" lon="-4.36905160"><ele></ele><time>2020-3-13T15:42:13Z</time></trkpt>
<trkpt lat="48.22602488" lon="-4.36905328"><ele></ele><time>2020-3-13T15:42:16Z</time></trkpt>
<trkpt lat="48.22602488" lon="-4.36905328"><ele></ele><time>2020-3-13T15:42:19Z</time></trkpt>
<trkpt lat="48.22602655" lon="-4.36905495"><ele></ele><time>2020-3-13T15:42:22Z</time></trkpt>
<trkpt lat="48.22602655" lon="-4.36905495"><ele></ele><time>2020-3-13T15:42:25Z</time></trkpt>
<trkpt lat="48.22602655" lon="-4.36905495"><ele></ele><time>2020-3-13T15:42:28Z</time></trkpt>
<trkpt lat="48.22602655" lon="-4.36905495"><ele></ele><time>2020-3-13T15:42:31Z</time></trkpt>
<trkpt lat="48.22602823" lon="-4.36905328"><ele></ele><time>2020-3-13T15:42:34Z</time></trkpt>
<trkpt lat="48.22602655" lon="-4.36905328"><ele></ele><time>2020-3-13T15:42:37Z</time></trkpt>
<trkpt lat="48.22602655" lon="-4.36905160"><ele></ele><time>2020-3-13T15:42:40Z</time></trkpt>
<trkpt lat="48.22602655" lon="-4.36905328"><ele></ele><time>2020-3-13T15:42:43Z</time></trkpt>
<trkpt lat="48.22601985" lon="-4.36904489"><ele></ele><time>2020-3-13T15:42:46Z</time></trkpt>
<trkpt lat="48.22600828" lon="-4.36903333"><ele></ele><time>2020-3-13T15:42:49Z</time></trkpt>
<trkpt lat="48.22598330" lon="-4.36900986"><ele></ele><time>2020-3-13T15:42:52Z</time></trkpt>
<trkpt lat="48.22596989" lon="-4.36899326"><ele></ele><time>2020-3-13T15:42:55Z</time></trkpt>
<trkpt lat="48.22596151" lon="-4.36897817"><ele></ele><time>2020-3-13T15:42:58Z</time></trkpt>
<trkpt lat="48.22595329" lon="-4.36896326"><ele></ele><time>2020-3-13T15:43:1Z</time></trkpt>
<trkpt lat="48.22595329" lon="-4.36895990"><ele></ele><time>2020-3-13T15:43:4Z</time></trkpt>
<trkpt lat="48.22595329" lon="-4.36895823"><ele></ele><time>2020-3-13T15:43:7Z</time></trkpt>
<trkpt lat="48.22595329" lon="-4.36895823"><ele></ele><time>2020-3-13T15:43:10Z</time></trkpt>
<trkpt lat="48.22595497" lon="-4.36895655"><ele></ele><time>2020-3-13T15:43:13Z</time></trkpt>
<trkpt lat="48.22595665" lon="-4.36895320"><ele></ele><time>2020-3-13T15:43:16Z</time></trkpt>
<trkpt lat="48.22595665" lon="-4.36894331"><ele></ele><time>2020-3-13T15:43:19Z</time></trkpt>
<trkpt lat="48.22594827" lon="-4.36891665"><ele></ele><time>2020-3-13T15:43:22Z</time></trkpt>
<trkpt lat="48.22594156" lon="-4.36890324"><ele></ele><time>2020-3-13T15:43:25Z</time></trkpt>
<trkpt lat="48.22593150" lon="-4.36888497"><ele></ele><time>2020-3-13T15:43:28Z</time></trkpt>
<trkpt lat="48.22592329" lon="-4.36885999"><ele></ele><time>2020-3-13T15:43:31Z</time></trkpt>
<trkpt lat="48.22591826" lon="-4.36883166"><ele></ele><time>2020-3-13T15:43:34Z</time></trkpt>
<trkpt lat="48.22592329" lon="-4.36880484"><ele></ele><time>2020-3-13T15:43:37Z</time></trkpt>
<trkpt lat="48.22593318" lon="-4.36878154"><ele></ele><time>2020-3-13T15:43:40Z</time></trkpt>
<trkpt lat="48.22594659" lon="-4.36876159"><ele></ele><time>2020-3-13T15:43:43Z</time></trkpt>
<trkpt lat="48.22596151" lon="-4.36874499"><ele></ele><time>2020-3-13T15:43:46Z</time></trkpt>
<trkpt lat="48.22597492" lon="-4.36873661"><ele></ele><time>2020-3-13T15:43:49Z</time></trkpt>
<trkpt lat="48.22598498" lon="-4.36872823"><ele></ele><time>2020-3-13T15:43:52Z</time></trkpt>
<trkpt lat="48.22601499" lon="-4.36869822"><ele></ele><time>2020-3-13T15:43:55Z</time></trkpt>
<trkpt lat="48.22617826" lon="-4.36854332"><ele></ele><time>2020-3-13T15:43:58Z</time></trkpt>
<trkpt lat="48.22624498" lon="-4.36848498"><ele></ele><time>2020-3-13T15:44:1Z</time></trkpt>
<trkpt lat="48.22626829" lon="-4.36846654"><ele></ele><time>2020-3-13T15:44:4Z</time></trkpt>
<trkpt lat="48.22628991" lon="-4.36844827"><ele></ele><time>2020-3-13T15:44:7Z</time></trkpt>
<trkpt lat="48.22631489" lon="-4.36843486"><ele></ele><time>2020-3-13T15:44:10Z</time></trkpt>
<trkpt lat="48.22633652" lon="-4.36841659"><ele></ele><time>2020-3-13T15:44:13Z</time></trkpt>
<trkpt lat="48.22666324" lon="-4.36815993"><ele></ele><time>2020-3-13T15:44:16Z</time></trkpt>
<trkpt lat="48.22668487" lon="-4.36815323"><ele></ele><time>2020-3-13T15:44:19Z</time></trkpt>
<trkpt lat="48.22670666" lon="-4.36814988"><ele></ele><time>2020-3-13T15:44:22Z</time></trkpt>
<trkpt lat="48.22672996" lon="-4.36815490"><ele></ele><time>2020-3-13T15:44:25Z</time></trkpt>
<trkpt lat="48.22675326" lon="-4.36816329"><ele></ele><time>2020-3-13T15:44:28Z</time></trkpt>
<trkpt lat="48.22677321" lon="-4.36817653"><ele></ele><time>2020-3-13T15:44:31Z</time></trkpt>
<trkpt lat="48.22679484" lon="-4.36819162"><ele></ele><time>2020-3-13T15:44:34Z</time></trkpt>
<trkpt lat="48.22681495" lon="-4.36821157"><ele></ele><time>2020-3-13T15:44:37Z</time></trkpt>
<trkpt lat="48.22683323" lon="-4.36823487"><ele></ele><time>2020-3-13T15:44:40Z</time></trkpt>
<trkpt lat="48.22684831" lon="-4.36825985"><ele></ele><time>2020-3-13T15:44:43Z</time></trkpt>
<trkpt lat="48.22692157" lon="-4.36838993"><ele></ele><time>2020-3-13T15:44:46Z</time></trkpt>
<trkpt lat="48.22693498" lon="-4.36841659"><ele></ele><time>2020-3-13T15:44:49Z</time></trkpt>
<trkpt lat="48.22697320" lon="-4.36849152"><ele></ele><time>2020-3-13T15:44:52Z</time></trkpt>
<trkpt lat="48.22698326" lon="-4.36852153"><ele></ele><time>2020-3-13T15:44:55Z</time></trkpt>
<trkpt lat="48.22699651" lon="-4.36854818"><ele></ele><time>2020-3-13T15:44:58Z</time></trkpt>
<trkpt lat="48.22702651" lon="-4.36859831"><ele></ele><time>2020-3-13T15:45:1Z</time></trkpt>
<trkpt lat="48.22704495" lon="-4.36861155"><ele></ele><time>2020-3-13T15:45:4Z</time></trkpt>
<trkpt lat="48.22706490" lon="-4.36861323"><ele></ele><time>2020-3-13T15:45:7Z</time></trkpt>
<trkpt lat="48.22708485" lon="-4.36860485"><ele></ele><time>2020-3-13T15:45:10Z</time></trkpt>
<trkpt lat="48.22710329" lon="-4.36859160"><ele></ele><time>2020-3-13T15:45:13Z</time></trkpt>
<trkpt lat="48.22715828" lon="-4.36854332"><ele></ele><time>2020-3-13T15:45:16Z</time></trkpt>
<trkpt lat="48.22721326" lon="-4.36848498"><ele></ele><time>2020-3-13T15:45:19Z</time></trkpt>
<trkpt lat="48.22731820" lon="-4.36837987"><ele></ele><time>2020-3-13T15:45:22Z</time></trkpt>
<trkpt lat="48.22733497" lon="-4.36836998"><ele></ele><time>2020-3-13T15:45:25Z</time></trkpt>
<trkpt lat="48.22737151" lon="-4.36835322"><ele></ele><time>2020-3-13T15:45:28Z</time></trkpt>
<trkpt lat="48.22741493" lon="-4.36833495"><ele></ele><time>2020-3-13T15:45:31Z</time></trkpt>
<trkpt lat="48.22743991" lon="-4.36831818"><ele></ele><time>2020-3-13T15:45:34Z</time></trkpt>
<trkpt lat="48.22746321" lon="-4.36830159"><ele></ele><time>2020-3-13T15:45:37Z</time></trkpt>
<trkpt lat="48.22771165" lon="-4.36809321"><ele></ele><time>2020-3-13T15:45:40Z</time></trkpt>
<trkpt lat="48.22783151" lon="-4.36798995"><ele></ele><time>2020-3-13T15:45:43Z</time></trkpt>
<trkpt lat="48.22785666" lon="-4.36796497"><ele></ele><time>2020-3-13T15:45:46Z</time></trkpt>
<trkpt lat="48.22803150" lon="-4.36778493"><ele></ele><time>2020-3-13T15:45:49Z</time></trkpt>
<trkpt lat="48.22805162" lon="-4.36774654"><ele></ele><time>2020-3-13T15:45:52Z</time></trkpt>
<trkpt lat="48.22807492" lon="-4.36770496"><ele></ele><time>2020-3-13T15:45:55Z</time></trkpt>
<trkpt lat="48.22829319" lon="-4.36728989"><ele></ele><time>2020-3-13T15:45:58Z</time></trkpt>
<trkpt lat="48.22831498" lon="-4.36724161"><ele></ele><time>2020-3-13T15:46:1Z</time></trkpt>
<trkpt lat="48.22902325" lon="-4.36560831"><ele></ele><time>2020-3-13T15:46:4Z</time></trkpt>
<trkpt lat="48.22904488" lon="-4.36557160"><ele></ele><time>2020-3-13T15:46:7Z</time></trkpt>
<trkpt lat="48.22937663" lon="-4.36497330"><ele></ele><time>2020-3-13T15:46:10Z</time></trkpt>
<trkpt lat="48.22939826" lon="-4.36492150"><ele></ele><time>2020-3-13T15:46:13Z</time></trkpt>
<trkpt lat="48.22964485" lon="-4.36420485"><ele></ele><time>2020-3-13T15:46:16Z</time></trkpt>
<trkpt lat="48.22965994" lon="-4.36414986"><ele></ele><time>2020-3-13T15:46:19Z</time></trkpt>
<trkpt lat="48.23014659" lon="-4.36237324"><ele></ele><time>2020-3-13T15:46:22Z</time></trkpt>
<trkpt lat="48.23018666" lon="-4.36198499"><ele></ele><time>2020-3-13T15:46:25Z</time></trkpt>
<trkpt lat="48.23026830" lon="-4.36077330"><ele></ele><time>2020-3-13T15:46:28Z</time></trkpt>
<trkpt lat="48.23028489" lon="-4.36069317"><ele></ele><time>2020-3-13T15:46:31Z</time></trkpt>
<trkpt lat="48.23045656" lon="-4.35998825"><ele></ele><time>2020-3-13T15:46:34Z</time></trkpt>
<trkpt lat="48.23048321" lon="-4.35991499"><ele></ele><time>2020-3-13T15:46:37Z</time></trkpt>
<trkpt lat="48.23109157" lon="-4.35824330"><ele></ele><time>2020-3-13T15:46:40Z</time></trkpt>
<trkpt lat="48.23111152" lon="-4.35816988"><ele></ele><time>2020-3-13T15:46:43Z</time></trkpt>
<trkpt lat="48.23112661" lon="-4.35809662"><ele></ele><time>2020-3-13T15:46:46Z</time></trkpt>
<trkpt lat="48.23130162" lon="-4.35695316"><ele></ele><time>2020-3-13T15:46:49Z</time></trkpt>
<trkpt lat="48.23130983" lon="-4.35681151"><ele></ele><time>2020-3-13T15:46:52Z</time></trkpt>
<trkpt lat="48.23132995" lon="-4.35538826"><ele></ele><time>2020-3-13T15:46:55Z</time></trkpt>
<trkpt lat="48.23135158" lon="-4.35536663"><ele></ele><time>2020-3-13T15:46:58Z</time></trkpt>
<trkpt lat="48.23138326" lon="-4.35537317"><ele></ele><time>2020-3-13T15:47:1Z</time></trkpt>
<trkpt lat="48.23141997" lon="-4.35539329"><ele></ele><time>2020-3-13T15:47:4Z</time></trkpt>
<trkpt lat="48.23146155" lon="-4.35541156"><ele></ele><time>2020-3-13T15:47:7Z</time></trkpt>
<trkpt lat="48.23150496" lon="-4.35541827"><ele></ele><time>2020-3-13T15:47:10Z</time></trkpt>
<trkpt lat="48.23191987" lon="-4.35544827"><ele></ele><time>2020-3-13T15:47:13Z</time></trkpt>
<trkpt lat="48.23196832" lon="-4.35544827"><ele></ele><time>2020-3-13T15:47:16Z</time></trkpt>
<trkpt lat="48.23215825" lon="-4.35543151"><ele></ele><time>2020-3-13T15:47:19Z</time></trkpt>
<trkpt lat="48.23220485" lon="-4.35541156"><ele></ele><time>2020-3-13T15:47:22Z</time></trkpt>
<trkpt lat="48.23229823" lon="-4.35535322"><ele></ele><time>2020-3-13T15:47:25Z</time></trkpt>
<trkpt lat="48.23451993" lon="-4.35371825"><ele></ele><time>2020-3-13T15:47:28Z</time></trkpt>
<trkpt lat="48.23458330" lon="-4.35365321"><ele></ele><time>2020-3-13T15:47:31Z</time></trkpt>
<trkpt lat="48.23474491" lon="-4.35346495"><ele></ele><time>2020-3-13T15:47:34Z</time></trkpt>
<trkpt lat="48.23478832" lon="-4.35340661"><ele></ele><time>2020-3-13T15:47:37Z</time></trkpt>
<trkpt lat="48.23484985" lon="-4.35328658"><ele></ele><time>2020-3-13T15:47:40Z</time></trkpt>
<trkpt lat="48.23486493" lon="-4.35322992"><ele></ele><time>2020-3-13T15:47:43Z</time></trkpt>
<trkpt lat="48.23487985" lon="-4.35313487"><ele></ele><time>2020-3-13T15:47:46Z</time></trkpt>
<trkpt lat="48.23489829" lon="-4.35309832"><ele></ele><time>2020-3-13T15:47:49Z</time></trkpt>
<trkpt lat="48.23492830" lon="-4.35306832"><ele></ele><time>2020-3-13T15:47:52Z</time></trkpt>
<trkpt lat="48.23509661" lon="-4.35287989"><ele></ele><time>2020-3-13T15:47:55Z</time></trkpt>
<trkpt lat="48.23519317" lon="-4.35273153"><ele></ele><time>2020-3-13T15:47:58Z</time></trkpt>
<trkpt lat="48.23614317" lon="-4.35105817"><ele></ele><time>2020-3-13T15:48:1Z</time></trkpt>
<trkpt lat="48.23616664" lon="-4.35098156"><ele></ele><time>2020-3-13T15:48:4Z</time></trkpt>
<trkpt lat="48.23617486" lon="-4.35089824"><ele></ele><time>2020-3-13T15:48:7Z</time></trkpt>
<trkpt lat="48.23616983" lon="-4.35081660"><ele></ele><time>2020-3-13T15:48:10Z</time></trkpt>
<trkpt lat="48.23614653" lon="-4.35073161"><ele></ele><time>2020-3-13T15:48:13Z</time></trkpt>
<trkpt lat="48.23536986" lon="-4.34824319"><ele></ele><time>2020-3-13T15:48:16Z</time></trkpt>
<trkpt lat="48.23533818" lon="-4.34816993"><ele></ele><time>2020-3-13T15:48:19Z</time></trkpt>
<trkpt lat="48.23481163" lon="-4.34692321"><ele></ele><time>2020-3-13T15:48:22Z</time></trkpt>
<trkpt lat="48.23458498" lon="-4.34633329"><ele></ele><time>2020-3-13T15:48:25Z</time></trkpt>
<trkpt lat="48.23458498" lon="-4.34627830"><ele></ele><time>2020-3-13T15:48:28Z</time></trkpt>
<trkpt lat="48.23457324" lon="-4.34620991"><ele></ele><time>2020-3-13T15:48:31Z</time></trkpt>
<trkpt lat="48.23451155" lon="-4.34582652"><ele></ele><time>2020-3-13T15:48:34Z</time></trkpt>
<trkpt lat="48.23450485" lon="-4.34576164"><ele></ele><time>2020-3-13T15:48:37Z</time></trkpt>
<trkpt lat="48.23449160" lon="-4.34556165"><ele></ele><time>2020-3-13T15:48:40Z</time></trkpt>
<trkpt lat="48.23449160" lon="-4.34549493"><ele></ele><time>2020-3-13T15:48:43Z</time></trkpt>
<trkpt lat="48.23449328" lon="-4.34489496"><ele></ele><time>2020-3-13T15:48:46Z</time></trkpt>
<trkpt lat="48.23451826" lon="-4.34462321"><ele></ele><time>2020-3-13T15:48:49Z</time></trkpt>
<trkpt lat="48.23454324" lon="-4.34424988"><ele></ele><time>2020-3-13T15:48:52Z</time></trkpt>
<trkpt lat="48.23454491" lon="-4.34420328"><ele></ele><time>2020-3-13T15:48:55Z</time></trkpt>
<trkpt lat="48.23454659" lon="-4.34366332"><ele></ele><time>2020-3-13T15:48:58Z</time></trkpt>
<trkpt lat="48.23457324" lon="-4.34312654"><ele></ele><time>2020-3-13T15:49:1Z</time></trkpt>
<trkpt lat="48.23457995" lon="-4.34287995"><ele></ele><time>2020-3-13T15:49:4Z</time></trkpt>
<trkpt lat="48.23457157" lon="-4.34281993"><ele></ele><time>2020-3-13T15:49:7Z</time></trkpt>
<trkpt lat="48.23358150" lon="-4.33687498"><ele></ele><time>2020-3-13T15:49:10Z</time></trkpt>
<trkpt lat="48.23358988" lon="-4.33681664"><ele></ele><time>2020-3-13T15:49:13Z</time></trkpt>
<trkpt lat="48.23360832" lon="-4.33676166"><ele></ele><time>2020-3-13T15:49:16Z</time></trkpt>
<trkpt lat="48.23365995" lon="-4.33665152"><ele></ele><time>2020-3-13T15:49:19Z</time></trkpt>
<trkpt lat="48.23388827" lon="-4.33618985"><ele></ele><time>2020-3-13T15:49:22Z</time></trkpt>
<trkpt lat="48.23388492" lon="-4.33611491"><ele></ele><time>2020-3-13T15:49:25Z</time></trkpt>
<trkpt lat="48.23387151" lon="-4.33604484"><ele></ele><time>2020-3-13T15:49:28Z</time></trkpt>
<trkpt lat="48.23381988" lon="-4.33578986"><ele></ele><time>2020-3-13T15:49:31Z</time></trkpt>
<trkpt lat="48.23381485" lon="-4.33573152"><ele></ele><time>2020-3-13T15:49:34Z</time></trkpt>
<trkpt lat="48.23380496" lon="-4.33553321"><ele></ele><time>2020-3-13T15:49:37Z</time></trkpt>
<trkpt lat="48.23380496" lon="-4.33546816"><ele></ele><time>2020-3-13T15:49:40Z</time></trkpt>
<trkpt lat="48.23383161" lon="-4.33487657"><ele></ele><time>2020-3-13T15:49:43Z</time></trkpt>
<trkpt lat="48.23384821" lon="-4.33474665"><ele></ele><time>2020-3-13T15:49:46Z</time></trkpt>
<trkpt lat="48.23386665" lon="-4.33467993"><ele></ele><time>2020-3-13T15:49:49Z</time></trkpt>
<trkpt lat="48.23388492" lon="-4.33461153"><ele></ele><time>2020-3-13T15:49:52Z</time></trkpt>
<trkpt lat="48.23391325" lon="-4.33455152"><ele></ele><time>2020-3-13T15:49:55Z</time></trkpt>
<trkpt lat="48.23410151" lon="-4.33424994"><ele></ele><time>2020-3-13T15:49:58Z</time></trkpt>
<trkpt lat="48.23453318" lon="-4.33355323"><ele></ele><time>2020-3-13T15:50:1Z</time></trkpt>
<trkpt lat="48.23460996" lon="-4.33341326"><ele></ele><time>2020-3-13T15:50:4Z</time></trkpt>
<trkpt lat="48.23465991" lon="-4.33337319"><ele></ele><time>2020-3-13T15:50:7Z</time></trkpt>
<trkpt lat="48.23471825" lon="-4.33335324"><ele></ele><time>2020-3-13T15:50:10Z</time></trkpt>
<trkpt lat="48.23477659" lon="-4.33334989"><ele></ele><time>2020-3-13T15:50:13Z</time></trkpt>
<trkpt lat="48.23483828" lon="-4.33335157"><ele></ele><time>2020-3-13T15:50:16Z</time></trkpt>
<trkpt lat="48.23489829" lon="-4.33335157"><ele></ele><time>2020-3-13T15:50:19Z</time></trkpt>
<trkpt lat="48.23501329" lon="-4.33332994"><ele></ele><time>2020-3-13T15:50:22Z</time></trkpt>
<trkpt lat="48.23506660" lon="-4.33329658"><ele></ele><time>2020-3-13T15:50:25Z</time></trkpt>
<trkpt lat="48.23511153" lon="-4.33324327"><ele></ele><time>2020-3-13T15:50:28Z</time></trkpt>
<trkpt lat="48.23514824" lon="-4.33317488"><ele></ele><time>2020-3-13T15:50:31Z</time></trkpt>
<trkpt lat="48.23517657" lon="-4.33309659"><ele></ele><time>2020-3-13T15:50:34Z</time></trkpt>
<trkpt lat="48.23533650" lon="-4.33270985"><ele></ele><time>2020-3-13T15:50:37Z</time></trkpt>
<trkpt lat="48.23537657" lon="-4.33263827"><ele></ele><time>2020-3-13T15:50:40Z</time></trkpt>
<trkpt lat="48.23616664" lon="-4.33128157"><ele></ele><time>2020-3-13T15:50:43Z</time></trkpt>
<trkpt lat="48.23622331" lon="-4.33121485"><ele></ele><time>2020-3-13T15:50:46Z</time></trkpt>
<trkpt lat="48.23642162" lon="-4.33100664"><ele></ele><time>2020-3-13T15:50:49Z</time></trkpt>
<trkpt lat="48.23646152" lon="-4.33097831"><ele></ele><time>2020-3-13T15:50:52Z</time></trkpt>
<trkpt lat="48.23651483" lon="-4.33096323"><ele></ele><time>2020-3-13T15:50:55Z</time></trkpt>
<trkpt lat="48.23690660" lon="-4.33086985"><ele></ele><time>2020-3-13T15:50:58Z</time></trkpt>
<trkpt lat="48.23694650" lon="-4.33078486"><ele></ele><time>2020-3-13T15:51:1Z</time></trkpt>
<trkpt lat="48.23712151" lon="-4.33028999"><ele></ele><time>2020-3-13T15:51:4Z</time></trkpt>
<trkpt lat="48.23713995" lon="-4.33020483"><ele></ele><time>2020-3-13T15:51:7Z</time></trkpt>
<trkpt lat="48.23714816" lon="-4.33011816"><ele></ele><time>2020-3-13T15:51:10Z</time></trkpt>
<trkpt lat="48.23722494" lon="-4.32943822"><ele></ele><time>2020-3-13T15:51:13Z</time></trkpt>
<trkpt lat="48.23724489" lon="-4.32938156"><ele></ele><time>2020-3-13T15:51:16Z</time></trkpt>
<trkpt lat="48.23729485" lon="-4.32927159"><ele></ele><time>2020-3-13T15:51:19Z</time></trkpt>
<trkpt lat="48.23733156" lon="-4.32924829"><ele></ele><time>2020-3-13T15:51:22Z</time></trkpt>
<trkpt lat="48.23738822" lon="-4.32925332"><ele></ele><time>2020-3-13T15:51:25Z</time></trkpt>
<trkpt lat="48.23787320" lon="-4.32907663"><ele></ele><time>2020-3-13T15:51:28Z</time></trkpt>
<trkpt lat="48.23793489" lon="-4.32904494"><ele></ele><time>2020-3-13T15:51:31Z</time></trkpt>
<trkpt lat="48.23795316" lon="-4.32902332"><ele></ele><time>2020-3-13T15:51:34Z</time></trkpt>
<trkpt lat="48.23796154" lon="-4.32899985"><ele></ele><time>2020-3-13T15:51:37Z</time></trkpt>
<trkpt lat="48.23796657" lon="-4.32897320"><ele></ele><time>2020-3-13T15:51:40Z</time></trkpt>
<trkpt lat="48.23796490" lon="-4.32895325"><ele></ele><time>2020-3-13T15:51:43Z</time></trkpt>
<trkpt lat="48.23796993" lon="-4.32893665"><ele></ele><time>2020-3-13T15:51:46Z</time></trkpt>
<trkpt lat="48.23796993" lon="-4.32892659"><ele></ele><time>2020-3-13T15:51:49Z</time></trkpt>
<trkpt lat="48.23797160" lon="-4.32892492"><ele></ele><time>2020-3-13T15:51:52Z</time></trkpt>
<trkpt lat="48.23797160" lon="-4.32892156"><ele></ele><time>2020-3-13T15:51:55Z</time></trkpt>
<trkpt lat="48.23797831" lon="-4.32892827"><ele></ele><time>2020-3-13T15:51:58Z</time></trkpt>
<trkpt lat="48.23797998" lon="-4.32892827"><ele></ele><time>2020-3-13T15:52:1Z</time></trkpt>
<trkpt lat="48.23798166" lon="-4.32892659"><ele></ele><time>2020-3-13T15:52:4Z</time></trkpt>
<trkpt lat="48.23798485" lon="-4.32892827"><ele></ele><time>2020-3-13T15:52:7Z</time></trkpt>
<trkpt lat="48.23798485" lon="-4.32892324"><ele></ele><time>2020-3-13T15:52:10Z</time></trkpt>
<trkpt lat="48.23798485" lon="-4.32892156"><ele></ele><time>2020-3-13T15:52:13Z</time></trkpt>
<trkpt lat="48.23798485" lon="-4.32891821"><ele></ele><time>2020-3-13T15:52:16Z</time></trkpt>
<trkpt lat="48.23798820" lon="-4.32891821"><ele></ele><time>2020-3-13T15:52:19Z</time></trkpt>
<trkpt lat="48.23798820" lon="-4.32891821"><ele></ele><time>2020-3-13T15:52:22Z</time></trkpt>
<trkpt lat="48.23798988" lon="-4.32891486"><ele></ele><time>2020-3-13T15:52:25Z</time></trkpt>
<trkpt lat="48.23799155" lon="-4.32891486"><ele></ele><time>2020-3-13T15:52:28Z</time></trkpt>
<trkpt lat="48.23799155" lon="-4.32890983"><ele></ele><time>2020-3-13T15:52:31Z</time></trkpt>
<trkpt lat="48.23799323" lon="-4.32890664"><ele></ele><time>2020-3-13T15:52:34Z</time></trkpt>
<trkpt lat="48.23799658" lon="-4.32890983"><ele></ele><time>2020-3-13T15:52:37Z</time></trkpt>
<trkpt lat="48.23799993" lon="-4.32890832"><ele></ele><time>2020-3-13T15:52:40Z</time></trkpt>
<trkpt lat="48.23799658" lon="-4.32890832"><ele></ele><time>2020-3-13T15:52:43Z</time></trkpt>
<trkpt lat="48.23799490" lon="-4.32890329"><ele></ele><time>2020-3-13T15:52:46Z</time></trkpt>
<trkpt lat="48.23798988" lon="-4.32889826"><ele></ele><time>2020-3-13T15:52:49Z</time></trkpt>
<trkpt lat="48.23798652" lon="-4.32889658"><ele></ele><time>2020-3-13T15:52:52Z</time></trkpt>
<trkpt lat="48.23798317" lon="-4.32888988"><ele></ele><time>2020-3-13T15:52:55Z</time></trkpt>
<trkpt lat="48.23797831" lon="-4.32888317"><ele></ele><time>2020-3-13T15:52:58Z</time></trkpt>
<trkpt lat="48.23797663" lon="-4.32887496"><ele></ele><time>2020-3-13T15:53:1Z</time></trkpt>
<trkpt lat="48.23797496" lon="-4.32886658"><ele></ele><time>2020-3-13T15:53:4Z</time></trkpt>
<trkpt lat="48.23796825" lon="-4.32885820"><ele></ele><time>2020-3-13T15:53:7Z</time></trkpt>
<trkpt lat="48.23795819" lon="-4.32884160"><ele></ele><time>2020-3-13T15:53:10Z</time></trkpt>
<trkpt lat="48.23795819" lon="-4.32883992"><ele></ele><time>2020-3-13T15:53:13Z</time></trkpt>
<trkpt lat="48.23795652" lon="-4.32883657"><ele></ele><time>2020-3-13T15:53:16Z</time></trkpt>
<trkpt lat="48.23795316" lon="-4.32883154"><ele></ele><time>2020-3-13T15:53:19Z</time></trkpt>
<trkpt lat="48.23795316" lon="-4.32882819"><ele></ele><time>2020-3-13T15:53:22Z</time></trkpt>
<trkpt lat="48.23795484" lon="-4.32882819"><ele></ele><time>2020-3-13T15:53:25Z</time></trkpt>
<trkpt lat="48.23796657" lon="-4.32884328"><ele></ele><time>2020-3-13T15:53:28Z</time></trkpt>
<trkpt lat="48.23797831" lon="-4.32885987"><ele></ele><time>2020-3-13T15:53:31Z</time></trkpt>
<trkpt lat="48.23798317" lon="-4.32886825"><ele></ele><time>2020-3-13T15:53:34Z</time></trkpt>
<trkpt lat="48.23798820" lon="-4.32887664"><ele></ele><time>2020-3-13T15:53:37Z</time></trkpt>
<trkpt lat="48.23799155" lon="-4.32888317"><ele></ele><time>2020-3-13T15:53:40Z</time></trkpt>
<trkpt lat="48.23799490" lon="-4.32888988"><ele></ele><time>2020-3-13T15:53:43Z</time></trkpt>
<trkpt lat="48.23799826" lon="-4.32889491"><ele></ele><time>2020-3-13T15:53:46Z</time></trkpt>
<trkpt lat="48.23799993" lon="-4.32890161"><ele></ele><time>2020-3-13T15:53:49Z</time></trkpt>
<trkpt lat="48.23800329" lon="-4.32890664"><ele></ele><time>2020-3-13T15:53:52Z</time></trkpt>
<trkpt lat="48.23800496" lon="-4.32891150"><ele></ele><time>2020-3-13T15:53:55Z</time></trkpt>
<trkpt lat="48.23800496" lon="-4.32891653"><ele></ele><time>2020-3-13T15:53:58Z</time></trkpt>
<trkpt lat="48.23800664" lon="-4.32891989"><ele></ele><time>2020-3-13T15:54:1Z</time></trkpt>
<trkpt lat="48.23800664" lon="-4.32892156"><ele></ele><time>2020-3-13T15:54:4Z</time></trkpt>
<trkpt lat="48.23800832" lon="-4.32892492"><ele></ele><time>2020-3-13T15:54:7Z</time></trkpt>
<trkpt lat="48.23800832" lon="-4.32892827"><ele></ele><time>2020-3-13T15:54:10Z</time></trkpt>
<trkpt lat="48.23800832" lon="-4.32892994"><ele></ele><time>2020-3-13T15:54:13Z</time></trkpt>
<trkpt lat="48.23800664" lon="-4.32893162"><ele></ele><time>2020-3-13T15:54:16Z</time></trkpt>
<trkpt lat="48.23800832" lon="-4.32893330"><ele></ele><time>2020-3-13T15:54:19Z</time></trkpt>
<trkpt lat="48.23800832" lon="-4.32893497"><ele></ele><time>2020-3-13T15:54:22Z</time></trkpt>
<trkpt lat="48.23800832" lon="-4.32893665"><ele></ele><time>2020-3-13T15:54:25Z</time></trkpt>
<trkpt lat="48.23800832" lon="-4.32893665"><ele></ele><time>2020-3-13T15:54:28Z</time></trkpt>
<trkpt lat="48.23800832" lon="-4.32893330"><ele></ele><time>2020-3-13T15:54:31Z</time></trkpt>
<trkpt lat="48.23800999" lon="-4.32892324"><ele></ele><time>2020-3-13T15:54:34Z</time></trkpt>
<trkpt lat="48.23801653" lon="-4.32891318"><ele></ele><time>2020-3-13T15:54:37Z</time></trkpt>
<trkpt lat="48.23802826" lon="-4.32891150"><ele></ele><time>2020-3-13T15:54:40Z</time></trkpt>
<trkpt lat="48.23804318" lon="-4.32892827"><ele></ele><time>2020-3-13T15:54:43Z</time></trkpt>
<trkpt lat="48.23805995" lon="-4.32895325"><ele></ele><time>2020-3-13T15:54:46Z</time></trkpt>
<trkpt lat="48.23865154" lon="-4.32975657"><ele></ele><time>2020-3-13T15:54:49Z</time></trkpt>
<trkpt lat="48.23868658" lon="-4.32978490"><ele></ele><time>2020-3-13T15:54:52Z</time></trkpt>
<trkpt lat="48.23927331" lon="-4.33019662"><ele></ele><time>2020-3-13T15:54:55Z</time></trkpt>
<trkpt lat="48.23931992" lon="-4.33024657"><ele></ele><time>2020-3-13T15:54:58Z</time></trkpt>
<trkpt lat="48.23936484" lon="-4.33030324"><ele></ele><time>2020-3-13T15:55:1Z</time></trkpt>
<trkpt lat="48.23940994" lon="-4.33036660"><ele></ele><time>2020-3-13T15:55:4Z</time></trkpt>
<trkpt lat="48.23980322" lon="-4.33089818"><ele></ele><time>2020-3-13T15:55:7Z</time></trkpt>
<trkpt lat="48.23987999" lon="-4.33096323"><ele></ele><time>2020-3-13T15:55:10Z</time></trkpt>
<trkpt lat="48.24011318" lon="-4.33113656"><ele></ele><time>2020-3-13T15:55:13Z</time></trkpt>
<trkpt lat="48.24017487" lon="-4.33113992"><ele></ele><time>2020-3-13T15:55:16Z</time></trkpt>
<trkpt lat="48.24021661" lon="-4.33118820"><ele></ele><time>2020-3-13T15:55:19Z</time></trkpt>
<trkpt lat="48.24027495" lon="-4.33118484"><ele></ele><time>2020-3-13T15:55:22Z</time></trkpt>
<trkpt lat="48.24039498" lon="-4.33115987"><ele></ele><time>2020-3-13T15:55:25Z</time></trkpt>
<trkpt lat="48.24043655" lon="-4.33116992"><ele></ele><time>2020-3-13T15:55:28Z</time></trkpt>
<trkpt lat="48.24046488" lon="-4.33121150"><ele></ele><time>2020-3-13T15:55:31Z</time></trkpt>
<trkpt lat="48.24048819" lon="-4.33126984"><ele></ele><time>2020-3-13T15:55:34Z</time></trkpt>
<trkpt lat="48.24050663" lon="-4.33133656"><ele></ele><time>2020-3-13T15:55:37Z</time></trkpt>
<trkpt lat="48.24076831" lon="-4.33261832"><ele></ele><time>2020-3-13T15:55:40Z</time></trkpt>
<trkpt lat="48.24078323" lon="-4.33272996"><ele></ele><time>2020-3-13T15:55:43Z</time></trkpt>
<trkpt lat="48.24078826" lon="-4.33283491"><ele></ele><time>2020-3-13T15:55:46Z</time></trkpt>
<trkpt lat="48.24078323" lon="-4.33292996"><ele></ele><time>2020-3-13T15:55:49Z</time></trkpt>
<trkpt lat="48.24076998" lon="-4.33301663"><ele></ele><time>2020-3-13T15:55:52Z</time></trkpt>
<trkpt lat="48.24073495" lon="-4.33316666"><ele></ele><time>2020-3-13T15:55:55Z</time></trkpt>
<trkpt lat="48.24067996" lon="-4.33333983"><ele></ele><time>2020-3-13T15:55:58Z</time></trkpt>
<trkpt lat="48.24012827" lon="-4.33505997"><ele></ele><time>2020-3-13T15:56:1Z</time></trkpt>
<trkpt lat="48.24012491" lon="-4.33510154"><ele></ele><time>2020-3-13T15:56:4Z</time></trkpt>
<trkpt lat="48.23993816" lon="-4.33811333"><ele></ele><time>2020-3-13T15:56:7Z</time></trkpt>
<trkpt lat="48.23994319" lon="-4.33824995"><ele></ele><time>2020-3-13T15:56:10Z</time></trkpt>
<trkpt lat="48.23999818" lon="-4.33875991"><ele></ele><time>2020-3-13T15:56:13Z</time></trkpt>
<trkpt lat="48.24001159" lon="-4.33883987"><ele></ele><time>2020-3-13T15:56:16Z</time></trkpt>
<trkpt lat="48.24038995" lon="-4.34106493"><ele></ele><time>2020-3-13T15:56:19Z</time></trkpt>
<trkpt lat="48.24042817" lon="-4.34110164"><ele></ele><time>2020-3-13T15:56:22Z</time></trkpt>
<trkpt lat="48.24047159" lon="-4.34111153"><ele></ele><time>2020-3-13T15:56:25Z</time></trkpt>
<trkpt lat="48.24051652" lon="-4.34110332"><ele></ele><time>2020-3-13T15:56:28Z</time></trkpt>
<trkpt lat="48.24427329" lon="-4.34007821"><ele></ele><time>2020-3-13T15:56:31Z</time></trkpt>
<trkpt lat="48.24435828" lon="-4.34002825"><ele></ele><time>2020-3-13T15:56:34Z</time></trkpt>
<trkpt lat="48.24475659" lon="-4.33977495"><ele></ele><time>2020-3-13T15:56:37Z</time></trkpt>
<trkpt lat="48.24479330" lon="-4.33976490"><ele></ele><time>2020-3-13T15:56:40Z</time></trkpt>
<trkpt lat="48.24530828" lon="-4.33955820"><ele></ele><time>2020-3-13T15:56:43Z</time></trkpt>
<trkpt lat="48.24549822" lon="-4.33947823"><ele></ele><time>2020-3-13T15:56:46Z</time></trkpt>
<trkpt lat="48.24552990" lon="-4.33944655"><ele></ele><time>2020-3-13T15:56:49Z</time></trkpt>
<trkpt lat="48.24554985" lon="-4.33939995"><ele></ele><time>2020-3-13T15:56:52Z</time></trkpt>
<trkpt lat="48.24554499" lon="-4.33933490"><ele></ele><time>2020-3-13T15:56:55Z</time></trkpt>
<trkpt lat="48.24553158" lon="-4.33927489"><ele></ele><time>2020-3-13T15:56:58Z</time></trkpt>
<trkpt lat="48.24541322" lon="-4.33878656"><ele></ele><time>2020-3-13T15:57:1Z</time></trkpt>
<trkpt lat="48.24540652" lon="-4.33872487"><ele></ele><time>2020-3-13T15:57:4Z</time></trkpt>
<trkpt lat="48.24539495" lon="-4.33853829"><ele></ele><time>2020-3-13T15:57:7Z</time></trkpt>
<trkpt lat="48.24533494" lon="-4.33693483"><ele></ele><time>2020-3-13T15:57:10Z</time></trkpt>
<trkpt lat="48.24533829" lon="-4.33687666"><ele></ele><time>2020-3-13T15:57:13Z</time></trkpt>
<trkpt lat="48.24552655" lon="-4.33298494"><ele></ele><time>2020-3-13T15:57:16Z</time></trkpt>
<trkpt lat="48.24552152" lon="-4.33291655"><ele></ele><time>2020-3-13T15:57:19Z</time></trkpt>
<trkpt lat="48.24549319" lon="-4.33272158"><ele></ele><time>2020-3-13T15:57:22Z</time></trkpt>
<trkpt lat="48.24537819" lon="-4.33214491"><ele></ele><time>2020-3-13T15:57:25Z</time></trkpt>
<trkpt lat="48.24499983" lon="-4.33053491"><ele></ele><time>2020-3-13T15:57:28Z</time></trkpt>
<trkpt lat="48.24478659" lon="-4.32964827"><ele></ele><time>2020-3-13T15:57:31Z</time></trkpt>
<trkpt lat="48.24477989" lon="-4.32957317"><ele></ele><time>2020-3-13T15:57:34Z</time></trkpt>
<trkpt lat="48.24477318" lon="-4.32941660"><ele></ele><time>2020-3-13T15:57:37Z</time></trkpt>
<trkpt lat="48.24477821" lon="-4.32933663"><ele></ele><time>2020-3-13T15:57:40Z</time></trkpt>
<trkpt lat="48.24478827" lon="-4.32925986"><ele></ele><time>2020-3-13T15:57:43Z</time></trkpt>
<trkpt lat="48.24480319" lon="-4.32918492"><ele></ele><time>2020-3-13T15:57:46Z</time></trkpt>
<trkpt lat="48.24482498" lon="-4.32911150"><ele></ele><time>2020-3-13T15:57:49Z</time></trkpt>
<trkpt lat="48.24485164" lon="-4.32904327"><ele></ele><time>2020-3-13T15:57:52Z</time></trkpt>
<trkpt lat="48.24487997" lon="-4.32898325"><ele></ele><time>2020-3-13T15:57:55Z</time></trkpt>
<trkpt lat="48.24491165" lon="-4.32892827"><ele></ele><time>2020-3-13T15:57:58Z</time></trkpt>
<trkpt lat="48.24515825" lon="-4.32848989"><ele></ele><time>2020-3-13T15:58:1Z</time></trkpt>
<trkpt lat="48.24517317" lon="-4.32843323"><ele></ele><time>2020-3-13T15:58:4Z</time></trkpt>
<trkpt lat="48.24519328" lon="-4.32830817"><ele></ele><time>2020-3-13T15:58:7Z</time></trkpt>
<trkpt lat="48.24519664" lon="-4.32824162"><ele></ele><time>2020-3-13T15:58:10Z</time></trkpt>
<trkpt lat="48.24519664" lon="-4.32810483"><ele></ele><time>2020-3-13T15:58:13Z</time></trkpt>
<trkpt lat="48.24518993" lon="-4.32803492"><ele></ele><time>2020-3-13T15:58:16Z</time></trkpt>
<trkpt lat="48.24496161" lon="-4.32582998"><ele></ele><time>2020-3-13T15:58:19Z</time></trkpt>
<trkpt lat="48.24496161" lon="-4.32576494"><ele></ele><time>2020-3-13T15:58:22Z</time></trkpt>
<trkpt lat="48.24494166" lon="-4.32545498"><ele></ele><time>2020-3-13T15:58:25Z</time></trkpt>
<trkpt lat="48.24461828" lon="-4.32237161"><ele></ele><time>2020-3-13T15:58:28Z</time></trkpt>
<trkpt lat="48.24461828" lon="-4.32231998"><ele></ele><time>2020-3-13T15:58:31Z</time></trkpt>
<trkpt lat="48.24461996" lon="-4.32226985"><ele></ele><time>2020-3-13T15:58:34Z</time></trkpt>
<trkpt lat="48.24462499" lon="-4.32221990"><ele></ele><time>2020-3-13T15:58:37Z</time></trkpt>
<trkpt lat="48.24464997" lon="-4.32207489"><ele></ele><time>2020-3-13T15:58:40Z</time></trkpt>
<trkpt lat="48.24467327" lon="-4.32198151"><ele></ele><time>2020-3-13T15:58:43Z</time></trkpt>
<trkpt lat="48.24475994" lon="-4.32170659"><ele></ele><time>2020-3-13T15:58:46Z</time></trkpt>
<trkpt lat="48.24485164" lon="-4.32147156"><ele></ele><time>2020-3-13T15:58:49Z</time></trkpt>
<trkpt lat="48.24487326" lon="-4.32142663"><ele></ele><time>2020-3-13T15:58:52Z</time></trkpt>
<trkpt lat="48.24509656" lon="-4.32090997"><ele></ele><time>2020-3-13T15:58:55Z</time></trkpt>
<trkpt lat="48.24513494" lon="-4.32078994"><ele></ele><time>2020-3-13T15:58:58Z</time></trkpt>
<trkpt lat="48.24514986" lon="-4.32072322"><ele></ele><time>2020-3-13T15:59:1Z</time></trkpt>
<trkpt lat="48.24518825" lon="-4.32051820"><ele></ele><time>2020-3-13T15:59:4Z</time></trkpt>
<trkpt lat="48.24549319" lon="-4.31888323"><ele></ele><time>2020-3-13T15:59:7Z</time></trkpt>
<trkpt lat="48.24550157" lon="-4.31879153"><ele></ele><time>2020-3-13T15:59:10Z</time></trkpt>
<trkpt lat="48.24557818" lon="-4.31797496"><ele></ele><time>2020-3-13T15:59:13Z</time></trkpt>
<trkpt lat="48.24559494" lon="-4.31789165"><ele></ele><time>2020-3-13T15:59:16Z</time></trkpt>
<trkpt lat="48.24565999" lon="-4.31764991"><ele></ele><time>2020-3-13T15:59:19Z</time></trkpt>
<trkpt lat="48.24571162" lon="-4.31749485"><ele></ele><time>2020-3-13T15:59:22Z</time></trkpt>
<trkpt lat="48.24585327" lon="-4.31702664"><ele></ele><time>2020-3-13T15:59:25Z</time></trkpt>
<trkpt lat="48.24587155" lon="-4.31694483"><ele></ele><time>2020-3-13T15:59:28Z</time></trkpt>
<trkpt lat="48.24591664" lon="-4.31677166"><ele></ele><time>2020-3-13T15:59:31Z</time></trkpt>
<trkpt lat="48.24590994" lon="-4.31672489"><ele></ele><time>2020-3-13T15:59:34Z</time></trkpt>
<trkpt lat="48.24589150" lon="-4.31668499"><ele></ele><time>2020-3-13T15:59:37Z</time></trkpt>
<trkpt lat="48.24586316" lon="-4.31665498"><ele></ele><time>2020-3-13T15:59:40Z</time></trkpt>
<trkpt lat="48.24582997" lon="-4.31663319"><ele></ele><time>2020-3-13T15:59:43Z</time></trkpt>
<trkpt lat="48.24556829" lon="-4.31652154"><ele></ele><time>2020-3-13T15:59:46Z</time></trkpt>
<trkpt lat="48.24464997" lon="-4.31624997"><ele></ele><time>2020-3-13T15:59:49Z</time></trkpt>
<trkpt lat="48.24437152" lon="-4.31620320"><ele></ele><time>2020-3-13T15:59:52Z</time></trkpt>
<trkpt lat="48.24434654" lon="-4.31616330"><ele></ele><time>2020-3-13T15:59:55Z</time></trkpt>
<trkpt lat="48.24433816" lon="-4.31610664"><ele></ele><time>2020-3-13T15:59:58Z</time></trkpt>
<trkpt lat="48.24433984" lon="-4.31604159"><ele></ele><time>2020-3-13T16:0:1Z</time></trkpt>
<trkpt lat="48.24434487" lon="-4.31596985"><ele></ele><time>2020-3-13T16:0:4Z</time></trkpt>
<trkpt lat="48.24436984" lon="-4.31533483"><ele></ele><time>2020-3-13T16:0:7Z</time></trkpt>
<trkpt lat="48.24436666" lon="-4.31524984"><ele></ele><time>2020-3-13T16:0:10Z</time></trkpt>
<trkpt lat="48.24417991" lon="-4.31128319"><ele></ele><time>2020-3-13T16:0:13Z</time></trkpt>
<trkpt lat="48.24415158" lon="-4.31122653"><ele></ele><time>2020-3-13T16:0:16Z</time></trkpt>
<trkpt lat="48.24411151" lon="-4.31118998"><ele></ele><time>2020-3-13T16:0:19Z</time></trkpt>
<trkpt lat="48.24406659" lon="-4.31117154"><ele></ele><time>2020-3-13T16:0:22Z</time></trkpt>
<trkpt lat="48.24372494" lon="-4.31108152"><ele></ele><time>2020-3-13T16:0:25Z</time></trkpt>
<trkpt lat="48.24369326" lon="-4.31108320"><ele></ele><time>2020-3-13T16:0:28Z</time></trkpt>
<trkpt lat="48.24363660" lon="-4.31109158"><ele></ele><time>2020-3-13T16:0:31Z</time></trkpt>
<trkpt lat="48.24360994" lon="-4.31110164"><ele></ele><time>2020-3-13T16:0:34Z</time></trkpt>
<trkpt lat="48.24358999" lon="-4.31111823"><ele></ele><time>2020-3-13T16:0:37Z</time></trkpt>
<trkpt lat="48.24356988" lon="-4.31113818"><ele></ele><time>2020-3-13T16:0:40Z</time></trkpt>
<trkpt lat="48.24329998" lon="-4.31146323"><ele></ele><time>2020-3-13T16:0:43Z</time></trkpt>
<trkpt lat="48.24327819" lon="-4.31148150"><ele></ele><time>2020-3-13T16:0:46Z</time></trkpt>
<trkpt lat="48.24283998" lon="-4.31184662"><ele></ele><time>2020-3-13T16:0:49Z</time></trkpt>
<trkpt lat="48.24281165" lon="-4.31186322"><ele></ele><time>2020-3-13T16:0:52Z</time></trkpt>
<trkpt lat="48.24275331" lon="-4.31189322"><ele></ele><time>2020-3-13T16:0:55Z</time></trkpt>
<trkpt lat="48.24269497" lon="-4.31191317"><ele></ele><time>2020-3-13T16:0:58Z</time></trkpt>
<trkpt lat="48.24266497" lon="-4.31191820"><ele></ele><time>2020-3-13T16:1:1Z</time></trkpt>
<trkpt lat="48.24263328" lon="-4.31192155"><ele></ele><time>2020-3-13T16:1:4Z</time></trkpt>
<trkpt lat="48.24254494" lon="-4.31191485"><ele></ele><time>2020-3-13T16:1:7Z</time></trkpt>
<trkpt lat="48.24232986" lon="-4.31188317"><ele></ele><time>2020-3-13T16:1:10Z</time></trkpt>
<trkpt lat="48.24199827" lon="-4.31180655"><ele></ele><time>2020-3-13T16:1:13Z</time></trkpt>
<trkpt lat="48.24197161" lon="-4.31179817"><ele></ele><time>2020-3-13T16:1:16Z</time></trkpt>
<trkpt lat="48.24174329" lon="-4.31172994"><ele></ele><time>2020-3-13T16:1:19Z</time></trkpt>
<trkpt lat="48.24095154" lon="-4.31127162"><ele></ele><time>2020-3-13T16:1:22Z</time></trkpt>
<trkpt lat="48.24057988" lon="-4.31107163"><ele></ele><time>2020-3-13T16:1:25Z</time></trkpt>
<trkpt lat="48.24054988" lon="-4.31106660"><ele></ele><time>2020-3-13T16:1:28Z</time></trkpt>
<trkpt lat="48.24040152" lon="-4.31105487"><ele></ele><time>2020-3-13T16:1:31Z</time></trkpt>
<trkpt lat="48.24036832" lon="-4.31105989"><ele></ele><time>2020-3-13T16:1:34Z</time></trkpt>
<trkpt lat="48.24033496" lon="-4.31106995"><ele></ele><time>2020-3-13T16:1:37Z</time></trkpt>
<trkpt lat="48.23901498" lon="-4.31151151"><ele></ele><time>2020-3-13T16:1:40Z</time></trkpt>
<trkpt lat="48.23885321" lon="-4.31158158"><ele></ele><time>2020-3-13T16:1:43Z</time></trkpt>
<trkpt lat="48.23882991" lon="-4.31157153"><ele></ele><time>2020-3-13T16:1:46Z</time></trkpt>
<trkpt lat="48.23881331" lon="-4.31154655"><ele></ele><time>2020-3-13T16:1:49Z</time></trkpt>
<trkpt lat="48.23880828" lon="-4.31150833"><ele></ele><time>2020-3-13T16:1:52Z</time></trkpt>
<trkpt lat="48.23880996" lon="-4.31146323"><ele></ele><time>2020-3-13T16:1:55Z</time></trkpt>
<trkpt lat="48.23881817" lon="-4.31141830"><ele></ele><time>2020-3-13T16:1:58Z</time></trkpt>
<trkpt lat="48.23882823" lon="-4.31137321"><ele></ele><time>2020-3-13T16:2:1Z</time></trkpt>
<trkpt lat="48.23887165" lon="-4.31122988"><ele></ele><time>2020-3-13T16:2:4Z</time></trkpt>
<trkpt lat="48.23888992" lon="-4.31118495"><ele></ele><time>2020-3-13T16:2:7Z</time></trkpt>
<trkpt lat="48.24010664" lon="-4.30610653"><ele></ele><time>2020-3-13T16:2:10Z</time></trkpt>
<trkpt lat="48.24022164" lon="-4.30544989"><ele></ele><time>2020-3-13T16:2:13Z</time></trkpt>
<trkpt lat="48.24026824" lon="-4.30527320"><ele></ele><time>2020-3-13T16:2:16Z</time></trkpt>
<trkpt lat="48.24037989" lon="-4.30492987"><ele></ele><time>2020-3-13T16:2:19Z</time></trkpt>
<trkpt lat="48.24047494" lon="-4.30469987"><ele></ele><time>2020-3-13T16:2:22Z</time></trkpt>
<trkpt lat="48.24103150" lon="-4.30324494"><ele></ele><time>2020-3-13T16:2:25Z</time></trkpt>
<trkpt lat="48.24105162" lon="-4.30317655"><ele></ele><time>2020-3-13T16:2:28Z</time></trkpt>
<trkpt lat="48.24112990" lon="-4.30277153"><ele></ele><time>2020-3-13T16:2:31Z</time></trkpt>
<trkpt lat="48.24118321" lon="-4.30226325"><ele></ele><time>2020-3-13T16:2:34Z</time></trkpt>
<trkpt lat="48.24152486" lon="-4.29818999"><ele></ele><time>2020-3-13T16:2:37Z</time></trkpt>
<trkpt lat="48.24154984" lon="-4.29809326"><ele></ele><time>2020-3-13T16:2:40Z</time></trkpt>
<trkpt lat="48.24160985" lon="-4.29789829"><ele></ele><time>2020-3-13T16:2:43Z</time></trkpt>
<trkpt lat="48.24168328" lon="-4.29769327"><ele></ele><time>2020-3-13T16:2:46Z</time></trkpt>
<trkpt lat="48.24172820" lon="-4.29759319"><ele></ele><time>2020-3-13T16:2:49Z</time></trkpt>
<trkpt lat="48.24260495" lon="-4.29575152"><ele></ele><time>2020-3-13T16:2:52Z</time></trkpt>
<trkpt lat="48.24264150" lon="-4.29562998"><ele></ele><time>2020-3-13T16:2:55Z</time></trkpt>
<trkpt lat="48.24292983" lon="-4.29449155"><ele></ele><time>2020-3-13T16:2:58Z</time></trkpt>
<trkpt lat="48.24292162" lon="-4.29442819"><ele></ele><time>2020-3-13T16:3:1Z</time></trkpt>
<trkpt lat="48.24289999" lon="-4.29437488"><ele></ele><time>2020-3-13T16:3:4Z</time></trkpt>
<trkpt lat="48.24286663" lon="-4.29434822"><ele></ele><time>2020-3-13T16:3:7Z</time></trkpt>
<trkpt lat="48.24282657" lon="-4.29434152"><ele></ele><time>2020-3-13T16:3:10Z</time></trkpt>
<trkpt lat="48.24275650" lon="-4.29433817"><ele></ele><time>2020-3-13T16:3:13Z</time></trkpt>
<trkpt lat="48.24272330" lon="-4.29432492"><ele></ele><time>2020-3-13T16:3:16Z</time></trkpt>
<trkpt lat="48.24269162" lon="-4.29429827"><ele></ele><time>2020-3-13T16:3:19Z</time></trkpt>
<trkpt lat="48.24214830" lon="-4.29389325"><ele></ele><time>2020-3-13T16:3:22Z</time></trkpt>
<trkpt lat="48.24212165" lon="-4.29387666"><ele></ele><time>2020-3-13T16:3:25Z</time></trkpt>
<trkpt lat="48.24188662" lon="-4.29369494"><ele></ele><time>2020-3-13T16:3:28Z</time></trkpt>
<trkpt lat="48.24179995" lon="-4.29357491"><ele></ele><time>2020-3-13T16:3:31Z</time></trkpt>
<trkpt lat="48.24178654" lon="-4.29355161"><ele></ele><time>2020-3-13T16:3:34Z</time></trkpt>
<trkpt lat="48.24177330" lon="-4.29352328"><ele></ele><time>2020-3-13T16:3:37Z</time></trkpt>
<trkpt lat="48.24176324" lon="-4.29349327"><ele></ele><time>2020-3-13T16:3:40Z</time></trkpt>
<trkpt lat="48.24175486" lon="-4.29346159"><ele></ele><time>2020-3-13T16:3:43Z</time></trkpt>
<trkpt lat="48.24170826" lon="-4.29329495"><ele></ele><time>2020-3-13T16:3:46Z</time></trkpt>
<trkpt lat="48.24170155" lon="-4.29327316"><ele></ele><time>2020-3-13T16:3:49Z</time></trkpt>
<trkpt lat="48.24165662" lon="-4.29314492"><ele></ele><time>2020-3-13T16:3:52Z</time></trkpt>
<trkpt lat="48.24165327" lon="-4.29311994"><ele></ele><time>2020-3-13T16:3:55Z</time></trkpt>
<trkpt lat="48.24164656" lon="-4.29309831"><ele></ele><time>2020-3-13T16:3:58Z</time></trkpt>
<trkpt lat="48.24154498" lon="-4.29278651"><ele></ele><time>2020-3-13T16:4:1Z</time></trkpt>
<trkpt lat="48.24153324" lon="-4.29276656"><ele></ele><time>2020-3-13T16:4:4Z</time></trkpt>
<trkpt lat="48.24149653" lon="-4.29270990"><ele></ele><time>2020-3-13T16:4:7Z</time></trkpt>
<trkpt lat="48.24145663" lon="-4.29265994"><ele></ele><time>2020-3-13T16:4:10Z</time></trkpt>
<trkpt lat="48.24144154" lon="-4.29264653"><ele></ele><time>2020-3-13T16:4:13Z</time></trkpt>
<trkpt lat="48.24136493" lon="-4.29257495"><ele></ele><time>2020-3-13T16:4:16Z</time></trkpt>
<trkpt lat="48.24130995" lon="-4.29253153"><ele></ele><time>2020-3-13T16:4:19Z</time></trkpt>
<trkpt lat="48.24128983" lon="-4.29251661"><ele></ele><time>2020-3-13T16:4:22Z</time></trkpt>
<trkpt lat="48.24114818" lon="-4.29238485"><ele></ele><time>2020-3-13T16:4:25Z</time></trkpt>
<trkpt lat="48.24105329" lon="-4.29227320"><ele></ele><time>2020-3-13T16:4:28Z</time></trkpt>
<trkpt lat="48.24102664" lon="-4.29223330"><ele></ele><time>2020-3-13T16:4:31Z</time></trkpt>
<trkpt lat="48.24098825" lon="-4.29217999"><ele></ele><time>2020-3-13T16:4:34Z</time></trkpt>
<trkpt lat="48.24097316" lon="-4.29216491"><ele></ele><time>2020-3-13T16:4:37Z</time></trkpt>
<trkpt lat="48.24068650" lon="-4.29184488"><ele></ele><time>2020-3-13T16:4:40Z</time></trkpt>
<trkpt lat="48.24017319" lon="-4.29128330"><ele></ele><time>2020-3-13T16:4:43Z</time></trkpt>
<trkpt lat="48.24015827" lon="-4.29126989"><ele></ele><time>2020-3-13T16:4:46Z</time></trkpt>
<trkpt lat="48.23995996" lon="-4.29104156"><ele></ele><time>2020-3-13T16:4:49Z</time></trkpt>
<trkpt lat="48.23992827" lon="-4.29101156"><ele></ele><time>2020-3-13T16:4:52Z</time></trkpt>
<trkpt lat="48.23991319" lon="-4.29099161"><ele></ele><time>2020-3-13T16:4:55Z</time></trkpt>
<trkpt lat="48.23986826" lon="-4.29094484"><ele></ele><time>2020-3-13T16:4:58Z</time></trkpt>
<trkpt lat="48.23973985" lon="-4.29080653"><ele></ele><time>2020-3-13T16:5:1Z</time></trkpt>
<trkpt lat="48.23972996" lon="-4.29079832"><ele></ele><time>2020-3-13T16:5:4Z</time></trkpt>
<trkpt lat="48.23970984" lon="-4.29078156"><ele></ele><time>2020-3-13T16:5:7Z</time></trkpt>
<trkpt lat="48.23969995" lon="-4.29077150"><ele></ele><time>2020-3-13T16:5:10Z</time></trkpt>
<trkpt lat="48.23968989" lon="-4.29075993"><ele></ele><time>2020-3-13T16:5:13Z</time></trkpt>
<trkpt lat="48.23968319" lon="-4.29074652"><ele></ele><time>2020-3-13T16:5:16Z</time></trkpt>
<trkpt lat="48.23966324" lon="-4.29072825"><ele></ele><time>2020-3-13T16:5:19Z</time></trkpt>
<trkpt lat="48.23962988" lon="-4.29068651"><ele></ele><time>2020-3-13T16:5:22Z</time></trkpt>
<trkpt lat="48.23962150" lon="-4.29067494"><ele></ele><time>2020-3-13T16:5:25Z</time></trkpt>
<trkpt lat="48.23955662" lon="-4.29059498"><ele></ele><time>2020-3-13T16:5:28Z</time></trkpt>
<trkpt lat="48.23954489" lon="-4.29058827"><ele></ele><time>2020-3-13T16:5:31Z</time></trkpt>
<trkpt lat="48.23953483" lon="-4.29058156"><ele></ele><time>2020-3-13T16:5:34Z</time></trkpt>
<trkpt lat="48.23952494" lon="-4.29056983"><ele></ele><time>2020-3-13T16:5:37Z</time></trkpt>
<trkpt lat="48.23949996" lon="-4.29053161"><ele></ele><time>2020-3-13T16:5:40Z</time></trkpt>
<trkpt lat="48.23943994" lon="-4.29044829"><ele></ele><time>2020-3-13T16:5:43Z</time></trkpt>
<trkpt lat="48.23942989" lon="-4.29043823"><ele></ele><time>2020-3-13T16:5:46Z</time></trkpt>
<trkpt lat="48.23941983" lon="-4.29042818"><ele></ele><time>2020-3-13T16:5:49Z</time></trkpt>
<trkpt lat="48.23941161" lon="-4.29041661"><ele></ele><time>2020-3-13T16:5:52Z</time></trkpt>
<trkpt lat="48.23930650" lon="-4.29027998"><ele></ele><time>2020-3-13T16:5:55Z</time></trkpt>
<trkpt lat="48.23919821" lon="-4.29015660"><ele></ele><time>2020-3-13T16:5:58Z</time></trkpt>
<trkpt lat="48.23915831" lon="-4.29011654"><ele></ele><time>2020-3-13T16:6:1Z</time></trkpt>
<trkpt lat="48.23914825" lon="-4.29010497"><ele></ele><time>2020-3-13T16:6:4Z</time></trkpt>
<trkpt lat="48.23913987" lon="-4.29009156"><ele></ele><time>2020-3-13T16:6:7Z</time></trkpt>
<trkpt lat="48.23908321" lon="-4.29001998"><ele></ele><time>2020-3-13T16:6:10Z</time></trkpt>
<trkpt lat="48.23905991" lon="-4.28999165"><ele></ele><time>2020-3-13T16:6:13Z</time></trkpt>
<trkpt lat="48.23904985" lon="-4.28998159"><ele></ele><time>2020-3-13T16:6:16Z</time></trkpt>
<trkpt lat="48.23903325" lon="-4.28995829"><ele></ele><time>2020-3-13T16:6:19Z</time></trkpt>
<trkpt lat="48.23900325" lon="-4.28992325"><ele></ele><time>2020-3-13T16:6:22Z</time></trkpt>
<trkpt lat="48.23877828" lon="-4.28968319"><ele></ele><time>2020-3-13T16:6:25Z</time></trkpt>
<trkpt lat="48.23876654" lon="-4.28965654"><ele></ele><time>2020-3-13T16:6:28Z</time></trkpt>
<trkpt lat="48.23875984" lon="-4.28962653"><ele></ele><time>2020-3-13T16:6:31Z</time></trkpt>
<trkpt lat="48.23875498" lon="-4.28959652"><ele></ele><time>2020-3-13T16:6:34Z</time></trkpt>
<trkpt lat="48.23875330" lon="-4.28956484"><ele></ele><time>2020-3-13T16:6:37Z</time></trkpt>
<trkpt lat="48.23875330" lon="-4.28953165"><ele></ele><time>2020-3-13T16:6:40Z</time></trkpt>
<trkpt lat="48.23875498" lon="-4.28949829"><ele></ele><time>2020-3-13T16:6:43Z</time></trkpt>
<trkpt lat="48.23876151" lon="-4.28946660"><ele></ele><time>2020-3-13T16:6:46Z</time></trkpt>
<trkpt lat="48.23879320" lon="-4.28931154"><ele></ele><time>2020-3-13T16:6:49Z</time></trkpt>
<trkpt lat="48.23879655" lon="-4.28925991"><ele></ele><time>2020-3-13T16:6:52Z</time></trkpt>
<trkpt lat="48.23879990" lon="-4.28923493"><ele></ele><time>2020-3-13T16:6:55Z</time></trkpt>
<trkpt lat="48.23882991" lon="-4.28906494"><ele></ele><time>2020-3-13T16:6:58Z</time></trkpt>
<trkpt lat="48.23891993" lon="-4.28867485"><ele></ele><time>2020-3-13T16:7:1Z</time></trkpt>
<trkpt lat="48.23894491" lon="-4.28859153"><ele></ele><time>2020-3-13T16:7:4Z</time></trkpt>
<trkpt lat="48.23895983" lon="-4.28852330"><ele></ele><time>2020-3-13T16:7:7Z</time></trkpt>
<trkpt lat="48.23896151" lon="-4.28849330"><ele></ele><time>2020-3-13T16:7:10Z</time></trkpt>
<trkpt lat="48.23896821" lon="-4.28840663"><ele></ele><time>2020-3-13T16:7:13Z</time></trkpt>
<trkpt lat="48.23898984" lon="-4.28826984"><ele></ele><time>2020-3-13T16:7:16Z</time></trkpt>
<trkpt lat="48.23901331" lon="-4.28812164"><ele></ele><time>2020-3-13T16:7:19Z</time></trkpt>
<trkpt lat="48.23901817" lon="-4.28809650"><ele></ele><time>2020-3-13T16:7:22Z</time></trkpt>
<trkpt lat="48.23903325" lon="-4.28801653"><ele></ele><time>2020-3-13T16:7:25Z</time></trkpt>
<trkpt lat="48.23903325" lon="-4.28798988"><ele></ele><time>2020-3-13T16:7:28Z</time></trkpt>
<trkpt lat="48.23904164" lon="-4.28793992"><ele></ele><time>2020-3-13T16:7:31Z</time></trkpt>
<trkpt lat="48.23904650" lon="-4.28791662"><ele></ele><time>2020-3-13T16:7:34Z</time></trkpt>
<trkpt lat="48.23905320" lon="-4.28786499"><ele></ele><time>2020-3-13T16:7:37Z</time></trkpt>
<trkpt lat="48.23906326" lon="-4.28784152"><ele></ele><time>2020-3-13T16:7:40Z</time></trkpt>
<trkpt lat="48.23907332" lon="-4.28781822"><ele></ele><time>2020-3-13T16:7:43Z</time></trkpt>
<trkpt lat="48.23908153" lon="-4.28779156"><ele></ele><time>2020-3-13T16:7:46Z</time></trkpt>
<trkpt lat="48.23908321" lon="-4.28776659"><ele></ele><time>2020-3-13T16:7:49Z</time></trkpt>
<trkpt lat="48.23909159" lon="-4.28773658"><ele></ele><time>2020-3-13T16:7:52Z</time></trkpt>
<trkpt lat="48.23909830" lon="-4.28770322"><ele></ele><time>2020-3-13T16:7:55Z</time></trkpt>
<trkpt lat="48.23911154" lon="-4.28760666"><ele></ele><time>2020-3-13T16:7:58Z</time></trkpt>
<trkpt lat="48.23911657" lon="-4.28757833"><ele></ele><time>2020-3-13T16:8:1Z</time></trkpt>
<trkpt lat="48.23912328" lon="-4.28754497"><ele></ele><time>2020-3-13T16:8:4Z</time></trkpt>
<trkpt lat="48.23913820" lon="-4.28750993"><ele></ele><time>2020-3-13T16:8:7Z</time></trkpt>
<trkpt lat="48.23917323" lon="-4.28737817"><ele></ele><time>2020-3-13T16:8:10Z</time></trkpt>
<trkpt lat="48.23917826" lon="-4.28730156"><ele></ele><time>2020-3-13T16:8:13Z</time></trkpt>
<trkpt lat="48.23918161" lon="-4.28726317"><ele></ele><time>2020-3-13T16:8:16Z</time></trkpt>
<trkpt lat="48.23918329" lon="-4.28722662"><ele></ele><time>2020-3-13T16:8:19Z</time></trkpt>
<trkpt lat="48.23918832" lon="-4.28719159"><ele></ele><time>2020-3-13T16:8:22Z</time></trkpt>
<trkpt lat="48.23919150" lon="-4.28715990"><ele></ele><time>2020-3-13T16:8:25Z</time></trkpt>
<trkpt lat="48.23919821" lon="-4.28712654"><ele></ele><time>2020-3-13T16:8:28Z</time></trkpt>
<trkpt lat="48.23920324" lon="-4.28709654"><ele></ele><time>2020-3-13T16:8:31Z</time></trkpt>
<trkpt lat="48.23920659" lon="-4.28703317"><ele></ele><time>2020-3-13T16:8:34Z</time></trkpt>
<trkpt lat="48.23921162" lon="-4.28700484"><ele></ele><time>2020-3-13T16:8:37Z</time></trkpt>
<trkpt lat="48.23922151" lon="-4.28697986"><ele></ele><time>2020-3-13T16:8:40Z</time></trkpt>
<trkpt lat="48.23923325" lon="-4.28690996"><ele></ele><time>2020-3-13T16:8:43Z</time></trkpt>
<trkpt lat="48.23923995" lon="-4.28687157"><ele></ele><time>2020-3-13T16:8:46Z</time></trkpt>
<trkpt lat="48.23926493" lon="-4.28664995"><ele></ele><time>2020-3-13T16:8:49Z</time></trkpt>
<trkpt lat="48.23926828" lon="-4.28660988"><ele></ele><time>2020-3-13T16:8:52Z</time></trkpt>
<trkpt lat="48.23927331" lon="-4.28657485"><ele></ele><time>2020-3-13T16:8:55Z</time></trkpt>
<trkpt lat="48.23928320" lon="-4.28654484"><ele></ele><time>2020-3-13T16:8:58Z</time></trkpt>
<trkpt lat="48.23933819" lon="-4.28637318"><ele></ele><time>2020-3-13T16:9:1Z</time></trkpt>
<trkpt lat="48.23936166" lon="-4.28627829"><ele></ele><time>2020-3-13T16:9:4Z</time></trkpt>
<trkpt lat="48.23939988" lon="-4.28588150"><ele></ele><time>2020-3-13T16:9:7Z</time></trkpt>
<trkpt lat="48.23939820" lon="-4.28584663"><ele></ele><time>2020-3-13T16:9:10Z</time></trkpt>
<trkpt lat="48.23939653" lon="-4.28581830"><ele></ele><time>2020-3-13T16:9:13Z</time></trkpt>
<trkpt lat="48.23938496" lon="-4.28579499"><ele></ele><time>2020-3-13T16:9:16Z</time></trkpt>
<trkpt lat="48.23935663" lon="-4.28575661"><ele></ele><time>2020-3-13T16:9:19Z</time></trkpt>
<trkpt lat="48.23933819" lon="-4.28574655"><ele></ele><time>2020-3-13T16:9:22Z</time></trkpt>
<trkpt lat="48.23931321" lon="-4.28573984"><ele></ele><time>2020-3-13T16:9:25Z</time></trkpt>
<trkpt lat="48.23929158" lon="-4.28573498"><ele></ele><time>2020-3-13T16:9:28Z</time></trkpt>
<trkpt lat="48.23926661" lon="-4.28573498"><ele></ele><time>2020-3-13T16:9:31Z</time></trkpt>
<trkpt lat="48.23917323" lon="-4.28575661"><ele></ele><time>2020-3-13T16:9:34Z</time></trkpt>
<trkpt lat="48.23910651" lon="-4.28576163"><ele></ele><time>2020-3-13T16:9:37Z</time></trkpt>
<trkpt lat="48.23868658" lon="-4.28577655"><ele></ele><time>2020-3-13T16:9:40Z</time></trkpt>
<trkpt lat="48.23865992" lon="-4.28578158"><ele></ele><time>2020-3-13T16:9:43Z</time></trkpt>
<trkpt lat="48.23853654" lon="-4.28577655"><ele></ele><time>2020-3-13T16:9:46Z</time></trkpt>
<trkpt lat="48.23831828" lon="-4.28575158"><ele></ele><time>2020-3-13T16:9:49Z</time></trkpt>
<trkpt lat="48.23829162" lon="-4.28573666"><ele></ele><time>2020-3-13T16:9:52Z</time></trkpt>
<trkpt lat="48.23826329" lon="-4.28572157"><ele></ele><time>2020-3-13T16:9:55Z</time></trkpt>
<trkpt lat="48.23822826" lon="-4.28571654"><ele></ele><time>2020-3-13T16:9:58Z</time></trkpt>
<trkpt lat="48.23780497" lon="-4.28563825"><ele></ele><time>2020-3-13T16:10:1Z</time></trkpt>
<trkpt lat="48.23764152" lon="-4.28555997"><ele></ele><time>2020-3-13T16:10:4Z</time></trkpt>
<trkpt lat="48.23760984" lon="-4.28554320"><ele></ele><time>2020-3-13T16:10:7Z</time></trkpt>
<trkpt lat="48.23757983" lon="-4.28552828"><ele></ele><time>2020-3-13T16:10:10Z</time></trkpt>
<trkpt lat="48.23755150" lon="-4.28551822"><ele></ele><time>2020-3-13T16:10:13Z</time></trkpt>
<trkpt lat="48.23636496" lon="-4.28521832"><ele></ele><time>2020-3-13T16:10:16Z</time></trkpt>
<trkpt lat="48.23616329" lon="-4.28521329"><ele></ele><time>2020-3-13T16:10:19Z</time></trkpt>
<trkpt lat="48.23614485" lon="-4.28521329"><ele></ele><time>2020-3-13T16:10:22Z</time></trkpt>
<trkpt lat="48.23608484" lon="-4.28520156"><ele></ele><time>2020-3-13T16:10:25Z</time></trkpt>
<trkpt lat="48.23561495" lon="-4.28509997"><ele></ele><time>2020-3-13T16:10:28Z</time></trkpt>
<trkpt lat="48.23553498" lon="-4.28509494"><ele></ele><time>2020-3-13T16:10:31Z</time></trkpt>
<trkpt lat="48.23550816" lon="-4.28508991"><ele></ele><time>2020-3-13T16:10:34Z</time></trkpt>
<trkpt lat="48.23548654" lon="-4.28509159"><ele></ele><time>2020-3-13T16:10:37Z</time></trkpt>
<trkpt lat="48.23540825" lon="-4.28508823"><ele></ele><time>2020-3-13T16:10:40Z</time></trkpt>
<trkpt lat="48.23539316" lon="-4.28508320"><ele></ele><time>2020-3-13T16:10:43Z</time></trkpt>
<trkpt lat="48.23533164" lon="-4.28506996"><ele></ele><time>2020-3-13T16:10:46Z</time></trkpt>
<trkpt lat="48.23530498" lon="-4.28506158"><ele></ele><time>2020-3-13T16:10:49Z</time></trkpt>
<trkpt lat="48.23527816" lon="-4.28505823"><ele></ele><time>2020-3-13T16:10:52Z</time></trkpt>
<trkpt lat="48.23522653" lon="-4.28506493"><ele></ele><time>2020-3-13T16:10:55Z</time></trkpt>
<trkpt lat="48.23520658" lon="-4.28506325"><ele></ele><time>2020-3-13T16:10:58Z</time></trkpt>
<trkpt lat="48.23467986" lon="-4.28496820"><ele></ele><time>2020-3-13T16:11:1Z</time></trkpt>
<trkpt lat="48.23465321" lon="-4.28496317"><ele></ele><time>2020-3-13T16:11:4Z</time></trkpt>
<trkpt lat="48.23315486" lon="-4.28469998"><ele></ele><time>2020-3-13T16:11:7Z</time></trkpt>
<trkpt lat="48.23312485" lon="-4.28470317"><ele></ele><time>2020-3-13T16:11:10Z</time></trkpt>
<trkpt lat="48.23281489" lon="-4.28476318"><ele></ele><time>2020-3-13T16:11:13Z</time></trkpt>
<trkpt lat="48.23278488" lon="-4.28477492"><ele></ele><time>2020-3-13T16:11:16Z</time></trkpt>
<trkpt lat="48.23235489" lon="-4.28490165"><ele></ele><time>2020-3-13T16:11:19Z</time></trkpt>
<trkpt lat="48.23231985" lon="-4.28490333"><ele></ele><time>2020-3-13T16:11:22Z</time></trkpt>
<trkpt lat="48.23224827" lon="-4.28490651"><ele></ele><time>2020-3-13T16:11:25Z</time></trkpt>
<trkpt lat="48.23217988" lon="-4.28491154"><ele></ele><time>2020-3-13T16:11:28Z</time></trkpt>
<trkpt lat="48.23213998" lon="-4.28490484"><ele></ele><time>2020-3-13T16:11:31Z</time></trkpt>
<trkpt lat="48.23196496" lon="-4.28491154"><ele></ele><time>2020-3-13T16:11:34Z</time></trkpt>
<trkpt lat="48.23174485" lon="-4.28491657"><ele></ele><time>2020-3-13T16:11:37Z</time></trkpt>
<trkpt lat="48.23171485" lon="-4.28490987"><ele></ele><time>2020-3-13T16:11:40Z</time></trkpt>
<trkpt lat="48.23163321" lon="-4.28488489"><ele></ele><time>2020-3-13T16:11:43Z</time></trkpt>
<trkpt lat="48.23139164" lon="-4.28480157"><ele></ele><time>2020-3-13T16:11:46Z</time></trkpt>
<trkpt lat="48.23080994" lon="-4.28459152"><ele></ele><time>2020-3-13T16:11:49Z</time></trkpt>
<trkpt lat="48.23078831" lon="-4.28457325"><ele></ele><time>2020-3-13T16:11:52Z</time></trkpt>
<trkpt lat="48.23076820" lon="-4.28454827"><ele></ele><time>2020-3-13T16:11:55Z</time></trkpt>
<trkpt lat="48.23075495" lon="-4.28451659"><ele></ele><time>2020-3-13T16:11:58Z</time></trkpt>
<trkpt lat="48.23075328" lon="-4.28447987"><ele></ele><time>2020-3-13T16:12:1Z</time></trkpt>
<trkpt lat="48.23076166" lon="-4.28443662"><ele></ele><time>2020-3-13T16:12:4Z</time></trkpt>
<trkpt lat="48.23080491" lon="-4.28425658"><ele></ele><time>2020-3-13T16:12:7Z</time></trkpt>
<trkpt lat="48.23081832" lon="-4.28420998"><ele></ele><time>2020-3-13T16:12:10Z</time></trkpt>
<trkpt lat="48.23083659" lon="-4.28416321"><ele></ele><time>2020-3-13T16:12:13Z</time></trkpt>
<trkpt lat="48.23084983" lon="-4.28411493"><ele></ele><time>2020-3-13T16:12:16Z</time></trkpt>
<trkpt lat="48.23085822" lon="-4.28406497"><ele></ele><time>2020-3-13T16:12:19Z</time></trkpt>
<trkpt lat="48.23087666" lon="-4.28386816"><ele></ele><time>2020-3-13T16:12:22Z</time></trkpt>
<trkpt lat="48.23087984" lon="-4.28367655"><ele></ele><time>2020-3-13T16:12:25Z</time></trkpt>
<trkpt lat="48.23087498" lon="-4.28357832"><ele></ele><time>2020-3-13T16:12:28Z</time></trkpt>
<trkpt lat="48.23084497" lon="-4.28329819"><ele></ele><time>2020-3-13T16:12:31Z</time></trkpt>
<trkpt lat="48.23052663" lon="-4.28144495"><ele></ele><time>2020-3-13T16:12:34Z</time></trkpt>
<trkpt lat="48.23051489" lon="-4.28139483"><ele></ele><time>2020-3-13T16:12:37Z</time></trkpt>
<trkpt lat="48.23045488" lon="-4.28120825"><ele></ele><time>2020-3-13T16:12:40Z</time></trkpt>
<trkpt lat="48.23043493" lon="-4.28116818"><ele></ele><time>2020-3-13T16:12:43Z</time></trkpt>
<trkpt lat="48.23041331" lon="-4.28113499"><ele></ele><time>2020-3-13T16:12:46Z</time></trkpt>
<trkpt lat="48.23038984" lon="-4.28110666"><ele></ele><time>2020-3-13T16:12:49Z</time></trkpt>
<trkpt lat="48.23036486" lon="-4.28108487"><ele></ele><time>2020-3-13T16:12:52Z</time></trkpt>
<trkpt lat="48.23030652" lon="-4.28104832"><ele></ele><time>2020-3-13T16:12:55Z</time></trkpt>
<trkpt lat="48.23027651" lon="-4.28103826"><ele></ele><time>2020-3-13T16:12:58Z</time></trkpt>
<trkpt lat="48.22989329" lon="-4.28090332"><ele></ele><time>2020-3-13T16:13:1Z</time></trkpt>
<trkpt lat="48.22854498" lon="-4.28037995"><ele></ele><time>2020-3-13T16:13:4Z</time></trkpt>
<trkpt lat="48.22850324" lon="-4.28035162"><ele></ele><time>2020-3-13T16:13:7Z</time></trkpt>
<trkpt lat="48.22768164" lon="-4.27978986"><ele></ele><time>2020-3-13T16:13:10Z</time></trkpt>
<trkpt lat="48.22763320" lon="-4.27977997"><ele></ele><time>2020-3-13T16:13:13Z</time></trkpt>
<trkpt lat="48.22555985" lon="-4.27950991"><ele></ele><time>2020-3-13T16:13:16Z</time></trkpt>
<trkpt lat="48.22550486" lon="-4.27948661"><ele></ele><time>2020-3-13T16:13:19Z</time></trkpt>
<trkpt lat="48.22544820" lon="-4.27944822"><ele></ele><time>2020-3-13T16:13:22Z</time></trkpt>
<trkpt lat="48.22538819" lon="-4.27939491"><ele></ele><time>2020-3-13T16:13:25Z</time></trkpt>
<trkpt lat="48.22526983" lon="-4.27925828"><ele></ele><time>2020-3-13T16:13:28Z</time></trkpt>
<trkpt lat="48.22516489" lon="-4.27911160"><ele></ele><time>2020-3-13T16:13:31Z</time></trkpt>
<trkpt lat="48.22498317" lon="-4.27879661"><ele></ele><time>2020-3-13T16:13:34Z</time></trkpt>
<trkpt lat="48.22486817" lon="-4.27855487"><ele></ele><time>2020-3-13T16:13:37Z</time></trkpt>
<trkpt lat="48.22474831" lon="-4.27825665"><ele></ele><time>2020-3-13T16:13:40Z</time></trkpt>
<trkpt lat="48.22474664" lon="-4.27820652"><ele></ele><time>2020-3-13T16:13:43Z</time></trkpt>
<trkpt lat="48.22475317" lon="-4.27815657"><ele></ele><time>2020-3-13T16:13:46Z</time></trkpt>
<trkpt lat="48.22478150" lon="-4.27801156"><ele></ele><time>2020-3-13T16:13:49Z</time></trkpt>
<trkpt lat="48.22515819" lon="-4.27578499"><ele></ele><time>2020-3-13T16:13:52Z</time></trkpt>
<trkpt lat="48.22516154" lon="-4.27572665"><ele></ele><time>2020-3-13T16:13:55Z</time></trkpt>
<trkpt lat="48.22523664" lon="-4.26960987"><ele></ele><time>2020-3-13T16:13:58Z</time></trkpt>
<trkpt lat="48.22523497" lon="-4.26954483"><ele></ele><time>2020-3-13T16:14:1Z</time></trkpt>
<trkpt lat="48.22522658" lon="-4.26210992"><ele></ele><time>2020-3-13T16:14:4Z</time></trkpt>
<trkpt lat="48.22501821" lon="-4.26025332"><ele></ele><time>2020-3-13T16:14:7Z</time></trkpt>
<trkpt lat="48.22500497" lon="-4.26019817"><ele></ele><time>2020-3-13T16:14:10Z</time></trkpt>
<trkpt lat="48.22466164" lon="-4.25900660"><ele></ele><time>2020-3-13T16:14:13Z</time></trkpt>
<trkpt lat="48.22465494" lon="-4.25896486"><ele></ele><time>2020-3-13T16:14:16Z</time></trkpt>
<trkpt lat="48.22454832" lon="-4.25834996"><ele></ele><time>2020-3-13T16:14:19Z</time></trkpt>
<trkpt lat="48.22453659" lon="-4.25825156"><ele></ele><time>2020-3-13T16:14:22Z</time></trkpt>
<trkpt lat="48.22449820" lon="-4.25783665"><ele></ele><time>2020-3-13T16:14:25Z</time></trkpt>
<trkpt lat="48.22442829" lon="-4.25645666"><ele></ele><time>2020-3-13T16:14:28Z</time></trkpt>
<trkpt lat="48.22442661" lon="-4.25634317"><ele></ele><time>2020-3-13T16:14:31Z</time></trkpt>
<trkpt lat="48.22443164" lon="-4.25617653"><ele></ele><time>2020-3-13T16:14:34Z</time></trkpt>
<trkpt lat="48.22445327" lon="-4.25584662"><ele></ele><time>2020-3-13T16:14:37Z</time></trkpt>
<trkpt lat="48.22445997" lon="-4.25579331"><ele></ele><time>2020-3-13T16:14:40Z</time></trkpt>
<trkpt lat="48.22447154" lon="-4.25573833"><ele></ele><time>2020-3-13T16:14:43Z</time></trkpt>
<trkpt lat="48.22448663" lon="-4.25568317"><ele></ele><time>2020-3-13T16:14:46Z</time></trkpt>
<trkpt lat="48.22468662" lon="-4.25468992"><ele></ele><time>2020-3-13T16:14:49Z</time></trkpt>
<trkpt lat="48.22471663" lon="-4.25465153"><ele></ele><time>2020-3-13T16:14:52Z</time></trkpt>
<trkpt lat="48.22475485" lon="-4.25463326"><ele></ele><time>2020-3-13T16:14:55Z</time></trkpt>
<trkpt lat="48.22479492" lon="-4.25462488"><ele></ele><time>2020-3-13T16:14:58Z</time></trkpt>
<trkpt lat="48.22493992" lon="-4.25457660"><ele></ele><time>2020-3-13T16:15:1Z</time></trkpt>
<trkpt lat="48.22497161" lon="-4.25455162"><ele></ele><time>2020-3-13T16:15:4Z</time></trkpt>
<trkpt lat="48.22499994" lon="-4.25451993"><ele></ele><time>2020-3-13T16:15:7Z</time></trkpt>
<trkpt lat="48.22505325" lon="-4.25444483"><ele></ele><time>2020-3-13T16:15:10Z</time></trkpt>
<trkpt lat="48.22603493" lon="-4.25294497"><ele></ele><time>2020-3-13T16:15:13Z</time></trkpt>
<trkpt lat="48.22605656" lon="-4.25290323"><ele></ele><time>2020-3-13T16:15:16Z</time></trkpt>
<trkpt lat="48.22846150" lon="-4.24829989"><ele></ele><time>2020-3-13T16:15:19Z</time></trkpt>
<trkpt lat="48.22846317" lon="-4.24823485"><ele></ele><time>2020-3-13T16:15:22Z</time></trkpt>
<trkpt lat="48.22845496" lon="-4.24817332"><ele></ele><time>2020-3-13T16:15:25Z</time></trkpt>
<trkpt lat="48.22843987" lon="-4.24812152"><ele></ele><time>2020-3-13T16:15:28Z</time></trkpt>
<trkpt lat="48.22842160" lon="-4.24808163"><ele></ele><time>2020-3-13T16:15:31Z</time></trkpt>
<trkpt lat="48.22840165" lon="-4.24805162"><ele></ele><time>2020-3-13T16:15:34Z</time></trkpt>
<trkpt lat="48.22810158" lon="-4.24763320"><ele></ele><time>2020-3-13T16:15:37Z</time></trkpt>
<trkpt lat="48.22808984" lon="-4.24760989"><ele></ele><time>2020-3-13T16:15:40Z</time></trkpt>
<trkpt lat="48.22773998" lon="-4.24690498"><ele></ele><time>2020-3-13T16:15:43Z</time></trkpt>
<trkpt lat="48.22753496" lon="-4.24650331"><ele></ele><time>2020-3-13T16:15:46Z</time></trkpt>
<trkpt lat="48.22748651" lon="-4.24641162"><ele></ele><time>2020-3-13T16:15:49Z</time></trkpt>
<trkpt lat="48.22747997" lon="-4.24639653"><ele></ele><time>2020-3-13T16:15:52Z</time></trkpt>
<trkpt lat="48.22744159" lon="-4.24631154"><ele></ele><time>2020-3-13T16:15:55Z</time></trkpt>
<trkpt lat="48.22742985" lon="-4.24629494"><ele></ele><time>2020-3-13T16:15:58Z</time></trkpt>
<trkpt lat="48.22739666" lon="-4.24623493"><ele></ele><time>2020-3-13T16:16:1Z</time></trkpt>
<trkpt lat="48.22738660" lon="-4.24620995"><ele></ele><time>2020-3-13T16:16:4Z</time></trkpt>
<trkpt lat="48.22731317" lon="-4.24607332"><ele></ele><time>2020-3-13T16:16:7Z</time></trkpt>
<trkpt lat="48.22718493" lon="-4.24583662"><ele></ele><time>2020-3-13T16:16:10Z</time></trkpt>
<trkpt lat="48.22699483" lon="-4.24547988"><ele></ele><time>2020-3-13T16:16:13Z</time></trkpt>
<trkpt lat="48.22668319" lon="-4.24491159"><ele></ele><time>2020-3-13T16:16:16Z</time></trkpt>
<trkpt lat="48.22667162" lon="-4.24489483"><ele></ele><time>2020-3-13T16:16:19Z</time></trkpt>
<trkpt lat="48.22659317" lon="-4.24478150"><ele></ele><time>2020-3-13T16:16:22Z</time></trkpt>
<trkpt lat="48.22658328" lon="-4.24476826"><ele></ele><time>2020-3-13T16:16:25Z</time></trkpt>
<trkpt lat="48.22657657" lon="-4.24475317"><ele></ele><time>2020-3-13T16:16:28Z</time></trkpt>
<trkpt lat="48.22655998" lon="-4.24472317"><ele></ele><time>2020-3-13T16:16:31Z</time></trkpt>
<trkpt lat="48.22652494" lon="-4.24467321"><ele></ele><time>2020-3-13T16:16:34Z</time></trkpt>
<trkpt lat="48.22649661" lon="-4.24463650"><ele></ele><time>2020-3-13T16:16:37Z</time></trkpt>
<trkpt lat="48.22648655" lon="-4.24462828"><ele></ele><time>2020-3-13T16:16:40Z</time></trkpt>
<trkpt lat="48.22647666" lon="-4.24461822"><ele></ele><time>2020-3-13T16:16:43Z</time></trkpt>
<trkpt lat="48.22646660" lon="-4.24460666"><ele></ele><time>2020-3-13T16:16:46Z</time></trkpt>
<trkpt lat="48.22641832" lon="-4.24453994"><ele></ele><time>2020-3-13T16:16:49Z</time></trkpt>
<trkpt lat="48.22636166" lon="-4.24445830"><ele></ele><time>2020-3-13T16:16:52Z</time></trkpt>
<trkpt lat="48.22635496" lon="-4.24444489"><ele></ele><time>2020-3-13T16:16:55Z</time></trkpt>
<trkpt lat="48.22634154" lon="-4.24441823"><ele></ele><time>2020-3-13T16:16:58Z</time></trkpt>
<trkpt lat="48.22631992" lon="-4.24438320"><ele></ele><time>2020-3-13T16:17:1Z</time></trkpt>
<trkpt lat="48.22628824" lon="-4.24433324"><ele></ele><time>2020-3-13T16:17:4Z</time></trkpt>
<trkpt lat="48.22628153" lon="-4.24432486"><ele></ele><time>2020-3-13T16:17:7Z</time></trkpt>
<trkpt lat="48.22625990" lon="-4.24430156"><ele></ele><time>2020-3-13T16:17:10Z</time></trkpt>
<trkpt lat="48.22625152" lon="-4.24429485"><ele></ele><time>2020-3-13T16:17:13Z</time></trkpt>
<trkpt lat="48.22624331" lon="-4.24428328"><ele></ele><time>2020-3-13T16:17:16Z</time></trkpt>
<trkpt lat="48.22620157" lon="-4.24423165"><ele></ele><time>2020-3-13T16:17:19Z</time></trkpt>
<trkpt lat="48.22612160" lon="-4.24414817"><ele></ele><time>2020-3-13T16:17:22Z</time></trkpt>
<trkpt lat="48.22610987" lon="-4.24413492"><ele></ele><time>2020-3-13T16:17:25Z</time></trkpt>
<trkpt lat="48.22600660" lon="-4.24402328"><ele></ele><time>2020-3-13T16:17:28Z</time></trkpt>
<trkpt lat="48.22599152" lon="-4.24399998"><ele></ele><time>2020-3-13T16:17:31Z</time></trkpt>
<trkpt lat="48.22592161" lon="-4.24388330"><ele></ele><time>2020-3-13T16:17:34Z</time></trkpt>
<trkpt lat="48.22590485" lon="-4.24384659"><ele></ele><time>2020-3-13T16:17:37Z</time></trkpt>
<trkpt lat="48.22587819" lon="-4.24376830"><ele></ele><time>2020-3-13T16:17:40Z</time></trkpt>
<trkpt lat="48.22585992" lon="-4.24368666"><ele></ele><time>2020-3-13T16:17:43Z</time></trkpt>
<trkpt lat="48.22556152" lon="-4.24247162"><ele></ele><time>2020-3-13T16:17:46Z</time></trkpt>
<trkpt lat="48.22553319" lon="-4.24239166"><ele></ele><time>2020-3-13T16:17:49Z</time></trkpt>
<trkpt lat="48.22545491" lon="-4.24218161"><ele></ele><time>2020-3-13T16:17:52Z</time></trkpt>
<trkpt lat="48.22542993" lon="-4.24213651"><ele></ele><time>2020-3-13T16:17:55Z</time></trkpt>
<trkpt lat="48.22540830" lon="-4.24209997"><ele></ele><time>2020-3-13T16:17:58Z</time></trkpt>
<trkpt lat="48.22539322" lon="-4.24206325"><ele></ele><time>2020-3-13T16:18:1Z</time></trkpt>
<trkpt lat="48.22527319" lon="-4.24179319"><ele></ele><time>2020-3-13T16:18:4Z</time></trkpt>
<trkpt lat="48.22525156" lon="-4.24176150"><ele></ele><time>2020-3-13T16:18:7Z</time></trkpt>
<trkpt lat="48.22523329" lon="-4.24172831"><ele></ele><time>2020-3-13T16:18:10Z</time></trkpt>
<trkpt lat="48.22482828" lon="-4.24103831"><ele></ele><time>2020-3-13T16:18:13Z</time></trkpt>
<trkpt lat="48.22480984" lon="-4.24101484"><ele></ele><time>2020-3-13T16:18:16Z</time></trkpt>
<trkpt lat="48.22479324" lon="-4.24099657"><ele></ele><time>2020-3-13T16:18:19Z</time></trkpt>
<trkpt lat="48.22477497" lon="-4.24098316"><ele></ele><time>2020-3-13T16:18:22Z</time></trkpt>
<trkpt lat="48.22475485" lon="-4.24097159"><ele></ele><time>2020-3-13T16:18:25Z</time></trkpt>
<trkpt lat="48.22475653" lon="-4.24096992"><ele></ele><time>2020-3-13T16:18:28Z</time></trkpt>
<trkpt lat="48.22475988" lon="-4.24096489"><ele></ele><time>2020-3-13T16:18:31Z</time></trkpt>
<trkpt lat="48.22476156" lon="-4.24096321"><ele></ele><time>2020-3-13T16:18:34Z</time></trkpt>
<trkpt lat="48.22476156" lon="-4.24096321"><ele></ele><time>2020-3-13T16:18:37Z</time></trkpt>
<trkpt lat="48.22476323" lon="-4.24096154"><ele></ele><time>2020-3-13T16:18:40Z</time></trkpt>
<trkpt lat="48.22476323" lon="-4.24096154"><ele></ele><time>2020-3-13T16:18:43Z</time></trkpt>
<trkpt lat="48.22476323" lon="-4.24096154"><ele></ele><time>2020-3-13T16:18:46Z</time></trkpt>
<trkpt lat="48.22476156" lon="-4.24096154"><ele></ele><time>2020-3-13T16:18:49Z</time></trkpt>
<trkpt lat="48.22476156" lon="-4.24095986"><ele></ele><time>2020-3-13T16:18:52Z</time></trkpt>
<trkpt lat="48.22475820" lon="-4.24095986"><ele></ele><time>2020-3-13T16:18:55Z</time></trkpt>
<trkpt lat="48.22475653" lon="-4.24095986"><ele></ele><time>2020-3-13T16:18:58Z</time></trkpt>
<trkpt lat="48.22475988" lon="-4.24095818"><ele></ele><time>2020-3-13T16:19:1Z</time></trkpt>
<trkpt lat="48.22476156" lon="-4.24095483"><ele></ele><time>2020-3-13T16:19:4Z</time></trkpt>
<trkpt lat="48.22475988" lon="-4.24095483"><ele></ele><time>2020-3-13T16:19:7Z</time></trkpt>
<trkpt lat="48.22475820" lon="-4.24095651"><ele></ele><time>2020-3-13T16:19:10Z</time></trkpt>
<trkpt lat="48.22475820" lon="-4.24095483"><ele></ele><time>2020-3-13T16:19:13Z</time></trkpt>
<trkpt lat="48.22475653" lon="-4.24095483"><ele></ele><time>2020-3-13T16:19:16Z</time></trkpt>
<trkpt lat="48.22475317" lon="-4.24095483"><ele></ele><time>2020-3-13T16:19:19Z</time></trkpt>
<trkpt lat="48.22475317" lon="-4.24095483"><ele></ele><time>2020-3-13T16:19:22Z</time></trkpt>
<trkpt lat="48.22475485" lon="-4.24095332"><ele></ele><time>2020-3-13T16:19:25Z</time></trkpt>
<trkpt lat="48.22474664" lon="-4.24094997"><ele></ele><time>2020-3-13T16:19:28Z</time></trkpt>
<trkpt lat="48.22473993" lon="-4.24094829"><ele></ele><time>2020-3-13T16:19:31Z</time></trkpt>
<trkpt lat="48.22473490" lon="-4.24094159"><ele></ele><time>2020-3-13T16:19:34Z</time></trkpt>
<trkpt lat="48.22472820" lon="-4.24094159"><ele></ele><time>2020-3-13T16:19:37Z</time></trkpt>
<trkpt lat="48.22471663" lon="-4.24093991"><ele></ele><time>2020-3-13T16:19:40Z</time></trkpt>
<trkpt lat="48.22468662" lon="-4.24093991"><ele></ele><time>2020-3-13T16:19:43Z</time></trkpt>
<trkpt lat="48.22467153" lon="-4.24094662"><ele></ele><time>2020-3-13T16:19:46Z</time></trkpt>
<trkpt lat="48.22463817" lon="-4.24096489"><ele></ele><time>2020-3-13T16:19:49Z</time></trkpt>
<trkpt lat="48.22462325" lon="-4.24096656"><ele></ele><time>2020-3-13T16:19:52Z</time></trkpt>
<trkpt lat="48.22460498" lon="-4.24096656"><ele></ele><time>2020-3-13T16:19:55Z</time></trkpt>
<trkpt lat="48.22458654" lon="-4.24096154"><ele></ele><time>2020-3-13T16:19:58Z</time></trkpt>
<trkpt lat="48.22449652" lon="-4.24094159"><ele></ele><time>2020-3-13T16:20:1Z</time></trkpt>
<trkpt lat="48.22447992" lon="-4.24093320"><ele></ele><time>2020-3-13T16:20:4Z</time></trkpt>
<trkpt lat="48.22446333" lon="-4.24091996"><ele></ele><time>2020-3-13T16:20:7Z</time></trkpt>
<trkpt lat="48.22444656" lon="-4.24090487"><ele></ele><time>2020-3-13T16:20:10Z</time></trkpt>
<trkpt lat="48.22441656" lon="-4.24087319"><ele></ele><time>2020-3-13T16:20:13Z</time></trkpt>
<trkpt lat="48.22440331" lon="-4.24085492"><ele></ele><time>2020-3-13T16:20:16Z</time></trkpt>
<trkpt lat="48.22437498" lon="-4.24081988"><ele></ele><time>2020-3-13T16:20:19Z</time></trkpt>
<trkpt lat="48.22433659" lon="-4.24078652"><ele></ele><time>2020-3-13T16:20:22Z</time></trkpt>
<trkpt lat="48.22409989" lon="-4.24062827"><ele></ele><time>2020-3-13T16:20:25Z</time></trkpt>
<trkpt lat="48.22408329" lon="-4.24061989"><ele></ele><time>2020-3-13T16:20:28Z</time></trkpt>
<trkpt lat="48.22401825" lon="-4.24060162"><ele></ele><time>2020-3-13T16:20:31Z</time></trkpt>
<trkpt lat="48.22383988" lon="-4.24056658"><ele></ele><time>2020-3-13T16:20:34Z</time></trkpt>
<trkpt lat="48.22373326" lon="-4.24056490"><ele></ele><time>2020-3-13T16:20:37Z</time></trkpt>
<trkpt lat="48.22369990" lon="-4.24056490"><ele></ele><time>2020-3-13T16:20:40Z</time></trkpt>
<trkpt lat="48.22368331" lon="-4.24056155"><ele></ele><time>2020-3-13T16:20:43Z</time></trkpt>
<trkpt lat="48.22341660" lon="-4.24050489"><ele></ele><time>2020-3-13T16:20:46Z</time></trkpt>
<trkpt lat="48.22338659" lon="-4.24049818"><ele></ele><time>2020-3-13T16:20:49Z</time></trkpt>
<trkpt lat="48.22338659" lon="-4.24049818"><ele></ele><time>2020-3-13T16:20:52Z</time></trkpt>
<trkpt lat="48.22338659" lon="-4.24049986"><ele></ele><time>2020-3-13T16:20:55Z</time></trkpt>
<trkpt lat="48.22338659" lon="-4.24050154"><ele></ele><time>2020-3-13T16:20:58Z</time></trkpt>
<trkpt lat="48.22338659" lon="-4.24049986"><ele></ele><time>2020-3-13T16:21:1Z</time></trkpt>
<trkpt lat="48.22338659" lon="-4.24049818"><ele></ele><time>2020-3-13T16:21:4Z</time></trkpt>
<trkpt lat="48.22338659" lon="-4.24049986"><ele></ele><time>2020-3-13T16:21:7Z</time></trkpt>
<trkpt lat="48.22338659" lon="-4.24049986"><ele></ele><time>2020-3-13T16:21:10Z</time></trkpt>
<trkpt lat="48.22338659" lon="-4.24049986"><ele></ele><time>2020-3-13T16:21:13Z</time></trkpt>
<trkpt lat="48.22338659" lon="-4.24049986"><ele></ele><time>2020-3-13T16:21:16Z</time></trkpt>
<trkpt lat="48.22338659" lon="-4.24049986"><ele></ele><time>2020-3-13T16:21:19Z</time></trkpt>
<trkpt lat="48.22338659" lon="-4.24049986"><ele></ele><time>2020-3-13T16:21:22Z</time></trkpt>
<trkpt lat="48.22338659" lon="-4.24049986"><ele></ele><time>2020-3-13T16:21:25Z</time></trkpt>
<trkpt lat="48.22338659" lon="-4.24049986"><ele></ele><time>2020-3-13T16:21:28Z</time></trkpt>
<trkpt lat="48.22338826" lon="-4.24049986"><ele></ele><time>2020-3-13T16:21:31Z</time></trkpt>
<trkpt lat="48.22338826" lon="-4.24050154"><ele></ele><time>2020-3-13T16:21:34Z</time></trkpt>
<trkpt lat="48.22338826" lon="-4.24049986"><ele></ele><time>2020-3-13T16:21:37Z</time></trkpt>
<trkpt lat="48.22338826" lon="-4.24049986"><ele></ele><time>2020-3-13T16:21:40Z</time></trkpt>
<trkpt lat="48.22338826" lon="-4.24049986"><ele></ele><time>2020-3-13T16:21:43Z</time></trkpt>
<trkpt lat="48.22338826" lon="-4.24049986"><ele></ele><time>2020-3-13T16:21:46Z</time></trkpt>
<trkpt lat="48.22338826" lon="-4.24049986"><ele></ele><time>2020-3-13T16:21:49Z</time></trkpt>
<trkpt lat="48.22338826" lon="-4.24049986"><ele></ele><time>2020-3-13T16:21:52Z</time></trkpt>
<trkpt lat="48.22338826" lon="-4.24049986"><ele></ele><time>2020-3-13T16:21:55Z</time></trkpt>
<trkpt lat="48.22338826" lon="-4.24049986"><ele></ele><time>2020-3-13T16:21:58Z</time></trkpt>
<trkpt lat="48.22338826" lon="-4.24049986"><ele></ele><time>2020-3-13T16:22:1Z</time></trkpt>
<trkpt lat="48.22338826" lon="-4.24049986"><ele></ele><time>2020-3-13T16:22:4Z</time></trkpt>
<trkpt lat="48.22338826" lon="-4.24049986"><ele></ele><time>2020-3-13T16:22:7Z</time></trkpt>
<trkpt lat="48.22338324" lon="-4.24049986"><ele></ele><time>2020-3-13T16:22:10Z</time></trkpt>
<trkpt lat="48.22337485" lon="-4.24049818"><ele></ele><time>2020-3-13T16:22:13Z</time></trkpt>
<trkpt lat="48.22319816" lon="-4.24047991"><ele></ele><time>2020-3-13T16:22:16Z</time></trkpt>
<trkpt lat="48.22314653" lon="-4.24048159"><ele></ele><time>2020-3-13T16:22:19Z</time></trkpt>
<trkpt lat="48.22300152" lon="-4.24047488"><ele></ele><time>2020-3-13T16:22:22Z</time></trkpt>
<trkpt lat="48.22294654" lon="-4.24046818"><ele></ele><time>2020-3-13T16:22:25Z</time></trkpt>
<trkpt lat="48.22231488" lon="-4.24040330"><ele></ele><time>2020-3-13T16:22:28Z</time></trkpt>
<trkpt lat="48.22229828" lon="-4.24039995"><ele></ele><time>2020-3-13T16:22:31Z</time></trkpt>
<trkpt lat="48.22226492" lon="-4.24038821"><ele></ele><time>2020-3-13T16:22:34Z</time></trkpt>
<trkpt lat="48.22221832" lon="-4.24035988"><ele></ele><time>2020-3-13T16:22:37Z</time></trkpt>
<trkpt lat="48.22220155" lon="-4.24034832"><ele></ele><time>2020-3-13T16:22:40Z</time></trkpt>
<trkpt lat="48.22216987" lon="-4.24031998"><ele></ele><time>2020-3-13T16:22:43Z</time></trkpt>
<trkpt lat="48.22209158" lon="-4.24025494"><ele></ele><time>2020-3-13T16:22:46Z</time></trkpt>
<trkpt lat="48.22205822" lon="-4.24023499"><ele></ele><time>2020-3-13T16:22:49Z</time></trkpt>
<trkpt lat="48.22199318" lon="-4.24020331"><ele></ele><time>2020-3-13T16:22:52Z</time></trkpt>
<trkpt lat="48.22197658" lon="-4.24019828"><ele></ele><time>2020-3-13T16:22:55Z</time></trkpt>
<trkpt lat="48.22187986" lon="-4.24016492"><ele></ele><time>2020-3-13T16:22:58Z</time></trkpt>
<trkpt lat="48.22185823" lon="-4.24015821"><ele></ele><time>2020-3-13T16:23:1Z</time></trkpt>
<trkpt lat="48.22178984" lon="-4.24015486"><ele></ele><time>2020-3-13T16:23:4Z</time></trkpt>
<trkpt lat="48.22170484" lon="-4.24016157"><ele></ele><time>2020-3-13T16:23:7Z</time></trkpt>
<trkpt lat="48.22166159" lon="-4.24017816"><ele></ele><time>2020-3-13T16:23:10Z</time></trkpt>
<trkpt lat="48.22163494" lon="-4.24018487"><ele></ele><time>2020-3-13T16:23:13Z</time></trkpt>
<trkpt lat="48.22157492" lon="-4.24019660"><ele></ele><time>2020-3-13T16:23:16Z</time></trkpt>
<trkpt lat="48.22152497" lon="-4.24019493"><ele></ele><time>2020-3-13T16:23:19Z</time></trkpt>
<trkpt lat="48.22145825" lon="-4.24019493"><ele></ele><time>2020-3-13T16:23:22Z</time></trkpt>
<trkpt lat="48.22144484" lon="-4.24019828"><ele></ele><time>2020-3-13T16:23:25Z</time></trkpt>
<trkpt lat="48.22140326" lon="-4.24020666"><ele></ele><time>2020-3-13T16:23:28Z</time></trkpt>
<trkpt lat="48.22125993" lon="-4.24025159"><ele></ele><time>2020-3-13T16:23:31Z</time></trkpt>
<trkpt lat="48.22124652" lon="-4.24025997"><ele></ele><time>2020-3-13T16:23:34Z</time></trkpt>
<trkpt lat="48.22120998" lon="-4.24028327"><ele></ele><time>2020-3-13T16:23:37Z</time></trkpt>
<trkpt lat="48.22119489" lon="-4.24028830"><ele></ele><time>2020-3-13T16:23:40Z</time></trkpt>
<trkpt lat="48.22116656" lon="-4.24029819"><ele></ele><time>2020-3-13T16:23:43Z</time></trkpt>
<trkpt lat="48.22115650" lon="-4.24029316"><ele></ele><time>2020-3-13T16:23:46Z</time></trkpt>
<trkpt lat="48.22114493" lon="-4.24029165"><ele></ele><time>2020-3-13T16:23:49Z</time></trkpt>
<trkpt lat="48.22110487" lon="-4.24029484"><ele></ele><time>2020-3-13T16:23:52Z</time></trkpt>
<trkpt lat="48.22109162" lon="-4.24029987"><ele></ele><time>2020-3-13T16:23:55Z</time></trkpt>
<trkpt lat="48.22102155" lon="-4.24033323"><ele></ele><time>2020-3-13T16:23:58Z</time></trkpt>
<trkpt lat="48.22098484" lon="-4.24035821"><ele></ele><time>2020-3-13T16:24:1Z</time></trkpt>
<trkpt lat="48.22090655" lon="-4.24041990"><ele></ele><time>2020-3-13T16:24:4Z</time></trkpt>
<trkpt lat="48.22087990" lon="-4.24044320"><ele></ele><time>2020-3-13T16:24:7Z</time></trkpt>
<trkpt lat="48.22087822" lon="-4.24044152"><ele></ele><time>2020-3-13T16:24:10Z</time></trkpt>
<trkpt lat="48.22087487" lon="-4.24044152"><ele></ele><time>2020-3-13T16:24:13Z</time></trkpt>
<trkpt lat="48.22087319" lon="-4.24044320"><ele></ele><time>2020-3-13T16:24:16Z</time></trkpt>
<trkpt lat="48.22086984" lon="-4.24044152"><ele></ele><time>2020-3-13T16:24:19Z</time></trkpt>
<trkpt lat="48.22086162" lon="-4.24043985"><ele></ele><time>2020-3-13T16:24:22Z</time></trkpt>
<trkpt lat="48.22085324" lon="-4.24044487"><ele></ele><time>2020-3-13T16:24:25Z</time></trkpt>
<trkpt lat="48.22084821" lon="-4.24044990"><ele></ele><time>2020-3-13T16:24:28Z</time></trkpt>
<trkpt lat="48.22084654" lon="-4.24044823"><ele></ele><time>2020-3-13T16:24:31Z</time></trkpt>
<trkpt lat="48.22084318" lon="-4.24044990"><ele></ele><time>2020-3-13T16:24:34Z</time></trkpt>
<trkpt lat="48.22084486" lon="-4.24044990"><ele></ele><time>2020-3-13T16:24:37Z</time></trkpt>
<trkpt lat="48.22084486" lon="-4.24045158"><ele></ele><time>2020-3-13T16:24:40Z</time></trkpt>
<trkpt lat="48.22084486" lon="-4.24045158"><ele></ele><time>2020-3-13T16:24:43Z</time></trkpt>
<trkpt lat="48.22084486" lon="-4.24045158"><ele></ele><time>2020-3-13T16:24:46Z</time></trkpt>
<trkpt lat="48.22084654" lon="-4.24045158"><ele></ele><time>2020-3-13T16:24:49Z</time></trkpt>
<trkpt lat="48.22084654" lon="-4.24045158"><ele></ele><time>2020-3-13T16:24:52Z</time></trkpt>
<trkpt lat="48.22084654" lon="-4.24045158"><ele></ele><time>2020-3-13T16:24:55Z</time></trkpt>
<trkpt lat="48.22084654" lon="-4.24045158"><ele></ele><time>2020-3-13T16:24:58Z</time></trkpt>
<trkpt lat="48.22084654" lon="-4.24045158"><ele></ele><time>2020-3-13T16:25:1Z</time></trkpt>
<trkpt lat="48.22084654" lon="-4.24045158"><ele></ele><time>2020-3-13T16:25:4Z</time></trkpt>
<trkpt lat="48.22084318" lon="-4.24045326"><ele></ele><time>2020-3-13T16:25:7Z</time></trkpt>
<trkpt lat="48.22084318" lon="-4.24045326"><ele></ele><time>2020-3-13T16:25:10Z</time></trkpt>
<trkpt lat="48.22084151" lon="-4.24045829"><ele></ele><time>2020-3-13T16:25:13Z</time></trkpt>
<trkpt lat="48.22083329" lon="-4.24046499"><ele></ele><time>2020-3-13T16:25:16Z</time></trkpt>
<trkpt lat="48.22031831" lon="-4.24094159"><ele></ele><time>2020-3-13T16:25:19Z</time></trkpt>
<trkpt lat="48.22029987" lon="-4.24094997"><ele></ele><time>2020-3-13T16:25:22Z</time></trkpt>
<trkpt lat="48.22022158" lon="-4.24100495"><ele></ele><time>2020-3-13T16:25:25Z</time></trkpt>
<trkpt lat="48.22003483" lon="-4.24112666"><ele></ele><time>2020-3-13T16:25:28Z</time></trkpt>
<trkpt lat="48.22001488" lon="-4.24113655"><ele></ele><time>2020-3-13T16:25:31Z</time></trkpt>
<trkpt lat="48.21981322" lon="-4.24125323"><ele></ele><time>2020-3-13T16:25:34Z</time></trkpt>
<trkpt lat="48.21980165" lon="-4.24125825"><ele></ele><time>2020-3-13T16:25:37Z</time></trkpt>
<trkpt lat="48.21979662" lon="-4.24125993"><ele></ele><time>2020-3-13T16:25:40Z</time></trkpt>
<trkpt lat="48.21979494" lon="-4.24125825"><ele></ele><time>2020-3-13T16:25:43Z</time></trkpt>
<trkpt lat="48.21979662" lon="-4.24125658"><ele></ele><time>2020-3-13T16:25:46Z</time></trkpt>
<trkpt lat="48.21980165" lon="-4.24124987"><ele></ele><time>2020-3-13T16:25:49Z</time></trkpt>
<trkpt lat="48.21980483" lon="-4.24124484"><ele></ele><time>2020-3-13T16:25:52Z</time></trkpt>
<trkpt lat="48.21980651" lon="-4.24124317"><ele></ele><time>2020-3-13T16:25:55Z</time></trkpt>
<trkpt lat="48.21980819" lon="-4.24124317"><ele></ele><time>2020-3-13T16:25:58Z</time></trkpt>
<trkpt lat="48.21980986" lon="-4.24124166"><ele></ele><time>2020-3-13T16:26:1Z</time></trkpt>
<trkpt lat="48.21981154" lon="-4.24123998"><ele></ele><time>2020-3-13T16:26:4Z</time></trkpt>
<trkpt lat="48.21981322" lon="-4.24123998"><ele></ele><time>2020-3-13T16:26:7Z</time></trkpt>
<trkpt lat="48.21981322" lon="-4.24124166"><ele></ele><time>2020-3-13T16:26:10Z</time></trkpt>
<trkpt lat="48.21981322" lon="-4.24124317"><ele></ele><time>2020-3-13T16:26:13Z</time></trkpt>
<trkpt lat="48.21981322" lon="-4.24124317"><ele></ele><time>2020-3-13T16:26:16Z</time></trkpt>
<trkpt lat="48.21981322" lon="-4.24124317"><ele></ele><time>2020-3-13T16:26:19Z</time></trkpt>
<trkpt lat="48.21981322" lon="-4.24124317"><ele></ele><time>2020-3-13T16:26:22Z</time></trkpt>
<trkpt lat="48.21981489" lon="-4.24124317"><ele></ele><time>2020-3-13T16:26:25Z</time></trkpt>
<trkpt lat="48.21981489" lon="-4.24124166"><ele></ele><time>2020-3-13T16:26:28Z</time></trkpt>
<trkpt lat="48.21981489" lon="-4.24124166"><ele></ele><time>2020-3-13T16:26:31Z</time></trkpt>
<trkpt lat="48.21981824" lon="-4.24123831"><ele></ele><time>2020-3-13T16:26:34Z</time></trkpt>
<trkpt lat="48.21981992" lon="-4.24123328"><ele></ele><time>2020-3-13T16:26:37Z</time></trkpt>
<trkpt lat="48.21981992" lon="-4.24123328"><ele></ele><time>2020-3-13T16:26:40Z</time></trkpt>
<trkpt lat="48.21981992" lon="-4.24123328"><ele></ele><time>2020-3-13T16:26:43Z</time></trkpt>
<trkpt lat="48.21982160" lon="-4.24123328"><ele></ele><time>2020-3-13T16:26:46Z</time></trkpt>
<trkpt lat="48.21982160" lon="-4.24123328"><ele></ele><time>2020-3-13T16:26:49Z</time></trkpt>
<trkpt lat="48.21982160" lon="-4.24123328"><ele></ele><time>2020-3-13T16:26:52Z</time></trkpt>
<trkpt lat="48.21982160" lon="-4.24123328"><ele></ele><time>2020-3-13T16:26:55Z</time></trkpt>
<trkpt lat="48.21981992" lon="-4.24123495"><ele></ele><time>2020-3-13T16:26:58Z</time></trkpt>
<trkpt lat="48.21980986" lon="-4.24124484"><ele></ele><time>2020-3-13T16:27:1Z</time></trkpt>
<trkpt lat="48.21979830" lon="-4.24124987"><ele></ele><time>2020-3-13T16:27:4Z</time></trkpt>
<trkpt lat="48.21978321" lon="-4.24125155"><ele></ele><time>2020-3-13T16:27:7Z</time></trkpt>
<trkpt lat="48.21976829" lon="-4.24125825"><ele></ele><time>2020-3-13T16:27:10Z</time></trkpt>
<trkpt lat="48.21970492" lon="-4.24128491"><ele></ele><time>2020-3-13T16:27:13Z</time></trkpt>
<trkpt lat="48.21968665" lon="-4.24128491"><ele></ele><time>2020-3-13T16:27:16Z</time></trkpt>
<trkpt lat="48.21966653" lon="-4.24128826"><ele></ele><time>2020-3-13T16:27:19Z</time></trkpt>
<trkpt lat="48.21964658" lon="-4.24129497"><ele></ele><time>2020-3-13T16:27:22Z</time></trkpt>
<trkpt lat="48.21944659" lon="-4.24140159"><ele></ele><time>2020-3-13T16:27:25Z</time></trkpt>
<trkpt lat="48.21942497" lon="-4.24141986"><ele></ele><time>2020-3-13T16:27:28Z</time></trkpt>
<trkpt lat="48.21940150" lon="-4.24143997"><ele></ele><time>2020-3-13T16:27:31Z</time></trkpt>
<trkpt lat="48.21937819" lon="-4.24145657"><ele></ele><time>2020-3-13T16:27:34Z</time></trkpt>
<trkpt lat="48.21935322" lon="-4.24146998"><ele></ele><time>2020-3-13T16:27:37Z</time></trkpt>
<trkpt lat="48.21932656" lon="-4.24148155"><ele></ele><time>2020-3-13T16:27:40Z</time></trkpt>
<trkpt lat="48.21929823" lon="-4.24148993"><ele></ele><time>2020-3-13T16:27:43Z</time></trkpt>
<trkpt lat="48.21905164" lon="-4.24155162"><ele></ele><time>2020-3-13T16:27:46Z</time></trkpt>
<trkpt lat="48.21902163" lon="-4.24155497"><ele></ele><time>2020-3-13T16:27:49Z</time></trkpt>
<trkpt lat="48.21895994" lon="-4.24155330"><ele></ele><time>2020-3-13T16:27:52Z</time></trkpt>
<trkpt lat="48.21889825" lon="-4.24154659"><ele></ele><time>2020-3-13T16:27:55Z</time></trkpt>
<trkpt lat="48.21872659" lon="-4.24152664"><ele></ele><time>2020-3-13T16:27:58Z</time></trkpt>
<trkpt lat="48.21869658" lon="-4.24153150"><ele></ele><time>2020-3-13T16:28:1Z</time></trkpt>
<trkpt lat="48.21852492" lon="-4.24156822"><ele></ele><time>2020-3-13T16:28:4Z</time></trkpt>
<trkpt lat="48.21849659" lon="-4.24158498"><ele></ele><time>2020-3-13T16:28:7Z</time></trkpt>
<trkpt lat="48.21847161" lon="-4.24160996"><ele></ele><time>2020-3-13T16:28:10Z</time></trkpt>
<trkpt lat="48.21839332" lon="-4.24167986"><ele></ele><time>2020-3-13T16:28:13Z</time></trkpt>
<trkpt lat="48.21836650" lon="-4.24169998"><ele></ele><time>2020-3-13T16:28:16Z</time></trkpt>
<trkpt lat="48.21830833" lon="-4.24173988"><ele></ele><time>2020-3-13T16:28:19Z</time></trkpt>
<trkpt lat="48.21827497" lon="-4.24175664"><ele></ele><time>2020-3-13T16:28:22Z</time></trkpt>
<trkpt lat="48.21821160" lon="-4.24178162"><ele></ele><time>2020-3-13T16:28:25Z</time></trkpt>
<trkpt lat="48.21817992" lon="-4.24178984"><ele></ele><time>2020-3-13T16:28:28Z</time></trkpt>
<trkpt lat="48.21814488" lon="-4.24179319"><ele></ele><time>2020-3-13T16:28:31Z</time></trkpt>
<trkpt lat="48.21807816" lon="-4.24180492"><ele></ele><time>2020-3-13T16:28:34Z</time></trkpt>
<trkpt lat="48.21801831" lon="-4.24182990"><ele></ele><time>2020-3-13T16:28:37Z</time></trkpt>
<trkpt lat="48.21799166" lon="-4.24184650"><ele></ele><time>2020-3-13T16:28:40Z</time></trkpt>
<trkpt lat="48.21776317" lon="-4.24201497"><ele></ele><time>2020-3-13T16:28:43Z</time></trkpt>
<trkpt lat="48.21772830" lon="-4.24202319"><ele></ele><time>2020-3-13T16:28:46Z</time></trkpt>
<trkpt lat="48.21756653" lon="-4.24207650"><ele></ele><time>2020-3-13T16:28:49Z</time></trkpt>
<trkpt lat="48.21754155" lon="-4.24209158"><ele></ele><time>2020-3-13T16:28:52Z</time></trkpt>
<trkpt lat="48.21725824" lon="-4.24226157"><ele></ele><time>2020-3-13T16:28:55Z</time></trkpt>
<trkpt lat="48.21724483" lon="-4.24226660"><ele></ele><time>2020-3-13T16:28:58Z</time></trkpt>
<trkpt lat="48.21720829" lon="-4.24227984"><ele></ele><time>2020-3-13T16:29:1Z</time></trkpt>
<trkpt lat="48.21720158" lon="-4.24227816"><ele></ele><time>2020-3-13T16:29:4Z</time></trkpt>
<trkpt lat="48.21719991" lon="-4.24227330"><ele></ele><time>2020-3-13T16:29:7Z</time></trkpt>
<trkpt lat="48.21719991" lon="-4.24226995"><ele></ele><time>2020-3-13T16:29:10Z</time></trkpt>
<trkpt lat="48.21719488" lon="-4.24227330"><ele></ele><time>2020-3-13T16:29:13Z</time></trkpt>
<trkpt lat="48.21718649" lon="-4.24227498"><ele></ele><time>2020-3-13T16:29:16Z</time></trkpt>
<trkpt lat="48.21717660" lon="-4.24227666"><ele></ele><time>2020-3-13T16:29:19Z</time></trkpt>
<trkpt lat="48.21709329" lon="-4.24229661"><ele></ele><time>2020-3-13T16:29:22Z</time></trkpt>
<trkpt lat="48.21705993" lon="-4.24230985"><ele></ele><time>2020-3-13T16:29:25Z</time></trkpt>
<trkpt lat="48.21702489" lon="-4.24232326"><ele></ele><time>2020-3-13T16:29:28Z</time></trkpt>
<trkpt lat="48.21701651" lon="-4.24232326"><ele></ele><time>2020-3-13T16:29:31Z</time></trkpt>
<trkpt lat="48.21700830" lon="-4.24232661"><ele></ele><time>2020-3-13T16:29:34Z</time></trkpt>
<trkpt lat="48.21697829" lon="-4.24233818"><ele></ele><time>2020-3-13T16:29:37Z</time></trkpt>
<trkpt lat="48.21697661" lon="-4.24233986"><ele></ele><time>2020-3-13T16:29:40Z</time></trkpt>
<trkpt lat="48.21697661" lon="-4.24234153"><ele></ele><time>2020-3-13T16:29:43Z</time></trkpt>
<trkpt lat="48.21697661" lon="-4.24234153"><ele></ele><time>2020-3-13T16:29:46Z</time></trkpt>
<trkpt lat="48.21697661" lon="-4.24234153"><ele></ele><time>2020-3-13T16:29:49Z</time></trkpt>
<trkpt lat="48.21697829" lon="-4.24234321"><ele></ele><time>2020-3-13T16:29:52Z</time></trkpt>
<trkpt lat="48.21697829" lon="-4.24234321"><ele></ele><time>2020-3-13T16:29:55Z</time></trkpt>
<trkpt lat="48.21697829" lon="-4.24234321"><ele></ele><time>2020-3-13T16:29:58Z</time></trkpt>
<trkpt lat="48.21697494" lon="-4.24234321"><ele></ele><time>2020-3-13T16:30:1Z</time></trkpt>
<trkpt lat="48.21696655" lon="-4.24234824"><ele></ele><time>2020-3-13T16:30:4Z</time></trkpt>
<trkpt lat="48.21694158" lon="-4.24235830"><ele></ele><time>2020-3-13T16:30:7Z</time></trkpt>
<trkpt lat="48.21687653" lon="-4.24237489"><ele></ele><time>2020-3-13T16:30:10Z</time></trkpt>
<trkpt lat="48.21686329" lon="-4.24237657"><ele></ele><time>2020-3-13T16:30:13Z</time></trkpt>
<trkpt lat="48.21684988" lon="-4.24237489"><ele></ele><time>2020-3-13T16:30:16Z</time></trkpt>
<trkpt lat="48.21682993" lon="-4.24236165"><ele></ele><time>2020-3-13T16:30:19Z</time></trkpt>
<trkpt lat="48.21681987" lon="-4.24234824"><ele></ele><time>2020-3-13T16:30:22Z</time></trkpt>
<trkpt lat="48.21680830" lon="-4.24233986"><ele></ele><time>2020-3-13T16:30:25Z</time></trkpt>
<trkpt lat="48.21678986" lon="-4.24232326"><ele></ele><time>2020-3-13T16:30:28Z</time></trkpt>
<trkpt lat="48.21677159" lon="-4.24230985"><ele></ele><time>2020-3-13T16:30:31Z</time></trkpt>
<trkpt lat="48.21675986" lon="-4.24231152"><ele></ele><time>2020-3-13T16:30:34Z</time></trkpt>
<trkpt lat="48.21674829" lon="-4.24230985"><ele></ele><time>2020-3-13T16:30:37Z</time></trkpt>
<trkpt lat="48.21672817" lon="-4.24230817"><ele></ele><time>2020-3-13T16:30:40Z</time></trkpt>
<trkpt lat="48.21670487" lon="-4.24230650"><ele></ele><time>2020-3-13T16:30:43Z</time></trkpt>
<trkpt lat="48.21669330" lon="-4.24230817"><ele></ele><time>2020-3-13T16:30:46Z</time></trkpt>
<trkpt lat="48.21666665" lon="-4.24231823"><ele></ele><time>2020-3-13T16:30:49Z</time></trkpt>
<trkpt lat="48.21662491" lon="-4.24233164"><ele></ele><time>2020-3-13T16:30:52Z</time></trkpt>
<trkpt lat="48.21661150" lon="-4.24233332"><ele></ele><time>2020-3-13T16:30:55Z</time></trkpt>
<trkpt lat="48.21654662" lon="-4.24234321"><ele></ele><time>2020-3-13T16:30:58Z</time></trkpt>
<trkpt lat="48.21653321" lon="-4.24234824"><ele></ele><time>2020-3-13T16:31:1Z</time></trkpt>
<trkpt lat="48.21651829" lon="-4.24235159"><ele></ele><time>2020-3-13T16:31:4Z</time></trkpt>
<trkpt lat="48.21650488" lon="-4.24235327"><ele></ele><time>2020-3-13T16:31:7Z</time></trkpt>
<trkpt lat="48.21625158" lon="-4.24240658"><ele></ele><time>2020-3-13T16:31:10Z</time></trkpt>
<trkpt lat="48.21623984" lon="-4.24241160"><ele></ele><time>2020-3-13T16:31:13Z</time></trkpt>
<trkpt lat="48.21605997" lon="-4.24250163"><ele></ele><time>2020-3-13T16:31:16Z</time></trkpt>
<trkpt lat="48.21602493" lon="-4.24252493"><ele></ele><time>2020-3-13T16:31:19Z</time></trkpt>
<trkpt lat="48.21556326" lon="-4.24288149"><ele></ele><time>2020-3-13T16:31:22Z</time></trkpt>
<trkpt lat="48.21547826" lon="-4.24293162"><ele></ele><time>2020-3-13T16:31:25Z</time></trkpt>
<trkpt lat="48.21508817" lon="-4.24312993"><ele></ele><time>2020-3-13T16:31:28Z</time></trkpt>
<trkpt lat="48.21506654" lon="-4.24313161"><ele></ele><time>2020-3-13T16:31:31Z</time></trkpt>
<trkpt lat="48.21492154" lon="-4.24313496"><ele></ele><time>2020-3-13T16:31:34Z</time></trkpt>
<trkpt lat="48.21479162" lon="-4.24312490"><ele></ele><time>2020-3-13T16:31:37Z</time></trkpt>
<trkpt lat="48.21476832" lon="-4.24311652"><ele></ele><time>2020-3-13T16:31:40Z</time></trkpt>
<trkpt lat="48.21447160" lon="-4.24300990"><ele></ele><time>2020-3-13T16:31:43Z</time></trkpt>
<trkpt lat="48.21444327" lon="-4.24299163"><ele></ele><time>2020-3-13T16:31:46Z</time></trkpt>
<trkpt lat="48.21441661" lon="-4.24297152"><ele></ele><time>2020-3-13T16:31:49Z</time></trkpt>
<trkpt lat="48.21434486" lon="-4.24292324"><ele></ele><time>2020-3-13T16:31:52Z</time></trkpt>
<trkpt lat="48.21432491" lon="-4.24292827"><ele></ele><time>2020-3-13T16:31:55Z</time></trkpt>
<trkpt lat="48.21431150" lon="-4.24294486"><ele></ele><time>2020-3-13T16:31:58Z</time></trkpt>
<trkpt lat="48.21429993" lon="-4.24296984"><ele></ele><time>2020-3-13T16:32:1Z</time></trkpt>
<trkpt lat="48.21429323" lon="-4.24300152"><ele></ele><time>2020-3-13T16:32:4Z</time></trkpt>
<trkpt lat="48.21428485" lon="-4.24307327"><ele></ele><time>2020-3-13T16:32:7Z</time></trkpt>
<trkpt lat="48.21427160" lon="-4.24321996"><ele></ele><time>2020-3-13T16:32:10Z</time></trkpt>
<trkpt lat="48.21426322" lon="-4.24325650"><ele></ele><time>2020-3-13T16:32:13Z</time></trkpt>
<trkpt lat="48.21418829" lon="-4.24363318"><ele></ele><time>2020-3-13T16:32:16Z</time></trkpt>
<trkpt lat="48.21417823" lon="-4.24366319"><ele></ele><time>2020-3-13T16:32:19Z</time></trkpt>
<trkpt lat="48.21411989" lon="-4.24388665"><ele></ele><time>2020-3-13T16:32:22Z</time></trkpt>
<trkpt lat="48.21411486" lon="-4.24391817"><ele></ele><time>2020-3-13T16:32:25Z</time></trkpt>
<trkpt lat="48.21411151" lon="-4.24397986"><ele></ele><time>2020-3-13T16:32:28Z</time></trkpt>
<trkpt lat="48.21411319" lon="-4.24401154"><ele></ele><time>2020-3-13T16:32:31Z</time></trkpt>
<trkpt lat="48.21413984" lon="-4.24422830"><ele></ele><time>2020-3-13T16:32:34Z</time></trkpt>
<trkpt lat="48.21413816" lon="-4.24425831"><ele></ele><time>2020-3-13T16:32:37Z</time></trkpt>
<trkpt lat="48.21413498" lon="-4.24428664"><ele></ele><time>2020-3-13T16:32:40Z</time></trkpt>
<trkpt lat="48.21413163" lon="-4.24431832"><ele></ele><time>2020-3-13T16:32:43Z</time></trkpt>
<trkpt lat="48.21412492" lon="-4.24434833"><ele></ele><time>2020-3-13T16:32:46Z</time></trkpt>
<trkpt lat="48.21411654" lon="-4.24437666"><ele></ele><time>2020-3-13T16:32:49Z</time></trkpt>
<trkpt lat="48.21410330" lon="-4.24439828"><ele></ele><time>2020-3-13T16:32:52Z</time></trkpt>
<trkpt lat="48.21408653" lon="-4.24441656"><ele></ele><time>2020-3-13T16:32:55Z</time></trkpt>
<trkpt lat="48.21406658" lon="-4.24443164"><ele></ele><time>2020-3-13T16:32:58Z</time></trkpt>
<trkpt lat="48.21404496" lon="-4.24443818"><ele></ele><time>2020-3-13T16:33:1Z</time></trkpt>
<trkpt lat="48.21401998" lon="-4.24443986"><ele></ele><time>2020-3-13T16:33:4Z</time></trkpt>
<trkpt lat="48.21391990" lon="-4.24443332"><ele></ele><time>2020-3-13T16:33:7Z</time></trkpt>
<trkpt lat="48.21370817" lon="-4.24443650"><ele></ele><time>2020-3-13T16:33:10Z</time></trkpt>
<trkpt lat="48.21363994" lon="-4.24443818"><ele></ele><time>2020-3-13T16:33:13Z</time></trkpt>
<trkpt lat="48.21356484" lon="-4.24442997"><ele></ele><time>2020-3-13T16:33:16Z</time></trkpt>
<trkpt lat="48.21349326" lon="-4.24441320"><ele></ele><time>2020-3-13T16:33:19Z</time></trkpt>
<trkpt lat="48.21347499" lon="-4.24441153"><ele></ele><time>2020-3-13T16:33:22Z</time></trkpt>
<trkpt lat="48.21339653" lon="-4.24441488"><ele></ele><time>2020-3-13T16:33:25Z</time></trkpt>
<trkpt lat="48.21329159" lon="-4.24443650"><ele></ele><time>2020-3-13T16:33:28Z</time></trkpt>
<trkpt lat="48.21327332" lon="-4.24444656"><ele></ele><time>2020-3-13T16:33:31Z</time></trkpt>
<trkpt lat="48.21325656" lon="-4.24445830"><ele></ele><time>2020-3-13T16:33:34Z</time></trkpt>
<trkpt lat="48.21321330" lon="-4.24450155"><ele></ele><time>2020-3-13T16:33:37Z</time></trkpt>
<trkpt lat="48.21319989" lon="-4.24451664"><ele></ele><time>2020-3-13T16:33:40Z</time></trkpt>
<trkpt lat="48.21316318" lon="-4.24456994"><ele></ele><time>2020-3-13T16:33:43Z</time></trkpt>
<trkpt lat="48.21315161" lon="-4.24458654"><ele></ele><time>2020-3-13T16:33:46Z</time></trkpt>
<trkpt lat="48.21304483" lon="-4.24473993"><ele></ele><time>2020-3-13T16:33:49Z</time></trkpt>
<trkpt lat="48.21303326" lon="-4.24475820"><ele></ele><time>2020-3-13T16:33:52Z</time></trkpt>
<trkpt lat="48.21302153" lon="-4.24477664"><ele></ele><time>2020-3-13T16:33:55Z</time></trkpt>
<trkpt lat="48.21298498" lon="-4.24484319"><ele></ele><time>2020-3-13T16:33:58Z</time></trkpt>
<trkpt lat="48.21296654" lon="-4.24487991"><ele></ele><time>2020-3-13T16:34:1Z</time></trkpt>
<trkpt lat="48.21293318" lon="-4.24493657"><ele></ele><time>2020-3-13T16:34:4Z</time></trkpt>
<trkpt lat="48.21290988" lon="-4.24497328"><ele></ele><time>2020-3-13T16:34:7Z</time></trkpt>
<trkpt lat="48.21289496" lon="-4.24498988"><ele></ele><time>2020-3-13T16:34:10Z</time></trkpt>
<trkpt lat="48.21277493" lon="-4.24510991"><ele></ele><time>2020-3-13T16:34:13Z</time></trkpt>
<trkpt lat="48.21257494" lon="-4.24530655"><ele></ele><time>2020-3-13T16:34:16Z</time></trkpt>
<trkpt lat="48.21255818" lon="-4.24532650"><ele></ele><time>2020-3-13T16:34:19Z</time></trkpt>
<trkpt lat="48.21250990" lon="-4.24539489"><ele></ele><time>2020-3-13T16:34:22Z</time></trkpt>
<trkpt lat="48.21247989" lon="-4.24544485"><ele></ele><time>2020-3-13T16:34:25Z</time></trkpt>
<trkpt lat="48.21246832" lon="-4.24547318"><ele></ele><time>2020-3-13T16:34:28Z</time></trkpt>
<trkpt lat="48.21238165" lon="-4.24572665"><ele></ele><time>2020-3-13T16:34:31Z</time></trkpt>
<trkpt lat="48.21237662" lon="-4.24574995"><ele></ele><time>2020-3-13T16:34:34Z</time></trkpt>
<trkpt lat="48.21227990" lon="-4.24616150"><ele></ele><time>2020-3-13T16:34:37Z</time></trkpt>
<trkpt lat="48.21222994" lon="-4.24635328"><ele></ele><time>2020-3-13T16:34:40Z</time></trkpt>
<trkpt lat="48.21222156" lon="-4.24637658"><ele></ele><time>2020-3-13T16:34:43Z</time></trkpt>
<trkpt lat="48.21221318" lon="-4.24640156"><ele></ele><time>2020-3-13T16:34:46Z</time></trkpt>
<trkpt lat="48.21220161" lon="-4.24642654"><ele></ele><time>2020-3-13T16:34:49Z</time></trkpt>
<trkpt lat="48.21212651" lon="-4.24656819"><ele></ele><time>2020-3-13T16:34:52Z</time></trkpt>
<trkpt lat="48.21210153" lon="-4.24662318"><ele></ele><time>2020-3-13T16:34:55Z</time></trkpt>
<trkpt lat="48.21209164" lon="-4.24665821"><ele></ele><time>2020-3-13T16:34:58Z</time></trkpt>
<trkpt lat="48.21207823" lon="-4.24672996"><ele></ele><time>2020-3-13T16:35:1Z</time></trkpt>
<trkpt lat="48.21207823" lon="-4.24676818"><ele></ele><time>2020-3-13T16:35:4Z</time></trkpt>
<trkpt lat="48.21208158" lon="-4.24680490"><ele></ele><time>2020-3-13T16:35:7Z</time></trkpt>
<trkpt lat="48.21208829" lon="-4.24683993"><ele></ele><time>2020-3-13T16:35:10Z</time></trkpt>
<trkpt lat="48.21211159" lon="-4.24690498"><ele></ele><time>2020-3-13T16:35:13Z</time></trkpt>
<trkpt lat="48.21218317" lon="-4.24712156"><ele></ele><time>2020-3-13T16:35:16Z</time></trkpt>
<trkpt lat="48.21218987" lon="-4.24715157"><ele></ele><time>2020-3-13T16:35:19Z</time></trkpt>
<trkpt lat="48.21223665" lon="-4.24732156"><ele></ele><time>2020-3-13T16:35:22Z</time></trkpt>
<trkpt lat="48.21224989" lon="-4.24735659"><ele></ele><time>2020-3-13T16:35:25Z</time></trkpt>
<trkpt lat="48.21226330" lon="-4.24738660"><ele></ele><time>2020-3-13T16:35:28Z</time></trkpt>
<trkpt lat="48.21230487" lon="-4.24745164"><ele></ele><time>2020-3-13T16:35:31Z</time></trkpt>
<trkpt lat="48.21231829" lon="-4.24746489"><ele></ele><time>2020-3-13T16:35:34Z</time></trkpt>
<trkpt lat="48.21238819" lon="-4.24752322"><ele></ele><time>2020-3-13T16:35:37Z</time></trkpt>
<trkpt lat="48.21239322" lon="-4.24753161"><ele></ele><time>2020-3-13T16:35:40Z</time></trkpt>
<trkpt lat="48.21239154" lon="-4.24753831"><ele></ele><time>2020-3-13T16:35:43Z</time></trkpt>
<trkpt lat="48.21238819" lon="-4.24754150"><ele></ele><time>2020-3-13T16:35:46Z</time></trkpt>
<trkpt lat="48.21238651" lon="-4.24753999"><ele></ele><time>2020-3-13T16:35:49Z</time></trkpt>
<trkpt lat="48.21238484" lon="-4.24753999"><ele></ele><time>2020-3-13T16:35:52Z</time></trkpt>
<trkpt lat="48.21238484" lon="-4.24753831"><ele></ele><time>2020-3-13T16:35:55Z</time></trkpt>
<trkpt lat="48.21238484" lon="-4.24753664"><ele></ele><time>2020-3-13T16:35:58Z</time></trkpt>
<trkpt lat="48.21238316" lon="-4.24753496"><ele></ele><time>2020-3-13T16:36:1Z</time></trkpt>
<trkpt lat="48.21238316" lon="-4.24753328"><ele></ele><time>2020-3-13T16:36:4Z</time></trkpt>
<trkpt lat="48.21238165" lon="-4.24752993"><ele></ele><time>2020-3-13T16:36:7Z</time></trkpt>
<trkpt lat="48.21238165" lon="-4.24752825"><ele></ele><time>2020-3-13T16:36:10Z</time></trkpt>
<trkpt lat="48.21237998" lon="-4.24752825"><ele></ele><time>2020-3-13T16:36:13Z</time></trkpt>
<trkpt lat="48.21237998" lon="-4.24752658"><ele></ele><time>2020-3-13T16:36:16Z</time></trkpt>
<trkpt lat="48.21237998" lon="-4.24752658"><ele></ele><time>2020-3-13T16:36:19Z</time></trkpt>
<trkpt lat="48.21237998" lon="-4.24752490"><ele></ele><time>2020-3-13T16:36:22Z</time></trkpt>
<trkpt lat="48.21237662" lon="-4.24752155"><ele></ele><time>2020-3-13T16:36:25Z</time></trkpt>
<trkpt lat="48.21237327" lon="-4.24752155"><ele></ele><time>2020-3-13T16:36:28Z</time></trkpt>
<trkpt lat="48.21237327" lon="-4.24752155"><ele></ele><time>2020-3-13T16:36:31Z</time></trkpt>
<trkpt lat="48.21237159" lon="-4.24751987"><ele></ele><time>2020-3-13T16:36:34Z</time></trkpt>
<trkpt lat="48.21237159" lon="-4.24752155"><ele></ele><time>2020-3-13T16:36:37Z</time></trkpt>
<trkpt lat="48.21236992" lon="-4.24752155"><ele></ele><time>2020-3-13T16:36:40Z</time></trkpt>
<trkpt lat="48.21237159" lon="-4.24751987"><ele></ele><time>2020-3-13T16:36:43Z</time></trkpt>
<trkpt lat="48.21237159" lon="-4.24751652"><ele></ele><time>2020-3-13T16:36:46Z</time></trkpt>
<trkpt lat="48.21236992" lon="-4.24751652"><ele></ele><time>2020-3-13T16:36:49Z</time></trkpt>
<trkpt lat="48.21236824" lon="-4.24752322"><ele></ele><time>2020-3-13T16:36:52Z</time></trkpt>
<trkpt lat="48.21236656" lon="-4.24752658"><ele></ele><time>2020-3-13T16:36:55Z</time></trkpt>
<trkpt lat="48.21236321" lon="-4.24753161"><ele></ele><time>2020-3-13T16:36:58Z</time></trkpt>
<trkpt lat="48.21236321" lon="-4.24752825"><ele></ele><time>2020-3-13T16:37:1Z</time></trkpt>
<trkpt lat="48.21236321" lon="-4.24752825"><ele></ele><time>2020-3-13T16:37:4Z</time></trkpt>
<trkpt lat="48.21236321" lon="-4.24752825"><ele></ele><time>2020-3-13T16:37:7Z</time></trkpt>
<trkpt lat="48.21236489" lon="-4.24752825"><ele></ele><time>2020-3-13T16:37:10Z</time></trkpt>
<trkpt lat="48.21236489" lon="-4.24752825"><ele></ele><time>2020-3-13T16:37:13Z</time></trkpt>
<trkpt lat="48.21236489" lon="-4.24752825"><ele></ele><time>2020-3-13T16:37:16Z</time></trkpt>
<trkpt lat="48.21236489" lon="-4.24752825"><ele></ele><time>2020-3-13T16:37:19Z</time></trkpt>
<trkpt lat="48.21236489" lon="-4.24752993"><ele></ele><time>2020-3-13T16:37:22Z</time></trkpt>
<trkpt lat="48.21236489" lon="-4.24752993"><ele></ele><time>2020-3-13T16:37:25Z</time></trkpt>
<trkpt lat="48.21236656" lon="-4.24753161"><ele></ele><time>2020-3-13T16:37:28Z</time></trkpt>
<trkpt lat="48.21236824" lon="-4.24753328"><ele></ele><time>2020-3-13T16:37:31Z</time></trkpt>
<trkpt lat="48.21236992" lon="-4.24753328"><ele></ele><time>2020-3-13T16:37:34Z</time></trkpt>
<trkpt lat="48.21237159" lon="-4.24753496"><ele></ele><time>2020-3-13T16:37:37Z</time></trkpt>
<trkpt lat="48.21237327" lon="-4.24753496"><ele></ele><time>2020-3-13T16:37:40Z</time></trkpt>
<trkpt lat="48.21237495" lon="-4.24753664"><ele></ele><time>2020-3-13T16:37:43Z</time></trkpt>
<trkpt lat="48.21237495" lon="-4.24753664"><ele></ele><time>2020-3-13T16:37:46Z</time></trkpt>
<trkpt lat="48.21237662" lon="-4.24753831"><ele></ele><time>2020-3-13T16:37:49Z</time></trkpt>
<trkpt lat="48.21237495" lon="-4.24753831"><ele></ele><time>2020-3-13T16:37:52Z</time></trkpt>
<trkpt lat="48.21237662" lon="-4.24753831"><ele></ele><time>2020-3-13T16:37:55Z</time></trkpt>
<trkpt lat="48.21237662" lon="-4.24753831"><ele></ele><time>2020-3-13T16:37:58Z</time></trkpt>
<trkpt lat="48.21237495" lon="-4.24753831"><ele></ele><time>2020-3-13T16:38:1Z</time></trkpt>
<trkpt lat="48.21237495" lon="-4.24753831"><ele></ele><time>2020-3-13T16:38:4Z</time></trkpt>
<trkpt lat="48.21237495" lon="-4.24753831"><ele></ele><time>2020-3-13T16:38:7Z</time></trkpt>
<trkpt lat="48.21237495" lon="-4.24753831"><ele></ele><time>2020-3-13T16:38:10Z</time></trkpt>
<trkpt lat="48.21237495" lon="-4.24753831"><ele></ele><time>2020-3-13T16:38:13Z</time></trkpt>
<trkpt lat="48.21237495" lon="-4.24753831"><ele></ele><time>2020-3-13T16:38:16Z</time></trkpt>
<trkpt lat="48.21237662" lon="-4.24753664"><ele></ele><time>2020-3-13T16:38:19Z</time></trkpt>
<trkpt lat="48.21237662" lon="-4.24753496"><ele></ele><time>2020-3-13T16:38:22Z</time></trkpt>
<trkpt lat="48.21237830" lon="-4.24753328"><ele></ele><time>2020-3-13T16:38:25Z</time></trkpt>
<trkpt lat="48.21238316" lon="-4.24753831"><ele></ele><time>2020-3-13T16:38:28Z</time></trkpt>
<trkpt lat="48.21239657" lon="-4.24754485"><ele></ele><time>2020-3-13T16:38:31Z</time></trkpt>
<trkpt lat="48.21243496" lon="-4.24755826"><ele></ele><time>2020-3-13T16:38:34Z</time></trkpt>
<trkpt lat="48.21245491" lon="-4.24755826"><ele></ele><time>2020-3-13T16:38:37Z</time></trkpt>
<trkpt lat="48.21247486" lon="-4.24754988"><ele></ele><time>2020-3-13T16:38:40Z</time></trkpt>
<trkpt lat="48.21261333" lon="-4.24747494"><ele></ele><time>2020-3-13T16:38:43Z</time></trkpt>
<trkpt lat="48.21262992" lon="-4.24745818"><ele></ele><time>2020-3-13T16:38:46Z</time></trkpt>
<trkpt lat="48.21271324" lon="-4.24737654"><ele></ele><time>2020-3-13T16:38:49Z</time></trkpt>
<trkpt lat="48.21291491" lon="-4.24714989"><ele></ele><time>2020-3-13T16:38:52Z</time></trkpt>
<trkpt lat="48.21292983" lon="-4.24712659"><ele></ele><time>2020-3-13T16:38:55Z</time></trkpt>
<trkpt lat="48.21294324" lon="-4.24710664"><ele></ele><time>2020-3-13T16:38:58Z</time></trkpt>
<trkpt lat="48.21295665" lon="-4.24708820"><ele></ele><time>2020-3-13T16:39:1Z</time></trkpt>
<trkpt lat="48.21298666" lon="-4.24705317"><ele></ele><time>2020-3-13T16:39:4Z</time></trkpt>
<trkpt lat="48.21300325" lon="-4.24703992"><ele></ele><time>2020-3-13T16:39:7Z</time></trkpt>
<trkpt lat="48.21303326" lon="-4.24700489"><ele></ele><time>2020-3-13T16:39:10Z</time></trkpt>
<trkpt lat="48.21306159" lon="-4.24696817"><ele></ele><time>2020-3-13T16:39:13Z</time></trkpt>
<trkpt lat="48.21307819" lon="-4.24695493"><ele></ele><time>2020-3-13T16:39:16Z</time></trkpt>
<trkpt lat="48.21311490" lon="-4.24692828"><ele></ele><time>2020-3-13T16:39:19Z</time></trkpt>
<trkpt lat="48.21313485" lon="-4.24691822"><ele></ele><time>2020-3-13T16:39:22Z</time></trkpt>
<trkpt lat="48.21323828" lon="-4.24685820"><ele></ele><time>2020-3-13T16:39:25Z</time></trkpt>
<trkpt lat="48.21325823" lon="-4.24684161"><ele></ele><time>2020-3-13T16:39:28Z</time></trkpt>
<trkpt lat="48.21328824" lon="-4.24681160"><ele></ele><time>2020-3-13T16:39:31Z</time></trkpt>
<trkpt lat="48.21330165" lon="-4.24679484"><ele></ele><time>2020-3-13T16:39:34Z</time></trkpt>
<trkpt lat="48.21333166" lon="-4.24675662"><ele></ele><time>2020-3-13T16:39:37Z</time></trkpt>
<trkpt lat="48.21339821" lon="-4.24666492"><ele></ele><time>2020-3-13T16:39:40Z</time></trkpt>
<trkpt lat="48.21358999" lon="-4.24636652"><ele></ele><time>2020-3-13T16:39:43Z</time></trkpt>
<trkpt lat="48.21360155" lon="-4.24633165"><ele></ele><time>2020-3-13T16:39:46Z</time></trkpt>
<trkpt lat="48.21361497" lon="-4.24626661"><ele></ele><time>2020-3-13T16:39:49Z</time></trkpt>
<trkpt lat="48.21362318" lon="-4.24623996"><ele></ele><time>2020-3-13T16:39:52Z</time></trkpt>
<trkpt lat="48.21363994" lon="-4.24619821"><ele></ele><time>2020-3-13T16:39:55Z</time></trkpt>
<trkpt lat="48.21367330" lon="-4.24611322"><ele></ele><time>2020-3-13T16:39:58Z</time></trkpt>
<trkpt lat="48.21367984" lon="-4.24608489"><ele></ele><time>2020-3-13T16:40:1Z</time></trkpt>
<trkpt lat="48.21372661" lon="-4.24582488"><ele></ele><time>2020-3-13T16:40:4Z</time></trkpt>
<trkpt lat="48.21372661" lon="-4.24578985"><ele></ele><time>2020-3-13T16:40:7Z</time></trkpt>
<trkpt lat="48.21372494" lon="-4.24572497"><ele></ele><time>2020-3-13T16:40:10Z</time></trkpt>
<trkpt lat="48.21372997" lon="-4.24569329"><ele></ele><time>2020-3-13T16:40:13Z</time></trkpt>
<trkpt lat="48.21375494" lon="-4.24558164"><ele></ele><time>2020-3-13T16:40:16Z</time></trkpt>
<trkpt lat="48.21376819" lon="-4.24554493"><ele></ele><time>2020-3-13T16:40:19Z</time></trkpt>
<trkpt lat="48.21378327" lon="-4.24551157"><ele></ele><time>2020-3-13T16:40:22Z</time></trkpt>
<trkpt lat="48.21380155" lon="-4.24548659"><ele></ele><time>2020-3-13T16:40:25Z</time></trkpt>
<trkpt lat="48.21382150" lon="-4.24546329"><ele></ele><time>2020-3-13T16:40:28Z</time></trkpt>
<trkpt lat="48.21384329" lon="-4.24544485"><ele></ele><time>2020-3-13T16:40:31Z</time></trkpt>
<trkpt lat="48.21391487" lon="-4.24538165"><ele></ele><time>2020-3-13T16:40:34Z</time></trkpt>
<trkpt lat="48.21393331" lon="-4.24534494"><ele></ele><time>2020-3-13T16:40:37Z</time></trkpt>
<trkpt lat="48.21394823" lon="-4.24530990"><ele></ele><time>2020-3-13T16:40:40Z</time></trkpt>
<trkpt lat="48.21396986" lon="-4.24524653"><ele></ele><time>2020-3-13T16:40:43Z</time></trkpt>
<trkpt lat="48.21399651" lon="-4.24513153"><ele></ele><time>2020-3-13T16:40:46Z</time></trkpt>
<trkpt lat="48.21400657" lon="-4.24508661"><ele></ele><time>2020-3-13T16:40:49Z</time></trkpt>
<trkpt lat="48.21414152" lon="-4.24468327"><ele></ele><time>2020-3-13T16:40:52Z</time></trkpt>
<trkpt lat="48.21416331" lon="-4.24463985"><ele></ele><time>2020-3-13T16:40:55Z</time></trkpt>
<trkpt lat="48.21419985" lon="-4.24456324"><ele></ele><time>2020-3-13T16:40:58Z</time></trkpt>
<trkpt lat="48.21420991" lon="-4.24451496"><ele></ele><time>2020-3-13T16:41:1Z</time></trkpt>
<trkpt lat="48.21420991" lon="-4.24446484"><ele></ele><time>2020-3-13T16:41:4Z</time></trkpt>
<trkpt lat="48.21420321" lon="-4.24441320"><ele></ele><time>2020-3-13T16:41:7Z</time></trkpt>
<trkpt lat="48.21418829" lon="-4.24436157"><ele></ele><time>2020-3-13T16:41:10Z</time></trkpt>
<trkpt lat="48.21416163" lon="-4.24424825"><ele></ele><time>2020-3-13T16:41:13Z</time></trkpt>
<trkpt lat="48.21415493" lon="-4.24418153"><ele></ele><time>2020-3-13T16:41:16Z</time></trkpt>
<trkpt lat="48.21412660" lon="-4.24395320"><ele></ele><time>2020-3-13T16:41:19Z</time></trkpt>
<trkpt lat="48.21412492" lon="-4.24386654"><ele></ele><time>2020-3-13T16:41:22Z</time></trkpt>
<trkpt lat="48.21413498" lon="-4.24377819"><ele></ele><time>2020-3-13T16:41:25Z</time></trkpt>
<trkpt lat="48.21415157" lon="-4.24368817"><ele></ele><time>2020-3-13T16:41:28Z</time></trkpt>
<trkpt lat="48.21433329" lon="-4.24271821"><ele></ele><time>2020-3-13T16:41:31Z</time></trkpt>
<trkpt lat="48.21433497" lon="-4.24267329"><ele></ele><time>2020-3-13T16:41:34Z</time></trkpt>
<trkpt lat="48.21433983" lon="-4.24264160"><ele></ele><time>2020-3-13T16:41:37Z</time></trkpt>
<trkpt lat="48.21434654" lon="-4.24261830"><ele></ele><time>2020-3-13T16:41:40Z</time></trkpt>
<trkpt lat="48.21434486" lon="-4.24260992"><ele></ele><time>2020-3-13T16:41:43Z</time></trkpt>
<trkpt lat="48.21434319" lon="-4.24259332"><ele></ele><time>2020-3-13T16:41:46Z</time></trkpt>
<trkpt lat="48.21434486" lon="-4.24256986"><ele></ele><time>2020-3-13T16:41:49Z</time></trkpt>
<trkpt lat="48.21434319" lon="-4.24253985"><ele></ele><time>2020-3-13T16:41:52Z</time></trkpt>
<trkpt lat="48.21432491" lon="-4.24243155"><ele></ele><time>2020-3-13T16:41:55Z</time></trkpt>
<trkpt lat="48.21430329" lon="-4.24234991"><ele></ele><time>2020-3-13T16:41:58Z</time></trkpt>
<trkpt lat="48.21428820" lon="-4.24230985"><ele></ele><time>2020-3-13T16:42:1Z</time></trkpt>
<trkpt lat="48.21426657" lon="-4.24227330"><ele></ele><time>2020-3-13T16:42:4Z</time></trkpt>
<trkpt lat="48.21424160" lon="-4.24224497"><ele></ele><time>2020-3-13T16:42:7Z</time></trkpt>
<trkpt lat="48.21421159" lon="-4.24222318"><ele></ele><time>2020-3-13T16:42:10Z</time></trkpt>
<trkpt lat="48.21400322" lon="-4.24209997"><ele></ele><time>2020-3-13T16:42:13Z</time></trkpt>
<trkpt lat="48.21396818" lon="-4.24206996"><ele></ele><time>2020-3-13T16:42:16Z</time></trkpt>
<trkpt lat="48.21393331" lon="-4.24203660"><ele></ele><time>2020-3-13T16:42:19Z</time></trkpt>
<trkpt lat="48.21386827" lon="-4.24195999"><ele></ele><time>2020-3-13T16:42:22Z</time></trkpt>
<trkpt lat="48.21383994" lon="-4.24191322"><ele></ele><time>2020-3-13T16:42:25Z</time></trkpt>
<trkpt lat="48.21375159" lon="-4.24175983"><ele></ele><time>2020-3-13T16:42:28Z</time></trkpt>
<trkpt lat="48.21369828" lon="-4.24164332"><ele></ele><time>2020-3-13T16:42:31Z</time></trkpt>
<trkpt lat="48.21362150" lon="-4.24147317"><ele></ele><time>2020-3-13T16:42:34Z</time></trkpt>
<trkpt lat="48.21360491" lon="-4.24143495"><ele></ele><time>2020-3-13T16:42:37Z</time></trkpt>
<trkpt lat="48.21359485" lon="-4.24140159"><ele></ele><time>2020-3-13T16:42:40Z</time></trkpt>
<trkpt lat="48.21358999" lon="-4.24136823"><ele></ele><time>2020-3-13T16:42:43Z</time></trkpt>
<trkpt lat="48.21359485" lon="-4.24133487"><ele></ele><time>2020-3-13T16:42:46Z</time></trkpt>
<trkpt lat="48.21361329" lon="-4.24130486"><ele></ele><time>2020-3-13T16:42:49Z</time></trkpt>
<trkpt lat="48.21363659" lon="-4.24128156"><ele></ele><time>2020-3-13T16:42:52Z</time></trkpt>
<trkpt lat="48.21366492" lon="-4.24125993"><ele></ele><time>2020-3-13T16:42:55Z</time></trkpt>
<trkpt lat="48.21562327" lon="-4.23972822"><ele></ele><time>2020-3-13T16:42:58Z</time></trkpt>
<trkpt lat="48.21564489" lon="-4.23970157"><ele></ele><time>2020-3-13T16:43:1Z</time></trkpt>
<trkpt lat="48.21738498" lon="-4.23738665"><ele></ele><time>2020-3-13T16:43:4Z</time></trkpt>
<trkpt lat="48.21740828" lon="-4.23736486"><ele></ele><time>2020-3-13T16:43:7Z</time></trkpt>
<trkpt lat="48.21788655" lon="-4.23691995"><ele></ele><time>2020-3-13T16:43:10Z</time></trkpt>
<trkpt lat="48.21790650" lon="-4.23689329"><ele></ele><time>2020-3-13T16:43:13Z</time></trkpt>
<trkpt lat="48.21794992" lon="-4.23684652"><ele></ele><time>2020-3-13T16:43:16Z</time></trkpt>
<trkpt lat="48.21806995" lon="-4.23672985"><ele></ele><time>2020-3-13T16:43:19Z</time></trkpt>
<trkpt lat="48.21809157" lon="-4.23671325"><ele></ele><time>2020-3-13T16:43:22Z</time></trkpt>
<trkpt lat="48.21850161" lon="-4.23640664"><ele></ele><time>2020-3-13T16:43:25Z</time></trkpt>
<trkpt lat="48.21857152" lon="-4.23636825"><ele></ele><time>2020-3-13T16:43:28Z</time></trkpt>
<trkpt lat="48.21870999" lon="-4.23628494"><ele></ele><time>2020-3-13T16:43:31Z</time></trkpt>
<trkpt lat="48.21872323" lon="-4.23625325"><ele></ele><time>2020-3-13T16:43:34Z</time></trkpt>
<trkpt lat="48.21873832" lon="-4.23622157"><ele></ele><time>2020-3-13T16:43:37Z</time></trkpt>
<trkpt lat="48.21875659" lon="-4.23619324"><ele></ele><time>2020-3-13T16:43:40Z</time></trkpt>
<trkpt lat="48.21877654" lon="-4.23616658"><ele></ele><time>2020-3-13T16:43:43Z</time></trkpt>
<trkpt lat="48.21879984" lon="-4.23614328"><ele></ele><time>2020-3-13T16:43:46Z</time></trkpt>
<trkpt lat="48.21884661" lon="-4.23610489"><ele></ele><time>2020-3-13T16:43:49Z</time></trkpt>
<trkpt lat="48.21887327" lon="-4.23609165"><ele></ele><time>2020-3-13T16:43:52Z</time></trkpt>
<trkpt lat="48.21892155" lon="-4.23605661"><ele></ele><time>2020-3-13T16:43:55Z</time></trkpt>
<trkpt lat="48.21896664" lon="-4.23601487"><ele></ele><time>2020-3-13T16:43:58Z</time></trkpt>
<trkpt lat="48.21898827" lon="-4.23598989"><ele></ele><time>2020-3-13T16:44:1Z</time></trkpt>
<trkpt lat="48.21911986" lon="-4.23585159"><ele></ele><time>2020-3-13T16:44:4Z</time></trkpt>
<trkpt lat="48.21936998" lon="-4.23563165"><ele></ele><time>2020-3-13T16:44:7Z</time></trkpt>
<trkpt lat="48.21946151" lon="-4.23556493"><ele></ele><time>2020-3-13T16:44:10Z</time></trkpt>
<trkpt lat="48.21950158" lon="-4.23553660"><ele></ele><time>2020-3-13T16:44:13Z</time></trkpt>
<trkpt lat="48.21952152" lon="-4.23551497"><ele></ele><time>2020-3-13T16:44:16Z</time></trkpt>
<trkpt lat="48.21955824" lon="-4.23547156"><ele></ele><time>2020-3-13T16:44:19Z</time></trkpt>
<trkpt lat="48.21958489" lon="-4.23543166"><ele></ele><time>2020-3-13T16:44:22Z</time></trkpt>
<trkpt lat="48.21959663" lon="-4.23541154"><ele></ele><time>2020-3-13T16:44:25Z</time></trkpt>
<trkpt lat="48.21962831" lon="-4.23534331"><ele></ele><time>2020-3-13T16:44:28Z</time></trkpt>
<trkpt lat="48.21963485" lon="-4.23531331"><ele></ele><time>2020-3-13T16:44:31Z</time></trkpt>
<trkpt lat="48.21965329" lon="-4.23524994"><ele></ele><time>2020-3-13T16:44:34Z</time></trkpt>
<trkpt lat="48.21966653" lon="-4.23521993"><ele></ele><time>2020-3-13T16:44:37Z</time></trkpt>
<trkpt lat="48.21968162" lon="-4.23519663"><ele></ele><time>2020-3-13T16:44:40Z</time></trkpt>
<trkpt lat="48.21975488" lon="-4.23507660"><ele></ele><time>2020-3-13T16:44:43Z</time></trkpt>
<trkpt lat="48.21976829" lon="-4.23506654"><ele></ele><time>2020-3-13T16:44:46Z</time></trkpt>
<trkpt lat="48.21978488" lon="-4.23506319"><ele></ele><time>2020-3-13T16:44:49Z</time></trkpt>
<trkpt lat="48.21979997" lon="-4.23506487"><ele></ele><time>2020-3-13T16:44:52Z</time></trkpt>
<trkpt lat="48.21980651" lon="-4.23506822"><ele></ele><time>2020-3-13T16:44:55Z</time></trkpt>
<trkpt lat="48.21980819" lon="-4.23506990"><ele></ele><time>2020-3-13T16:44:58Z</time></trkpt>
<trkpt lat="48.21980819" lon="-4.23507157"><ele></ele><time>2020-3-13T16:45:1Z</time></trkpt>
<trkpt lat="48.21981154" lon="-4.23507828"><ele></ele><time>2020-3-13T16:45:4Z</time></trkpt>
<trkpt lat="48.21981489" lon="-4.23508666"><ele></ele><time>2020-3-13T16:45:7Z</time></trkpt>
<trkpt lat="48.21981489" lon="-4.23509823"><ele></ele><time>2020-3-13T16:45:10Z</time></trkpt>
<trkpt lat="48.21981657" lon="-4.23509990"><ele></ele><time>2020-3-13T16:45:13Z</time></trkpt>
<trkpt lat="48.21981824" lon="-4.23509990"><ele></ele><time>2020-3-13T16:45:16Z</time></trkpt>
<trkpt lat="48.21981824" lon="-4.23509990"><ele></ele><time>2020-3-13T16:45:19Z</time></trkpt>
<trkpt lat="48.21981992" lon="-4.23510158"><ele></ele><time>2020-3-13T16:45:22Z</time></trkpt>
<trkpt lat="48.21982160" lon="-4.23509990"><ele></ele><time>2020-3-13T16:45:25Z</time></trkpt>
<trkpt lat="48.21982327" lon="-4.23509990"><ele></ele><time>2020-3-13T16:45:28Z</time></trkpt>
<trkpt lat="48.21982327" lon="-4.23509990"><ele></ele><time>2020-3-13T16:45:31Z</time></trkpt>
<trkpt lat="48.21982327" lon="-4.23510158"><ele></ele><time>2020-3-13T16:45:34Z</time></trkpt>
<trkpt lat="48.21982495" lon="-4.23510158"><ele></ele><time>2020-3-13T16:45:37Z</time></trkpt>
<trkpt lat="48.21982495" lon="-4.23510326"><ele></ele><time>2020-3-13T16:45:40Z</time></trkpt>
<trkpt lat="48.21982495" lon="-4.23510326"><ele></ele><time>2020-3-13T16:45:43Z</time></trkpt>
<trkpt lat="48.21982495" lon="-4.23510326"><ele></ele><time>2020-3-13T16:45:46Z</time></trkpt>
<trkpt lat="48.21982495" lon="-4.23510326"><ele></ele><time>2020-3-13T16:45:49Z</time></trkpt>
<trkpt lat="48.21982495" lon="-4.23510326"><ele></ele><time>2020-3-13T16:45:52Z</time></trkpt>
<trkpt lat="48.21982495" lon="-4.23510493"><ele></ele><time>2020-3-13T16:45:55Z</time></trkpt>
<trkpt lat="48.21982495" lon="-4.23510493"><ele></ele><time>2020-3-13T16:45:58Z</time></trkpt>
<trkpt lat="48.21982495" lon="-4.23510493"><ele></ele><time>2020-3-13T16:46:1Z</time></trkpt>
<trkpt lat="48.21982495" lon="-4.23510661"><ele></ele><time>2020-3-13T16:46:4Z</time></trkpt>
<trkpt lat="48.21982495" lon="-4.23510996"><ele></ele><time>2020-3-13T16:46:7Z</time></trkpt>
<trkpt lat="48.21982495" lon="-4.23511164"><ele></ele><time>2020-3-13T16:46:10Z</time></trkpt>
<trkpt lat="48.21982495" lon="-4.23511164"><ele></ele><time>2020-3-13T16:46:13Z</time></trkpt>
<trkpt lat="48.21982495" lon="-4.23510996"><ele></ele><time>2020-3-13T16:46:16Z</time></trkpt>
<trkpt lat="48.21982495" lon="-4.23510996"><ele></ele><time>2020-3-13T16:46:19Z</time></trkpt>
<trkpt lat="48.21982495" lon="-4.23510996"><ele></ele><time>2020-3-13T16:46:22Z</time></trkpt>
<trkpt lat="48.21982495" lon="-4.23510996"><ele></ele><time>2020-3-13T16:46:25Z</time></trkpt>
<trkpt lat="48.21982495" lon="-4.23510996"><ele></ele><time>2020-3-13T16:46:28Z</time></trkpt>
<trkpt lat="48.21982495" lon="-4.23510996"><ele></ele><time>2020-3-13T16:46:31Z</time></trkpt>
<trkpt lat="48.21982495" lon="-4.23510996"><ele></ele><time>2020-3-13T16:46:34Z</time></trkpt>
<trkpt lat="48.21982495" lon="-4.23510996"><ele></ele><time>2020-3-13T16:46:37Z</time></trkpt>
<trkpt lat="48.21982495" lon="-4.23510996"><ele></ele><time>2020-3-13T16:46:40Z</time></trkpt>
<trkpt lat="48.21982495" lon="-4.23510996"><ele></ele><time>2020-3-13T16:46:43Z</time></trkpt>
<trkpt lat="48.21982495" lon="-4.23510828"><ele></ele><time>2020-3-13T16:46:46Z</time></trkpt>
<trkpt lat="48.21982327" lon="-4.23510828"><ele></ele><time>2020-3-13T16:46:49Z</time></trkpt>
<trkpt lat="48.21982327" lon="-4.23510828"><ele></ele><time>2020-3-13T16:46:52Z</time></trkpt>
<trkpt lat="48.21982160" lon="-4.23510828"><ele></ele><time>2020-3-13T16:46:55Z</time></trkpt>
<trkpt lat="48.21981992" lon="-4.23510828"><ele></ele><time>2020-3-13T16:46:58Z</time></trkpt>
<trkpt lat="48.21981824" lon="-4.23510661"><ele></ele><time>2020-3-13T16:47:1Z</time></trkpt>
<trkpt lat="48.21981489" lon="-4.23510158"><ele></ele><time>2020-3-13T16:47:4Z</time></trkpt>
<trkpt lat="48.21980986" lon="-4.23509320"><ele></ele><time>2020-3-13T16:47:7Z</time></trkpt>
<trkpt lat="48.21980332" lon="-4.23508817"><ele></ele><time>2020-3-13T16:47:10Z</time></trkpt>
<trkpt lat="48.21979494" lon="-4.23508498"><ele></ele><time>2020-3-13T16:47:13Z</time></trkpt>
<trkpt lat="48.21978656" lon="-4.23508331"><ele></ele><time>2020-3-13T16:47:16Z</time></trkpt>
<trkpt lat="48.21977986" lon="-4.23508498"><ele></ele><time>2020-3-13T16:47:19Z</time></trkpt>
<trkpt lat="48.21976996" lon="-4.23509152"><ele></ele><time>2020-3-13T16:47:22Z</time></trkpt>
<trkpt lat="48.21976829" lon="-4.23509320"><ele></ele><time>2020-3-13T16:47:25Z</time></trkpt>
<trkpt lat="48.21976661" lon="-4.23509487"><ele></ele><time>2020-3-13T16:47:28Z</time></trkpt>
<trkpt lat="48.21976661" lon="-4.23509487"><ele></ele><time>2020-3-13T16:47:31Z</time></trkpt>
<trkpt lat="48.21976661" lon="-4.23509655"><ele></ele><time>2020-3-13T16:47:34Z</time></trkpt>
<trkpt lat="48.21976661" lon="-4.23509655"><ele></ele><time>2020-3-13T16:47:37Z</time></trkpt>
<trkpt lat="48.21976494" lon="-4.23509823"><ele></ele><time>2020-3-13T16:47:40Z</time></trkpt>
<trkpt lat="48.21976494" lon="-4.23509990"><ele></ele><time>2020-3-13T16:47:43Z</time></trkpt>
<trkpt lat="48.21976494" lon="-4.23509990"><ele></ele><time>2020-3-13T16:47:46Z</time></trkpt>
<trkpt lat="48.21976494" lon="-4.23509990"><ele></ele><time>2020-3-13T16:47:49Z</time></trkpt>
<trkpt lat="48.21976326" lon="-4.23509990"><ele></ele><time>2020-3-13T16:47:52Z</time></trkpt>
<trkpt lat="48.21976326" lon="-4.23509990"><ele></ele><time>2020-3-13T16:47:55Z</time></trkpt>
<trkpt lat="48.21976326" lon="-4.23510158"><ele></ele><time>2020-3-13T16:47:58Z</time></trkpt>
<trkpt lat="48.21976158" lon="-4.23510158"><ele></ele><time>2020-3-13T16:48:1Z</time></trkpt>
<trkpt lat="48.21976158" lon="-4.23510158"><ele></ele><time>2020-3-13T16:48:4Z</time></trkpt>
<trkpt lat="48.21976158" lon="-4.23510326"><ele></ele><time>2020-3-13T16:48:7Z</time></trkpt>
<trkpt lat="48.21975991" lon="-4.23510326"><ele></ele><time>2020-3-13T16:48:10Z</time></trkpt>
<trkpt lat="48.21975823" lon="-4.23509990"><ele></ele><time>2020-3-13T16:48:13Z</time></trkpt>
<trkpt lat="48.21975823" lon="-4.23510158"><ele></ele><time>2020-3-13T16:48:16Z</time></trkpt>
<trkpt lat="48.21975823" lon="-4.23510158"><ele></ele><time>2020-3-13T16:48:19Z</time></trkpt>
<trkpt lat="48.21975655" lon="-4.23510326"><ele></ele><time>2020-3-13T16:48:22Z</time></trkpt>
<trkpt lat="48.21975655" lon="-4.23510326"><ele></ele><time>2020-3-13T16:48:25Z</time></trkpt>
<trkpt lat="48.21975655" lon="-4.23510493"><ele></ele><time>2020-3-13T16:48:28Z</time></trkpt>
<trkpt lat="48.21975655" lon="-4.23510493"><ele></ele><time>2020-3-13T16:48:31Z</time></trkpt>
<trkpt lat="48.21975488" lon="-4.23510661"><ele></ele><time>2020-3-13T16:48:34Z</time></trkpt>
<trkpt lat="48.21975488" lon="-4.23510661"><ele></ele><time>2020-3-13T16:48:37Z</time></trkpt>
<trkpt lat="48.21975488" lon="-4.23510661"><ele></ele><time>2020-3-13T16:48:40Z</time></trkpt>
<trkpt lat="48.21975488" lon="-4.23510828"><ele></ele><time>2020-3-13T16:48:43Z</time></trkpt>
<trkpt lat="48.21975320" lon="-4.23510828"><ele></ele><time>2020-3-13T16:48:46Z</time></trkpt>
<trkpt lat="48.21975152" lon="-4.23510828"><ele></ele><time>2020-3-13T16:48:49Z</time></trkpt>
<trkpt lat="48.21974163" lon="-4.23510661"><ele></ele><time>2020-3-13T16:48:52Z</time></trkpt>
<trkpt lat="48.21973158" lon="-4.23509990"><ele></ele><time>2020-3-13T16:48:55Z</time></trkpt>
<trkpt lat="48.21971984" lon="-4.23509487"><ele></ele><time>2020-3-13T16:48:58Z</time></trkpt>
<trkpt lat="48.21970827" lon="-4.23508984"><ele></ele><time>2020-3-13T16:49:1Z</time></trkpt>
<trkpt lat="48.21969151" lon="-4.23508163"><ele></ele><time>2020-3-13T16:49:4Z</time></trkpt>
<trkpt lat="48.21968983" lon="-4.23507995"><ele></ele><time>2020-3-13T16:49:7Z</time></trkpt>
<trkpt lat="48.21968832" lon="-4.23507828"><ele></ele><time>2020-3-13T16:49:10Z</time></trkpt>
<trkpt lat="48.21968665" lon="-4.23507828"><ele></ele><time>2020-3-13T16:49:13Z</time></trkpt>
<trkpt lat="48.21968665" lon="-4.23507660"><ele></ele><time>2020-3-13T16:49:16Z</time></trkpt>
<trkpt lat="48.21968497" lon="-4.23507660"><ele></ele><time>2020-3-13T16:49:19Z</time></trkpt>
<trkpt lat="48.21968330" lon="-4.23507325"><ele></ele><time>2020-3-13T16:49:22Z</time></trkpt>
<trkpt lat="48.21967659" lon="-4.23506822"><ele></ele><time>2020-3-13T16:49:25Z</time></trkpt>
<trkpt lat="48.21966821" lon="-4.23505498"><ele></ele><time>2020-3-13T16:49:28Z</time></trkpt>
<trkpt lat="48.21965999" lon="-4.23503486"><ele></ele><time>2020-3-13T16:49:31Z</time></trkpt>
<trkpt lat="48.21965664" lon="-4.23501156"><ele></ele><time>2020-3-13T16:49:34Z</time></trkpt>
<trkpt lat="48.21965832" lon="-4.23498658"><ele></ele><time>2020-3-13T16:49:37Z</time></trkpt>
<trkpt lat="48.21966318" lon="-4.23495825"><ele></ele><time>2020-3-13T16:49:40Z</time></trkpt>
<trkpt lat="48.21967324" lon="-4.23492657"><ele></ele><time>2020-3-13T16:49:43Z</time></trkpt>
<trkpt lat="48.21970995" lon="-4.23482162"><ele></ele><time>2020-3-13T16:49:46Z</time></trkpt>
<trkpt lat="48.21971984" lon="-4.23477988"><ele></ele><time>2020-3-13T16:49:49Z</time></trkpt>
<trkpt lat="48.21976996" lon="-4.23456665"><ele></ele><time>2020-3-13T16:49:52Z</time></trkpt>
<trkpt lat="48.21983316" lon="-4.23437654"><ele></ele><time>2020-3-13T16:49:55Z</time></trkpt>
<trkpt lat="48.21985496" lon="-4.23433832"><ele></ele><time>2020-3-13T16:49:58Z</time></trkpt>
<trkpt lat="48.21987994" lon="-4.23430664"><ele></ele><time>2020-3-13T16:50:1Z</time></trkpt>
<trkpt lat="48.21998488" lon="-4.23417320"><ele></ele><time>2020-3-13T16:50:4Z</time></trkpt>
<trkpt lat="48.21999493" lon="-4.23413984"><ele></ele><time>2020-3-13T16:50:7Z</time></trkpt>
<trkpt lat="48.22000818" lon="-4.23407664"><ele></ele><time>2020-3-13T16:50:10Z</time></trkpt>
<trkpt lat="48.22001991" lon="-4.23402484"><ele></ele><time>2020-3-13T16:50:13Z</time></trkpt>
<trkpt lat="48.22002494" lon="-4.23400657"><ele></ele><time>2020-3-13T16:50:16Z</time></trkpt>
<trkpt lat="48.22002997" lon="-4.23398829"><ele></ele><time>2020-3-13T16:50:19Z</time></trkpt>
<trkpt lat="48.22003165" lon="-4.23396818"><ele></ele><time>2020-3-13T16:50:22Z</time></trkpt>
<trkpt lat="48.22003651" lon="-4.23394991"><ele></ele><time>2020-3-13T16:50:25Z</time></trkpt>
<trkpt lat="48.22005160" lon="-4.23390330"><ele></ele><time>2020-3-13T16:50:28Z</time></trkpt>
<trkpt lat="48.22006819" lon="-4.23384329"><ele></ele><time>2020-3-13T16:50:31Z</time></trkpt>
<trkpt lat="48.22007155" lon="-4.23380658"><ele></ele><time>2020-3-13T16:50:34Z</time></trkpt>
<trkpt lat="48.22007322" lon="-4.23373650"><ele></ele><time>2020-3-13T16:50:37Z</time></trkpt>
<trkpt lat="48.22006987" lon="-4.23362988"><ele></ele><time>2020-3-13T16:50:40Z</time></trkpt>
<trkpt lat="48.22004489" lon="-4.23335328"><ele></ele><time>2020-3-13T16:50:43Z</time></trkpt>
<trkpt lat="48.22003819" lon="-4.23331992"><ele></ele><time>2020-3-13T16:50:46Z</time></trkpt>
<trkpt lat="48.22000818" lon="-4.23321984"><ele></ele><time>2020-3-13T16:50:49Z</time></trkpt>
<trkpt lat="48.22000650" lon="-4.23320995"><ele></ele><time>2020-3-13T16:50:52Z</time></trkpt>
<trkpt lat="48.22000818" lon="-4.23320995"><ele></ele><time>2020-3-13T16:50:55Z</time></trkpt>
<trkpt lat="48.22000818" lon="-4.23321163"><ele></ele><time>2020-3-13T16:50:58Z</time></trkpt>
<trkpt lat="48.22000818" lon="-4.23321163"><ele></ele><time>2020-3-13T16:51:1Z</time></trkpt>
<trkpt lat="48.22000818" lon="-4.23321163"><ele></ele><time>2020-3-13T16:51:4Z</time></trkpt>
<trkpt lat="48.22000818" lon="-4.23321330"><ele></ele><time>2020-3-13T16:51:7Z</time></trkpt>
<trkpt lat="48.22000818" lon="-4.23321330"><ele></ele><time>2020-3-13T16:51:10Z</time></trkpt>
<trkpt lat="48.22000818" lon="-4.23321330"><ele></ele><time>2020-3-13T16:51:13Z</time></trkpt>
<trkpt lat="48.22000818" lon="-4.23321498"><ele></ele><time>2020-3-13T16:51:16Z</time></trkpt>
<trkpt lat="48.22000818" lon="-4.23321498"><ele></ele><time>2020-3-13T16:51:19Z</time></trkpt>
<trkpt lat="48.22000818" lon="-4.23321498"><ele></ele><time>2020-3-13T16:51:22Z</time></trkpt>
<trkpt lat="48.22000818" lon="-4.23321666"><ele></ele><time>2020-3-13T16:51:25Z</time></trkpt>
<trkpt lat="48.22000818" lon="-4.23321817"><ele></ele><time>2020-3-13T16:51:28Z</time></trkpt>
<trkpt lat="48.22000650" lon="-4.23321817"><ele></ele><time>2020-3-13T16:51:31Z</time></trkpt>
<trkpt lat="48.22000818" lon="-4.23321817"><ele></ele><time>2020-3-13T16:51:34Z</time></trkpt>
<trkpt lat="48.22000650" lon="-4.23321817"><ele></ele><time>2020-3-13T16:51:37Z</time></trkpt>
<trkpt lat="48.21999996" lon="-4.23321330"><ele></ele><time>2020-3-13T16:51:40Z</time></trkpt>
<trkpt lat="48.21998823" lon="-4.23320157"><ele></ele><time>2020-3-13T16:51:43Z</time></trkpt>
<trkpt lat="48.21997499" lon="-4.23317994"><ele></ele><time>2020-3-13T16:51:46Z</time></trkpt>
<trkpt lat="48.21996157" lon="-4.23314491"><ele></ele><time>2020-3-13T16:51:49Z</time></trkpt>
<trkpt lat="48.21994984" lon="-4.23310166"><ele></ele><time>2020-3-13T16:51:52Z</time></trkpt>
<trkpt lat="48.21993157" lon="-4.23300661"><ele></ele><time>2020-3-13T16:51:55Z</time></trkpt>
<trkpt lat="48.21992654" lon="-4.23296151"><ele></ele><time>2020-3-13T16:51:58Z</time></trkpt>
<trkpt lat="48.21991983" lon="-4.23286998"><ele></ele><time>2020-3-13T16:52:1Z</time></trkpt>
<trkpt lat="48.21988664" lon="-4.23246664"><ele></ele><time>2020-3-13T16:52:4Z</time></trkpt>
<trkpt lat="48.21987826" lon="-4.23242490"><ele></ele><time>2020-3-13T16:52:7Z</time></trkpt>
<trkpt lat="48.21986988" lon="-4.23237495"><ele></ele><time>2020-3-13T16:52:10Z</time></trkpt>
<trkpt lat="48.21987155" lon="-4.23237327"><ele></ele><time>2020-3-13T16:52:13Z</time></trkpt>
<trkpt lat="48.21987491" lon="-4.23236992"><ele></ele><time>2020-3-13T16:52:16Z</time></trkpt>
<trkpt lat="48.21993157" lon="-4.23232499"><ele></ele><time>2020-3-13T16:52:19Z</time></trkpt>
<trkpt lat="48.21995487" lon="-4.23230990"><ele></ele><time>2020-3-13T16:52:22Z</time></trkpt>
<trkpt lat="48.21999326" lon="-4.23228157"><ele></ele><time>2020-3-13T16:52:25Z</time></trkpt>
<trkpt lat="48.22000818" lon="-4.23225659"><ele></ele><time>2020-3-13T16:52:28Z</time></trkpt>
<trkpt lat="48.22001991" lon="-4.23222491"><ele></ele><time>2020-3-13T16:52:31Z</time></trkpt>
<trkpt lat="48.22003483" lon="-4.23218987"><ele></ele><time>2020-3-13T16:52:34Z</time></trkpt>
<trkpt lat="48.22009485" lon="-4.23198988"><ele></ele><time>2020-3-13T16:52:37Z</time></trkpt>
<trkpt lat="48.22025829" lon="-4.23111984"><ele></ele><time>2020-3-13T16:52:40Z</time></trkpt>
<trkpt lat="48.22036491" lon="-4.23048499"><ele></ele><time>2020-3-13T16:52:43Z</time></trkpt>
<trkpt lat="48.22036826" lon="-4.23038491"><ele></ele><time>2020-3-13T16:52:46Z</time></trkpt>
<trkpt lat="48.22035150" lon="-4.22998493"><ele></ele><time>2020-3-13T16:52:49Z</time></trkpt>
<trkpt lat="48.22034832" lon="-4.22978829"><ele></ele><time>2020-3-13T16:52:52Z</time></trkpt>
<trkpt lat="48.22035988" lon="-4.22961998"><ele></ele><time>2020-3-13T16:52:55Z</time></trkpt>
<trkpt lat="48.22036826" lon="-4.22955829"><ele></ele><time>2020-3-13T16:52:58Z</time></trkpt>
<trkpt lat="48.22038151" lon="-4.22940993"><ele></ele><time>2020-3-13T16:53:1Z</time></trkpt>
<trkpt lat="48.22038151" lon="-4.22936165"><ele></ele><time>2020-3-13T16:53:4Z</time></trkpt>
<trkpt lat="48.22037983" lon="-4.22930499"><ele></ele><time>2020-3-13T16:53:7Z</time></trkpt>
<trkpt lat="48.22038151" lon="-4.22930331"><ele></ele><time>2020-3-13T16:53:10Z</time></trkpt>
<trkpt lat="48.22038318" lon="-4.22930331"><ele></ele><time>2020-3-13T16:53:13Z</time></trkpt>
<trkpt lat="48.22038486" lon="-4.22930818"><ele></ele><time>2020-3-13T16:53:16Z</time></trkpt>
<trkpt lat="48.22038486" lon="-4.22930818"><ele></ele><time>2020-3-13T16:53:19Z</time></trkpt>
<trkpt lat="48.22038486" lon="-4.22930650"><ele></ele><time>2020-3-13T16:53:22Z</time></trkpt>
<trkpt lat="48.22038486" lon="-4.22930985"><ele></ele><time>2020-3-13T16:53:25Z</time></trkpt>
<trkpt lat="48.22038486" lon="-4.22930650"><ele></ele><time>2020-3-13T16:53:28Z</time></trkpt>
<trkpt lat="48.22038486" lon="-4.22930499"><ele></ele><time>2020-3-13T16:53:31Z</time></trkpt>
<trkpt lat="48.22038151" lon="-4.22930164"><ele></ele><time>2020-3-13T16:53:34Z</time></trkpt>
<trkpt lat="48.22037983" lon="-4.22929996"><ele></ele><time>2020-3-13T16:53:37Z</time></trkpt>
<trkpt lat="48.22037983" lon="-4.22929828"><ele></ele><time>2020-3-13T16:53:40Z</time></trkpt>
<trkpt lat="48.22038151" lon="-4.22929493"><ele></ele><time>2020-3-13T16:53:43Z</time></trkpt>
<trkpt lat="48.22042157" lon="-4.22919988"><ele></ele><time>2020-3-13T16:53:46Z</time></trkpt>
<trkpt lat="48.22043163" lon="-4.22915998"><ele></ele><time>2020-3-13T16:53:49Z</time></trkpt>
<trkpt lat="48.22049818" lon="-4.22888992"><ele></ele><time>2020-3-13T16:53:52Z</time></trkpt>
<trkpt lat="48.22050992" lon="-4.22885153"><ele></ele><time>2020-3-13T16:53:55Z</time></trkpt>
<trkpt lat="48.22052652" lon="-4.22880660"><ele></ele><time>2020-3-13T16:53:58Z</time></trkpt>
<trkpt lat="48.22058821" lon="-4.22860661"><ele></ele><time>2020-3-13T16:54:1Z</time></trkpt>
<trkpt lat="48.22060983" lon="-4.22849664"><ele></ele><time>2020-3-13T16:54:4Z</time></trkpt>
<trkpt lat="48.22062157" lon="-4.22839656"><ele></ele><time>2020-3-13T16:54:7Z</time></trkpt>
<trkpt lat="48.22062492" lon="-4.22828827"><ele></ele><time>2020-3-13T16:54:10Z</time></trkpt>
<trkpt lat="48.22062324" lon="-4.22823831"><ele></ele><time>2020-3-13T16:54:13Z</time></trkpt>
<trkpt lat="48.22059994" lon="-4.22806162"><ele></ele><time>2020-3-13T16:54:16Z</time></trkpt>
<trkpt lat="48.22054663" lon="-4.22779323"><ele></ele><time>2020-3-13T16:54:19Z</time></trkpt>
<trkpt lat="48.22049651" lon="-4.22758821"><ele></ele><time>2020-3-13T16:54:22Z</time></trkpt>
<trkpt lat="48.22049483" lon="-4.22755317"><ele></ele><time>2020-3-13T16:54:25Z</time></trkpt>
<trkpt lat="48.22049986" lon="-4.22752166"><ele></ele><time>2020-3-13T16:54:28Z</time></trkpt>
<trkpt lat="48.22051160" lon="-4.22748997"><ele></ele><time>2020-3-13T16:54:31Z</time></trkpt>
<trkpt lat="48.22052987" lon="-4.22746818"><ele></ele><time>2020-3-13T16:54:34Z</time></trkpt>
<trkpt lat="48.22055317" lon="-4.22745326"><ele></ele><time>2020-3-13T16:54:37Z</time></trkpt>
<trkpt lat="48.22058150" lon="-4.22744655"><ele></ele><time>2020-3-13T16:54:40Z</time></trkpt>
<trkpt lat="48.22061486" lon="-4.22744991"><ele></ele><time>2020-3-13T16:54:43Z</time></trkpt>
<trkpt lat="48.22065157" lon="-4.22745997"><ele></ele><time>2020-3-13T16:54:46Z</time></trkpt>
<trkpt lat="48.22079658" lon="-4.22749651"><ele></ele><time>2020-3-13T16:54:49Z</time></trkpt>
<trkpt lat="48.22083162" lon="-4.22748327"><ele></ele><time>2020-3-13T16:54:52Z</time></trkpt>
<trkpt lat="48.22085492" lon="-4.22745829"><ele></ele><time>2020-3-13T16:54:55Z</time></trkpt>
<trkpt lat="48.22086665" lon="-4.22742158"><ele></ele><time>2020-3-13T16:54:58Z</time></trkpt>
<trkpt lat="48.22086665" lon="-4.22738151"><ele></ele><time>2020-3-13T16:55:1Z</time></trkpt>
<trkpt lat="48.22085827" lon="-4.22733826"><ele></ele><time>2020-3-13T16:55:4Z</time></trkpt>
<trkpt lat="48.22079826" lon="-4.22692822"><ele></ele><time>2020-3-13T16:55:7Z</time></trkpt>
<trkpt lat="48.22079826" lon="-4.22687994"><ele></ele><time>2020-3-13T16:55:10Z</time></trkpt>
<trkpt lat="48.22081318" lon="-4.22644827"><ele></ele><time>2020-3-13T16:55:13Z</time></trkpt>
<trkpt lat="48.22082659" lon="-4.22639664"><ele></ele><time>2020-3-13T16:55:16Z</time></trkpt>
<trkpt lat="48.22084821" lon="-4.22635154"><ele></ele><time>2020-3-13T16:55:19Z</time></trkpt>
<trkpt lat="48.22087487" lon="-4.22631165"><ele></ele><time>2020-3-13T16:55:22Z</time></trkpt>
<trkpt lat="48.22094662" lon="-4.22618826"><ele></ele><time>2020-3-13T16:55:25Z</time></trkpt>
<trkpt lat="48.22096154" lon="-4.22614652"><ele></ele><time>2020-3-13T16:55:28Z</time></trkpt>
<trkpt lat="48.22103664" lon="-4.22590496"><ele></ele><time>2020-3-13T16:55:31Z</time></trkpt>
<trkpt lat="48.22113320" lon="-4.22557655"><ele></ele><time>2020-3-13T16:55:34Z</time></trkpt>
<trkpt lat="48.22116153" lon="-4.22550983"><ele></ele><time>2020-3-13T16:55:37Z</time></trkpt>
<trkpt lat="48.22132498" lon="-4.22505319"><ele></ele><time>2020-3-13T16:55:40Z</time></trkpt>
<trkpt lat="48.22133319" lon="-4.22500155"><ele></ele><time>2020-3-13T16:55:43Z</time></trkpt>
<trkpt lat="48.22133487" lon="-4.22496166"><ele></ele><time>2020-3-13T16:55:46Z</time></trkpt>
<trkpt lat="48.22133151" lon="-4.22493483"><ele></ele><time>2020-3-13T16:55:49Z</time></trkpt>
<trkpt lat="48.22133151" lon="-4.22492997"><ele></ele><time>2020-3-13T16:55:52Z</time></trkpt>
<trkpt lat="48.22132984" lon="-4.22493165"><ele></ele><time>2020-3-13T16:55:55Z</time></trkpt>
<trkpt lat="48.22132984" lon="-4.22493332"><ele></ele><time>2020-3-13T16:55:58Z</time></trkpt>
<trkpt lat="48.22132833" lon="-4.22494154"><ele></ele><time>2020-3-13T16:56:1Z</time></trkpt>
<trkpt lat="48.22132665" lon="-4.22494322"><ele></ele><time>2020-3-13T16:56:4Z</time></trkpt>
<trkpt lat="48.22132665" lon="-4.22494322"><ele></ele><time>2020-3-13T16:56:7Z</time></trkpt>
<trkpt lat="48.22132665" lon="-4.22494489"><ele></ele><time>2020-3-13T16:56:10Z</time></trkpt>
<trkpt lat="48.22132665" lon="-4.22494657"><ele></ele><time>2020-3-13T16:56:13Z</time></trkpt>
<trkpt lat="48.22132665" lon="-4.22494824"><ele></ele><time>2020-3-13T16:56:16Z</time></trkpt>
<trkpt lat="48.22132665" lon="-4.22495160"><ele></ele><time>2020-3-13T16:56:19Z</time></trkpt>
<trkpt lat="48.22132833" lon="-4.22495327"><ele></ele><time>2020-3-13T16:56:22Z</time></trkpt>
<trkpt lat="48.22132498" lon="-4.22495327"><ele></ele><time>2020-3-13T16:56:25Z</time></trkpt>
<trkpt lat="48.22131827" lon="-4.22494489"><ele></ele><time>2020-3-13T16:56:28Z</time></trkpt>
<trkpt lat="48.22128826" lon="-4.22491824"><ele></ele><time>2020-3-13T16:56:31Z</time></trkpt>
<trkpt lat="48.22126831" lon="-4.22491656"><ele></ele><time>2020-3-13T16:56:34Z</time></trkpt>
<trkpt lat="48.22124820" lon="-4.22491153"><ele></ele><time>2020-3-13T16:56:37Z</time></trkpt>
<trkpt lat="48.22091158" lon="-4.22483660"><ele></ele><time>2020-3-13T16:56:40Z</time></trkpt>
<trkpt lat="48.22088660" lon="-4.22482486"><ele></ele><time>2020-3-13T16:56:43Z</time></trkpt>
<trkpt lat="48.22080999" lon="-4.22477994"><ele></ele><time>2020-3-13T16:56:46Z</time></trkpt>
<trkpt lat="48.22078317" lon="-4.22475999"><ele></ele><time>2020-3-13T16:56:49Z</time></trkpt>
<trkpt lat="48.22075819" lon="-4.22473819"><ele></ele><time>2020-3-13T16:56:52Z</time></trkpt>
<trkpt lat="48.22064319" lon="-4.22461817"><ele></ele><time>2020-3-13T16:56:55Z</time></trkpt>
<trkpt lat="48.22061486" lon="-4.22458162"><ele></ele><time>2020-3-13T16:56:58Z</time></trkpt>
<trkpt lat="48.22058821" lon="-4.22453653"><ele></ele><time>2020-3-13T16:57:1Z</time></trkpt>
<trkpt lat="48.22056323" lon="-4.22448489"><ele></ele><time>2020-3-13T16:57:4Z</time></trkpt>
<trkpt lat="48.22054496" lon="-4.22442823"><ele></ele><time>2020-3-13T16:57:7Z</time></trkpt>
<trkpt lat="48.22053154" lon="-4.22437492"><ele></ele><time>2020-3-13T16:57:10Z</time></trkpt>
<trkpt lat="48.22052165" lon="-4.22431826"><ele></ele><time>2020-3-13T16:57:13Z</time></trkpt>
<trkpt lat="48.22038151" lon="-4.22374494"><ele></ele><time>2020-3-13T16:57:16Z</time></trkpt>
<trkpt lat="48.22035821" lon="-4.22370487"><ele></ele><time>2020-3-13T16:57:19Z</time></trkpt>
<trkpt lat="48.22032988" lon="-4.22368995"><ele></ele><time>2020-3-13T16:57:22Z</time></trkpt>
<trkpt lat="48.22029987" lon="-4.22369666"><ele></ele><time>2020-3-13T16:57:25Z</time></trkpt>
<trkpt lat="48.22027154" lon="-4.22371326"><ele></ele><time>2020-3-13T16:57:28Z</time></trkpt>
<trkpt lat="48.22024153" lon="-4.22372985"><ele></ele><time>2020-3-13T16:57:31Z</time></trkpt>
<trkpt lat="48.22020817" lon="-4.22374159"><ele></ele><time>2020-3-13T16:57:34Z</time></trkpt>
<trkpt lat="48.22017498" lon="-4.22375651"><ele></ele><time>2020-3-13T16:57:37Z</time></trkpt>
<trkpt lat="48.22014162" lon="-4.22377998"><ele></ele><time>2020-3-13T16:57:40Z</time></trkpt>
<trkpt lat="48.22007322" lon="-4.22381820"><ele></ele><time>2020-3-13T16:57:43Z</time></trkpt>
<trkpt lat="48.22003651" lon="-4.22383161"><ele></ele><time>2020-3-13T16:57:46Z</time></trkpt>
<trkpt lat="48.21988329" lon="-4.22389330"><ele></ele><time>2020-3-13T16:57:49Z</time></trkpt>
<trkpt lat="48.21980651" lon="-4.22394828"><ele></ele><time>2020-3-13T16:57:52Z</time></trkpt>
<trkpt lat="48.21966486" lon="-4.22405490"><ele></ele><time>2020-3-13T16:57:55Z</time></trkpt>
<trkpt lat="48.21941658" lon="-4.22422489"><ele></ele><time>2020-3-13T16:57:58Z</time></trkpt>
<trkpt lat="48.21927493" lon="-4.22434156"><ele></ele><time>2020-3-13T16:58:1Z</time></trkpt>
<trkpt lat="48.21924492" lon="-4.22434994"><ele></ele><time>2020-3-13T16:58:4Z</time></trkpt>
<trkpt lat="48.21921659" lon="-4.22436319"><ele></ele><time>2020-3-13T16:58:7Z</time></trkpt>
<trkpt lat="48.21918994" lon="-4.22438498"><ele></ele><time>2020-3-13T16:58:10Z</time></trkpt>
<trkpt lat="48.21916161" lon="-4.22441499"><ele></ele><time>2020-3-13T16:58:13Z</time></trkpt>
<trkpt lat="48.21903152" lon="-4.22454658"><ele></ele><time>2020-3-13T16:58:16Z</time></trkpt>
<trkpt lat="48.21902163" lon="-4.22454994"><ele></ele><time>2020-3-13T16:58:19Z</time></trkpt>
<trkpt lat="48.21899833" lon="-4.22456318"><ele></ele><time>2020-3-13T16:58:22Z</time></trkpt>
<trkpt lat="48.21898659" lon="-4.22457659"><ele></ele><time>2020-3-13T16:58:25Z</time></trkpt>
<trkpt lat="48.21886656" lon="-4.22471322"><ele></ele><time>2020-3-13T16:58:28Z</time></trkpt>
<trkpt lat="48.21884829" lon="-4.22472663"><ele></ele><time>2020-3-13T16:58:31Z</time></trkpt>
<trkpt lat="48.21883320" lon="-4.22474490"><ele></ele><time>2020-3-13T16:58:34Z</time></trkpt>
<trkpt lat="48.21882499" lon="-4.22476317"><ele></ele><time>2020-3-13T16:58:37Z</time></trkpt>
<trkpt lat="48.21881158" lon="-4.22478329"><ele></ele><time>2020-3-13T16:58:40Z</time></trkpt>
<trkpt lat="48.21879666" lon="-4.22480156"><ele></ele><time>2020-3-13T16:58:43Z</time></trkpt>
<trkpt lat="48.21877989" lon="-4.22481665"><ele></ele><time>2020-3-13T16:58:46Z</time></trkpt>
<trkpt lat="48.21875995" lon="-4.22482822"><ele></ele><time>2020-3-13T16:58:49Z</time></trkpt>
<trkpt lat="48.21873664" lon="-4.22483827"><ele></ele><time>2020-3-13T16:58:52Z</time></trkpt>
<trkpt lat="48.21868317" lon="-4.22486661"><ele></ele><time>2020-3-13T16:58:55Z</time></trkpt>
<trkpt lat="48.21865819" lon="-4.22488655"><ele></ele><time>2020-3-13T16:58:58Z</time></trkpt>
<trkpt lat="48.21861159" lon="-4.22492159"><ele></ele><time>2020-3-13T16:59:1Z</time></trkpt>
<trkpt lat="48.21858325" lon="-4.22493332"><ele></ele><time>2020-3-13T16:59:4Z</time></trkpt>
<trkpt lat="48.21855660" lon="-4.22494322"><ele></ele><time>2020-3-13T16:59:7Z</time></trkpt>
<trkpt lat="48.21849826" lon="-4.22495998"><ele></ele><time>2020-3-13T16:59:10Z</time></trkpt>
<trkpt lat="48.21848820" lon="-4.22495998"><ele></ele><time>2020-3-13T16:59:13Z</time></trkpt>
<trkpt lat="48.21848485" lon="-4.22495327"><ele></ele><time>2020-3-13T16:59:16Z</time></trkpt>
<trkpt lat="48.21848317" lon="-4.22494489"><ele></ele><time>2020-3-13T16:59:19Z</time></trkpt>
<trkpt lat="48.21847831" lon="-4.22493986"><ele></ele><time>2020-3-13T16:59:22Z</time></trkpt>
<trkpt lat="48.21846490" lon="-4.22493165"><ele></ele><time>2020-3-13T16:59:25Z</time></trkpt>
<trkpt lat="48.21844663" lon="-4.22491656"><ele></ele><time>2020-3-13T16:59:28Z</time></trkpt>
<trkpt lat="48.21842987" lon="-4.22489829"><ele></ele><time>2020-3-13T16:59:31Z</time></trkpt>
<trkpt lat="48.21841998" lon="-4.22487163"><ele></ele><time>2020-3-13T16:59:34Z</time></trkpt>
<trkpt lat="48.21836650" lon="-4.22469997"><ele></ele><time>2020-3-13T16:59:37Z</time></trkpt>
<trkpt lat="48.21832995" lon="-4.22459319"><ele></ele><time>2020-3-13T16:59:40Z</time></trkpt>
<trkpt lat="48.21832325" lon="-4.22455497"><ele></ele><time>2020-3-13T16:59:43Z</time></trkpt>
<trkpt lat="48.21830833" lon="-4.22449998"><ele></ele><time>2020-3-13T16:59:46Z</time></trkpt>
<trkpt lat="48.21829156" lon="-4.22447651"><ele></ele><time>2020-3-13T16:59:49Z</time></trkpt>
<trkpt lat="48.21826826" lon="-4.22445321"><ele></ele><time>2020-3-13T16:59:52Z</time></trkpt>
<trkpt lat="48.21824161" lon="-4.22442656"><ele></ele><time>2020-3-13T16:59:55Z</time></trkpt>
<trkpt lat="48.21821998" lon="-4.22440158"><ele></ele><time>2020-3-13T16:59:58Z</time></trkpt>
<trkpt lat="48.21818327" lon="-4.22436319"><ele></ele><time>2020-3-13T17:0:1Z</time></trkpt>
<trkpt lat="48.21816165" lon="-4.22435665"><ele></ele><time>2020-3-13T17:0:4Z</time></trkpt>
<trkpt lat="48.21813985" lon="-4.22434492"><ele></ele><time>2020-3-13T17:0:7Z</time></trkpt>
<trkpt lat="48.21811990" lon="-4.22431826"><ele></ele><time>2020-3-13T17:0:10Z</time></trkpt>
<trkpt lat="48.21810163" lon="-4.22428825"><ele></ele><time>2020-3-13T17:0:13Z</time></trkpt>
<trkpt lat="48.21804497" lon="-4.22421650"><ele></ele><time>2020-3-13T17:0:16Z</time></trkpt>
<trkpt lat="48.21802485" lon="-4.22421164"><ele></ele><time>2020-3-13T17:0:19Z</time></trkpt>
<trkpt lat="48.21800323" lon="-4.22421483"><ele></ele><time>2020-3-13T17:0:22Z</time></trkpt>
<trkpt lat="48.21795830" lon="-4.22422321"><ele></ele><time>2020-3-13T17:0:25Z</time></trkpt>
<trkpt lat="48.21793651" lon="-4.22420997"><ele></ele><time>2020-3-13T17:0:28Z</time></trkpt>
<trkpt lat="48.21791488" lon="-4.22418817"><ele></ele><time>2020-3-13T17:0:31Z</time></trkpt>
<trkpt lat="48.21789493" lon="-4.22416487"><ele></ele><time>2020-3-13T17:0:34Z</time></trkpt>
<trkpt lat="48.21787498" lon="-4.22413989"><ele></ele><time>2020-3-13T17:0:37Z</time></trkpt>
<trkpt lat="48.21785319" lon="-4.22411995"><ele></ele><time>2020-3-13T17:0:40Z</time></trkpt>
<trkpt lat="48.21782989" lon="-4.22411324"><ele></ele><time>2020-3-13T17:0:43Z</time></trkpt>
<trkpt lat="48.21780323" lon="-4.22411995"><ele></ele><time>2020-3-13T17:0:46Z</time></trkpt>
<trkpt lat="48.21764985" lon="-4.22418650"><ele></ele><time>2020-3-13T17:0:49Z</time></trkpt>
<trkpt lat="48.21762319" lon="-4.22421483"><ele></ele><time>2020-3-13T17:0:52Z</time></trkpt>
<trkpt lat="48.21757156" lon="-4.22426160"><ele></ele><time>2020-3-13T17:0:55Z</time></trkpt>
<trkpt lat="48.21754490" lon="-4.22426328"><ele></ele><time>2020-3-13T17:0:58Z</time></trkpt>
<trkpt lat="48.21751490" lon="-4.22425154"><ele></ele><time>2020-3-13T17:1:1Z</time></trkpt>
<trkpt lat="48.21748489" lon="-4.22422992"><ele></ele><time>2020-3-13T17:1:4Z</time></trkpt>
<trkpt lat="48.21745321" lon="-4.22421164"><ele></ele><time>2020-3-13T17:1:7Z</time></trkpt>
<trkpt lat="48.21741817" lon="-4.22420661"><ele></ele><time>2020-3-13T17:1:10Z</time></trkpt>
<trkpt lat="48.21726327" lon="-4.22419823"><ele></ele><time>2020-3-13T17:1:13Z</time></trkpt>
<trkpt lat="48.21722488" lon="-4.22418331"><ele></ele><time>2020-3-13T17:1:16Z</time></trkpt>
<trkpt lat="48.21718499" lon="-4.22417158"><ele></ele><time>2020-3-13T17:1:19Z</time></trkpt>
<trkpt lat="48.21714324" lon="-4.22416990"><ele></ele><time>2020-3-13T17:1:22Z</time></trkpt>
<trkpt lat="48.21710150" lon="-4.22417828"><ele></ele><time>2020-3-13T17:1:25Z</time></trkpt>
<trkpt lat="48.21697494" lon="-4.22420661"><ele></ele><time>2020-3-13T17:1:28Z</time></trkpt>
<trkpt lat="48.21693319" lon="-4.22419320"><ele></ele><time>2020-3-13T17:1:31Z</time></trkpt>
<trkpt lat="48.21675332" lon="-4.22414492"><ele></ele><time>2020-3-13T17:1:34Z</time></trkpt>
<trkpt lat="48.21671493" lon="-4.22411492"><ele></ele><time>2020-3-13T17:1:37Z</time></trkpt>
<trkpt lat="48.21650655" lon="-4.22393823"><ele></ele><time>2020-3-13T17:1:40Z</time></trkpt>
<trkpt lat="48.21645995" lon="-4.22391157"><ele></ele><time>2020-3-13T17:1:43Z</time></trkpt>
<trkpt lat="48.21621151" lon="-4.22380328"><ele></ele><time>2020-3-13T17:1:46Z</time></trkpt>
<trkpt lat="48.21616491" lon="-4.22379657"><ele></ele><time>2020-3-13T17:1:49Z</time></trkpt>
<trkpt lat="48.21612317" lon="-4.22379992"><ele></ele><time>2020-3-13T17:1:52Z</time></trkpt>
<trkpt lat="48.21608159" lon="-4.22380328"><ele></ele><time>2020-3-13T17:1:55Z</time></trkpt>
<trkpt lat="48.21604153" lon="-4.22379154"><ele></ele><time>2020-3-13T17:1:58Z</time></trkpt>
<trkpt lat="48.21595486" lon="-4.22378165"><ele></ele><time>2020-3-13T17:2:1Z</time></trkpt>
<trkpt lat="48.21559159" lon="-4.22378987"><ele></ele><time>2020-3-13T17:2:4Z</time></trkpt>
<trkpt lat="48.21555990" lon="-4.22381317"><ele></ele><time>2020-3-13T17:2:7Z</time></trkpt>
<trkpt lat="48.21553492" lon="-4.22384485"><ele></ele><time>2020-3-13T17:2:10Z</time></trkpt>
<trkpt lat="48.21551665" lon="-4.22387821"><ele></ele><time>2020-3-13T17:2:13Z</time></trkpt>
<trkpt lat="48.21550659" lon="-4.22390989"><ele></ele><time>2020-3-13T17:2:16Z</time></trkpt>
<trkpt lat="48.21542831" lon="-4.22414325"><ele></ele><time>2020-3-13T17:2:19Z</time></trkpt>
<trkpt lat="48.21541490" lon="-4.22416990"><ele></ele><time>2020-3-13T17:2:22Z</time></trkpt>
<trkpt lat="48.21530660" lon="-4.22442991"><ele></ele><time>2020-3-13T17:2:25Z</time></trkpt>
<trkpt lat="48.21497652" lon="-4.22524664"><ele></ele><time>2020-3-13T17:2:28Z</time></trkpt>
<trkpt lat="48.21494987" lon="-4.22526827"><ele></ele><time>2020-3-13T17:2:31Z</time></trkpt>
<trkpt lat="48.21491986" lon="-4.22528319"><ele></ele><time>2020-3-13T17:2:34Z</time></trkpt>
<trkpt lat="48.21488985" lon="-4.22528821"><ele></ele><time>2020-3-13T17:2:37Z</time></trkpt>
<trkpt lat="48.21482498" lon="-4.22530163"><ele></ele><time>2020-3-13T17:2:40Z</time></trkpt>
<trkpt lat="48.21445818" lon="-4.22541830"><ele></ele><time>2020-3-13T17:2:43Z</time></trkpt>
<trkpt lat="48.21443656" lon="-4.22542987"><ele></ele><time>2020-3-13T17:2:46Z</time></trkpt>
<trkpt lat="48.21441158" lon="-4.22543825"><ele></ele><time>2020-3-13T17:2:49Z</time></trkpt>
<trkpt lat="48.21438660" lon="-4.22544160"><ele></ele><time>2020-3-13T17:2:52Z</time></trkpt>
<trkpt lat="48.21426993" lon="-4.22544999"><ele></ele><time>2020-3-13T17:2:55Z</time></trkpt>
<trkpt lat="48.21424160" lon="-4.22544328"><ele></ele><time>2020-3-13T17:2:58Z</time></trkpt>
<trkpt lat="48.21418158" lon="-4.22542484"><ele></ele><time>2020-3-13T17:3:1Z</time></trkpt>
<trkpt lat="48.21415493" lon="-4.22540992"><ele></ele><time>2020-3-13T17:3:4Z</time></trkpt>
<trkpt lat="48.21412827" lon="-4.22538662"><ele></ele><time>2020-3-13T17:3:7Z</time></trkpt>
<trkpt lat="48.21410162" lon="-4.22535996"><ele></ele><time>2020-3-13T17:3:10Z</time></trkpt>
<trkpt lat="48.21405485" lon="-4.22529995"><ele></ele><time>2020-3-13T17:3:13Z</time></trkpt>
<trkpt lat="48.21403490" lon="-4.22526491"><ele></ele><time>2020-3-13T17:3:16Z</time></trkpt>
<trkpt lat="48.21401495" lon="-4.22523993"><ele></ele><time>2020-3-13T17:3:19Z</time></trkpt>
<trkpt lat="48.21398997" lon="-4.22523155"><ele></ele><time>2020-3-13T17:3:22Z</time></trkpt>
<trkpt lat="48.21384329" lon="-4.22520322"><ele></ele><time>2020-3-13T17:3:25Z</time></trkpt>
<trkpt lat="48.21380658" lon="-4.22520490"><ele></ele><time>2020-3-13T17:3:28Z</time></trkpt>
<trkpt lat="48.21376986" lon="-4.22521496"><ele></ele><time>2020-3-13T17:3:31Z</time></trkpt>
<trkpt lat="48.21373650" lon="-4.22523155"><ele></ele><time>2020-3-13T17:3:34Z</time></trkpt>
<trkpt lat="48.21363156" lon="-4.22531822"><ele></ele><time>2020-3-13T17:3:37Z</time></trkpt>
<trkpt lat="48.21361999" lon="-4.22535493"><ele></ele><time>2020-3-13T17:3:40Z</time></trkpt>
<trkpt lat="48.21359653" lon="-4.22542316"><ele></ele><time>2020-3-13T17:3:43Z</time></trkpt>
<trkpt lat="48.21358161" lon="-4.22545652"><ele></ele><time>2020-3-13T17:3:46Z</time></trkpt>
<trkpt lat="48.21356317" lon="-4.22548821"><ele></ele><time>2020-3-13T17:3:49Z</time></trkpt>
<trkpt lat="48.21353819" lon="-4.22551654"><ele></ele><time>2020-3-13T17:3:52Z</time></trkpt>
<trkpt lat="48.21330819" lon="-4.22583656"><ele></ele><time>2020-3-13T17:3:55Z</time></trkpt>
<trkpt lat="48.21324650" lon="-4.22594318"><ele></ele><time>2020-3-13T17:3:58Z</time></trkpt>
<trkpt lat="48.21322990" lon="-4.22597486"><ele></ele><time>2020-3-13T17:4:1Z</time></trkpt>
<trkpt lat="48.21321163" lon="-4.22600654"><ele></ele><time>2020-3-13T17:4:4Z</time></trkpt>
<trkpt lat="48.21314826" lon="-4.22609489"><ele></ele><time>2020-3-13T17:4:7Z</time></trkpt>
<trkpt lat="48.21308154" lon="-4.22620318"><ele></ele><time>2020-3-13T17:4:10Z</time></trkpt>
<trkpt lat="48.21300493" lon="-4.22632154"><ele></ele><time>2020-3-13T17:4:13Z</time></trkpt>
<trkpt lat="48.21297325" lon="-4.22635657"><ele></ele><time>2020-3-13T17:4:16Z</time></trkpt>
<trkpt lat="48.21284651" lon="-4.22647828"><ele></ele><time>2020-3-13T17:4:19Z</time></trkpt>
<trkpt lat="48.21280661" lon="-4.22648331"><ele></ele><time>2020-3-13T17:4:22Z</time></trkpt>
<trkpt lat="48.21276487" lon="-4.22646990"><ele></ele><time>2020-3-13T17:4:25Z</time></trkpt>
<trkpt lat="48.21272665" lon="-4.22643654"><ele></ele><time>2020-3-13T17:4:28Z</time></trkpt>
<trkpt lat="48.21268994" lon="-4.22638826"><ele></ele><time>2020-3-13T17:4:31Z</time></trkpt>
<trkpt lat="48.21253487" lon="-4.22620989"><ele></ele><time>2020-3-13T17:4:34Z</time></trkpt>
<trkpt lat="48.21249833" lon="-4.22619983"><ele></ele><time>2020-3-13T17:4:37Z</time></trkpt>
<trkpt lat="48.21246497" lon="-4.22620151"><ele></ele><time>2020-3-13T17:4:40Z</time></trkpt>
<trkpt lat="48.21217160" lon="-4.22621827"><ele></ele><time>2020-3-13T17:4:43Z</time></trkpt>
<trkpt lat="48.21212332" lon="-4.22620654"><ele></ele><time>2020-3-13T17:4:46Z</time></trkpt>
<trkpt lat="48.21203665" lon="-4.22617150"><ele></ele><time>2020-3-13T17:4:49Z</time></trkpt>
<trkpt lat="48.21200497" lon="-4.22614166"><ele></ele><time>2020-3-13T17:4:52Z</time></trkpt>
<trkpt lat="48.21197832" lon="-4.22609824"><ele></ele><time>2020-3-13T17:4:55Z</time></trkpt>
<trkpt lat="48.21195652" lon="-4.22603990"><ele></ele><time>2020-3-13T17:4:58Z</time></trkpt>
<trkpt lat="48.21193993" lon="-4.22597318"><ele></ele><time>2020-3-13T17:5:1Z</time></trkpt>
<trkpt lat="48.21186164" lon="-4.22567663"><ele></ele><time>2020-3-13T17:5:4Z</time></trkpt>
<trkpt lat="48.21184990" lon="-4.22560656"><ele></ele><time>2020-3-13T17:5:7Z</time></trkpt>
<trkpt lat="48.21183985" lon="-4.22548821"><ele></ele><time>2020-3-13T17:5:10Z</time></trkpt>
<trkpt lat="48.21184152" lon="-4.22543155"><ele></ele><time>2020-3-13T17:5:13Z</time></trkpt>
<trkpt lat="48.21183498" lon="-4.22444332"><ele></ele><time>2020-3-13T17:5:16Z</time></trkpt>
<trkpt lat="48.21182325" lon="-4.22437492"><ele></ele><time>2020-3-13T17:5:19Z</time></trkpt>
<trkpt lat="48.21180498" lon="-4.22430820"><ele></ele><time>2020-3-13T17:5:22Z</time></trkpt>
<trkpt lat="48.21176491" lon="-4.22419488"><ele></ele><time>2020-3-13T17:5:25Z</time></trkpt>
<trkpt lat="48.21173658" lon="-4.22414325"><ele></ele><time>2020-3-13T17:5:28Z</time></trkpt>
<trkpt lat="48.21170154" lon="-4.22408826"><ele></ele><time>2020-3-13T17:5:31Z</time></trkpt>
<trkpt lat="48.21166332" lon="-4.22405155"><ele></ele><time>2020-3-13T17:5:34Z</time></trkpt>
<trkpt lat="48.21161823" lon="-4.22402992"><ele></ele><time>2020-3-13T17:5:37Z</time></trkpt>
<trkpt lat="48.21156995" lon="-4.22401987"><ele></ele><time>2020-3-13T17:5:40Z</time></trkpt>
<trkpt lat="48.21151999" lon="-4.22402154"><ele></ele><time>2020-3-13T17:5:43Z</time></trkpt>
<trkpt lat="48.21146819" lon="-4.22403328"><ele></ele><time>2020-3-13T17:5:46Z</time></trkpt>
<trkpt lat="48.21141656" lon="-4.22405658"><ele></ele><time>2020-3-13T17:5:49Z</time></trkpt>
<trkpt lat="48.21136660" lon="-4.22408994"><ele></ele><time>2020-3-13T17:5:52Z</time></trkpt>
<trkpt lat="48.21113660" lon="-4.22428825"><ele></ele><time>2020-3-13T17:5:55Z</time></trkpt>
<trkpt lat="48.21109822" lon="-4.22432832"><ele></ele><time>2020-3-13T17:5:58Z</time></trkpt>
<trkpt lat="48.21103652" lon="-4.22440828"><ele></ele><time>2020-3-13T17:6:1Z</time></trkpt>
<trkpt lat="48.21101322" lon="-4.22444986"><ele></ele><time>2020-3-13T17:6:4Z</time></trkpt>
<trkpt lat="48.21098824" lon="-4.22448154"><ele></ele><time>2020-3-13T17:6:7Z</time></trkpt>
<trkpt lat="48.21095824" lon="-4.22450484"><ele></ele><time>2020-3-13T17:6:10Z</time></trkpt>
<trkpt lat="48.21092488" lon="-4.22452831"><ele></ele><time>2020-3-13T17:6:13Z</time></trkpt>
<trkpt lat="48.21088816" lon="-4.22454323"><ele></ele><time>2020-3-13T17:6:16Z</time></trkpt>
<trkpt lat="48.21078658" lon="-4.22457491"><ele></ele><time>2020-3-13T17:6:19Z</time></trkpt>
<trkpt lat="48.21074651" lon="-4.22456989"><ele></ele><time>2020-3-13T17:6:22Z</time></trkpt>
<trkpt lat="48.21065984" lon="-4.22454658"><ele></ele><time>2020-3-13T17:6:25Z</time></trkpt>
<trkpt lat="48.21056831" lon="-4.22453653"><ele></ele><time>2020-3-13T17:6:28Z</time></trkpt>
<trkpt lat="48.21052154" lon="-4.22454323"><ele></ele><time>2020-3-13T17:6:31Z</time></trkpt>
<trkpt lat="48.21047494" lon="-4.22456150"><ele></ele><time>2020-3-13T17:6:34Z</time></trkpt>
<trkpt lat="48.21034485" lon="-4.22461984"><ele></ele><time>2020-3-13T17:6:37Z</time></trkpt>
<trkpt lat="48.21001494" lon="-4.22478664"><ele></ele><time>2020-3-13T17:6:40Z</time></trkpt>
<trkpt lat="48.20998493" lon="-4.22481983"><ele></ele><time>2020-3-13T17:6:43Z</time></trkpt>
<trkpt lat="48.20983154" lon="-4.22500994"><ele></ele><time>2020-3-13T17:6:46Z</time></trkpt>
<trkpt lat="48.20974655" lon="-4.22511152"><ele></ele><time>2020-3-13T17:6:49Z</time></trkpt>
<trkpt lat="48.20971654" lon="-4.22513818"><ele></ele><time>2020-3-13T17:6:52Z</time></trkpt>
<trkpt lat="48.20960154" lon="-4.22523323"><ele></ele><time>2020-3-13T17:6:55Z</time></trkpt>
<trkpt lat="48.20957154" lon="-4.22525318"><ele></ele><time>2020-3-13T17:6:58Z</time></trkpt>
<trkpt lat="48.20951487" lon="-4.22528821"><ele></ele><time>2020-3-13T17:7:1Z</time></trkpt>
<trkpt lat="48.20941664" lon="-4.22533649"><ele></ele><time>2020-3-13T17:7:4Z</time></trkpt>
<trkpt lat="48.20939317" lon="-4.22535493"><ele></ele><time>2020-3-13T17:7:7Z</time></trkpt>
<trkpt lat="48.20935159" lon="-4.22538327"><ele></ele><time>2020-3-13T17:7:10Z</time></trkpt>
<trkpt lat="48.20933165" lon="-4.22539332"><ele></ele><time>2020-3-13T17:7:13Z</time></trkpt>
<trkpt lat="48.20928655" lon="-4.22542819"><ele></ele><time>2020-3-13T17:7:16Z</time></trkpt>
<trkpt lat="48.20926325" lon="-4.22545652"><ele></ele><time>2020-3-13T17:7:19Z</time></trkpt>
<trkpt lat="48.20921983" lon="-4.22550497"><ele></ele><time>2020-3-13T17:7:22Z</time></trkpt>
<trkpt lat="48.20919821" lon="-4.22552324"><ele></ele><time>2020-3-13T17:7:25Z</time></trkpt>
<trkpt lat="48.20877660" lon="-4.22589825"><ele></ele><time>2020-3-13T17:7:28Z</time></trkpt>
<trkpt lat="48.20863327" lon="-4.22603320"><ele></ele><time>2020-3-13T17:7:31Z</time></trkpt>
<trkpt lat="48.20861499" lon="-4.22603990"><ele></ele><time>2020-3-13T17:7:34Z</time></trkpt>
<trkpt lat="48.20857157" lon="-4.22607662"><ele></ele><time>2020-3-13T17:7:37Z</time></trkpt>
<trkpt lat="48.20844987" lon="-4.22618491"><ele></ele><time>2020-3-13T17:7:40Z</time></trkpt>
<trkpt lat="48.20842154" lon="-4.22621157"><ele></ele><time>2020-3-13T17:7:43Z</time></trkpt>
<trkpt lat="48.20839488" lon="-4.22623654"><ele></ele><time>2020-3-13T17:7:46Z</time></trkpt>
<trkpt lat="48.20837158" lon="-4.22626655"><ele></ele><time>2020-3-13T17:7:49Z</time></trkpt>
<trkpt lat="48.20833487" lon="-4.22631483"><ele></ele><time>2020-3-13T17:7:52Z</time></trkpt>
<trkpt lat="48.20832816" lon="-4.22631651"><ele></ele><time>2020-3-13T17:7:55Z</time></trkpt>
<trkpt lat="48.20832330" lon="-4.22631818"><ele></ele><time>2020-3-13T17:7:58Z</time></trkpt>
<trkpt lat="48.20832330" lon="-4.22632824"><ele></ele><time>2020-3-13T17:8:1Z</time></trkpt>
<trkpt lat="48.20831492" lon="-4.22633830"><ele></ele><time>2020-3-13T17:8:4Z</time></trkpt>
<trkpt lat="48.20830486" lon="-4.22634819"><ele></ele><time>2020-3-13T17:8:7Z</time></trkpt>
<trkpt lat="48.20829330" lon="-4.22636831"><ele></ele><time>2020-3-13T17:8:10Z</time></trkpt>
<trkpt lat="48.20827485" lon="-4.22636495"><ele></ele><time>2020-3-13T17:8:13Z</time></trkpt>
<trkpt lat="48.20826832" lon="-4.22635825"><ele></ele><time>2020-3-13T17:8:16Z</time></trkpt>
<trkpt lat="48.20825994" lon="-4.22635154"><ele></ele><time>2020-3-13T17:8:19Z</time></trkpt>
<trkpt lat="48.20824988" lon="-4.22633998"><ele></ele><time>2020-3-13T17:8:22Z</time></trkpt>
<trkpt lat="48.20823496" lon="-4.22632992"><ele></ele><time>2020-3-13T17:8:25Z</time></trkpt>
<trkpt lat="48.20822155" lon="-4.22631651"><ele></ele><time>2020-3-13T17:8:28Z</time></trkpt>
<trkpt lat="48.20821166" lon="-4.22629991"><ele></ele><time>2020-3-13T17:8:31Z</time></trkpt>
<trkpt lat="48.20819992" lon="-4.22627996"><ele></ele><time>2020-3-13T17:8:34Z</time></trkpt>
<trkpt lat="48.20819657" lon="-4.22625817"><ele></ele><time>2020-3-13T17:8:37Z</time></trkpt>
<trkpt lat="48.20819154" lon="-4.22623487"><ele></ele><time>2020-3-13T17:8:40Z</time></trkpt>
<trkpt lat="48.20817494" lon="-4.22623151"><ele></ele><time>2020-3-13T17:8:43Z</time></trkpt>
<trkpt lat="48.20816824" lon="-4.22620151"><ele></ele><time>2020-3-13T17:8:46Z</time></trkpt>
<trkpt lat="48.20816153" lon="-4.22619162"><ele></ele><time>2020-3-13T17:8:49Z</time></trkpt>
<trkpt lat="48.20815818" lon="-4.22618156"><ele></ele><time>2020-3-13T17:8:52Z</time></trkpt>
<trkpt lat="48.20816656" lon="-4.22616999"><ele></ele><time>2020-3-13T17:8:55Z</time></trkpt>
<trkpt lat="48.20816824" lon="-4.22615826"><ele></ele><time>2020-3-13T17:8:58Z</time></trkpt>
<trkpt lat="48.20816824" lon="-4.22614317"><ele></ele><time>2020-3-13T17:9:1Z</time></trkpt>
<trkpt lat="48.20815499" lon="-4.22611987"><ele></ele><time>2020-3-13T17:9:4Z</time></trkpt>
<trkpt lat="48.20815332" lon="-4.22611316"><ele></ele><time>2020-3-13T17:9:7Z</time></trkpt>
<trkpt lat="48.20815332" lon="-4.22610830"><ele></ele><time>2020-3-13T17:9:10Z</time></trkpt>
<trkpt lat="48.20815164" lon="-4.22609489"><ele></ele><time>2020-3-13T17:9:13Z</time></trkpt>
<trkpt lat="48.20816321" lon="-4.22618826"><ele></ele><time>2020-3-13T17:9:16Z</time></trkpt>
<trkpt lat="48.20817997" lon="-4.22627661"><ele></ele><time>2020-3-13T17:9:19Z</time></trkpt>
<trkpt lat="48.20819322" lon="-4.22630829"><ele></ele><time>2020-3-13T17:9:22Z</time></trkpt>
<trkpt lat="48.20819824" lon="-4.22631986"><ele></ele><time>2020-3-13T17:9:25Z</time></trkpt>
<trkpt lat="48.20820327" lon="-4.22633159"><ele></ele><time>2020-3-13T17:9:28Z</time></trkpt>
<trkpt lat="48.20820830" lon="-4.22634484"><ele></ele><time>2020-3-13T17:9:31Z</time></trkpt>
<trkpt lat="48.20820998" lon="-4.22634987"><ele></ele><time>2020-3-13T17:9:34Z</time></trkpt>
<trkpt lat="48.20821484" lon="-4.22634484"><ele></ele><time>2020-3-13T17:9:37Z</time></trkpt>
<trkpt lat="48.20821652" lon="-4.22633495"><ele></ele><time>2020-3-13T17:9:40Z</time></trkpt>
<trkpt lat="48.20821166" lon="-4.22632489"><ele></ele><time>2020-3-13T17:9:43Z</time></trkpt>
<trkpt lat="48.20821652" lon="-4.22632321"><ele></ele><time>2020-3-13T17:9:46Z</time></trkpt>
<trkpt lat="48.20822322" lon="-4.22632656"><ele></ele><time>2020-3-13T17:9:49Z</time></trkpt>
<trkpt lat="48.20823160" lon="-4.22632656"><ele></ele><time>2020-3-13T17:9:52Z</time></trkpt>
<trkpt lat="48.20823999" lon="-4.22632824"><ele></ele><time>2020-3-13T17:9:55Z</time></trkpt>
<trkpt lat="48.20825155" lon="-4.22632489"><ele></ele><time>2020-3-13T17:9:58Z</time></trkpt>
<trkpt lat="48.20824820" lon="-4.22631651"><ele></ele><time>2020-3-13T17:10:1Z</time></trkpt>
<trkpt lat="48.20824988" lon="-4.22631332"><ele></ele><time>2020-3-13T17:10:4Z</time></trkpt>
<trkpt lat="48.20825658" lon="-4.22631165"><ele></ele><time>2020-3-13T17:10:7Z</time></trkpt>
<trkpt lat="48.20826329" lon="-4.22631818"><ele></ele><time>2020-3-13T17:10:10Z</time></trkpt>
<trkpt lat="48.20826832" lon="-4.22631986"><ele></ele><time>2020-3-13T17:10:13Z</time></trkpt>
<trkpt lat="48.20827318" lon="-4.22631986"><ele></ele><time>2020-3-13T17:10:16Z</time></trkpt>
<trkpt lat="48.20827821" lon="-4.22631818"><ele></ele><time>2020-3-13T17:10:19Z</time></trkpt>
<trkpt lat="48.20828324" lon="-4.22631818"><ele></ele><time>2020-3-13T17:10:22Z</time></trkpt>
<trkpt lat="48.20828659" lon="-4.22630997"><ele></ele><time>2020-3-13T17:10:25Z</time></trkpt>
<trkpt lat="48.20828994" lon="-4.22630326"><ele></ele><time>2020-3-13T17:10:28Z</time></trkpt>
<trkpt lat="48.20828827" lon="-4.22629991"><ele></ele><time>2020-3-13T17:10:31Z</time></trkpt>
<trkpt lat="48.20829497" lon="-4.22630326"><ele></ele><time>2020-3-13T17:10:34Z</time></trkpt>
<trkpt lat="48.20829832" lon="-4.22630494"><ele></ele><time>2020-3-13T17:10:37Z</time></trkpt>
<trkpt lat="48.20830151" lon="-4.22630662"><ele></ele><time>2020-3-13T17:10:40Z</time></trkpt>
<trkpt lat="48.20830319" lon="-4.22630829"><ele></ele><time>2020-3-13T17:10:43Z</time></trkpt>
<trkpt lat="48.20830654" lon="-4.22631165"><ele></ele><time>2020-3-13T17:10:46Z</time></trkpt>
<trkpt lat="48.20830821" lon="-4.22631165"><ele></ele><time>2020-3-13T17:10:49Z</time></trkpt>
<trkpt lat="48.20830821" lon="-4.22631483"><ele></ele><time>2020-3-13T17:10:52Z</time></trkpt>
<trkpt lat="48.20830654" lon="-4.22631651"><ele></ele><time>2020-3-13T17:10:55Z</time></trkpt>
<trkpt lat="48.20830654" lon="-4.22631986"><ele></ele><time>2020-3-13T17:10:58Z</time></trkpt>
<trkpt lat="48.20830486" lon="-4.22632154"><ele></ele><time>2020-3-13T17:11:1Z</time></trkpt>
<trkpt lat="48.20830486" lon="-4.22632321"><ele></ele><time>2020-3-13T17:11:4Z</time></trkpt>
<trkpt lat="48.20830319" lon="-4.22632489"><ele></ele><time>2020-3-13T17:11:7Z</time></trkpt>
<trkpt lat="48.20830319" lon="-4.22633662"><ele></ele><time>2020-3-13T17:11:10Z</time></trkpt>
<trkpt lat="48.20831324" lon="-4.22632992"><ele></ele><time>2020-3-13T17:11:13Z</time></trkpt>
<trkpt lat="48.20832163" lon="-4.22631818"><ele></ele><time>2020-3-13T17:11:16Z</time></trkpt>
<trkpt lat="48.20832498" lon="-4.22631483"><ele></ele><time>2020-3-13T17:11:19Z</time></trkpt>
<trkpt lat="48.20832666" lon="-4.22631332"><ele></ele><time>2020-3-13T17:11:22Z</time></trkpt>
<trkpt lat="48.20832666" lon="-4.22630662"><ele></ele><time>2020-3-13T17:11:25Z</time></trkpt>
<trkpt lat="48.20832330" lon="-4.22630997"><ele></ele><time>2020-3-13T17:11:28Z</time></trkpt>
<trkpt lat="48.20831995" lon="-4.22631332"><ele></ele><time>2020-3-13T17:11:31Z</time></trkpt>
<trkpt lat="48.20831827" lon="-4.22632321"><ele></ele><time>2020-3-13T17:11:34Z</time></trkpt>
<trkpt lat="48.20831827" lon="-4.22632992"><ele></ele><time>2020-3-13T17:11:37Z</time></trkpt>
<trkpt lat="48.20831827" lon="-4.22633327"><ele></ele><time>2020-3-13T17:11:40Z</time></trkpt>
<trkpt lat="48.20831660" lon="-4.22633662"><ele></ele><time>2020-3-13T17:11:43Z</time></trkpt>
<trkpt lat="48.20831492" lon="-4.22633830"><ele></ele><time>2020-3-13T17:11:46Z</time></trkpt>
<trkpt lat="48.20831157" lon="-4.22633830"><ele></ele><time>2020-3-13T17:11:49Z</time></trkpt>
<trkpt lat="48.20830989" lon="-4.22633998"><ele></ele><time>2020-3-13T17:11:52Z</time></trkpt>
<trkpt lat="48.20830654" lon="-4.22633998"><ele></ele><time>2020-3-13T17:11:55Z</time></trkpt>
<trkpt lat="48.20830654" lon="-4.22633327"><ele></ele><time>2020-3-13T17:11:58Z</time></trkpt>
<trkpt lat="48.20830821" lon="-4.22632824"><ele></ele><time>2020-3-13T17:12:1Z</time></trkpt>
<trkpt lat="48.20831324" lon="-4.22632656"><ele></ele><time>2020-3-13T17:12:4Z</time></trkpt>
<trkpt lat="48.20832163" lon="-4.22632489"><ele></ele><time>2020-3-13T17:12:7Z</time></trkpt>
<trkpt lat="48.20832330" lon="-4.22632992"><ele></ele><time>2020-3-13T17:12:10Z</time></trkpt>
<trkpt lat="48.20832330" lon="-4.22632992"><ele></ele><time>2020-3-13T17:12:13Z</time></trkpt>
<trkpt lat="48.20832330" lon="-4.22632824"><ele></ele><time>2020-3-13T17:12:16Z</time></trkpt>
<trkpt lat="48.20832330" lon="-4.22632992"><ele></ele><time>2020-3-13T17:12:19Z</time></trkpt>
<trkpt lat="48.20832330" lon="-4.22633327"><ele></ele><time>2020-3-13T17:12:22Z</time></trkpt>
<trkpt lat="48.20832163" lon="-4.22633662"><ele></ele><time>2020-3-13T17:12:25Z</time></trkpt>
<trkpt lat="48.20831827" lon="-4.22634165"><ele></ele><time>2020-3-13T17:12:28Z</time></trkpt>
<trkpt lat="48.20831492" lon="-4.22634651"><ele></ele><time>2020-3-13T17:12:31Z</time></trkpt>
<trkpt lat="48.20829983" lon="-4.22636831"><ele></ele><time>2020-3-13T17:12:34Z</time></trkpt>
<trkpt lat="48.20828659" lon="-4.22638323"><ele></ele><time>2020-3-13T17:12:37Z</time></trkpt>
<trkpt lat="48.20828324" lon="-4.22638323"><ele></ele><time>2020-3-13T17:12:40Z</time></trkpt>
<trkpt lat="48.20828491" lon="-4.22637987"><ele></ele><time>2020-3-13T17:12:43Z</time></trkpt>
<trkpt lat="48.20828491" lon="-4.22638155"><ele></ele><time>2020-3-13T17:12:46Z</time></trkpt>
<trkpt lat="48.20829162" lon="-4.22637652"><ele></ele><time>2020-3-13T17:12:49Z</time></trkpt>
<trkpt lat="48.20830319" lon="-4.22636663"><ele></ele><time>2020-3-13T17:12:52Z</time></trkpt>
<trkpt lat="48.20830486" lon="-4.22636495"><ele></ele><time>2020-3-13T17:12:55Z</time></trkpt>
<trkpt lat="48.20831324" lon="-4.22635657"><ele></ele><time>2020-3-13T17:12:58Z</time></trkpt>
<trkpt lat="48.20831492" lon="-4.22635322"><ele></ele><time>2020-3-13T17:13:1Z</time></trkpt>
<trkpt lat="48.20831660" lon="-4.22635154"><ele></ele><time>2020-3-13T17:13:4Z</time></trkpt>
<trkpt lat="48.20831660" lon="-4.22634987"><ele></ele><time>2020-3-13T17:13:7Z</time></trkpt>
<trkpt lat="48.20832330" lon="-4.22634316"><ele></ele><time>2020-3-13T17:13:10Z</time></trkpt>
<trkpt lat="48.20832666" lon="-4.22633830"><ele></ele><time>2020-3-13T17:13:13Z</time></trkpt>
<trkpt lat="48.20832984" lon="-4.22633495"><ele></ele><time>2020-3-13T17:13:16Z</time></trkpt>
<trkpt lat="48.20833319" lon="-4.22633159"><ele></ele><time>2020-3-13T17:13:19Z</time></trkpt>
<trkpt lat="48.20833152" lon="-4.22633159"><ele></ele><time>2020-3-13T17:13:22Z</time></trkpt>
<trkpt lat="48.20832984" lon="-4.22633327"><ele></ele><time>2020-3-13T17:13:25Z</time></trkpt>
<trkpt lat="48.20832666" lon="-4.22633495"><ele></ele><time>2020-3-13T17:13:28Z</time></trkpt>
<trkpt lat="48.20832163" lon="-4.22633998"><ele></ele><time>2020-3-13T17:13:31Z</time></trkpt>
<trkpt lat="48.20831660" lon="-4.22634484"><ele></ele><time>2020-3-13T17:13:34Z</time></trkpt>
<trkpt lat="48.20831324" lon="-4.22634987"><ele></ele><time>2020-3-13T17:13:37Z</time></trkpt>
<trkpt lat="48.20831157" lon="-4.22634987"><ele></ele><time>2020-3-13T17:13:40Z</time></trkpt>
<trkpt lat="48.20830989" lon="-4.22635154"><ele></ele><time>2020-3-13T17:13:43Z</time></trkpt>
<trkpt lat="48.20831157" lon="-4.22634987"><ele></ele><time>2020-3-13T17:13:46Z</time></trkpt>
<trkpt lat="48.20831492" lon="-4.22634819"><ele></ele><time>2020-3-13T17:13:49Z</time></trkpt>
<trkpt lat="48.20831660" lon="-4.22634651"><ele></ele><time>2020-3-13T17:13:52Z</time></trkpt>
<trkpt lat="48.20831995" lon="-4.22634484"><ele></ele><time>2020-3-13T17:13:55Z</time></trkpt>
<trkpt lat="48.20832163" lon="-4.22634165"><ele></ele><time>2020-3-13T17:13:58Z</time></trkpt>
<trkpt lat="48.20832330" lon="-4.22633998"><ele></ele><time>2020-3-13T17:14:1Z</time></trkpt>
<trkpt lat="48.20832498" lon="-4.22633830"><ele></ele><time>2020-3-13T17:14:4Z</time></trkpt>
<trkpt lat="48.20832816" lon="-4.22633662"><ele></ele><time>2020-3-13T17:14:7Z</time></trkpt>
<trkpt lat="48.20832984" lon="-4.22633495"><ele></ele><time>2020-3-13T17:14:10Z</time></trkpt>
<trkpt lat="48.20831995" lon="-4.22634165"><ele></ele><time>2020-3-13T17:14:13Z</time></trkpt>
<trkpt lat="48.20830989" lon="-4.22634651"><ele></ele><time>2020-3-13T17:14:16Z</time></trkpt>
<trkpt lat="48.20829983" lon="-4.22635154"><ele></ele><time>2020-3-13T17:14:19Z</time></trkpt>
<trkpt lat="48.20829162" lon="-4.22635490"><ele></ele><time>2020-3-13T17:14:22Z</time></trkpt>
<trkpt lat="48.20828324" lon="-4.22635825"><ele></ele><time>2020-3-13T17:14:25Z</time></trkpt>
<trkpt lat="48.20827653" lon="-4.22635992"><ele></ele><time>2020-3-13T17:14:28Z</time></trkpt>
<trkpt lat="48.20826999" lon="-4.22636160"><ele></ele><time>2020-3-13T17:14:31Z</time></trkpt>
<trkpt lat="48.20826496" lon="-4.22636328"><ele></ele><time>2020-3-13T17:14:34Z</time></trkpt>
<trkpt lat="48.20825826" lon="-4.22636495"><ele></ele><time>2020-3-13T17:14:37Z</time></trkpt>
<trkpt lat="48.20825155" lon="-4.22636663"><ele></ele><time>2020-3-13T17:14:40Z</time></trkpt>
<trkpt lat="48.20824652" lon="-4.22636831"><ele></ele><time>2020-3-13T17:14:43Z</time></trkpt>
<trkpt lat="48.20824149" lon="-4.22636831"><ele></ele><time>2020-3-13T17:14:46Z</time></trkpt>
<trkpt lat="48.20823663" lon="-4.22636998"><ele></ele><time>2020-3-13T17:14:49Z</time></trkpt>
<trkpt lat="48.20823328" lon="-4.22637166"><ele></ele><time>2020-3-13T17:14:52Z</time></trkpt>
<trkpt lat="48.20822993" lon="-4.22637166"><ele></ele><time>2020-3-13T17:14:55Z</time></trkpt>
<trkpt lat="48.20822658" lon="-4.22637166"><ele></ele><time>2020-3-13T17:14:58Z</time></trkpt>
<trkpt lat="48.20822490" lon="-4.22637317"><ele></ele><time>2020-3-13T17:15:1Z</time></trkpt>
<trkpt lat="48.20822155" lon="-4.22637317"><ele></ele><time>2020-3-13T17:15:4Z</time></trkpt>
<trkpt lat="48.20821987" lon="-4.22637317"><ele></ele><time>2020-3-13T17:15:7Z</time></trkpt>
<trkpt lat="48.20821652" lon="-4.22637484"><ele></ele><time>2020-3-13T17:15:10Z</time></trkpt>
<trkpt lat="48.20821484" lon="-4.22637484"><ele></ele><time>2020-3-13T17:15:13Z</time></trkpt>
<trkpt lat="48.20821316" lon="-4.22637484"><ele></ele><time>2020-3-13T17:15:16Z</time></trkpt>
<trkpt lat="48.20821987" lon="-4.22637484"><ele></ele><time>2020-3-13T17:15:19Z</time></trkpt>
<trkpt lat="48.20822658" lon="-4.22637317"><ele></ele><time>2020-3-13T17:15:22Z</time></trkpt>
<trkpt lat="48.20823328" lon="-4.22637166"><ele></ele><time>2020-3-13T17:15:25Z</time></trkpt>
<trkpt lat="48.20823831" lon="-4.22636998"><ele></ele><time>2020-3-13T17:15:28Z</time></trkpt>
<trkpt lat="48.20824317" lon="-4.22636998"><ele></ele><time>2020-3-13T17:15:31Z</time></trkpt>
<trkpt lat="48.20824820" lon="-4.22636831"><ele></ele><time>2020-3-13T17:15:34Z</time></trkpt>
<trkpt lat="48.20825323" lon="-4.22636663"><ele></ele><time>2020-3-13T17:15:37Z</time></trkpt>
<trkpt lat="48.20825658" lon="-4.22636663"><ele></ele><time>2020-3-13T17:15:40Z</time></trkpt>
<trkpt lat="48.20825826" lon="-4.22636663"><ele></ele><time>2020-3-13T17:15:43Z</time></trkpt>
<trkpt lat="48.20825994" lon="-4.22636663"><ele></ele><time>2020-3-13T17:15:46Z</time></trkpt>
<trkpt lat="48.20826329" lon="-4.22636663"><ele></ele><time>2020-3-13T17:15:49Z</time></trkpt>
<trkpt lat="48.20826832" lon="-4.22636495"><ele></ele><time>2020-3-13T17:15:52Z</time></trkpt>
<trkpt lat="48.20827150" lon="-4.22636328"><ele></ele><time>2020-3-13T17:15:55Z</time></trkpt>
<trkpt lat="48.20827653" lon="-4.22636160"><ele></ele><time>2020-3-13T17:15:58Z</time></trkpt>
<trkpt lat="48.20827988" lon="-4.22635992"><ele></ele><time>2020-3-13T17:16:1Z</time></trkpt>
<trkpt lat="48.20828491" lon="-4.22635825"><ele></ele><time>2020-3-13T17:16:4Z</time></trkpt>
<trkpt lat="48.20828994" lon="-4.22635490"><ele></ele><time>2020-3-13T17:16:7Z</time></trkpt>
<trkpt lat="48.20829497" lon="-4.22635322"><ele></ele><time>2020-3-13T17:16:10Z</time></trkpt>
<trkpt lat="48.20829832" lon="-4.22635154"><ele></ele><time>2020-3-13T17:16:13Z</time></trkpt>
<trkpt lat="48.20830151" lon="-4.22634987"><ele></ele><time>2020-3-13T17:16:16Z</time></trkpt>
<trkpt lat="48.20830654" lon="-4.22634819"><ele></ele><time>2020-3-13T17:16:19Z</time></trkpt>
<trkpt lat="48.20830989" lon="-4.22634484"><ele></ele><time>2020-3-13T17:16:22Z</time></trkpt>
<trkpt lat="48.20831492" lon="-4.22634165"><ele></ele><time>2020-3-13T17:16:25Z</time></trkpt>
<trkpt lat="48.20831660" lon="-4.22633998"><ele></ele><time>2020-3-13T17:16:28Z</time></trkpt>
<trkpt lat="48.20831827" lon="-4.22633998"><ele></ele><time>2020-3-13T17:16:31Z</time></trkpt>
<trkpt lat="48.20831995" lon="-4.22633830"><ele></ele><time>2020-3-13T17:16:34Z</time></trkpt>
<trkpt lat="48.20831995" lon="-4.22633662"><ele></ele><time>2020-3-13T17:16:37Z</time></trkpt>
<trkpt lat="48.20832330" lon="-4.22633495"><ele></ele><time>2020-3-13T17:16:40Z</time></trkpt>
<trkpt lat="48.20832498" lon="-4.22633327"><ele></ele><time>2020-3-13T17:16:43Z</time></trkpt>
<trkpt lat="48.20832816" lon="-4.22633159"><ele></ele><time>2020-3-13T17:16:46Z</time></trkpt>
<trkpt lat="48.20833319" lon="-4.22632656"><ele></ele><time>2020-3-13T17:16:49Z</time></trkpt>
<trkpt lat="48.20833822" lon="-4.22631986"><ele></ele><time>2020-3-13T17:16:52Z</time></trkpt>
<trkpt lat="48.20833152" lon="-4.22632321"><ele></ele><time>2020-3-13T17:16:55Z</time></trkpt>
<trkpt lat="48.20832163" lon="-4.22632656"><ele></ele><time>2020-3-13T17:16:58Z</time></trkpt>
<trkpt lat="48.20831827" lon="-4.22632824"><ele></ele><time>2020-3-13T17:17:1Z</time></trkpt>
<trkpt lat="48.20831827" lon="-4.22632824"><ele></ele><time>2020-3-13T17:17:4Z</time></trkpt>
<trkpt lat="48.20831995" lon="-4.22632321"><ele></ele><time>2020-3-13T17:17:7Z</time></trkpt>
<trkpt lat="48.20830654" lon="-4.22633327"><ele></ele><time>2020-3-13T17:17:10Z</time></trkpt>
<trkpt lat="48.20828659" lon="-4.22635825"><ele></ele><time>2020-3-13T17:17:13Z</time></trkpt>
<trkpt lat="48.20827988" lon="-4.22637820"><ele></ele><time>2020-3-13T17:17:16Z</time></trkpt>
<trkpt lat="48.20828659" lon="-4.22638155"><ele></ele><time>2020-3-13T17:17:19Z</time></trkpt>
<trkpt lat="48.20828827" lon="-4.22638490"><ele></ele><time>2020-3-13T17:17:22Z</time></trkpt>
<trkpt lat="48.20828994" lon="-4.22638323"><ele></ele><time>2020-3-13T17:17:25Z</time></trkpt>
<trkpt lat="48.20827988" lon="-4.22638323"><ele></ele><time>2020-3-13T17:17:28Z</time></trkpt>
<trkpt lat="48.20827653" lon="-4.22638323"><ele></ele><time>2020-3-13T17:17:31Z</time></trkpt>
<trkpt lat="48.20826664" lon="-4.22640150"><ele></ele><time>2020-3-13T17:17:34Z</time></trkpt>
<trkpt lat="48.20825658" lon="-4.22640988"><ele></ele><time>2020-3-13T17:17:37Z</time></trkpt>
<trkpt lat="48.20825826" lon="-4.22642664"><ele></ele><time>2020-3-13T17:17:40Z</time></trkpt>
<trkpt lat="48.20826329" lon="-4.22643821"><ele></ele><time>2020-3-13T17:17:43Z</time></trkpt>
<trkpt lat="48.20826329" lon="-4.22645498"><ele></ele><time>2020-3-13T17:17:46Z</time></trkpt>
<trkpt lat="48.20826999" lon="-4.22645162"><ele></ele><time>2020-3-13T17:17:49Z</time></trkpt>
<trkpt lat="48.20826999" lon="-4.22645665"><ele></ele><time>2020-3-13T17:17:52Z</time></trkpt>
<trkpt lat="48.20826999" lon="-4.22645984"><ele></ele><time>2020-3-13T17:17:55Z</time></trkpt>
<trkpt lat="48.20826329" lon="-4.22646990"><ele></ele><time>2020-3-13T17:17:58Z</time></trkpt>
<trkpt lat="48.20825826" lon="-4.22647660"><ele></ele><time>2020-3-13T17:18:1Z</time></trkpt>
<trkpt lat="48.20825323" lon="-4.22647995"><ele></ele><time>2020-3-13T17:18:4Z</time></trkpt>
<trkpt lat="48.20824485" lon="-4.22648984"><ele></ele><time>2020-3-13T17:18:7Z</time></trkpt>
<trkpt lat="48.20824652" lon="-4.22648817"><ele></ele><time>2020-3-13T17:18:10Z</time></trkpt>
<trkpt lat="48.20824652" lon="-4.22648498"><ele></ele><time>2020-3-13T17:18:13Z</time></trkpt>
<trkpt lat="48.20825323" lon="-4.22648331"><ele></ele><time>2020-3-13T17:18:16Z</time></trkpt>
<trkpt lat="48.20825658" lon="-4.22647828"><ele></ele><time>2020-3-13T17:18:19Z</time></trkpt>
<trkpt lat="48.20825994" lon="-4.22647492"><ele></ele><time>2020-3-13T17:18:22Z</time></trkpt>
<trkpt lat="48.20825994" lon="-4.22647157"><ele></ele><time>2020-3-13T17:18:25Z</time></trkpt>
<trkpt lat="48.20825994" lon="-4.22646822"><ele></ele><time>2020-3-13T17:18:28Z</time></trkpt>
<trkpt lat="48.20825994" lon="-4.22646654"><ele></ele><time>2020-3-13T17:18:31Z</time></trkpt>
<trkpt lat="48.20825826" lon="-4.22646487"><ele></ele><time>2020-3-13T17:18:34Z</time></trkpt>
<trkpt lat="48.20825491" lon="-4.22646822"><ele></ele><time>2020-3-13T17:18:37Z</time></trkpt>
<trkpt lat="48.20825323" lon="-4.22646990"><ele></ele><time>2020-3-13T17:18:40Z</time></trkpt>
<trkpt lat="48.20824988" lon="-4.22647660"><ele></ele><time>2020-3-13T17:18:43Z</time></trkpt>
<trkpt lat="48.20825826" lon="-4.22645665"><ele></ele><time>2020-3-13T17:18:46Z</time></trkpt>
<trkpt lat="48.20826832" lon="-4.22643151"><ele></ele><time>2020-3-13T17:18:49Z</time></trkpt>
<trkpt lat="48.20826999" lon="-4.22641826"><ele></ele><time>2020-3-13T17:18:52Z</time></trkpt>
<trkpt lat="48.20827653" lon="-4.22640150"><ele></ele><time>2020-3-13T17:18:55Z</time></trkpt>
<trkpt lat="48.20827988" lon="-4.22638826"><ele></ele><time>2020-3-13T17:18:58Z</time></trkpt>
<trkpt lat="48.20828324" lon="-4.22637317"><ele></ele><time>2020-3-13T17:19:1Z</time></trkpt>
<trkpt lat="48.20829162" lon="-4.22635657"><ele></ele><time>2020-3-13T17:19:4Z</time></trkpt>
<trkpt lat="48.20829162" lon="-4.22634987"><ele></ele><time>2020-3-13T17:19:7Z</time></trkpt>
<trkpt lat="48.20829162" lon="-4.22634484"><ele></ele><time>2020-3-13T17:19:10Z</time></trkpt>
<trkpt lat="48.20829330" lon="-4.22633998"><ele></ele><time>2020-3-13T17:19:13Z</time></trkpt>
<trkpt lat="48.20829330" lon="-4.22633495"><ele></ele><time>2020-3-13T17:19:16Z</time></trkpt>
<trkpt lat="48.20829832" lon="-4.22632992"><ele></ele><time>2020-3-13T17:19:19Z</time></trkpt>
<trkpt lat="48.20828994" lon="-4.22632489"><ele></ele><time>2020-3-13T17:19:22Z</time></trkpt>
<trkpt lat="48.20829162" lon="-4.22632154"><ele></ele><time>2020-3-13T17:19:25Z</time></trkpt>
<trkpt lat="48.20828827" lon="-4.22632154"><ele></ele><time>2020-3-13T17:19:28Z</time></trkpt>
<trkpt lat="48.20829162" lon="-4.22632154"><ele></ele><time>2020-3-13T17:19:31Z</time></trkpt>
<trkpt lat="48.20829330" lon="-4.22631986"><ele></ele><time>2020-3-13T17:19:34Z</time></trkpt>
<trkpt lat="48.20828827" lon="-4.22631818"><ele></ele><time>2020-3-13T17:19:37Z</time></trkpt>
<trkpt lat="48.20828659" lon="-4.22631986"><ele></ele><time>2020-3-13T17:19:40Z</time></trkpt>
<trkpt lat="48.20827653" lon="-4.22633495"><ele></ele><time>2020-3-13T17:19:43Z</time></trkpt>
<trkpt lat="48.20826496" lon="-4.22634819"><ele></ele><time>2020-3-13T17:19:46Z</time></trkpt>
<trkpt lat="48.20824988" lon="-4.22637166"><ele></ele><time>2020-3-13T17:19:49Z</time></trkpt>
<trkpt lat="48.20824652" lon="-4.22638155"><ele></ele><time>2020-3-13T17:19:52Z</time></trkpt>
<trkpt lat="48.20824317" lon="-4.22639496"><ele></ele><time>2020-3-13T17:19:55Z</time></trkpt>
<trkpt lat="48.20825155" lon="-4.22639496"><ele></ele><time>2020-3-13T17:19:58Z</time></trkpt>
<trkpt lat="48.20825826" lon="-4.22642497"><ele></ele><time>2020-3-13T17:20:1Z</time></trkpt>
<trkpt lat="48.20828156" lon="-4.22642664"><ele></ele><time>2020-3-13T17:20:4Z</time></trkpt>
<trkpt lat="48.20827988" lon="-4.22642832"><ele></ele><time>2020-3-13T17:20:7Z</time></trkpt>
<trkpt lat="48.20827821" lon="-4.22642832"><ele></ele><time>2020-3-13T17:20:10Z</time></trkpt>
<trkpt lat="48.20828659" lon="-4.22642832"><ele></ele><time>2020-3-13T17:20:13Z</time></trkpt>
<trkpt lat="48.20828994" lon="-4.22642329"><ele></ele><time>2020-3-13T17:20:16Z</time></trkpt>
<trkpt lat="48.20829665" lon="-4.22642497"><ele></ele><time>2020-3-13T17:20:19Z</time></trkpt>
<trkpt lat="48.20830151" lon="-4.22642832"><ele></ele><time>2020-3-13T17:20:22Z</time></trkpt>
<trkpt lat="48.20831492" lon="-4.22642983"><ele></ele><time>2020-3-13T17:20:25Z</time></trkpt>
<trkpt lat="48.20831995" lon="-4.22642983"><ele></ele><time>2020-3-13T17:20:28Z</time></trkpt>
<trkpt lat="48.20832816" lon="-4.22642162"><ele></ele><time>2020-3-13T17:20:31Z</time></trkpt>
<trkpt lat="48.20833822" lon="-4.22641491"><ele></ele><time>2020-3-13T17:20:34Z</time></trkpt>
<trkpt lat="48.20834660" lon="-4.22640820"><ele></ele><time>2020-3-13T17:20:37Z</time></trkpt>
<trkpt lat="48.20835163" lon="-4.22640988"><ele></ele><time>2020-3-13T17:20:40Z</time></trkpt>
<trkpt lat="48.20835331" lon="-4.22640150"><ele></ele><time>2020-3-13T17:20:43Z</time></trkpt>
<trkpt lat="48.20836655" lon="-4.22639328"><ele></ele><time>2020-3-13T17:20:46Z</time></trkpt>
<trkpt lat="48.20837158" lon="-4.22637820"><ele></ele><time>2020-3-13T17:20:49Z</time></trkpt>
<trkpt lat="48.20837661" lon="-4.22636495"><ele></ele><time>2020-3-13T17:20:52Z</time></trkpt>
<trkpt lat="48.20838818" lon="-4.22632489"><ele></ele><time>2020-3-13T17:20:55Z</time></trkpt>
<trkpt lat="48.20839991" lon="-4.22630662"><ele></ele><time>2020-3-13T17:20:58Z</time></trkpt>
<trkpt lat="48.20840494" lon="-4.22629656"><ele></ele><time>2020-3-13T17:21:1Z</time></trkpt>
<trkpt lat="48.20840829" lon="-4.22629320"><ele></ele><time>2020-3-13T17:21:4Z</time></trkpt>
<trkpt lat="48.20841986" lon="-4.22627661"><ele></ele><time>2020-3-13T17:21:7Z</time></trkpt>
<trkpt lat="48.20842489" lon="-4.22627493"><ele></ele><time>2020-3-13T17:21:10Z</time></trkpt>
<trkpt lat="48.20843160" lon="-4.22626320"><ele></ele><time>2020-3-13T17:21:13Z</time></trkpt>
<trkpt lat="48.20843830" lon="-4.22625498"><ele></ele><time>2020-3-13T17:21:16Z</time></trkpt>
<trkpt lat="48.20844484" lon="-4.22624828"><ele></ele><time>2020-3-13T17:21:19Z</time></trkpt>
<trkpt lat="48.20846999" lon="-4.22623487"><ele></ele><time>2020-3-13T17:21:22Z</time></trkpt>
<trkpt lat="48.20847652" lon="-4.22623487"><ele></ele><time>2020-3-13T17:21:25Z</time></trkpt>
<trkpt lat="48.20848155" lon="-4.22623319"><ele></ele><time>2020-3-13T17:21:28Z</time></trkpt>
<trkpt lat="48.20848658" lon="-4.22622498"><ele></ele><time>2020-3-13T17:21:31Z</time></trkpt>
<trkpt lat="48.20848491" lon="-4.22621659"><ele></ele><time>2020-3-13T17:21:34Z</time></trkpt>
<trkpt lat="48.20847988" lon="-4.22621827"><ele></ele><time>2020-3-13T17:21:37Z</time></trkpt>
<trkpt lat="48.20847317" lon="-4.22621995"><ele></ele><time>2020-3-13T17:21:40Z</time></trkpt>
<trkpt lat="48.20846328" lon="-4.22622498"><ele></ele><time>2020-3-13T17:21:43Z</time></trkpt>
<trkpt lat="48.20846160" lon="-4.22622498"><ele></ele><time>2020-3-13T17:21:46Z</time></trkpt>
<trkpt lat="48.20846496" lon="-4.22621995"><ele></ele><time>2020-3-13T17:21:49Z</time></trkpt>
<trkpt lat="48.20846496" lon="-4.22621827"><ele></ele><time>2020-3-13T17:21:52Z</time></trkpt>
<trkpt lat="48.20845657" lon="-4.22622330"><ele></ele><time>2020-3-13T17:21:55Z</time></trkpt>
<trkpt lat="48.20844987" lon="-4.22622330"><ele></ele><time>2020-3-13T17:21:58Z</time></trkpt>
<trkpt lat="48.20844484" lon="-4.22622498"><ele></ele><time>2020-3-13T17:22:1Z</time></trkpt>
<trkpt lat="48.20845155" lon="-4.22622162"><ele></ele><time>2020-3-13T17:22:4Z</time></trkpt>
<trkpt lat="48.20849664" lon="-4.22621324"><ele></ele><time>2020-3-13T17:22:7Z</time></trkpt>
<trkpt lat="48.20848993" lon="-4.22621827"><ele></ele><time>2020-3-13T17:22:10Z</time></trkpt>
<trkpt lat="48.20841986" lon="-4.22627158"><ele></ele><time>2020-3-13T17:22:13Z</time></trkpt>
<trkpt lat="48.20840327" lon="-4.22628650"><ele></ele><time>2020-3-13T17:22:16Z</time></trkpt>
<trkpt lat="48.20840494" lon="-4.22628818"><ele></ele><time>2020-3-13T17:22:19Z</time></trkpt>
<trkpt lat="48.20840662" lon="-4.22628985"><ele></ele><time>2020-3-13T17:22:22Z</time></trkpt>
<trkpt lat="48.20841332" lon="-4.22628331"><ele></ele><time>2020-3-13T17:22:25Z</time></trkpt>
<trkpt lat="48.20840494" lon="-4.22628499"><ele></ele><time>2020-3-13T17:22:28Z</time></trkpt>
<trkpt lat="48.20839153" lon="-4.22629991"><ele></ele><time>2020-3-13T17:22:31Z</time></trkpt>
<trkpt lat="48.20838499" lon="-4.22630997"><ele></ele><time>2020-3-13T17:22:34Z</time></trkpt>
<trkpt lat="48.20835985" lon="-4.22631651"><ele></ele><time>2020-3-13T17:22:37Z</time></trkpt>
<trkpt lat="48.20833822" lon="-4.22631986"><ele></ele><time>2020-3-13T17:22:40Z</time></trkpt>
<trkpt lat="48.20830319" lon="-4.22632656"><ele></ele><time>2020-3-13T17:22:43Z</time></trkpt>
<trkpt lat="48.20829497" lon="-4.22632489"><ele></ele><time>2020-3-13T17:22:46Z</time></trkpt>
<trkpt lat="48.20829330" lon="-4.22631986"><ele></ele><time>2020-3-13T17:22:49Z</time></trkpt>
<trkpt lat="48.20829330" lon="-4.22631483"><ele></ele><time>2020-3-13T17:22:52Z</time></trkpt>
<trkpt lat="48.20829497" lon="-4.22631651"><ele></ele><time>2020-3-13T17:22:55Z</time></trkpt>
<trkpt lat="48.20829330" lon="-4.22631651"><ele></ele><time>2020-3-13T17:22:58Z</time></trkpt>
<trkpt lat="48.20828659" lon="-4.22631332"><ele></ele><time>2020-3-13T17:23:1Z</time></trkpt>
<trkpt lat="48.20827318" lon="-4.22631986"><ele></ele><time>2020-3-13T17:23:4Z</time></trkpt>
<trkpt lat="48.20826161" lon="-4.22633327"><ele></ele><time>2020-3-13T17:23:7Z</time></trkpt>
<trkpt lat="48.20822322" lon="-4.22638490"><ele></ele><time>2020-3-13T17:23:10Z</time></trkpt>
<trkpt lat="48.20820663" lon="-4.22640318"><ele></ele><time>2020-3-13T17:23:13Z</time></trkpt>
<trkpt lat="48.20809666" lon="-4.22652153"><ele></ele><time>2020-3-13T17:23:16Z</time></trkpt>
<trkpt lat="48.20807654" lon="-4.22653494"><ele></ele><time>2020-3-13T17:23:19Z</time></trkpt>
<trkpt lat="48.20803664" lon="-4.22656159"><ele></ele><time>2020-3-13T17:23:22Z</time></trkpt>
<trkpt lat="48.20802155" lon="-4.22657651"><ele></ele><time>2020-3-13T17:23:25Z</time></trkpt>
<trkpt lat="48.20797663" lon="-4.22661490"><ele></ele><time>2020-3-13T17:23:28Z</time></trkpt>
<trkpt lat="48.20795165" lon="-4.22663317"><ele></ele><time>2020-3-13T17:23:31Z</time></trkpt>
<trkpt lat="48.20733994" lon="-4.22708831"><ele></ele><time>2020-3-13T17:23:34Z</time></trkpt>
<trkpt lat="48.20732317" lon="-4.22710658"><ele></ele><time>2020-3-13T17:23:37Z</time></trkpt>
<trkpt lat="48.20732485" lon="-4.22710491"><ele></ele><time>2020-3-13T17:23:40Z</time></trkpt>
<trkpt lat="48.20732653" lon="-4.22710323"><ele></ele><time>2020-3-13T17:23:43Z</time></trkpt>
<trkpt lat="48.20732653" lon="-4.22710156"><ele></ele><time>2020-3-13T17:23:46Z</time></trkpt>
<trkpt lat="48.20733323" lon="-4.22710323"><ele></ele><time>2020-3-13T17:23:49Z</time></trkpt>
<trkpt lat="48.20733156" lon="-4.22710658"><ele></ele><time>2020-3-13T17:23:52Z</time></trkpt>
<trkpt lat="48.20732988" lon="-4.22710826"><ele></ele><time>2020-3-13T17:23:55Z</time></trkpt>
<trkpt lat="48.20732820" lon="-4.22711161"><ele></ele><time>2020-3-13T17:23:58Z</time></trkpt>
<trkpt lat="48.20732653" lon="-4.22711497"><ele></ele><time>2020-3-13T17:24:1Z</time></trkpt>
<trkpt lat="48.20732485" lon="-4.22711832"><ele></ele><time>2020-3-13T17:24:4Z</time></trkpt>
<trkpt lat="48.20732317" lon="-4.22711983"><ele></ele><time>2020-3-13T17:24:7Z</time></trkpt>
<trkpt lat="48.20732150" lon="-4.22712150"><ele></ele><time>2020-3-13T17:24:10Z</time></trkpt>
<trkpt lat="48.20732150" lon="-4.22712318"><ele></ele><time>2020-3-13T17:24:13Z</time></trkpt>
<trkpt lat="48.20731999" lon="-4.22712486"><ele></ele><time>2020-3-13T17:24:16Z</time></trkpt>
<trkpt lat="48.20731831" lon="-4.22712653"><ele></ele><time>2020-3-13T17:24:19Z</time></trkpt>
<trkpt lat="48.20731664" lon="-4.22712821"><ele></ele><time>2020-3-13T17:24:22Z</time></trkpt>
<trkpt lat="48.20731496" lon="-4.22712989"><ele></ele><time>2020-3-13T17:24:25Z</time></trkpt>
<trkpt lat="48.20730490" lon="-4.22712821"><ele></ele><time>2020-3-13T17:24:28Z</time></trkpt>
<trkpt lat="48.20730155" lon="-4.22712821"><ele></ele><time>2020-3-13T17:24:31Z</time></trkpt>
<trkpt lat="48.20729987" lon="-4.22712989"><ele></ele><time>2020-3-13T17:24:34Z</time></trkpt>
<trkpt lat="48.20729820" lon="-4.22712989"><ele></ele><time>2020-3-13T17:24:37Z</time></trkpt>
<trkpt lat="48.20728160" lon="-4.22713324"><ele></ele><time>2020-3-13T17:24:40Z</time></trkpt>
<trkpt lat="48.20725997" lon="-4.22713827"><ele></ele><time>2020-3-13T17:24:43Z</time></trkpt>
<trkpt lat="48.20723650" lon="-4.22713827"><ele></ele><time>2020-3-13T17:24:46Z</time></trkpt>
<trkpt lat="48.20720985" lon="-4.22712150"><ele></ele><time>2020-3-13T17:24:49Z</time></trkpt>
<trkpt lat="48.20695152" lon="-4.22689653"><ele></ele><time>2020-3-13T17:24:52Z</time></trkpt>
<trkpt lat="48.20689151" lon="-4.22682831"><ele></ele><time>2020-3-13T17:24:55Z</time></trkpt>
<trkpt lat="48.20687659" lon="-4.22682160"><ele></ele><time>2020-3-13T17:24:58Z</time></trkpt>
<trkpt lat="48.20686150" lon="-4.22681322"><ele></ele><time>2020-3-13T17:25:1Z</time></trkpt>
<trkpt lat="48.20684323" lon="-4.22680484"><ele></ele><time>2020-3-13T17:25:4Z</time></trkpt>
<trkpt lat="48.20684490" lon="-4.22680987"><ele></ele><time>2020-3-13T17:25:7Z</time></trkpt>
<trkpt lat="48.20684658" lon="-4.22680987"><ele></ele><time>2020-3-13T17:25:10Z</time></trkpt>
<trkpt lat="48.20684993" lon="-4.22681322"><ele></ele><time>2020-3-13T17:25:13Z</time></trkpt>
<trkpt lat="48.20684993" lon="-4.22681489"><ele></ele><time>2020-3-13T17:25:16Z</time></trkpt>
<trkpt lat="48.20684993" lon="-4.22681825"><ele></ele><time>2020-3-13T17:25:19Z</time></trkpt>
<trkpt lat="48.20684993" lon="-4.22682160"><ele></ele><time>2020-3-13T17:25:22Z</time></trkpt>
<trkpt lat="48.20684993" lon="-4.22682328"><ele></ele><time>2020-3-13T17:25:25Z</time></trkpt>
<trkpt lat="48.20684993" lon="-4.22682495"><ele></ele><time>2020-3-13T17:25:28Z</time></trkpt>
<trkpt lat="48.20685328" lon="-4.22682328"><ele></ele><time>2020-3-13T17:25:31Z</time></trkpt>
<trkpt lat="48.20685496" lon="-4.22681992"><ele></ele><time>2020-3-13T17:25:34Z</time></trkpt>
<trkpt lat="48.20685496" lon="-4.22681657"><ele></ele><time>2020-3-13T17:25:37Z</time></trkpt>
<trkpt lat="48.20685664" lon="-4.22681322"><ele></ele><time>2020-3-13T17:25:40Z</time></trkpt>
<trkpt lat="48.20685664" lon="-4.22681154"><ele></ele><time>2020-3-13T17:25:43Z</time></trkpt>
<trkpt lat="48.20685664" lon="-4.22680987"><ele></ele><time>2020-3-13T17:25:46Z</time></trkpt>
<trkpt lat="48.20685328" lon="-4.22680484"><ele></ele><time>2020-3-13T17:25:49Z</time></trkpt>
<trkpt lat="48.20684323" lon="-4.22681154"><ele></ele><time>2020-3-13T17:25:52Z</time></trkpt>
<trkpt lat="48.20682998" lon="-4.22682160"><ele></ele><time>2020-3-13T17:25:55Z</time></trkpt>
<trkpt lat="48.20681490" lon="-4.22683317"><ele></ele><time>2020-3-13T17:25:58Z</time></trkpt>
<trkpt lat="48.20679998" lon="-4.22685328"><ele></ele><time>2020-3-13T17:26:1Z</time></trkpt>
<trkpt lat="48.20676159" lon="-4.22690659"><ele></ele><time>2020-3-13T17:26:4Z</time></trkpt>
<trkpt lat="48.20674164" lon="-4.22693828"><ele></ele><time>2020-3-13T17:26:7Z</time></trkpt>
<trkpt lat="48.20612993" lon="-4.22799993"><ele></ele><time>2020-3-13T17:26:10Z</time></trkpt>
<trkpt lat="48.20609321" lon="-4.22803999"><ele></ele><time>2020-3-13T17:26:13Z</time></trkpt>
<trkpt lat="48.20598995" lon="-4.22816153"><ele></ele><time>2020-3-13T17:26:16Z</time></trkpt>
<trkpt lat="48.20595659" lon="-4.22819489"><ele></ele><time>2020-3-13T17:26:19Z</time></trkpt>
<trkpt lat="48.20592826" lon="-4.22822322"><ele></ele><time>2020-3-13T17:26:22Z</time></trkpt>
<trkpt lat="48.20590160" lon="-4.22824820"><ele></ele><time>2020-3-13T17:26:25Z</time></trkpt>
<trkpt lat="48.20587160" lon="-4.22826664"><ele></ele><time>2020-3-13T17:26:28Z</time></trkpt>
<trkpt lat="48.20569491" lon="-4.22838164"><ele></ele><time>2020-3-13T17:26:31Z</time></trkpt>
<trkpt lat="48.20567160" lon="-4.22840494"><ele></ele><time>2020-3-13T17:26:34Z</time></trkpt>
<trkpt lat="48.20565484" lon="-4.22842824"><ele></ele><time>2020-3-13T17:26:37Z</time></trkpt>
<trkpt lat="48.20561327" lon="-4.22848155"><ele></ele><time>2020-3-13T17:26:40Z</time></trkpt>
<trkpt lat="48.20561159" lon="-4.22847988"><ele></ele><time>2020-3-13T17:26:43Z</time></trkpt>
<trkpt lat="48.20561494" lon="-4.22847988"><ele></ele><time>2020-3-13T17:26:46Z</time></trkpt>
<trkpt lat="48.20562483" lon="-4.22847988"><ele></ele><time>2020-3-13T17:26:49Z</time></trkpt>
<trkpt lat="48.20562986" lon="-4.22848323"><ele></ele><time>2020-3-13T17:26:52Z</time></trkpt>
<trkpt lat="48.20562332" lon="-4.22848826"><ele></ele><time>2020-3-13T17:26:55Z</time></trkpt>
<trkpt lat="48.20561829" lon="-4.22849832"><ele></ele><time>2020-3-13T17:26:58Z</time></trkpt>
<trkpt lat="48.20558661" lon="-4.22855665"><ele></ele><time>2020-3-13T17:27:1Z</time></trkpt>
<trkpt lat="48.20557823" lon="-4.22858163"><ele></ele><time>2020-3-13T17:27:4Z</time></trkpt>
<trkpt lat="48.20557152" lon="-4.22860661"><ele></ele><time>2020-3-13T17:27:7Z</time></trkpt>
<trkpt lat="48.20556499" lon="-4.22862656"><ele></ele><time>2020-3-13T17:27:10Z</time></trkpt>
<trkpt lat="48.20555660" lon="-4.22863829"><ele></ele><time>2020-3-13T17:27:13Z</time></trkpt>
<trkpt lat="48.20554487" lon="-4.22862991"><ele></ele><time>2020-3-13T17:27:16Z</time></trkpt>
<trkpt lat="48.20553816" lon="-4.22860996"><ele></ele><time>2020-3-13T17:27:19Z</time></trkpt>
<trkpt lat="48.20552324" lon="-4.22856654"><ele></ele><time>2020-3-13T17:27:22Z</time></trkpt>
<trkpt lat="48.20551151" lon="-4.22854492"><ele></ele><time>2020-3-13T17:27:25Z</time></trkpt>
<trkpt lat="48.20549994" lon="-4.22852832"><ele></ele><time>2020-3-13T17:27:28Z</time></trkpt>
<trkpt lat="48.20548821" lon="-4.22851994"><ele></ele><time>2020-3-13T17:27:31Z</time></trkpt>
<trkpt lat="48.20542987" lon="-4.22848826"><ele></ele><time>2020-3-13T17:27:34Z</time></trkpt>
<trkpt lat="48.20541830" lon="-4.22848155"><ele></ele><time>2020-3-13T17:27:37Z</time></trkpt>
<trkpt lat="48.20540992" lon="-4.22847652"><ele></ele><time>2020-3-13T17:27:40Z</time></trkpt>
<trkpt lat="48.20540321" lon="-4.22846496"><ele></ele><time>2020-3-13T17:27:43Z</time></trkpt>
<trkpt lat="48.20539332" lon="-4.22843998"><ele></ele><time>2020-3-13T17:27:46Z</time></trkpt>
<trkpt lat="48.20538830" lon="-4.22841986"><ele></ele><time>2020-3-13T17:27:49Z</time></trkpt>
<trkpt lat="48.20538494" lon="-4.22840494"><ele></ele><time>2020-3-13T17:27:52Z</time></trkpt>
<trkpt lat="48.20537153" lon="-4.22838985"><ele></ele><time>2020-3-13T17:27:55Z</time></trkpt>
<trkpt lat="48.20535661" lon="-4.22837829"><ele></ele><time>2020-3-13T17:27:58Z</time></trkpt>
<trkpt lat="48.20533163" lon="-4.22835499"><ele></ele><time>2020-3-13T17:28:1Z</time></trkpt>
<trkpt lat="48.20528486" lon="-4.22831827"><ele></ele><time>2020-3-13T17:28:4Z</time></trkpt>
<trkpt lat="48.20527497" lon="-4.22830151"><ele></ele><time>2020-3-13T17:28:7Z</time></trkpt>
<trkpt lat="48.20526156" lon="-4.22828994"><ele></ele><time>2020-3-13T17:28:10Z</time></trkpt>
<trkpt lat="48.20524161" lon="-4.22827653"><ele></ele><time>2020-3-13T17:28:13Z</time></trkpt>
<trkpt lat="48.20522652" lon="-4.22827150"><ele></ele><time>2020-3-13T17:28:16Z</time></trkpt>
<trkpt lat="48.20521328" lon="-4.22826664"><ele></ele><time>2020-3-13T17:28:19Z</time></trkpt>
<trkpt lat="48.20519819" lon="-4.22826664"><ele></ele><time>2020-3-13T17:28:22Z</time></trkpt>
<trkpt lat="48.20518495" lon="-4.22827318"><ele></ele><time>2020-3-13T17:28:25Z</time></trkpt>
<trkpt lat="48.20516986" lon="-4.22826999"><ele></ele><time>2020-3-13T17:28:28Z</time></trkpt>
<trkpt lat="48.20513986" lon="-4.22825826"><ele></ele><time>2020-3-13T17:28:31Z</time></trkpt>
<trkpt lat="48.20511823" lon="-4.22825826"><ele></ele><time>2020-3-13T17:28:34Z</time></trkpt>
<trkpt lat="48.20504497" lon="-4.22826329"><ele></ele><time>2020-3-13T17:28:37Z</time></trkpt>
<trkpt lat="48.20502988" lon="-4.22826664"><ele></ele><time>2020-3-13T17:28:40Z</time></trkpt>
<trkpt lat="48.20502150" lon="-4.22827150"><ele></ele><time>2020-3-13T17:28:43Z</time></trkpt>
<trkpt lat="48.20499820" lon="-4.22827821"><ele></ele><time>2020-3-13T17:28:46Z</time></trkpt>
<trkpt lat="48.20498161" lon="-4.22828324"><ele></ele><time>2020-3-13T17:28:49Z</time></trkpt>
<trkpt lat="48.20496819" lon="-4.22828156"><ele></ele><time>2020-3-13T17:28:52Z</time></trkpt>
<trkpt lat="48.20496484" lon="-4.22828324"><ele></ele><time>2020-3-13T17:28:55Z</time></trkpt>
<trkpt lat="48.20495160" lon="-4.22827318"><ele></ele><time>2020-3-13T17:28:58Z</time></trkpt>
<trkpt lat="48.20494992" lon="-4.22825826"><ele></ele><time>2020-3-13T17:29:1Z</time></trkpt>
<trkpt lat="48.20493986" lon="-4.22824988"><ele></ele><time>2020-3-13T17:29:4Z</time></trkpt>
<trkpt lat="48.20492997" lon="-4.22824820"><ele></ele><time>2020-3-13T17:29:7Z</time></trkpt>
<trkpt lat="48.20491991" lon="-4.22824149"><ele></ele><time>2020-3-13T17:29:10Z</time></trkpt>
<trkpt lat="48.20491153" lon="-4.22822657"><ele></ele><time>2020-3-13T17:29:13Z</time></trkpt>
<trkpt lat="48.20490164" lon="-4.22821165"><ele></ele><time>2020-3-13T17:29:16Z</time></trkpt>
<trkpt lat="48.20488655" lon="-4.22819992"><ele></ele><time>2020-3-13T17:29:19Z</time></trkpt>
<trkpt lat="48.20486996" lon="-4.22819321"><ele></ele><time>2020-3-13T17:29:22Z</time></trkpt>
<trkpt lat="48.20485655" lon="-4.22818651"><ele></ele><time>2020-3-13T17:29:25Z</time></trkpt>
<trkpt lat="48.20484330" lon="-4.22817829"><ele></ele><time>2020-3-13T17:29:28Z</time></trkpt>
<trkpt lat="48.20477155" lon="-4.22813488"><ele></ele><time>2020-3-13T17:29:31Z</time></trkpt>
<trkpt lat="48.20476150" lon="-4.22812985"><ele></ele><time>2020-3-13T17:29:34Z</time></trkpt>
<trkpt lat="48.20473987" lon="-4.22812163"><ele></ele><time>2020-3-13T17:29:37Z</time></trkpt>
<trkpt lat="48.20472830" lon="-4.22811996"><ele></ele><time>2020-3-13T17:29:40Z</time></trkpt>
<trkpt lat="48.20468153" lon="-4.22812331"><ele></ele><time>2020-3-13T17:29:43Z</time></trkpt>
<trkpt lat="48.20466997" lon="-4.22812499"><ele></ele><time>2020-3-13T17:29:46Z</time></trkpt>
<trkpt lat="48.20464164" lon="-4.22812649"><ele></ele><time>2020-3-13T17:29:49Z</time></trkpt>
<trkpt lat="48.20459654" lon="-4.22812649"><ele></ele><time>2020-3-13T17:29:52Z</time></trkpt>
<trkpt lat="48.20457994" lon="-4.22812817"><ele></ele><time>2020-3-13T17:29:55Z</time></trkpt>
<trkpt lat="48.20456318" lon="-4.22812649"><ele></ele><time>2020-3-13T17:29:58Z</time></trkpt>
<trkpt lat="48.20450317" lon="-4.22814326"><ele></ele><time>2020-3-13T17:30:1Z</time></trkpt>
<trkpt lat="48.20449495" lon="-4.22815499"><ele></ele><time>2020-3-13T17:30:4Z</time></trkpt>
<trkpt lat="48.20447986" lon="-4.22815985"><ele></ele><time>2020-3-13T17:30:7Z</time></trkpt>
<trkpt lat="48.20446830" lon="-4.22817159"><ele></ele><time>2020-3-13T17:30:10Z</time></trkpt>
<trkpt lat="48.20445489" lon="-4.22818483"><ele></ele><time>2020-3-13T17:30:13Z</time></trkpt>
<trkpt lat="48.20443997" lon="-4.22819657"><ele></ele><time>2020-3-13T17:30:16Z</time></trkpt>
<trkpt lat="48.20438817" lon="-4.22821819"><ele></ele><time>2020-3-13T17:30:19Z</time></trkpt>
<trkpt lat="48.20437660" lon="-4.22822657"><ele></ele><time>2020-3-13T17:30:22Z</time></trkpt>
<trkpt lat="48.20436486" lon="-4.22823999"><ele></ele><time>2020-3-13T17:30:25Z</time></trkpt>
<trkpt lat="48.20434827" lon="-4.22825323"><ele></ele><time>2020-3-13T17:30:28Z</time></trkpt>
<trkpt lat="48.20433318" lon="-4.22826664"><ele></ele><time>2020-3-13T17:30:31Z</time></trkpt>
<trkpt lat="48.20429161" lon="-4.22831492"><ele></ele><time>2020-3-13T17:30:34Z</time></trkpt>
<trkpt lat="48.20421651" lon="-4.22839991"><ele></ele><time>2020-3-13T17:30:37Z</time></trkpt>
<trkpt lat="48.20420997" lon="-4.22841483"><ele></ele><time>2020-3-13T17:30:40Z</time></trkpt>
<trkpt lat="48.20419656" lon="-4.22843160"><ele></ele><time>2020-3-13T17:30:43Z</time></trkpt>
<trkpt lat="48.20415163" lon="-4.22847652"><ele></ele><time>2020-3-13T17:30:46Z</time></trkpt>
<trkpt lat="48.20410989" lon="-4.22852665"><ele></ele><time>2020-3-13T17:30:49Z</time></trkpt>
<trkpt lat="48.20409161" lon="-4.22855162"><ele></ele><time>2020-3-13T17:30:52Z</time></trkpt>
<trkpt lat="48.20402322" lon="-4.22864818"><ele></ele><time>2020-3-13T17:30:55Z</time></trkpt>
<trkpt lat="48.20401165" lon="-4.22866160"><ele></ele><time>2020-3-13T17:30:58Z</time></trkpt>
<trkpt lat="48.20399992" lon="-4.22867316"><ele></ele><time>2020-3-13T17:31:1Z</time></trkpt>
<trkpt lat="48.20393655" lon="-4.22874659"><ele></ele><time>2020-3-13T17:31:4Z</time></trkpt>
<trkpt lat="48.20392498" lon="-4.22875832"><ele></ele><time>2020-3-13T17:31:7Z</time></trkpt>
<trkpt lat="48.20389833" lon="-4.22878330"><ele></ele><time>2020-3-13T17:31:10Z</time></trkpt>
<trkpt lat="48.20389330" lon="-4.22878984"><ele></ele><time>2020-3-13T17:31:13Z</time></trkpt>
<trkpt lat="48.20384150" lon="-4.22884818"><ele></ele><time>2020-3-13T17:31:16Z</time></trkpt>
<trkpt lat="48.20380160" lon="-4.22889495"><ele></ele><time>2020-3-13T17:31:19Z</time></trkpt>
<trkpt lat="48.20378165" lon="-4.22890987"><ele></ele><time>2020-3-13T17:31:22Z</time></trkpt>
<trkpt lat="48.20376321" lon="-4.22893166"><ele></ele><time>2020-3-13T17:31:25Z</time></trkpt>
<trkpt lat="48.20374326" lon="-4.22896318"><ele></ele><time>2020-3-13T17:31:28Z</time></trkpt>
<trkpt lat="48.20373153" lon="-4.22896821"><ele></ele><time>2020-3-13T17:31:31Z</time></trkpt>
<trkpt lat="48.20372499" lon="-4.22897491"><ele></ele><time>2020-3-13T17:31:34Z</time></trkpt>
<trkpt lat="48.20371158" lon="-4.22898983"><ele></ele><time>2020-3-13T17:31:37Z</time></trkpt>
<trkpt lat="48.20369984" lon="-4.22900157"><ele></ele><time>2020-3-13T17:31:40Z</time></trkpt>
<trkpt lat="48.20369163" lon="-4.22901330"><ele></ele><time>2020-3-13T17:31:43Z</time></trkpt>
<trkpt lat="48.20368325" lon="-4.22902822"><ele></ele><time>2020-3-13T17:31:46Z</time></trkpt>
<trkpt lat="48.20367487" lon="-4.22904498"><ele></ele><time>2020-3-13T17:31:49Z</time></trkpt>
<trkpt lat="48.20366665" lon="-4.22905990"><ele></ele><time>2020-3-13T17:31:52Z</time></trkpt>
<trkpt lat="48.20365827" lon="-4.22907331"><ele></ele><time>2020-3-13T17:31:55Z</time></trkpt>
<trkpt lat="48.20364989" lon="-4.22908488"><ele></ele><time>2020-3-13T17:31:58Z</time></trkpt>
<trkpt lat="48.20363329" lon="-4.22909662"><ele></ele><time>2020-3-13T17:32:1Z</time></trkpt>
<trkpt lat="48.20358317" lon="-4.22914993"><ele></ele><time>2020-3-13T17:32:4Z</time></trkpt>
<trkpt lat="48.20357328" lon="-4.22916484"><ele></ele><time>2020-3-13T17:32:7Z</time></trkpt>
<trkpt lat="48.20356154" lon="-4.22917323"><ele></ele><time>2020-3-13T17:32:10Z</time></trkpt>
<trkpt lat="48.20355165" lon="-4.22918329"><ele></ele><time>2020-3-13T17:32:13Z</time></trkpt>
<trkpt lat="48.20351997" lon="-4.22922151"><ele></ele><time>2020-3-13T17:32:16Z</time></trkpt>
<trkpt lat="48.20350823" lon="-4.22923659"><ele></ele><time>2020-3-13T17:32:19Z</time></trkpt>
<trkpt lat="48.20350321" lon="-4.22924330"><ele></ele><time>2020-3-13T17:32:22Z</time></trkpt>
<trkpt lat="48.20349650" lon="-4.22924984"><ele></ele><time>2020-3-13T17:32:25Z</time></trkpt>
<trkpt lat="48.20339994" lon="-4.22936316"><ele></ele><time>2020-3-13T17:32:28Z</time></trkpt>
<trkpt lat="48.20338485" lon="-4.22937992"><ele></ele><time>2020-3-13T17:32:31Z</time></trkpt>
<trkpt lat="48.20337161" lon="-4.22938831"><ele></ele><time>2020-3-13T17:32:34Z</time></trkpt>
<trkpt lat="48.20332484" lon="-4.22943491"><ele></ele><time>2020-3-13T17:32:37Z</time></trkpt>
<trkpt lat="48.20328662" lon="-4.22946827"><ele></ele><time>2020-3-13T17:32:40Z</time></trkpt>
<trkpt lat="48.20327823" lon="-4.22947498"><ele></ele><time>2020-3-13T17:32:43Z</time></trkpt>
<trkpt lat="48.20324990" lon="-4.22949492"><ele></ele><time>2020-3-13T17:32:46Z</time></trkpt>
<trkpt lat="48.20324152" lon="-4.22949660"><ele></ele><time>2020-3-13T17:32:49Z</time></trkpt>
<trkpt lat="48.20323163" lon="-4.22949828"><ele></ele><time>2020-3-13T17:32:52Z</time></trkpt>
<trkpt lat="48.20322325" lon="-4.22950498"><ele></ele><time>2020-3-13T17:32:55Z</time></trkpt>
<trkpt lat="48.20320984" lon="-4.22951320"><ele></ele><time>2020-3-13T17:32:58Z</time></trkpt>
<trkpt lat="48.20311496" lon="-4.22957824"><ele></ele><time>2020-3-13T17:33:1Z</time></trkpt>
<trkpt lat="48.20302493" lon="-4.22963658"><ele></ele><time>2020-3-13T17:33:4Z</time></trkpt>
<trkpt lat="48.20301320" lon="-4.22964328"><ele></ele><time>2020-3-13T17:33:7Z</time></trkpt>
<trkpt lat="48.20296995" lon="-4.22968151"><ele></ele><time>2020-3-13T17:33:10Z</time></trkpt>
<trkpt lat="48.20295989" lon="-4.22968821"><ele></ele><time>2020-3-13T17:33:13Z</time></trkpt>
<trkpt lat="48.20294329" lon="-4.22970330"><ele></ele><time>2020-3-13T17:33:16Z</time></trkpt>
<trkpt lat="48.20293324" lon="-4.22970833"><ele></ele><time>2020-3-13T17:33:19Z</time></trkpt>
<trkpt lat="48.20292318" lon="-4.22971319"><ele></ele><time>2020-3-13T17:33:22Z</time></trkpt>
<trkpt lat="48.20288496" lon="-4.22972995"><ele></ele><time>2020-3-13T17:33:25Z</time></trkpt>
<trkpt lat="48.20287657" lon="-4.22973331"><ele></ele><time>2020-3-13T17:33:28Z</time></trkpt>
<trkpt lat="48.20284657" lon="-4.22974487"><ele></ele><time>2020-3-13T17:33:31Z</time></trkpt>
<trkpt lat="48.20283483" lon="-4.22974655"><ele></ele><time>2020-3-13T17:33:34Z</time></trkpt>
<trkpt lat="48.20282327" lon="-4.22975158"><ele></ele><time>2020-3-13T17:33:37Z</time></trkpt>
<trkpt lat="48.20281321" lon="-4.22975325"><ele></ele><time>2020-3-13T17:33:40Z</time></trkpt>
<trkpt lat="48.20274816" lon="-4.22976650"><ele></ele><time>2020-3-13T17:33:43Z</time></trkpt>
<trkpt lat="48.20273827" lon="-4.22976985"><ele></ele><time>2020-3-13T17:33:46Z</time></trkpt>
<trkpt lat="48.20272654" lon="-4.22976985"><ele></ele><time>2020-3-13T17:33:49Z</time></trkpt>
<trkpt lat="48.20270324" lon="-4.22977488"><ele></ele><time>2020-3-13T17:33:52Z</time></trkpt>
<trkpt lat="48.20261992" lon="-4.22980992"><ele></ele><time>2020-3-13T17:33:55Z</time></trkpt>
<trkpt lat="48.20258321" lon="-4.22982484"><ele></ele><time>2020-3-13T17:33:58Z</time></trkpt>
<trkpt lat="48.20257650" lon="-4.22982333"><ele></ele><time>2020-3-13T17:34:1Z</time></trkpt>
<trkpt lat="48.20254649" lon="-4.22981159"><ele></ele><time>2020-3-13T17:34:4Z</time></trkpt>
<trkpt lat="48.20252152" lon="-4.22980656"><ele></ele><time>2020-3-13T17:34:7Z</time></trkpt>
<trkpt lat="48.20250995" lon="-4.22981159"><ele></ele><time>2020-3-13T17:34:10Z</time></trkpt>
<trkpt lat="48.20250157" lon="-4.22981662"><ele></ele><time>2020-3-13T17:34:13Z</time></trkpt>
<trkpt lat="48.20249319" lon="-4.22981830"><ele></ele><time>2020-3-13T17:34:16Z</time></trkpt>
<trkpt lat="48.20248497" lon="-4.22981495"><ele></ele><time>2020-3-13T17:34:19Z</time></trkpt>
<trkpt lat="48.20246318" lon="-4.22981997"><ele></ele><time>2020-3-13T17:34:22Z</time></trkpt>
<trkpt lat="48.20244155" lon="-4.22982651"><ele></ele><time>2020-3-13T17:34:25Z</time></trkpt>
<trkpt lat="48.20243149" lon="-4.22982819"><ele></ele><time>2020-3-13T17:34:28Z</time></trkpt>
<trkpt lat="48.20239830" lon="-4.22983154"><ele></ele><time>2020-3-13T17:34:31Z</time></trkpt>
<trkpt lat="48.20238657" lon="-4.22983154"><ele></ele><time>2020-3-13T17:34:34Z</time></trkpt>
<trkpt lat="48.20223653" lon="-4.22984663"><ele></ele><time>2020-3-13T17:34:37Z</time></trkpt>
<trkpt lat="48.20215657" lon="-4.22985987"><ele></ele><time>2020-3-13T17:34:40Z</time></trkpt>
<trkpt lat="48.20214483" lon="-4.22986323"><ele></ele><time>2020-3-13T17:34:43Z</time></trkpt>
<trkpt lat="48.20213662" lon="-4.22986825"><ele></ele><time>2020-3-13T17:34:46Z</time></trkpt>
<trkpt lat="48.20212656" lon="-4.22986825"><ele></ele><time>2020-3-13T17:34:49Z</time></trkpt>
<trkpt lat="48.20211499" lon="-4.22986490"><ele></ele><time>2020-3-13T17:34:52Z</time></trkpt>
<trkpt lat="48.20210158" lon="-4.22986155"><ele></ele><time>2020-3-13T17:34:55Z</time></trkpt>
<trkpt lat="48.20208817" lon="-4.22985987"><ele></ele><time>2020-3-13T17:34:58Z</time></trkpt>
<trkpt lat="48.20207325" lon="-4.22985987"><ele></ele><time>2020-3-13T17:35:1Z</time></trkpt>
<trkpt lat="48.20201659" lon="-4.22986658"><ele></ele><time>2020-3-13T17:35:4Z</time></trkpt>
<trkpt lat="48.20198155" lon="-4.22987999"><ele></ele><time>2020-3-13T17:35:7Z</time></trkpt>
<trkpt lat="48.20189824" lon="-4.22990983"><ele></ele><time>2020-3-13T17:35:10Z</time></trkpt>
<trkpt lat="48.20187494" lon="-4.22991150"><ele></ele><time>2020-3-13T17:35:13Z</time></trkpt>
<trkpt lat="48.20180319" lon="-4.22991653"><ele></ele><time>2020-3-13T17:35:16Z</time></trkpt>
<trkpt lat="48.20177989" lon="-4.22991486"><ele></ele><time>2020-3-13T17:35:19Z</time></trkpt>
<trkpt lat="48.20124495" lon="-4.22988820"><ele></ele><time>2020-3-13T17:35:22Z</time></trkpt>
<trkpt lat="48.20120992" lon="-4.22987831"><ele></ele><time>2020-3-13T17:35:25Z</time></trkpt>
<trkpt lat="48.20117320" lon="-4.22986825"><ele></ele><time>2020-3-13T17:35:28Z</time></trkpt>
<trkpt lat="48.20057323" lon="-4.22973984"><ele></ele><time>2020-3-13T17:35:31Z</time></trkpt>
<trkpt lat="48.20044985" lon="-4.22977488"><ele></ele><time>2020-3-13T17:35:34Z</time></trkpt>
<trkpt lat="48.20041665" lon="-4.22979986"><ele></ele><time>2020-3-13T17:35:37Z</time></trkpt>
<trkpt lat="48.20031154" lon="-4.22990497"><ele></ele><time>2020-3-13T17:35:40Z</time></trkpt>
<trkpt lat="48.20028154" lon="-4.22994654"><ele></ele><time>2020-3-13T17:35:43Z</time></trkpt>
<trkpt lat="48.20027483" lon="-4.22996331"><ele></ele><time>2020-3-13T17:35:46Z</time></trkpt>
<trkpt lat="48.20026662" lon="-4.22996817"><ele></ele><time>2020-3-13T17:35:49Z</time></trkpt>
<trkpt lat="48.20025991" lon="-4.22997152"><ele></ele><time>2020-3-13T17:35:52Z</time></trkpt>
<trkpt lat="48.20024650" lon="-4.22997152"><ele></ele><time>2020-3-13T17:35:55Z</time></trkpt>
<trkpt lat="48.20022655" lon="-4.22996666"><ele></ele><time>2020-3-13T17:35:58Z</time></trkpt>
<trkpt lat="48.20020493" lon="-4.22995660"><ele></ele><time>2020-3-13T17:36:1Z</time></trkpt>
<trkpt lat="48.20017995" lon="-4.22993833"><ele></ele><time>2020-3-13T17:36:4Z</time></trkpt>
<trkpt lat="48.20015665" lon="-4.22991150"><ele></ele><time>2020-3-13T17:36:7Z</time></trkpt>
<trkpt lat="48.20013318" lon="-4.22987496"><ele></ele><time>2020-3-13T17:36:10Z</time></trkpt>
<trkpt lat="48.20011155" lon="-4.22983154"><ele></ele><time>2020-3-13T17:36:13Z</time></trkpt>
<trkpt lat="48.19995163" lon="-4.22949828"><ele></ele><time>2020-3-13T17:36:16Z</time></trkpt>
<trkpt lat="48.19992983" lon="-4.22948151"><ele></ele><time>2020-3-13T17:36:19Z</time></trkpt>
<trkpt lat="48.19989999" lon="-4.22946995"><ele></ele><time>2020-3-13T17:36:22Z</time></trkpt>
<trkpt lat="48.19986831" lon="-4.22948319"><ele></ele><time>2020-3-13T17:36:25Z</time></trkpt>
<trkpt lat="48.19983830" lon="-4.22951655"><ele></ele><time>2020-3-13T17:36:28Z</time></trkpt>
<trkpt lat="48.19977996" lon="-4.22960825"><ele></ele><time>2020-3-13T17:36:31Z</time></trkpt>
<trkpt lat="48.19975331" lon="-4.22967161"><ele></ele><time>2020-3-13T17:36:34Z</time></trkpt>
<trkpt lat="48.19899994" lon="-4.23109821"><ele></ele><time>2020-3-13T17:36:37Z</time></trkpt>
<trkpt lat="48.19899659" lon="-4.23111816"><ele></ele><time>2020-3-13T17:36:40Z</time></trkpt>
<trkpt lat="48.19900162" lon="-4.23113157"><ele></ele><time>2020-3-13T17:36:43Z</time></trkpt>
<trkpt lat="48.19900330" lon="-4.23114649"><ele></ele><time>2020-3-13T17:36:46Z</time></trkpt>
<trkpt lat="48.19900497" lon="-4.23115655"><ele></ele><time>2020-3-13T17:36:49Z</time></trkpt>
<trkpt lat="48.19900497" lon="-4.23116493"><ele></ele><time>2020-3-13T17:36:52Z</time></trkpt>
<trkpt lat="48.19900497" lon="-4.23116829"><ele></ele><time>2020-3-13T17:36:55Z</time></trkpt>
<trkpt lat="48.19900162" lon="-4.23116829"><ele></ele><time>2020-3-13T17:36:58Z</time></trkpt>
<trkpt lat="48.19899827" lon="-4.23116996"><ele></ele><time>2020-3-13T17:37:1Z</time></trkpt>
<trkpt lat="48.19899324" lon="-4.23116996"><ele></ele><time>2020-3-13T17:37:4Z</time></trkpt>
<trkpt lat="48.19898989" lon="-4.23117164"><ele></ele><time>2020-3-13T17:37:7Z</time></trkpt>
<trkpt lat="48.19898653" lon="-4.23117332"><ele></ele><time>2020-3-13T17:37:10Z</time></trkpt>
<trkpt lat="48.19898150" lon="-4.23117985"><ele></ele><time>2020-3-13T17:37:13Z</time></trkpt>
<trkpt lat="48.19896994" lon="-4.23118824"><ele></ele><time>2020-3-13T17:37:16Z</time></trkpt>
<trkpt lat="48.19896826" lon="-4.23118991"><ele></ele><time>2020-3-13T17:37:19Z</time></trkpt>
<trkpt lat="48.19896826" lon="-4.23118824"><ele></ele><time>2020-3-13T17:37:22Z</time></trkpt>
<trkpt lat="48.19896826" lon="-4.23118824"><ele></ele><time>2020-3-13T17:37:25Z</time></trkpt>
<trkpt lat="48.19896826" lon="-4.23118824"><ele></ele><time>2020-3-13T17:37:28Z</time></trkpt>
<trkpt lat="48.19896658" lon="-4.23118991"><ele></ele><time>2020-3-13T17:37:31Z</time></trkpt>
<trkpt lat="48.19896658" lon="-4.23119159"><ele></ele><time>2020-3-13T17:37:34Z</time></trkpt>
<trkpt lat="48.19896658" lon="-4.23120165"><ele></ele><time>2020-3-13T17:37:37Z</time></trkpt>
<trkpt lat="48.19896994" lon="-4.23122160"><ele></ele><time>2020-3-13T17:37:40Z</time></trkpt>
<trkpt lat="48.19898150" lon="-4.23123316"><ele></ele><time>2020-3-13T17:37:43Z</time></trkpt>
<trkpt lat="48.19900983" lon="-4.23125663"><ele></ele><time>2020-3-13T17:37:46Z</time></trkpt>
<trkpt lat="48.19902325" lon="-4.23127491"><ele></ele><time>2020-3-13T17:37:49Z</time></trkpt>
<trkpt lat="48.19903984" lon="-4.23128832"><ele></ele><time>2020-3-13T17:37:52Z</time></trkpt>
<trkpt lat="48.19912165" lon="-4.23133492"><ele></ele><time>2020-3-13T17:37:55Z</time></trkpt>
<trkpt lat="48.19913992" lon="-4.23134665"><ele></ele><time>2020-3-13T17:37:58Z</time></trkpt>
<trkpt lat="48.19915484" lon="-4.23135822"><ele></ele><time>2020-3-13T17:38:1Z</time></trkpt>
<trkpt lat="48.19919155" lon="-4.23139493"><ele></ele><time>2020-3-13T17:38:4Z</time></trkpt>
<trkpt lat="48.19919994" lon="-4.23140499"><ele></ele><time>2020-3-13T17:38:7Z</time></trkpt>
<trkpt lat="48.19920329" lon="-4.23142159"><ele></ele><time>2020-3-13T17:38:10Z</time></trkpt>
<trkpt lat="48.19920497" lon="-4.23144321"><ele></ele><time>2020-3-13T17:38:13Z</time></trkpt>
<trkpt lat="48.19920497" lon="-4.23146987"><ele></ele><time>2020-3-13T17:38:16Z</time></trkpt>
<trkpt lat="48.19919994" lon="-4.23150490"><ele></ele><time>2020-3-13T17:38:19Z</time></trkpt>
<trkpt lat="48.19919155" lon="-4.23154329"><ele></ele><time>2020-3-13T17:38:22Z</time></trkpt>
<trkpt lat="48.19917496" lon="-4.23158319"><ele></ele><time>2020-3-13T17:38:25Z</time></trkpt>
<trkpt lat="48.19914998" lon="-4.23162158"><ele></ele><time>2020-3-13T17:38:28Z</time></trkpt>
<trkpt lat="48.19912165" lon="-4.23165997"><ele></ele><time>2020-3-13T17:38:31Z</time></trkpt>
<trkpt lat="48.19905996" lon="-4.23173490"><ele></ele><time>2020-3-13T17:38:34Z</time></trkpt>
<trkpt lat="48.19902492" lon="-4.23176994"><ele></ele><time>2020-3-13T17:38:37Z</time></trkpt>
<trkpt lat="48.19887656" lon="-4.23192165"><ele></ele><time>2020-3-13T17:38:40Z</time></trkpt>
<trkpt lat="48.19883650" lon="-4.23195820"><ele></ele><time>2020-3-13T17:38:43Z</time></trkpt>
<trkpt lat="48.19813996" lon="-4.23276152"><ele></ele><time>2020-3-13T17:38:46Z</time></trkpt>
<trkpt lat="48.19662149" lon="-4.23449154"><ele></ele><time>2020-3-13T17:38:49Z</time></trkpt>
<trkpt lat="48.19656332" lon="-4.23454653"><ele></ele><time>2020-3-13T17:38:52Z</time></trkpt>
<trkpt lat="48.19532163" lon="-4.23560651"><ele></ele><time>2020-3-13T17:38:55Z</time></trkpt>
<trkpt lat="48.19524150" lon="-4.23564992"><ele></ele><time>2020-3-13T17:38:58Z</time></trkpt>
<trkpt lat="48.19323822" lon="-4.23685826"><ele></ele><time>2020-3-13T17:39:1Z</time></trkpt>
<trkpt lat="48.19317989" lon="-4.23691660"><ele></ele><time>2020-3-13T17:39:4Z</time></trkpt>
<trkpt lat="48.19312322" lon="-4.23698818"><ele></ele><time>2020-3-13T17:39:7Z</time></trkpt>
<trkpt lat="48.19267999" lon="-4.23762990"><ele></ele><time>2020-3-13T17:39:10Z</time></trkpt>
<trkpt lat="48.19264831" lon="-4.23769997"><ele></ele><time>2020-3-13T17:39:13Z</time></trkpt>
<trkpt lat="48.19255493" lon="-4.23794824"><ele></ele><time>2020-3-13T17:39:16Z</time></trkpt>
<trkpt lat="48.19252492" lon="-4.23804162"><ele></ele><time>2020-3-13T17:39:19Z</time></trkpt>
<trkpt lat="48.19194993" lon="-4.23974331"><ele></ele><time>2020-3-13T17:39:22Z</time></trkpt>
<trkpt lat="48.19190483" lon="-4.23981824"><ele></ele><time>2020-3-13T17:39:25Z</time></trkpt>
<trkpt lat="48.19185320" lon="-4.23988832"><ele></ele><time>2020-3-13T17:39:28Z</time></trkpt>
<trkpt lat="48.19119656" lon="-4.24074830"><ele></ele><time>2020-3-13T17:39:31Z</time></trkpt>
<trkpt lat="48.19119153" lon="-4.24078166"><ele></ele><time>2020-3-13T17:39:34Z</time></trkpt>
<trkpt lat="48.19106329" lon="-4.24148155"><ele></ele><time>2020-3-13T17:39:37Z</time></trkpt>
<trkpt lat="48.19084485" lon="-4.24273984"><ele></ele><time>2020-3-13T17:39:40Z</time></trkpt>
<trkpt lat="48.19085156" lon="-4.24284830"><ele></ele><time>2020-3-13T17:39:43Z</time></trkpt>
<trkpt lat="48.19095650" lon="-4.24394650"><ele></ele><time>2020-3-13T17:39:46Z</time></trkpt>
<trkpt lat="48.19096991" lon="-4.24403166"><ele></ele><time>2020-3-13T17:39:49Z</time></trkpt>
<trkpt lat="48.19099992" lon="-4.24417650"><ele></ele><time>2020-3-13T17:39:52Z</time></trkpt>
<trkpt lat="48.19099657" lon="-4.24424154"><ele></ele><time>2020-3-13T17:39:55Z</time></trkpt>
<trkpt lat="48.19098165" lon="-4.24429653"><ele></ele><time>2020-3-13T17:39:58Z</time></trkpt>
<trkpt lat="48.19095650" lon="-4.24433492"><ele></ele><time>2020-3-13T17:40:1Z</time></trkpt>
<trkpt lat="48.19091828" lon="-4.24436828"><ele></ele><time>2020-3-13T17:40:4Z</time></trkpt>
<trkpt lat="48.19086983" lon="-4.24438320"><ele></ele><time>2020-3-13T17:40:7Z</time></trkpt>
<trkpt lat="48.19081485" lon="-4.24439996"><ele></ele><time>2020-3-13T17:40:10Z</time></trkpt>
<trkpt lat="48.19075483" lon="-4.24440650"><ele></ele><time>2020-3-13T17:40:13Z</time></trkpt>
<trkpt lat="48.19048326" lon="-4.24442159"><ele></ele><time>2020-3-13T17:40:16Z</time></trkpt>
<trkpt lat="48.18981321" lon="-4.24443164"><ele></ele><time>2020-3-13T17:40:19Z</time></trkpt>
<trkpt lat="48.18977331" lon="-4.24446484"><ele></ele><time>2020-3-13T17:40:22Z</time></trkpt>
<trkpt lat="48.18974666" lon="-4.24451161"><ele></ele><time>2020-3-13T17:40:25Z</time></trkpt>
<trkpt lat="48.18972989" lon="-4.24457162"><ele></ele><time>2020-3-13T17:40:28Z</time></trkpt>
<trkpt lat="48.18953828" lon="-4.24522826"><ele></ele><time>2020-3-13T17:40:31Z</time></trkpt>
<trkpt lat="48.18950325" lon="-4.24530990"><ele></ele><time>2020-3-13T17:40:34Z</time></trkpt>
<trkpt lat="48.18945497" lon="-4.24539154"><ele></ele><time>2020-3-13T17:40:37Z</time></trkpt>
<trkpt lat="48.18934651" lon="-4.24553655"><ele></ele><time>2020-3-13T17:40:40Z</time></trkpt>
<trkpt lat="48.18918323" lon="-4.24578331"><ele></ele><time>2020-3-13T17:40:43Z</time></trkpt>
<trkpt lat="48.18913998" lon="-4.24587652"><ele></ele><time>2020-3-13T17:40:46Z</time></trkpt>
<trkpt lat="48.18911164" lon="-4.24597660"><ele></ele><time>2020-3-13T17:40:49Z</time></trkpt>
<trkpt lat="48.18909656" lon="-4.24607483"><ele></ele><time>2020-3-13T17:40:52Z</time></trkpt>
<trkpt lat="48.18909153" lon="-4.24617491"><ele></ele><time>2020-3-13T17:40:55Z</time></trkpt>
<trkpt lat="48.18903654" lon="-4.24732659"><ele></ele><time>2020-3-13T17:40:58Z</time></trkpt>
<trkpt lat="48.18901324" lon="-4.24751317"><ele></ele><time>2020-3-13T17:41:1Z</time></trkpt>
<trkpt lat="48.18886656" lon="-4.24858488"><ele></ele><time>2020-3-13T17:41:4Z</time></trkpt>
<trkpt lat="48.18884493" lon="-4.24863986"><ele></ele><time>2020-3-13T17:41:7Z</time></trkpt>
<trkpt lat="48.18881157" lon="-4.24867993"><ele></ele><time>2020-3-13T17:41:10Z</time></trkpt>
<trkpt lat="48.18876497" lon="-4.24870323"><ele></ele><time>2020-3-13T17:41:13Z</time></trkpt>
<trkpt lat="48.18871652" lon="-4.24871664"><ele></ele><time>2020-3-13T17:41:16Z</time></trkpt>
<trkpt lat="48.18861996" lon="-4.24875821"><ele></ele><time>2020-3-13T17:41:19Z</time></trkpt>
<trkpt lat="48.18857822" lon="-4.24880666"><ele></ele><time>2020-3-13T17:41:22Z</time></trkpt>
<trkpt lat="48.18853832" lon="-4.24887489"><ele></ele><time>2020-3-13T17:41:25Z</time></trkpt>
<trkpt lat="48.18851318" lon="-4.24894161"><ele></ele><time>2020-3-13T17:41:28Z</time></trkpt>
<trkpt lat="48.18849490" lon="-4.24900665"><ele></ele><time>2020-3-13T17:41:31Z</time></trkpt>
<trkpt lat="48.18766828" lon="-4.25217987"><ele></ele><time>2020-3-13T17:41:34Z</time></trkpt>
<trkpt lat="48.18766158" lon="-4.25224492"><ele></ele><time>2020-3-13T17:41:37Z</time></trkpt>
<trkpt lat="48.18766493" lon="-4.25225816"><ele></ele><time>2020-3-13T17:41:40Z</time></trkpt>
<trkpt lat="48.18766996" lon="-4.25227325"><ele></ele><time>2020-3-13T17:41:43Z</time></trkpt>
<trkpt lat="48.18769494" lon="-4.25230326"><ele></ele><time>2020-3-13T17:41:46Z</time></trkpt>
<trkpt lat="48.18770986" lon="-4.25231331"><ele></ele><time>2020-3-13T17:41:49Z</time></trkpt>
<trkpt lat="48.18772662" lon="-4.25231985"><ele></ele><time>2020-3-13T17:41:52Z</time></trkpt>
<trkpt lat="48.18774657" lon="-4.25232153"><ele></ele><time>2020-3-13T17:41:55Z</time></trkpt>
<trkpt lat="48.18776484" lon="-4.25231818"><ele></ele><time>2020-3-13T17:41:58Z</time></trkpt>
<trkpt lat="48.18780491" lon="-4.25231331"><ele></ele><time>2020-3-13T17:42:1Z</time></trkpt>
<trkpt lat="48.18856330" lon="-4.25220318"><ele></ele><time>2020-3-13T17:42:4Z</time></trkpt>
<trkpt lat="48.18858828" lon="-4.25220485"><ele></ele><time>2020-3-13T17:42:7Z</time></trkpt>
<trkpt lat="48.18861493" lon="-4.25220318"><ele></ele><time>2020-3-13T17:42:10Z</time></trkpt>
<trkpt lat="48.18866824" lon="-4.25219831"><ele></ele><time>2020-3-13T17:42:13Z</time></trkpt>
<trkpt lat="48.18869322" lon="-4.25219999"><ele></ele><time>2020-3-13T17:42:16Z</time></trkpt>
<trkpt lat="48.18874150" lon="-4.25220150"><ele></ele><time>2020-3-13T17:42:19Z</time></trkpt>
<trkpt lat="48.18876665" lon="-4.25219831"><ele></ele><time>2020-3-13T17:42:22Z</time></trkpt>
<trkpt lat="48.18881157" lon="-4.25219664"><ele></ele><time>2020-3-13T17:42:25Z</time></trkpt>
<trkpt lat="48.18883487" lon="-4.25219831"><ele></ele><time>2020-3-13T17:42:28Z</time></trkpt>
<trkpt lat="48.18887997" lon="-4.25220150"><ele></ele><time>2020-3-13T17:42:31Z</time></trkpt>
<trkpt lat="48.18889992" lon="-4.25220150"><ele></ele><time>2020-3-13T17:42:34Z</time></trkpt>
<trkpt lat="48.18892154" lon="-4.25220150"><ele></ele><time>2020-3-13T17:42:37Z</time></trkpt>
<trkpt lat="48.18894317" lon="-4.25220150"><ele></ele><time>2020-3-13T17:42:40Z</time></trkpt>
<trkpt lat="48.18898659" lon="-4.25220318"><ele></ele><time>2020-3-13T17:42:43Z</time></trkpt>
<trkpt lat="48.18907326" lon="-4.25221994"><ele></ele><time>2020-3-13T17:42:46Z</time></trkpt>
<trkpt lat="48.18941155" lon="-4.25228985"><ele></ele><time>2020-3-13T17:42:49Z</time></trkpt>
<trkpt lat="48.18942999" lon="-4.25229655"><ele></ele><time>2020-3-13T17:42:52Z</time></trkpt>
<trkpt lat="48.19023163" lon="-4.25246486"><ele></ele><time>2020-3-13T17:42:55Z</time></trkpt>
<trkpt lat="48.19027656" lon="-4.25248330"><ele></ele><time>2020-3-13T17:42:58Z</time></trkpt>
<trkpt lat="48.19029333" lon="-4.25248816"><ele></ele><time>2020-3-13T17:43:1Z</time></trkpt>
<trkpt lat="48.19030657" lon="-4.25248816"><ele></ele><time>2020-3-13T17:43:4Z</time></trkpt>
<trkpt lat="48.19033658" lon="-4.25248498"><ele></ele><time>2020-3-13T17:43:7Z</time></trkpt>
<trkpt lat="48.19035150" lon="-4.25248816"><ele></ele><time>2020-3-13T17:43:10Z</time></trkpt>
<trkpt lat="48.19036491" lon="-4.25249319"><ele></ele><time>2020-3-13T17:43:13Z</time></trkpt>
<trkpt lat="48.19049332" lon="-4.25252655"><ele></ele><time>2020-3-13T17:43:16Z</time></trkpt>
<trkpt lat="48.19050824" lon="-4.25252990"><ele></ele><time>2020-3-13T17:43:19Z</time></trkpt>
<trkpt lat="48.19053322" lon="-4.25254818"><ele></ele><time>2020-3-13T17:43:22Z</time></trkpt>
<trkpt lat="48.19059155" lon="-4.25258824"><ele></ele><time>2020-3-13T17:43:25Z</time></trkpt>
<trkpt lat="48.19062324" lon="-4.25260819"><ele></ele><time>2020-3-13T17:43:28Z</time></trkpt>
<trkpt lat="48.19065324" lon="-4.25263317"><ele></ele><time>2020-3-13T17:43:31Z</time></trkpt>
<trkpt lat="48.19071494" lon="-4.25268832"><ele></ele><time>2020-3-13T17:43:34Z</time></trkpt>
<trkpt lat="48.19072986" lon="-4.25270492"><ele></ele><time>2020-3-13T17:43:37Z</time></trkpt>
<trkpt lat="48.19075819" lon="-4.25274163"><ele></ele><time>2020-3-13T17:43:40Z</time></trkpt>
<trkpt lat="48.19078652" lon="-4.25278153"><ele></ele><time>2020-3-13T17:43:43Z</time></trkpt>
<trkpt lat="48.19088492" lon="-4.25290491"><ele></ele><time>2020-3-13T17:43:46Z</time></trkpt>
<trkpt lat="48.19089666" lon="-4.25292486"><ele></ele><time>2020-3-13T17:43:49Z</time></trkpt>
<trkpt lat="48.19111157" lon="-4.25327992"><ele></ele><time>2020-3-13T17:43:52Z</time></trkpt>
<trkpt lat="48.19190483" lon="-4.25465153"><ele></ele><time>2020-3-13T17:43:55Z</time></trkpt>
<trkpt lat="48.19192159" lon="-4.25466829"><ele></ele><time>2020-3-13T17:43:58Z</time></trkpt>
<trkpt lat="48.19200156" lon="-4.25474490"><ele></ele><time>2020-3-13T17:44:1Z</time></trkpt>
<trkpt lat="48.19201329" lon="-4.25476485"><ele></ele><time>2020-3-13T17:44:4Z</time></trkpt>
<trkpt lat="48.19202486" lon="-4.25478983"><ele></ele><time>2020-3-13T17:44:7Z</time></trkpt>
<trkpt lat="48.19203324" lon="-4.25481330"><ele></ele><time>2020-3-13T17:44:10Z</time></trkpt>
<trkpt lat="48.19204498" lon="-4.25483325"><ele></ele><time>2020-3-13T17:44:13Z</time></trkpt>
<trkpt lat="48.19207163" lon="-4.25486829"><ele></ele><time>2020-3-13T17:44:16Z</time></trkpt>
<trkpt lat="48.19207817" lon="-4.25488656"><ele></ele><time>2020-3-13T17:44:19Z</time></trkpt>
<trkpt lat="48.19208487" lon="-4.25490818"><ele></ele><time>2020-3-13T17:44:22Z</time></trkpt>
<trkpt lat="48.19210985" lon="-4.25498496"><ele></ele><time>2020-3-13T17:44:25Z</time></trkpt>
<trkpt lat="48.19212326" lon="-4.25500491"><ele></ele><time>2020-3-13T17:44:28Z</time></trkpt>
<trkpt lat="48.19216819" lon="-4.25505319"><ele></ele><time>2020-3-13T17:44:31Z</time></trkpt>
<trkpt lat="48.19218495" lon="-4.25506995"><ele></ele><time>2020-3-13T17:44:34Z</time></trkpt>
<trkpt lat="48.19220155" lon="-4.25508152"><ele></ele><time>2020-3-13T17:44:37Z</time></trkpt>
<trkpt lat="48.19221999" lon="-4.25508990"><ele></ele><time>2020-3-13T17:44:40Z</time></trkpt>
<trkpt lat="48.19223826" lon="-4.25509158"><ele></ele><time>2020-3-13T17:44:43Z</time></trkpt>
<trkpt lat="48.19225486" lon="-4.25509158"><ele></ele><time>2020-3-13T17:44:46Z</time></trkpt>
<trkpt lat="48.19227162" lon="-4.25509158"><ele></ele><time>2020-3-13T17:44:49Z</time></trkpt>
<trkpt lat="48.19238495" lon="-4.25509493"><ele></ele><time>2020-3-13T17:44:52Z</time></trkpt>
<trkpt lat="48.19240825" lon="-4.25508487"><ele></ele><time>2020-3-13T17:44:55Z</time></trkpt>
<trkpt lat="48.19247832" lon="-4.25503659"><ele></ele><time>2020-3-13T17:44:58Z</time></trkpt>
<trkpt lat="48.19250162" lon="-4.25503157"><ele></ele><time>2020-3-13T17:45:1Z</time></trkpt>
<trkpt lat="48.19262484" lon="-4.25502821"><ele></ele><time>2020-3-13T17:45:4Z</time></trkpt>
<trkpt lat="48.19264328" lon="-4.25502654"><ele></ele><time>2020-3-13T17:45:7Z</time></trkpt>
<trkpt lat="48.19266323" lon="-4.25502821"><ele></ele><time>2020-3-13T17:45:10Z</time></trkpt>
<trkpt lat="48.19276498" lon="-4.25503995"><ele></ele><time>2020-3-13T17:45:13Z</time></trkpt>
<trkpt lat="48.19278493" lon="-4.25504162"><ele></ele><time>2020-3-13T17:45:16Z</time></trkpt>
<trkpt lat="48.19280488" lon="-4.25504498"><ele></ele><time>2020-3-13T17:45:19Z</time></trkpt>
<trkpt lat="48.19286322" lon="-4.25505487"><ele></ele><time>2020-3-13T17:45:22Z</time></trkpt>
<trkpt lat="48.19291820" lon="-4.25506828"><ele></ele><time>2020-3-13T17:45:25Z</time></trkpt>
<trkpt lat="48.19308986" lon="-4.25512494"><ele></ele><time>2020-3-13T17:45:28Z</time></trkpt>
<trkpt lat="48.19310495" lon="-4.25513165"><ele></ele><time>2020-3-13T17:45:31Z</time></trkpt>
<trkpt lat="48.19332322" lon="-4.25523323"><ele></ele><time>2020-3-13T17:45:34Z</time></trkpt>
<trkpt lat="48.19333830" lon="-4.25524329"><ele></ele><time>2020-3-13T17:45:37Z</time></trkpt>
<trkpt lat="48.19335322" lon="-4.25525151"><ele></ele><time>2020-3-13T17:45:40Z</time></trkpt>
<trkpt lat="48.19338323" lon="-4.25525989"><ele></ele><time>2020-3-13T17:45:43Z</time></trkpt>
<trkpt lat="48.19339664" lon="-4.25526827"><ele></ele><time>2020-3-13T17:45:46Z</time></trkpt>
<trkpt lat="48.19340988" lon="-4.25527665"><ele></ele><time>2020-3-13T17:45:49Z</time></trkpt>
<trkpt lat="48.19342330" lon="-4.25528319"><ele></ele><time>2020-3-13T17:45:52Z</time></trkpt>
<trkpt lat="48.19343822" lon="-4.25528654"><ele></ele><time>2020-3-13T17:45:55Z</time></trkpt>
<trkpt lat="48.19349488" lon="-4.25529995"><ele></ele><time>2020-3-13T17:45:58Z</time></trkpt>
<trkpt lat="48.19354819" lon="-4.25531320"><ele></ele><time>2020-3-13T17:46:1Z</time></trkpt>
<trkpt lat="48.19357652" lon="-4.25531823"><ele></ele><time>2020-3-13T17:46:4Z</time></trkpt>
<trkpt lat="48.19362329" lon="-4.25532158"><ele></ele><time>2020-3-13T17:46:7Z</time></trkpt>
<trkpt lat="48.19365330" lon="-4.25532493"><ele></ele><time>2020-3-13T17:46:10Z</time></trkpt>
<trkpt lat="48.19370158" lon="-4.25531320"><ele></ele><time>2020-3-13T17:46:13Z</time></trkpt>
<trkpt lat="48.19379830" lon="-4.25527665"><ele></ele><time>2020-3-13T17:46:16Z</time></trkpt>
<trkpt lat="48.19381322" lon="-4.25526659"><ele></ele><time>2020-3-13T17:46:19Z</time></trkpt>
<trkpt lat="48.19387491" lon="-4.25523659"><ele></ele><time>2020-3-13T17:46:22Z</time></trkpt>
<trkpt lat="48.19396996" lon="-4.25520323"><ele></ele><time>2020-3-13T17:46:25Z</time></trkpt>
<trkpt lat="48.19398488" lon="-4.25520490"><ele></ele><time>2020-3-13T17:46:28Z</time></trkpt>
<trkpt lat="48.19402327" lon="-4.25521161"><ele></ele><time>2020-3-13T17:46:31Z</time></trkpt>
<trkpt lat="48.19404155" lon="-4.25520826"><ele></ele><time>2020-3-13T17:46:34Z</time></trkpt>
<trkpt lat="48.19408161" lon="-4.25521329"><ele></ele><time>2020-3-13T17:46:37Z</time></trkpt>
<trkpt lat="48.19409318" lon="-4.25521831"><ele></ele><time>2020-3-13T17:46:40Z</time></trkpt>
<trkpt lat="48.19413324" lon="-4.25526157"><ele></ele><time>2020-3-13T17:46:43Z</time></trkpt>
<trkpt lat="48.19416325" lon="-4.25529157"><ele></ele><time>2020-3-13T17:46:46Z</time></trkpt>
<trkpt lat="48.19416996" lon="-4.25529995"><ele></ele><time>2020-3-13T17:46:49Z</time></trkpt>
<trkpt lat="48.19418320" lon="-4.25531487"><ele></ele><time>2020-3-13T17:46:52Z</time></trkpt>
<trkpt lat="48.19418488" lon="-4.25531823"><ele></ele><time>2020-3-13T17:46:55Z</time></trkpt>
<trkpt lat="48.19418655" lon="-4.25532326"><ele></ele><time>2020-3-13T17:46:58Z</time></trkpt>
<trkpt lat="48.19418823" lon="-4.25532493"><ele></ele><time>2020-3-13T17:47:1Z</time></trkpt>
<trkpt lat="48.19419829" lon="-4.25532326"><ele></ele><time>2020-3-13T17:47:4Z</time></trkpt>
<trkpt lat="48.19420499" lon="-4.25532326"><ele></ele><time>2020-3-13T17:47:7Z</time></trkpt>
<trkpt lat="48.19420818" lon="-4.25532326"><ele></ele><time>2020-3-13T17:47:10Z</time></trkpt>
<trkpt lat="48.19421321" lon="-4.25532326"><ele></ele><time>2020-3-13T17:47:13Z</time></trkpt>
<trkpt lat="48.19421488" lon="-4.25532326"><ele></ele><time>2020-3-13T17:47:16Z</time></trkpt>
<trkpt lat="48.19421656" lon="-4.25532493"><ele></ele><time>2020-3-13T17:47:19Z</time></trkpt>
<trkpt lat="48.19421656" lon="-4.25532661"><ele></ele><time>2020-3-13T17:47:22Z</time></trkpt>
<trkpt lat="48.19421656" lon="-4.25532829"><ele></ele><time>2020-3-13T17:47:25Z</time></trkpt>
<trkpt lat="48.19421656" lon="-4.25532996"><ele></ele><time>2020-3-13T17:47:28Z</time></trkpt>
<trkpt lat="48.19421656" lon="-4.25533164"><ele></ele><time>2020-3-13T17:47:31Z</time></trkpt>
<trkpt lat="48.19421656" lon="-4.25533164"><ele></ele><time>2020-3-13T17:47:34Z</time></trkpt>
<trkpt lat="48.19421488" lon="-4.25533331"><ele></ele><time>2020-3-13T17:47:37Z</time></trkpt>
<trkpt lat="48.19421153" lon="-4.25533499"><ele></ele><time>2020-3-13T17:47:40Z</time></trkpt>
<trkpt lat="48.19420818" lon="-4.25533499"><ele></ele><time>2020-3-13T17:47:43Z</time></trkpt>
<trkpt lat="48.19420650" lon="-4.25533650"><ele></ele><time>2020-3-13T17:47:46Z</time></trkpt>
<trkpt lat="48.19421153" lon="-4.25534320"><ele></ele><time>2020-3-13T17:47:49Z</time></trkpt>
<trkpt lat="48.19421321" lon="-4.25534656"><ele></ele><time>2020-3-13T17:47:52Z</time></trkpt>
<trkpt lat="48.19421488" lon="-4.25535662"><ele></ele><time>2020-3-13T17:47:55Z</time></trkpt>
<trkpt lat="48.19421656" lon="-4.25536332"><ele></ele><time>2020-3-13T17:47:58Z</time></trkpt>
<trkpt lat="48.19421488" lon="-4.25536483"><ele></ele><time>2020-3-13T17:48:1Z</time></trkpt>
<trkpt lat="48.19421488" lon="-4.25536818"><ele></ele><time>2020-3-13T17:48:4Z</time></trkpt>
<trkpt lat="48.19421321" lon="-4.25536986"><ele></ele><time>2020-3-13T17:48:7Z</time></trkpt>
<trkpt lat="48.19421321" lon="-4.25537321"><ele></ele><time>2020-3-13T17:48:10Z</time></trkpt>
<trkpt lat="48.19421656" lon="-4.25537824"><ele></ele><time>2020-3-13T17:48:13Z</time></trkpt>
<trkpt lat="48.19422326" lon="-4.25537489"><ele></ele><time>2020-3-13T17:48:16Z</time></trkpt>
<trkpt lat="48.19422829" lon="-4.25537321"><ele></ele><time>2020-3-13T17:48:19Z</time></trkpt>
<trkpt lat="48.19423483" lon="-4.25537489"><ele></ele><time>2020-3-13T17:48:22Z</time></trkpt>
<trkpt lat="48.19424154" lon="-4.25537824"><ele></ele><time>2020-3-13T17:48:25Z</time></trkpt>
<trkpt lat="48.19425160" lon="-4.25538495"><ele></ele><time>2020-3-13T17:48:28Z</time></trkpt>
<trkpt lat="48.19426165" lon="-4.25538830"><ele></ele><time>2020-3-13T17:48:31Z</time></trkpt>
<trkpt lat="48.19427322" lon="-4.25539316"><ele></ele><time>2020-3-13T17:48:34Z</time></trkpt>
<trkpt lat="48.19427993" lon="-4.25539484"><ele></ele><time>2020-3-13T17:48:37Z</time></trkpt>
<trkpt lat="48.19428831" lon="-4.25539651"><ele></ele><time>2020-3-13T17:48:40Z</time></trkpt>
<trkpt lat="48.19429820" lon="-4.25539987"><ele></ele><time>2020-3-13T17:48:43Z</time></trkpt>
<trkpt lat="48.19430993" lon="-4.25540825"><ele></ele><time>2020-3-13T17:48:46Z</time></trkpt>
<trkpt lat="48.19431664" lon="-4.25542166"><ele></ele><time>2020-3-13T17:48:49Z</time></trkpt>
<trkpt lat="48.19432653" lon="-4.25543826"><ele></ele><time>2020-3-13T17:48:52Z</time></trkpt>
<trkpt lat="48.19433826" lon="-4.25544831"><ele></ele><time>2020-3-13T17:48:55Z</time></trkpt>
<trkpt lat="48.19442326" lon="-4.25552660"><ele></ele><time>2020-3-13T17:48:58Z</time></trkpt>
<trkpt lat="48.19443332" lon="-4.25553984"><ele></ele><time>2020-3-13T17:49:1Z</time></trkpt>
<trkpt lat="48.19445997" lon="-4.25557153"><ele></ele><time>2020-3-13T17:49:4Z</time></trkpt>
<trkpt lat="48.19446818" lon="-4.25558159"><ele></ele><time>2020-3-13T17:49:7Z</time></trkpt>
<trkpt lat="48.19448160" lon="-4.25558997"><ele></ele><time>2020-3-13T17:49:10Z</time></trkpt>
<trkpt lat="48.19455988" lon="-4.25565317"><ele></ele><time>2020-3-13T17:49:13Z</time></trkpt>
<trkpt lat="48.19461319" lon="-4.25570983"><ele></ele><time>2020-3-13T17:49:16Z</time></trkpt>
<trkpt lat="48.19462660" lon="-4.25572324"><ele></ele><time>2020-3-13T17:49:19Z</time></trkpt>
<trkpt lat="48.19464152" lon="-4.25573498"><ele></ele><time>2020-3-13T17:49:22Z</time></trkpt>
<trkpt lat="48.19471159" lon="-4.25578158"><ele></ele><time>2020-3-13T17:49:25Z</time></trkpt>
<trkpt lat="48.19477831" lon="-4.25583824"><ele></ele><time>2020-3-13T17:49:28Z</time></trkpt>
<trkpt lat="48.19482324" lon="-4.25588484"><ele></ele><time>2020-3-13T17:49:31Z</time></trkpt>
<trkpt lat="48.19484319" lon="-4.25589993"><ele></ele><time>2020-3-13T17:49:34Z</time></trkpt>
<trkpt lat="48.19485325" lon="-4.25590831"><ele></ele><time>2020-3-13T17:49:37Z</time></trkpt>
<trkpt lat="48.19488661" lon="-4.25593983"><ele></ele><time>2020-3-13T17:49:40Z</time></trkpt>
<trkpt lat="48.19490991" lon="-4.25596665"><ele></ele><time>2020-3-13T17:49:43Z</time></trkpt>
<trkpt lat="48.19492164" lon="-4.25597822"><ele></ele><time>2020-3-13T17:49:46Z</time></trkpt>
<trkpt lat="48.19496825" lon="-4.25601996"><ele></ele><time>2020-3-13T17:49:49Z</time></trkpt>
<trkpt lat="48.19498484" lon="-4.25603488"><ele></ele><time>2020-3-13T17:49:52Z</time></trkpt>
<trkpt lat="48.19499826" lon="-4.25603823"><ele></ele><time>2020-3-13T17:49:55Z</time></trkpt>
<trkpt lat="48.19501485" lon="-4.25604829"><ele></ele><time>2020-3-13T17:49:58Z</time></trkpt>
<trkpt lat="48.19504318" lon="-4.25606153"><ele></ele><time>2020-3-13T17:50:1Z</time></trkpt>
<trkpt lat="48.19505659" lon="-4.25607159"><ele></ele><time>2020-3-13T17:50:4Z</time></trkpt>
<trkpt lat="48.19506984" lon="-4.25608165"><ele></ele><time>2020-3-13T17:50:7Z</time></trkpt>
<trkpt lat="48.19509331" lon="-4.25609489"><ele></ele><time>2020-3-13T17:50:10Z</time></trkpt>
<trkpt lat="48.19510990" lon="-4.25610160"><ele></ele><time>2020-3-13T17:50:13Z</time></trkpt>
<trkpt lat="48.19512331" lon="-4.25611317"><ele></ele><time>2020-3-13T17:50:16Z</time></trkpt>
<trkpt lat="48.19513656" lon="-4.25611652"><ele></ele><time>2020-3-13T17:50:19Z</time></trkpt>
<trkpt lat="48.19514829" lon="-4.25611484"><ele></ele><time>2020-3-13T17:50:22Z</time></trkpt>
<trkpt lat="48.19520495" lon="-4.25610831"><ele></ele><time>2020-3-13T17:50:25Z</time></trkpt>
<trkpt lat="48.19521652" lon="-4.25611317"><ele></ele><time>2020-3-13T17:50:28Z</time></trkpt>
<trkpt lat="48.19522993" lon="-4.25611652"><ele></ele><time>2020-3-13T17:50:31Z</time></trkpt>
<trkpt lat="48.19525994" lon="-4.25612155"><ele></ele><time>2020-3-13T17:50:34Z</time></trkpt>
<trkpt lat="48.19528827" lon="-4.25613328"><ele></ele><time>2020-3-13T17:50:37Z</time></trkpt>
<trkpt lat="48.19539321" lon="-4.25616664"><ele></ele><time>2020-3-13T17:50:40Z</time></trkpt>
<trkpt lat="48.19540662" lon="-4.25616832"><ele></ele><time>2020-3-13T17:50:43Z</time></trkpt>
<trkpt lat="48.19541165" lon="-4.25617150"><ele></ele><time>2020-3-13T17:50:46Z</time></trkpt>
<trkpt lat="48.19542322" lon="-4.25617486"><ele></ele><time>2020-3-13T17:50:49Z</time></trkpt>
<trkpt lat="48.19548491" lon="-4.25618827"><ele></ele><time>2020-3-13T17:50:52Z</time></trkpt>
<trkpt lat="48.19549664" lon="-4.25619162"><ele></ele><time>2020-3-13T17:50:55Z</time></trkpt>
<trkpt lat="48.19550486" lon="-4.25619162"><ele></ele><time>2020-3-13T17:50:58Z</time></trkpt>
<trkpt lat="48.19551492" lon="-4.25619162"><ele></ele><time>2020-3-13T17:51:1Z</time></trkpt>
<trkpt lat="48.19552833" lon="-4.25618827"><ele></ele><time>2020-3-13T17:51:4Z</time></trkpt>
<trkpt lat="48.19554325" lon="-4.25618994"><ele></ele><time>2020-3-13T17:51:7Z</time></trkpt>
<trkpt lat="48.19557325" lon="-4.25619497"><ele></ele><time>2020-3-13T17:51:10Z</time></trkpt>
<trkpt lat="48.19558331" lon="-4.25620319"><ele></ele><time>2020-3-13T17:51:13Z</time></trkpt>
<trkpt lat="48.19559153" lon="-4.25620989"><ele></ele><time>2020-3-13T17:51:16Z</time></trkpt>
<trkpt lat="48.19566998" lon="-4.25627326"><ele></ele><time>2020-3-13T17:51:19Z</time></trkpt>
<trkpt lat="48.19567987" lon="-4.25627661"><ele></ele><time>2020-3-13T17:51:22Z</time></trkpt>
<trkpt lat="48.19569161" lon="-4.25627997"><ele></ele><time>2020-3-13T17:51:25Z</time></trkpt>
<trkpt lat="48.19570988" lon="-4.25628818"><ele></ele><time>2020-3-13T17:51:28Z</time></trkpt>
<trkpt lat="48.19572161" lon="-4.25629824"><ele></ele><time>2020-3-13T17:51:31Z</time></trkpt>
<trkpt lat="48.19572664" lon="-4.25630662"><ele></ele><time>2020-3-13T17:51:34Z</time></trkpt>
<trkpt lat="48.19573653" lon="-4.25631484"><ele></ele><time>2020-3-13T17:51:37Z</time></trkpt>
<trkpt lat="48.19574492" lon="-4.25632657"><ele></ele><time>2020-3-13T17:51:40Z</time></trkpt>
<trkpt lat="48.19575497" lon="-4.25632992"><ele></ele><time>2020-3-13T17:51:43Z</time></trkpt>
<trkpt lat="48.19577157" lon="-4.25634317"><ele></ele><time>2020-3-13T17:51:46Z</time></trkpt>
<trkpt lat="48.19578498" lon="-4.25635490"><ele></ele><time>2020-3-13T17:51:49Z</time></trkpt>
<trkpt lat="48.19579152" lon="-4.25637485"><ele></ele><time>2020-3-13T17:51:52Z</time></trkpt>
<trkpt lat="48.19579152" lon="-4.25639161"><ele></ele><time>2020-3-13T17:51:55Z</time></trkpt>
<trkpt lat="48.19579152" lon="-4.25641994"><ele></ele><time>2020-3-13T17:51:58Z</time></trkpt>
<trkpt lat="48.19579487" lon="-4.25644995"><ele></ele><time>2020-3-13T17:52:1Z</time></trkpt>
<trkpt lat="48.19581164" lon="-4.25644828"><ele></ele><time>2020-3-13T17:52:4Z</time></trkpt>
<trkpt lat="48.19582823" lon="-4.25644492"><ele></ele><time>2020-3-13T17:52:7Z</time></trkpt>
<trkpt lat="48.19583829" lon="-4.25644828"><ele></ele><time>2020-3-13T17:52:10Z</time></trkpt>
<trkpt lat="48.19584650" lon="-4.25645817"><ele></ele><time>2020-3-13T17:52:13Z</time></trkpt>
<trkpt lat="48.19585153" lon="-4.25647325"><ele></ele><time>2020-3-13T17:52:16Z</time></trkpt>
<trkpt lat="48.19586494" lon="-4.25648499"><ele></ele><time>2020-3-13T17:52:19Z</time></trkpt>
<trkpt lat="48.19587986" lon="-4.25649320"><ele></ele><time>2020-3-13T17:52:22Z</time></trkpt>
<trkpt lat="48.19589160" lon="-4.25650661"><ele></ele><time>2020-3-13T17:52:25Z</time></trkpt>
<trkpt lat="48.19590317" lon="-4.25651986"><ele></ele><time>2020-3-13T17:52:28Z</time></trkpt>
<trkpt lat="48.19591490" lon="-4.25653494"><ele></ele><time>2020-3-13T17:52:31Z</time></trkpt>
<trkpt lat="48.19592664" lon="-4.25655322"><ele></ele><time>2020-3-13T17:52:34Z</time></trkpt>
<trkpt lat="48.19593820" lon="-4.25656830"><ele></ele><time>2020-3-13T17:52:37Z</time></trkpt>
<trkpt lat="48.19608991" lon="-4.25673997"><ele></ele><time>2020-3-13T17:52:40Z</time></trkpt>
<trkpt lat="48.19615328" lon="-4.25681658"><ele></ele><time>2020-3-13T17:52:43Z</time></trkpt>
<trkpt lat="48.19616485" lon="-4.25683820"><ele></ele><time>2020-3-13T17:52:46Z</time></trkpt>
<trkpt lat="48.19618999" lon="-4.25689654"><ele></ele><time>2020-3-13T17:52:49Z</time></trkpt>
<trkpt lat="48.19626996" lon="-4.25710156"><ele></ele><time>2020-3-13T17:52:52Z</time></trkpt>
<trkpt lat="48.19644330" lon="-4.25748830"><ele></ele><time>2020-3-13T17:52:55Z</time></trkpt>
<trkpt lat="48.19655159" lon="-4.25771998"><ele></ele><time>2020-3-13T17:52:58Z</time></trkpt>
<trkpt lat="48.19657489" lon="-4.25776993"><ele></ele><time>2020-3-13T17:53:1Z</time></trkpt>
<trkpt lat="48.19658663" lon="-4.25779826"><ele></ele><time>2020-3-13T17:53:4Z</time></trkpt>
<trkpt lat="48.19679483" lon="-4.25820160"><ele></ele><time>2020-3-13T17:53:7Z</time></trkpt>
<trkpt lat="48.19688485" lon="-4.25830822"><ele></ele><time>2020-3-13T17:53:10Z</time></trkpt>
<trkpt lat="48.19699164" lon="-4.25840662"><ele></ele><time>2020-3-13T17:53:13Z</time></trkpt>
<trkpt lat="48.19701997" lon="-4.25842490"><ele></ele><time>2020-3-13T17:53:16Z</time></trkpt>
<trkpt lat="48.19710496" lon="-4.25849497"><ele></ele><time>2020-3-13T17:53:19Z</time></trkpt>
<trkpt lat="48.19736832" lon="-4.25875497"><ele></ele><time>2020-3-13T17:53:22Z</time></trkpt>
<trkpt lat="48.19739162" lon="-4.25878498"><ele></ele><time>2020-3-13T17:53:25Z</time></trkpt>
<trkpt lat="48.19741325" lon="-4.25881817"><ele></ele><time>2020-3-13T17:53:28Z</time></trkpt>
<trkpt lat="48.19744996" lon="-4.25889495"><ele></ele><time>2020-3-13T17:53:31Z</time></trkpt>
<trkpt lat="48.19745650" lon="-4.25893988"><ele></ele><time>2020-3-13T17:53:34Z</time></trkpt>
<trkpt lat="48.19745332" lon="-4.25899151"><ele></ele><time>2020-3-13T17:53:37Z</time></trkpt>
<trkpt lat="48.19743823" lon="-4.25903661"><ele></ele><time>2020-3-13T17:53:40Z</time></trkpt>
<trkpt lat="48.19741660" lon="-4.25908153"><ele></ele><time>2020-3-13T17:53:43Z</time></trkpt>
<trkpt lat="48.19701997" lon="-4.25999499"><ele></ele><time>2020-3-13T17:53:46Z</time></trkpt>
<trkpt lat="48.19699985" lon="-4.26008820"><ele></ele><time>2020-3-13T17:53:49Z</time></trkpt>
<trkpt lat="48.19693330" lon="-4.26049824"><ele></ele><time>2020-3-13T17:53:52Z</time></trkpt>
<trkpt lat="48.19692324" lon="-4.26060654"><ele></ele><time>2020-3-13T17:53:55Z</time></trkpt>
<trkpt lat="48.19692660" lon="-4.26083151"><ele></ele><time>2020-3-13T17:53:58Z</time></trkpt>
<trkpt lat="48.19706825" lon="-4.26286999"><ele></ele><time>2020-3-13T17:54:1Z</time></trkpt>
<trkpt lat="48.19709658" lon="-4.26295816"><ele></ele><time>2020-3-13T17:54:4Z</time></trkpt>
<trkpt lat="48.19713162" lon="-4.26303829"><ele></ele><time>2020-3-13T17:54:7Z</time></trkpt>
<trkpt lat="48.19721829" lon="-4.26317827"><ele></ele><time>2020-3-13T17:54:10Z</time></trkpt>
<trkpt lat="48.19727160" lon="-4.26322823"><ele></ele><time>2020-3-13T17:54:13Z</time></trkpt>
<trkpt lat="48.19732826" lon="-4.26326159"><ele></ele><time>2020-3-13T17:54:16Z</time></trkpt>
<trkpt lat="48.19742666" lon="-4.26328992"><ele></ele><time>2020-3-13T17:54:19Z</time></trkpt>
<trkpt lat="48.19805983" lon="-4.26349494"><ele></ele><time>2020-3-13T17:54:22Z</time></trkpt>
<trkpt lat="48.19818489" lon="-4.26354657"><ele></ele><time>2020-3-13T17:54:25Z</time></trkpt>
<trkpt lat="48.19826820" lon="-4.26358832"><ele></ele><time>2020-3-13T17:54:28Z</time></trkpt>
<trkpt lat="48.19828329" lon="-4.26360156"><ele></ele><time>2020-3-13T17:54:31Z</time></trkpt>
<trkpt lat="48.19829989" lon="-4.26360994"><ele></ele><time>2020-3-13T17:54:34Z</time></trkpt>
<trkpt lat="48.19831497" lon="-4.26361497"><ele></ele><time>2020-3-13T17:54:37Z</time></trkpt>
<trkpt lat="48.19833157" lon="-4.26361832"><ele></ele><time>2020-3-13T17:54:40Z</time></trkpt>
<trkpt lat="48.19834666" lon="-4.26361665"><ele></ele><time>2020-3-13T17:54:43Z</time></trkpt>
<trkpt lat="48.19836158" lon="-4.26361162"><ele></ele><time>2020-3-13T17:54:46Z</time></trkpt>
<trkpt lat="48.19838823" lon="-4.26360659"><ele></ele><time>2020-3-13T17:54:49Z</time></trkpt>
<trkpt lat="48.19839829" lon="-4.26361162"><ele></ele><time>2020-3-13T17:54:52Z</time></trkpt>
<trkpt lat="48.19840164" lon="-4.26361665"><ele></ele><time>2020-3-13T17:54:55Z</time></trkpt>
<trkpt lat="48.19840164" lon="-4.26361983"><ele></ele><time>2020-3-13T17:54:58Z</time></trkpt>
<trkpt lat="48.19840164" lon="-4.26361983"><ele></ele><time>2020-3-13T17:55:1Z</time></trkpt>
<trkpt lat="48.19840332" lon="-4.26361832"><ele></ele><time>2020-3-13T17:55:4Z</time></trkpt>
<trkpt lat="48.19840332" lon="-4.26361497"><ele></ele><time>2020-3-13T17:55:7Z</time></trkpt>
<trkpt lat="48.19840483" lon="-4.26361497"><ele></ele><time>2020-3-13T17:55:10Z</time></trkpt>
<trkpt lat="48.19840164" lon="-4.26361497"><ele></ele><time>2020-3-13T17:55:13Z</time></trkpt>
<trkpt lat="48.19839829" lon="-4.26361497"><ele></ele><time>2020-3-13T17:55:16Z</time></trkpt>
<trkpt lat="48.19839661" lon="-4.26361329"><ele></ele><time>2020-3-13T17:55:19Z</time></trkpt>
<trkpt lat="48.19839326" lon="-4.26360994"><ele></ele><time>2020-3-13T17:55:22Z</time></trkpt>
<trkpt lat="48.19839494" lon="-4.26361329"><ele></ele><time>2020-3-13T17:55:25Z</time></trkpt>
<trkpt lat="48.19839661" lon="-4.26361665"><ele></ele><time>2020-3-13T17:55:28Z</time></trkpt>
<trkpt lat="48.19839661" lon="-4.26361832"><ele></ele><time>2020-3-13T17:55:31Z</time></trkpt>
<trkpt lat="48.19839494" lon="-4.26361665"><ele></ele><time>2020-3-13T17:55:34Z</time></trkpt>
<trkpt lat="48.19839326" lon="-4.26361665"><ele></ele><time>2020-3-13T17:55:37Z</time></trkpt>
<trkpt lat="48.19839159" lon="-4.26361665"><ele></ele><time>2020-3-13T17:55:40Z</time></trkpt>
<trkpt lat="48.19839159" lon="-4.26361665"><ele></ele><time>2020-3-13T17:55:43Z</time></trkpt>
<trkpt lat="48.19839159" lon="-4.26361832"><ele></ele><time>2020-3-13T17:55:46Z</time></trkpt>
<trkpt lat="48.19839159" lon="-4.26361983"><ele></ele><time>2020-3-13T17:55:49Z</time></trkpt>
<trkpt lat="48.19839159" lon="-4.26362151"><ele></ele><time>2020-3-13T17:55:52Z</time></trkpt>
<trkpt lat="48.19839494" lon="-4.26362318"><ele></ele><time>2020-3-13T17:55:55Z</time></trkpt>
<trkpt lat="48.19839661" lon="-4.26362654"><ele></ele><time>2020-3-13T17:55:58Z</time></trkpt>
<trkpt lat="48.19839661" lon="-4.26362821"><ele></ele><time>2020-3-13T17:56:1Z</time></trkpt>
<trkpt lat="48.19839661" lon="-4.26362989"><ele></ele><time>2020-3-13T17:56:4Z</time></trkpt>
<trkpt lat="48.19839661" lon="-4.26362989"><ele></ele><time>2020-3-13T17:56:7Z</time></trkpt>
<trkpt lat="48.19839829" lon="-4.26363324"><ele></ele><time>2020-3-13T17:56:10Z</time></trkpt>
<trkpt lat="48.19839997" lon="-4.26363492"><ele></ele><time>2020-3-13T17:56:13Z</time></trkpt>
<trkpt lat="48.19840164" lon="-4.26363827"><ele></ele><time>2020-3-13T17:56:16Z</time></trkpt>
<trkpt lat="48.19840164" lon="-4.26363995"><ele></ele><time>2020-3-13T17:56:19Z</time></trkpt>
<trkpt lat="48.19840164" lon="-4.26364162"><ele></ele><time>2020-3-13T17:56:22Z</time></trkpt>
<trkpt lat="48.19840164" lon="-4.26364330"><ele></ele><time>2020-3-13T17:56:25Z</time></trkpt>
<trkpt lat="48.19840332" lon="-4.26364330"><ele></ele><time>2020-3-13T17:56:28Z</time></trkpt>
<trkpt lat="48.19840164" lon="-4.26364498"><ele></ele><time>2020-3-13T17:56:31Z</time></trkpt>
<trkpt lat="48.19840164" lon="-4.26364665"><ele></ele><time>2020-3-13T17:56:34Z</time></trkpt>
<trkpt lat="48.19840164" lon="-4.26364665"><ele></ele><time>2020-3-13T17:56:37Z</time></trkpt>
<trkpt lat="48.19839997" lon="-4.26364665"><ele></ele><time>2020-3-13T17:56:40Z</time></trkpt>
<trkpt lat="48.19839997" lon="-4.26364816"><ele></ele><time>2020-3-13T17:56:43Z</time></trkpt>
<trkpt lat="48.19840164" lon="-4.26364984"><ele></ele><time>2020-3-13T17:56:46Z</time></trkpt>
<trkpt lat="48.19840164" lon="-4.26364984"><ele></ele><time>2020-3-13T17:56:49Z</time></trkpt>
<trkpt lat="48.19839997" lon="-4.26364816"><ele></ele><time>2020-3-13T17:56:52Z</time></trkpt>
<trkpt lat="48.19839661" lon="-4.26364816"><ele></ele><time>2020-3-13T17:56:55Z</time></trkpt>
<trkpt lat="48.19839829" lon="-4.26364984"><ele></ele><time>2020-3-13T17:56:58Z</time></trkpt>
<trkpt lat="48.19839829" lon="-4.26365152"><ele></ele><time>2020-3-13T17:57:1Z</time></trkpt>
<trkpt lat="48.19839829" lon="-4.26365152"><ele></ele><time>2020-3-13T17:57:4Z</time></trkpt>
<trkpt lat="48.19839661" lon="-4.26364816"><ele></ele><time>2020-3-13T17:57:7Z</time></trkpt>
<trkpt lat="48.19839494" lon="-4.26364498"><ele></ele><time>2020-3-13T17:57:10Z</time></trkpt>
<trkpt lat="48.19839326" lon="-4.26364330"><ele></ele><time>2020-3-13T17:57:13Z</time></trkpt>
<trkpt lat="48.19839829" lon="-4.26363324"><ele></ele><time>2020-3-13T17:57:16Z</time></trkpt>
<trkpt lat="48.19841824" lon="-4.26361162"><ele></ele><time>2020-3-13T17:57:19Z</time></trkpt>
<trkpt lat="48.19842830" lon="-4.26359318"><ele></ele><time>2020-3-13T17:57:22Z</time></trkpt>
<trkpt lat="48.19847323" lon="-4.26349829"><ele></ele><time>2020-3-13T17:57:25Z</time></trkpt>
<trkpt lat="48.19850491" lon="-4.26340492"><ele></ele><time>2020-3-13T17:57:28Z</time></trkpt>
<trkpt lat="48.19851832" lon="-4.26337491"><ele></ele><time>2020-3-13T17:57:31Z</time></trkpt>
<trkpt lat="48.19857163" lon="-4.26322320"><ele></ele><time>2020-3-13T17:57:34Z</time></trkpt>
<trkpt lat="48.19858152" lon="-4.26319655"><ele></ele><time>2020-3-13T17:57:37Z</time></trkpt>
<trkpt lat="48.19864992" lon="-4.26303829"><ele></ele><time>2020-3-13T17:57:40Z</time></trkpt>
<trkpt lat="48.19876492" lon="-4.26281986"><ele></ele><time>2020-3-13T17:57:43Z</time></trkpt>
<trkpt lat="48.19886986" lon="-4.26264652"><ele></ele><time>2020-3-13T17:57:46Z</time></trkpt>
<trkpt lat="48.19890489" lon="-4.26259489"><ele></ele><time>2020-3-13T17:57:49Z</time></trkpt>
<trkpt lat="48.19896491" lon="-4.26250822"><ele></ele><time>2020-3-13T17:57:52Z</time></trkpt>
<trkpt lat="48.19897664" lon="-4.26249330"><ele></ele><time>2020-3-13T17:57:55Z</time></trkpt>
<trkpt lat="48.19898821" lon="-4.26248325"><ele></ele><time>2020-3-13T17:57:58Z</time></trkpt>
<trkpt lat="48.19899994" lon="-4.26248325"><ele></ele><time>2020-3-13T17:58:1Z</time></trkpt>
<trkpt lat="48.19901486" lon="-4.26249498"><ele></ele><time>2020-3-13T17:58:4Z</time></trkpt>
<trkpt lat="48.19903163" lon="-4.26251661"><ele></ele><time>2020-3-13T17:58:7Z</time></trkpt>
<trkpt lat="48.19907320" lon="-4.26255818"><ele></ele><time>2020-3-13T17:58:10Z</time></trkpt>
<trkpt lat="48.19908997" lon="-4.26256824"><ele></ele><time>2020-3-13T17:58:13Z</time></trkpt>
<trkpt lat="48.19997157" lon="-4.26312999"><ele></ele><time>2020-3-13T17:58:16Z</time></trkpt>
<trkpt lat="48.19999488" lon="-4.26314659"><ele></ele><time>2020-3-13T17:58:19Z</time></trkpt>
<trkpt lat="48.20060491" lon="-4.26354490"><ele></ele><time>2020-3-13T17:58:22Z</time></trkpt>
<trkpt lat="48.20061832" lon="-4.26353652"><ele></ele><time>2020-3-13T17:58:25Z</time></trkpt>
<trkpt lat="48.20062989" lon="-4.26351321"><ele></ele><time>2020-3-13T17:58:28Z</time></trkpt>
<trkpt lat="48.20119332" lon="-4.26239322"><ele></ele><time>2020-3-13T17:58:31Z</time></trkpt>
<trkpt lat="48.20119483" lon="-4.26238484"><ele></ele><time>2020-3-13T17:58:34Z</time></trkpt>
<trkpt lat="48.20120489" lon="-4.26225157"><ele></ele><time>2020-3-13T17:58:37Z</time></trkpt>
<trkpt lat="48.20120489" lon="-4.26221821"><ele></ele><time>2020-3-13T17:58:40Z</time></trkpt>
<trkpt lat="48.20119651" lon="-4.26207991"><ele></ele><time>2020-3-13T17:58:43Z</time></trkpt>
<trkpt lat="48.20115493" lon="-4.26176659"><ele></ele><time>2020-3-13T17:58:46Z</time></trkpt>
<trkpt lat="48.20113666" lon="-4.26170155"><ele></ele><time>2020-3-13T17:58:49Z</time></trkpt>
<trkpt lat="48.20111989" lon="-4.26167992"><ele></ele><time>2020-3-13T17:58:52Z</time></trkpt>
<trkpt lat="48.20109827" lon="-4.26166484"><ele></ele><time>2020-3-13T17:58:55Z</time></trkpt>
<trkpt lat="48.20105150" lon="-4.26162494"><ele></ele><time>2020-3-13T17:58:58Z</time></trkpt>
<trkpt lat="48.20104161" lon="-4.26159158"><ele></ele><time>2020-3-13T17:59:1Z</time></trkpt>
<trkpt lat="48.20103826" lon="-4.26155822"><ele></ele><time>2020-3-13T17:59:4Z</time></trkpt>
<trkpt lat="48.20103826" lon="-4.26152151"><ele></ele><time>2020-3-13T17:59:7Z</time></trkpt>
<trkpt lat="48.20104328" lon="-4.26148664"><ele></ele><time>2020-3-13T17:59:10Z</time></trkpt>
<trkpt lat="48.20111989" lon="-4.26087493"><ele></ele><time>2020-3-13T17:59:13Z</time></trkpt>
<trkpt lat="48.20112660" lon="-4.26085816"><ele></ele><time>2020-3-13T17:59:16Z</time></trkpt>
<trkpt lat="48.20114823" lon="-4.26082162"><ele></ele><time>2020-3-13T17:59:19Z</time></trkpt>
<trkpt lat="48.20116331" lon="-4.26080318"><ele></ele><time>2020-3-13T17:59:22Z</time></trkpt>
<trkpt lat="48.20117823" lon="-4.26078993"><ele></ele><time>2020-3-13T17:59:25Z</time></trkpt>
<trkpt lat="48.20128485" lon="-4.26069488"><ele></ele><time>2020-3-13T17:59:28Z</time></trkpt>
<trkpt lat="48.20129491" lon="-4.26067493"><ele></ele><time>2020-3-13T17:59:31Z</time></trkpt>
<trkpt lat="48.20129826" lon="-4.26065666"><ele></ele><time>2020-3-13T17:59:34Z</time></trkpt>
<trkpt lat="48.20129994" lon="-4.26064660"><ele></ele><time>2020-3-13T17:59:37Z</time></trkpt>
<trkpt lat="48.20130161" lon="-4.26063990"><ele></ele><time>2020-3-13T17:59:40Z</time></trkpt>
<trkpt lat="48.20130497" lon="-4.26063990"><ele></ele><time>2020-3-13T17:59:43Z</time></trkpt>
<trkpt lat="48.20130832" lon="-4.26063822"><ele></ele><time>2020-3-13T17:59:46Z</time></trkpt>
<trkpt lat="48.20130983" lon="-4.26063822"><ele></ele><time>2020-3-13T17:59:49Z</time></trkpt>
<trkpt lat="48.20131151" lon="-4.26063822"><ele></ele><time>2020-3-13T17:59:52Z</time></trkpt>
<trkpt lat="48.20131151" lon="-4.26063654"><ele></ele><time>2020-3-13T17:59:55Z</time></trkpt>
<trkpt lat="48.20131151" lon="-4.26063654"><ele></ele><time>2020-3-13T17:59:58Z</time></trkpt>
<trkpt lat="48.20131318" lon="-4.26063654"><ele></ele><time>2020-3-13T18:0:1Z</time></trkpt>
<trkpt lat="48.20131486" lon="-4.26063487"><ele></ele><time>2020-3-13T18:0:4Z</time></trkpt>
<trkpt lat="48.20131486" lon="-4.26063487"><ele></ele><time>2020-3-13T18:0:7Z</time></trkpt>
<trkpt lat="48.20131821" lon="-4.26063152"><ele></ele><time>2020-3-13T18:0:10Z</time></trkpt>
<trkpt lat="48.20132324" lon="-4.26062498"><ele></ele><time>2020-3-13T18:0:13Z</time></trkpt>
<trkpt lat="48.20132492" lon="-4.26062330"><ele></ele><time>2020-3-13T18:0:16Z</time></trkpt>
<trkpt lat="48.20132492" lon="-4.26062162"><ele></ele><time>2020-3-13T18:0:19Z</time></trkpt>
<trkpt lat="48.20132659" lon="-4.26062162"><ele></ele><time>2020-3-13T18:0:22Z</time></trkpt>
<trkpt lat="48.20132659" lon="-4.26062330"><ele></ele><time>2020-3-13T18:0:25Z</time></trkpt>
<trkpt lat="48.20132659" lon="-4.26062498"><ele></ele><time>2020-3-13T18:0:28Z</time></trkpt>
<trkpt lat="48.20132659" lon="-4.26062665"><ele></ele><time>2020-3-13T18:0:31Z</time></trkpt>
<trkpt lat="48.20132827" lon="-4.26062665"><ele></ele><time>2020-3-13T18:0:34Z</time></trkpt>
<trkpt lat="48.20132827" lon="-4.26062665"><ele></ele><time>2020-3-13T18:0:37Z</time></trkpt>
<trkpt lat="48.20132995" lon="-4.26062665"><ele></ele><time>2020-3-13T18:0:40Z</time></trkpt>
<trkpt lat="48.20133162" lon="-4.26062816"><ele></ele><time>2020-3-13T18:0:43Z</time></trkpt>
<trkpt lat="48.20133330" lon="-4.26062984"><ele></ele><time>2020-3-13T18:0:46Z</time></trkpt>
<trkpt lat="48.20133665" lon="-4.26062984"><ele></ele><time>2020-3-13T18:0:49Z</time></trkpt>
<trkpt lat="48.20133497" lon="-4.26063152"><ele></ele><time>2020-3-13T18:0:52Z</time></trkpt>
<trkpt lat="48.20133984" lon="-4.26062984"><ele></ele><time>2020-3-13T18:0:55Z</time></trkpt>
<trkpt lat="48.20133833" lon="-4.26063152"><ele></ele><time>2020-3-13T18:0:58Z</time></trkpt>
<trkpt lat="48.20133833" lon="-4.26063152"><ele></ele><time>2020-3-13T18:1:1Z</time></trkpt>
<trkpt lat="48.20134151" lon="-4.26063319"><ele></ele><time>2020-3-13T18:1:4Z</time></trkpt>
<trkpt lat="48.20134487" lon="-4.26063152"><ele></ele><time>2020-3-13T18:1:7Z</time></trkpt>
<trkpt lat="48.20134487" lon="-4.26062984"><ele></ele><time>2020-3-13T18:1:10Z</time></trkpt>
<trkpt lat="48.20134487" lon="-4.26063319"><ele></ele><time>2020-3-13T18:1:13Z</time></trkpt>
<trkpt lat="48.20134487" lon="-4.26063654"><ele></ele><time>2020-3-13T18:1:16Z</time></trkpt>
<trkpt lat="48.20134487" lon="-4.26063990"><ele></ele><time>2020-3-13T18:1:19Z</time></trkpt>
<trkpt lat="48.20134487" lon="-4.26063990"><ele></ele><time>2020-3-13T18:1:22Z</time></trkpt>
<trkpt lat="48.20134319" lon="-4.26063822"><ele></ele><time>2020-3-13T18:1:25Z</time></trkpt>
<trkpt lat="48.20133984" lon="-4.26062984"><ele></ele><time>2020-3-13T18:1:28Z</time></trkpt>
<trkpt lat="48.20132995" lon="-4.26059832"><ele></ele><time>2020-3-13T18:1:31Z</time></trkpt>
<trkpt lat="48.20133162" lon="-4.26057821"><ele></ele><time>2020-3-13T18:1:34Z</time></trkpt>
<trkpt lat="48.20134319" lon="-4.26055658"><ele></ele><time>2020-3-13T18:1:37Z</time></trkpt>
<trkpt lat="48.20135995" lon="-4.26053496"><ele></ele><time>2020-3-13T18:1:40Z</time></trkpt>
<trkpt lat="48.20137990" lon="-4.26051316"><ele></ele><time>2020-3-13T18:1:43Z</time></trkpt>
<trkpt lat="48.20140153" lon="-4.26049321"><ele></ele><time>2020-3-13T18:1:46Z</time></trkpt>
<trkpt lat="48.20144494" lon="-4.26045499"><ele></ele><time>2020-3-13T18:1:49Z</time></trkpt>
<trkpt lat="48.20315485" lon="-4.25897156"><ele></ele><time>2020-3-13T18:1:52Z</time></trkpt>
<trkpt lat="48.20317329" lon="-4.25894659"><ele></ele><time>2020-3-13T18:1:55Z</time></trkpt>
<trkpt lat="48.20329986" lon="-4.25875665"><ele></ele><time>2020-3-13T18:1:58Z</time></trkpt>
<trkpt lat="48.20341821" lon="-4.25853654"><ele></ele><time>2020-3-13T18:2:1Z</time></trkpt>
<trkpt lat="48.20348158" lon="-4.25839321"><ele></ele><time>2020-3-13T18:2:4Z</time></trkpt>
<trkpt lat="48.20354495" lon="-4.25822155"><ele></ele><time>2020-3-13T18:2:7Z</time></trkpt>
<trkpt lat="48.20362491" lon="-4.25796490"><ele></ele><time>2020-3-13T18:2:10Z</time></trkpt>
<trkpt lat="48.20364318" lon="-4.25794830"><ele></ele><time>2020-3-13T18:2:13Z</time></trkpt>
<trkpt lat="48.20366498" lon="-4.25794998"><ele></ele><time>2020-3-13T18:2:16Z</time></trkpt>
<trkpt lat="48.20368492" lon="-4.25797663"><ele></ele><time>2020-3-13T18:2:19Z</time></trkpt>
<trkpt lat="48.20369984" lon="-4.25801653"><ele></ele><time>2020-3-13T18:2:22Z</time></trkpt>
<trkpt lat="48.20370655" lon="-4.25806498"><ele></ele><time>2020-3-13T18:2:25Z</time></trkpt>
<trkpt lat="48.20371158" lon="-4.25811661"><ele></ele><time>2020-3-13T18:2:28Z</time></trkpt>
<trkpt lat="48.20371158" lon="-4.25817327"><ele></ele><time>2020-3-13T18:2:31Z</time></trkpt>
<trkpt lat="48.20368660" lon="-4.25871994"><ele></ele><time>2020-3-13T18:2:34Z</time></trkpt>
<trkpt lat="48.20360664" lon="-4.26172150"><ele></ele><time>2020-3-13T18:2:37Z</time></trkpt>
<trkpt lat="48.20360999" lon="-4.26181990"><ele></ele><time>2020-3-13T18:2:40Z</time></trkpt>
<trkpt lat="48.20346666" lon="-4.26581153"><ele></ele><time>2020-3-13T18:2:43Z</time></trkpt>
<trkpt lat="48.20347990" lon="-4.26585998"><ele></ele><time>2020-3-13T18:2:46Z</time></trkpt>
<trkpt lat="48.20350823" lon="-4.26589317"><ele></ele><time>2020-3-13T18:2:49Z</time></trkpt>
<trkpt lat="48.20353824" lon="-4.26591161"><ele></ele><time>2020-3-13T18:2:52Z</time></trkpt>
<trkpt lat="48.20357328" lon="-4.26590658"><ele></ele><time>2020-3-13T18:2:55Z</time></trkpt>
<trkpt lat="48.20360831" lon="-4.26587322"><ele></ele><time>2020-3-13T18:2:58Z</time></trkpt>
<trkpt lat="48.20363329" lon="-4.26583483"><ele></ele><time>2020-3-13T18:3:1Z</time></trkpt>
<trkpt lat="48.20365827" lon="-4.26579996"><ele></ele><time>2020-3-13T18:3:4Z</time></trkpt>
<trkpt lat="48.20374997" lon="-4.26568832"><ele></ele><time>2020-3-13T18:3:7Z</time></trkpt>
<trkpt lat="48.20385659" lon="-4.26557650"><ele></ele><time>2020-3-13T18:3:10Z</time></trkpt>
<trkpt lat="48.20461163" lon="-4.26484828"><ele></ele><time>2020-3-13T18:3:13Z</time></trkpt>
<trkpt lat="48.20465153" lon="-4.26481828"><ele></ele><time>2020-3-13T18:3:16Z</time></trkpt>
<trkpt lat="48.20607829" lon="-4.26369158"><ele></ele><time>2020-3-13T18:3:19Z</time></trkpt>
<trkpt lat="48.20667827" lon="-4.26319655"><ele></ele><time>2020-3-13T18:3:22Z</time></trkpt>
<trkpt lat="48.20706987" lon="-4.26282824"><ele></ele><time>2020-3-13T18:3:25Z</time></trkpt>
<trkpt lat="48.20709485" lon="-4.26279824"><ele></ele><time>2020-3-13T18:3:28Z</time></trkpt>
<trkpt lat="48.20746332" lon="-4.26246162"><ele></ele><time>2020-3-13T18:3:31Z</time></trkpt>
<trkpt lat="48.20817662" lon="-4.26191160"><ele></ele><time>2020-3-13T18:3:34Z</time></trkpt>
<trkpt lat="48.20821652" lon="-4.26189484"><ele></ele><time>2020-3-13T18:3:37Z</time></trkpt>
<trkpt lat="48.20842657" lon="-4.26183650"><ele></ele><time>2020-3-13T18:3:40Z</time></trkpt>
<trkpt lat="48.20945486" lon="-4.26160650"><ele></ele><time>2020-3-13T18:3:43Z</time></trkpt>
<trkpt lat="48.20947330" lon="-4.26158990"><ele></ele><time>2020-3-13T18:3:46Z</time></trkpt>
<trkpt lat="48.20948487" lon="-4.26157666"><ele></ele><time>2020-3-13T18:3:49Z</time></trkpt>
<trkpt lat="48.20949157" lon="-4.26157163"><ele></ele><time>2020-3-13T18:3:52Z</time></trkpt>
<trkpt lat="48.20949325" lon="-4.26157498"><ele></ele><time>2020-3-13T18:3:55Z</time></trkpt>
<trkpt lat="48.20949325" lon="-4.26157817"><ele></ele><time>2020-3-13T18:3:58Z</time></trkpt>
<trkpt lat="48.20949157" lon="-4.26158152"><ele></ele><time>2020-3-13T18:4:1Z</time></trkpt>
<trkpt lat="48.20949157" lon="-4.26158320"><ele></ele><time>2020-3-13T18:4:4Z</time></trkpt>
<trkpt lat="48.20949157" lon="-4.26158655"><ele></ele><time>2020-3-13T18:4:7Z</time></trkpt>
<trkpt lat="48.20948990" lon="-4.26158990"><ele></ele><time>2020-3-13T18:4:10Z</time></trkpt>
<trkpt lat="48.20948990" lon="-4.26159158"><ele></ele><time>2020-3-13T18:4:13Z</time></trkpt>
<trkpt lat="48.20948822" lon="-4.26159493"><ele></ele><time>2020-3-13T18:4:16Z</time></trkpt>
<trkpt lat="48.20948654" lon="-4.26159661"><ele></ele><time>2020-3-13T18:4:19Z</time></trkpt>
<trkpt lat="48.20948487" lon="-4.26159828"><ele></ele><time>2020-3-13T18:4:22Z</time></trkpt>
<trkpt lat="48.20948487" lon="-4.26159996"><ele></ele><time>2020-3-13T18:4:25Z</time></trkpt>
<trkpt lat="48.20948487" lon="-4.26159996"><ele></ele><time>2020-3-13T18:4:28Z</time></trkpt>
<trkpt lat="48.20948487" lon="-4.26160164"><ele></ele><time>2020-3-13T18:4:31Z</time></trkpt>
<trkpt lat="48.20948487" lon="-4.26160331"><ele></ele><time>2020-3-13T18:4:34Z</time></trkpt>
<trkpt lat="48.20948654" lon="-4.26160331"><ele></ele><time>2020-3-13T18:4:37Z</time></trkpt>
<trkpt lat="48.20948654" lon="-4.26160499"><ele></ele><time>2020-3-13T18:4:40Z</time></trkpt>
<trkpt lat="48.20948654" lon="-4.26160499"><ele></ele><time>2020-3-13T18:4:43Z</time></trkpt>
<trkpt lat="48.20948654" lon="-4.26160650"><ele></ele><time>2020-3-13T18:4:46Z</time></trkpt>
<trkpt lat="48.20948654" lon="-4.26160499"><ele></ele><time>2020-3-13T18:4:49Z</time></trkpt>
<trkpt lat="48.20948822" lon="-4.26159996"><ele></ele><time>2020-3-13T18:4:52Z</time></trkpt>
<trkpt lat="48.20949492" lon="-4.26159661"><ele></ele><time>2020-3-13T18:4:55Z</time></trkpt>
<trkpt lat="48.20950331" lon="-4.26159996"><ele></ele><time>2020-3-13T18:4:58Z</time></trkpt>
<trkpt lat="48.20956818" lon="-4.26161991"><ele></ele><time>2020-3-13T18:5:1Z</time></trkpt>
<trkpt lat="48.20961160" lon="-4.26161488"><ele></ele><time>2020-3-13T18:5:4Z</time></trkpt>
<trkpt lat="48.20969659" lon="-4.26159158"><ele></ele><time>2020-3-13T18:5:7Z</time></trkpt>
<trkpt lat="48.21015827" lon="-4.26138991"><ele></ele><time>2020-3-13T18:5:10Z</time></trkpt>
<trkpt lat="48.21156157" lon="-4.26086487"><ele></ele><time>2020-3-13T18:5:13Z</time></trkpt>
<trkpt lat="48.21162158" lon="-4.26085498"><ele></ele><time>2020-3-13T18:5:16Z</time></trkpt>
<trkpt lat="48.21173323" lon="-4.26085330"><ele></ele><time>2020-3-13T18:5:19Z</time></trkpt>
<trkpt lat="48.21178486" lon="-4.26085816"><ele></ele><time>2020-3-13T18:5:22Z</time></trkpt>
<trkpt lat="48.21183331" lon="-4.26085665"><ele></ele><time>2020-3-13T18:5:25Z</time></trkpt>
<trkpt lat="48.21187656" lon="-4.26084324"><ele></ele><time>2020-3-13T18:5:28Z</time></trkpt>
<trkpt lat="48.21191160" lon="-4.26081994"><ele></ele><time>2020-3-13T18:5:31Z</time></trkpt>
<trkpt lat="48.21193490" lon="-4.26078490"><ele></ele><time>2020-3-13T18:5:34Z</time></trkpt>
<trkpt lat="48.21194831" lon="-4.26073998"><ele></ele><time>2020-3-13T18:5:37Z</time></trkpt>
<trkpt lat="48.21195652" lon="-4.26068332"><ele></ele><time>2020-3-13T18:5:40Z</time></trkpt>
<trkpt lat="48.21196155" lon="-4.26061324"><ele></ele><time>2020-3-13T18:5:43Z</time></trkpt>
<trkpt lat="48.21194998" lon="-4.26024829"><ele></ele><time>2020-3-13T18:5:46Z</time></trkpt>
<trkpt lat="48.21188494" lon="-4.25863998"><ele></ele><time>2020-3-13T18:5:49Z</time></trkpt>
<trkpt lat="48.21189818" lon="-4.25849497"><ele></ele><time>2020-3-13T18:5:52Z</time></trkpt>
<trkpt lat="48.21191998" lon="-4.25825659"><ele></ele><time>2020-3-13T18:5:55Z</time></trkpt>
<trkpt lat="48.21194496" lon="-4.25815332"><ele></ele><time>2020-3-13T18:5:58Z</time></trkpt>
<trkpt lat="48.21200162" lon="-4.25795819"><ele></ele><time>2020-3-13T18:6:1Z</time></trkpt>
<trkpt lat="48.21206666" lon="-4.25779826"><ele></ele><time>2020-3-13T18:6:4Z</time></trkpt>
<trkpt lat="48.21211159" lon="-4.25772165"><ele></ele><time>2020-3-13T18:6:7Z</time></trkpt>
<trkpt lat="48.21237662" lon="-4.25732653"><ele></ele><time>2020-3-13T18:6:10Z</time></trkpt>
<trkpt lat="48.21242658" lon="-4.25728160"><ele></ele><time>2020-3-13T18:6:13Z</time></trkpt>
<trkpt lat="48.21259656" lon="-4.25714984"><ele></ele><time>2020-3-13T18:6:16Z</time></trkpt>
<trkpt lat="48.21262490" lon="-4.25713827"><ele></ele><time>2020-3-13T18:6:19Z</time></trkpt>
<trkpt lat="48.21268156" lon="-4.25713660"><ele></ele><time>2020-3-13T18:6:22Z</time></trkpt>
<trkpt lat="48.21270989" lon="-4.25715319"><ele></ele><time>2020-3-13T18:6:25Z</time></trkpt>
<trkpt lat="48.21273822" lon="-4.25719158"><ele></ele><time>2020-3-13T18:6:28Z</time></trkpt>
<trkpt lat="48.21277325" lon="-4.25724154"><ele></ele><time>2020-3-13T18:6:31Z</time></trkpt>
<trkpt lat="48.21296822" lon="-4.25749987"><ele></ele><time>2020-3-13T18:6:34Z</time></trkpt>
<trkpt lat="48.21302823" lon="-4.25753826"><ele></ele><time>2020-3-13T18:6:37Z</time></trkpt>
<trkpt lat="48.21308657" lon="-4.25756659"><ele></ele><time>2020-3-13T18:6:40Z</time></trkpt>
<trkpt lat="48.21315832" lon="-4.25758318"><ele></ele><time>2020-3-13T18:6:43Z</time></trkpt>
<trkpt lat="48.21368152" lon="-4.25761822"><ele></ele><time>2020-3-13T18:6:46Z</time></trkpt>
<trkpt lat="48.21376333" lon="-4.25760984"><ele></ele><time>2020-3-13T18:6:49Z</time></trkpt>
<trkpt lat="48.21392493" lon="-4.25756659"><ele></ele><time>2020-3-13T18:6:52Z</time></trkpt>
<trkpt lat="48.21399986" lon="-4.25753155"><ele></ele><time>2020-3-13T18:6:55Z</time></trkpt>
<trkpt lat="48.21414152" lon="-4.25743164"><ele></ele><time>2020-3-13T18:6:58Z</time></trkpt>
<trkpt lat="48.21420656" lon="-4.25736827"><ele></ele><time>2020-3-13T18:7:1Z</time></trkpt>
<trkpt lat="48.21432659" lon="-4.25722159"><ele></ele><time>2020-3-13T18:7:4Z</time></trkpt>
<trkpt lat="48.21470662" lon="-4.25668498"><ele></ele><time>2020-3-13T18:7:7Z</time></trkpt>
<trkpt lat="48.21477485" lon="-4.25663653"><ele></ele><time>2020-3-13T18:7:10Z</time></trkpt>
<trkpt lat="48.21485163" lon="-4.25660820"><ele></ele><time>2020-3-13T18:7:13Z</time></trkpt>
<trkpt lat="48.21492992" lon="-4.25659328"><ele></ele><time>2020-3-13T18:7:16Z</time></trkpt>
<trkpt lat="48.21500821" lon="-4.25659496"><ele></ele><time>2020-3-13T18:7:19Z</time></trkpt>
<trkpt lat="48.21515992" lon="-4.25663653"><ele></ele><time>2020-3-13T18:7:22Z</time></trkpt>
<trkpt lat="48.21522831" lon="-4.25667157"><ele></ele><time>2020-3-13T18:7:25Z</time></trkpt>
<trkpt lat="48.21536494" lon="-4.25676662"><ele></ele><time>2020-3-13T18:7:28Z</time></trkpt>
<trkpt lat="48.21597833" lon="-4.25720164"><ele></ele><time>2020-3-13T18:7:31Z</time></trkpt>
<trkpt lat="48.21602828" lon="-4.25722662"><ele></ele><time>2020-3-13T18:7:34Z</time></trkpt>
<trkpt lat="48.21618318" lon="-4.25728831"><ele></ele><time>2020-3-13T18:7:37Z</time></trkpt>
<trkpt lat="48.21636993" lon="-4.25732988"><ele></ele><time>2020-3-13T18:7:40Z</time></trkpt>
<trkpt lat="48.21834152" lon="-4.25769165"><ele></ele><time>2020-3-13T18:7:43Z</time></trkpt>
<trkpt lat="48.21838662" lon="-4.25770321"><ele></ele><time>2020-3-13T18:7:46Z</time></trkpt>
<trkpt lat="48.21879817" lon="-4.25782324"><ele></ele><time>2020-3-13T18:7:49Z</time></trkpt>
<trkpt lat="48.21882817" lon="-4.25783984"><ele></ele><time>2020-3-13T18:7:52Z</time></trkpt>
<trkpt lat="48.21896329" lon="-4.25792332"><ele></ele><time>2020-3-13T18:7:55Z</time></trkpt>
<trkpt lat="48.21898827" lon="-4.25795651"><ele></ele><time>2020-3-13T18:7:58Z</time></trkpt>
<trkpt lat="48.21900822" lon="-4.25799826"><ele></ele><time>2020-3-13T18:8:1Z</time></trkpt>
<trkpt lat="48.21902498" lon="-4.25804989"><ele></ele><time>2020-3-13T18:8:4Z</time></trkpt>
<trkpt lat="48.21903990" lon="-4.25810823"><ele></ele><time>2020-3-13T18:8:7Z</time></trkpt>
<trkpt lat="48.21904828" lon="-4.25817159"><ele></ele><time>2020-3-13T18:8:10Z</time></trkpt>
<trkpt lat="48.21904828" lon="-4.25823831"><ele></ele><time>2020-3-13T18:8:13Z</time></trkpt>
<trkpt lat="48.21904325" lon="-4.25830654"><ele></ele><time>2020-3-13T18:8:16Z</time></trkpt>
<trkpt lat="48.21903487" lon="-4.25837494"><ele></ele><time>2020-3-13T18:8:19Z</time></trkpt>
<trkpt lat="48.21902498" lon="-4.25845155"><ele></ele><time>2020-3-13T18:8:22Z</time></trkpt>
<trkpt lat="48.21881828" lon="-4.25999332"><ele></ele><time>2020-3-13T18:8:25Z</time></trkpt>
<trkpt lat="48.21883320" lon="-4.26007831"><ele></ele><time>2020-3-13T18:8:28Z</time></trkpt>
<trkpt lat="48.21886321" lon="-4.26017655"><ele></ele><time>2020-3-13T18:8:31Z</time></trkpt>
<trkpt lat="48.21889825" lon="-4.26026154"><ele></ele><time>2020-3-13T18:8:34Z</time></trkpt>
<trkpt lat="48.21894150" lon="-4.26033999"><ele></ele><time>2020-3-13T18:8:37Z</time></trkpt>
<trkpt lat="48.21905985" lon="-4.26052154"><ele></ele><time>2020-3-13T18:8:40Z</time></trkpt>
<trkpt lat="48.21909992" lon="-4.26056999"><ele></ele><time>2020-3-13T18:8:43Z</time></trkpt>
<trkpt lat="48.21914166" lon="-4.26060821"><ele></ele><time>2020-3-13T18:8:46Z</time></trkpt>
<trkpt lat="48.21923151" lon="-4.26066990"><ele></ele><time>2020-3-13T18:8:49Z</time></trkpt>
<trkpt lat="48.21927158" lon="-4.26068332"><ele></ele><time>2020-3-13T18:8:52Z</time></trkpt>
<trkpt lat="48.21930494" lon="-4.26068332"><ele></ele><time>2020-3-13T18:8:55Z</time></trkpt>
<trkpt lat="48.21932824" lon="-4.26067661"><ele></ele><time>2020-3-13T18:8:58Z</time></trkpt>
<trkpt lat="48.21933327" lon="-4.26067661"><ele></ele><time>2020-3-13T18:9:1Z</time></trkpt>
<trkpt lat="48.21933327" lon="-4.26067829"><ele></ele><time>2020-3-13T18:9:4Z</time></trkpt>
<trkpt lat="48.21932991" lon="-4.26067829"><ele></ele><time>2020-3-13T18:9:7Z</time></trkpt>
<trkpt lat="48.21932824" lon="-4.26067829"><ele></ele><time>2020-3-13T18:9:10Z</time></trkpt>
<trkpt lat="48.21932489" lon="-4.26067829"><ele></ele><time>2020-3-13T18:9:13Z</time></trkpt>
<trkpt lat="48.21932321" lon="-4.26067829"><ele></ele><time>2020-3-13T18:9:16Z</time></trkpt>
<trkpt lat="48.21932321" lon="-4.26067661"><ele></ele><time>2020-3-13T18:9:19Z</time></trkpt>
<trkpt lat="48.21932321" lon="-4.26068164"><ele></ele><time>2020-3-13T18:9:22Z</time></trkpt>
<trkpt lat="48.21932153" lon="-4.26068818"><ele></ele><time>2020-3-13T18:9:25Z</time></trkpt>
<trkpt lat="48.21931818" lon="-4.26070159"><ele></ele><time>2020-3-13T18:9:28Z</time></trkpt>
<trkpt lat="48.21930997" lon="-4.26070829"><ele></ele><time>2020-3-13T18:9:31Z</time></trkpt>
<trkpt lat="48.21929991" lon="-4.26071483"><ele></ele><time>2020-3-13T18:9:34Z</time></trkpt>
<trkpt lat="48.21929320" lon="-4.26072992"><ele></ele><time>2020-3-13T18:9:37Z</time></trkpt>
<trkpt lat="48.21928985" lon="-4.26074987"><ele></ele><time>2020-3-13T18:9:40Z</time></trkpt>
<trkpt lat="48.21928499" lon="-4.26077317"><ele></ele><time>2020-3-13T18:9:43Z</time></trkpt>
<trkpt lat="48.21927493" lon="-4.26080318"><ele></ele><time>2020-3-13T18:9:46Z</time></trkpt>
<trkpt lat="48.21921156" lon="-4.26098657"><ele></ele><time>2020-3-13T18:9:49Z</time></trkpt>
<trkpt lat="48.21918658" lon="-4.26102999"><ele></ele><time>2020-3-13T18:9:52Z</time></trkpt>
<trkpt lat="48.21915658" lon="-4.26107492"><ele></ele><time>2020-3-13T18:9:55Z</time></trkpt>
<trkpt lat="48.21911819" lon="-4.26111163"><ele></ele><time>2020-3-13T18:9:58Z</time></trkpt>
<trkpt lat="48.21907829" lon="-4.26114650"><ele></ele><time>2020-3-13T18:10:1Z</time></trkpt>
<trkpt lat="48.21899984" lon="-4.26120987"><ele></ele><time>2020-3-13T18:10:4Z</time></trkpt>
<trkpt lat="48.21895658" lon="-4.26124155"><ele></ele><time>2020-3-13T18:10:7Z</time></trkpt>
<trkpt lat="48.21874821" lon="-4.26138656"><ele></ele><time>2020-3-13T18:10:10Z</time></trkpt>
<trkpt lat="48.21854487" lon="-4.26155319"><ele></ele><time>2020-3-13T18:10:13Z</time></trkpt>
<trkpt lat="48.21850664" lon="-4.26160499"><ele></ele><time>2020-3-13T18:10:16Z</time></trkpt>
<trkpt lat="48.21839818" lon="-4.26178989"><ele></ele><time>2020-3-13T18:10:19Z</time></trkpt>
<trkpt lat="48.21836499" lon="-4.26186986"><ele></ele><time>2020-3-13T18:10:22Z</time></trkpt>
<trkpt lat="48.21799652" lon="-4.26298649"><ele></ele><time>2020-3-13T18:10:25Z</time></trkpt>
<trkpt lat="48.21735665" lon="-4.26537651"><ele></ele><time>2020-3-13T18:10:28Z</time></trkpt>
<trkpt lat="48.21733318" lon="-4.26550827"><ele></ele><time>2020-3-13T18:10:31Z</time></trkpt>
<trkpt lat="48.21726663" lon="-4.26596827"><ele></ele><time>2020-3-13T18:10:34Z</time></trkpt>
<trkpt lat="48.21726663" lon="-4.26607824"><ele></ele><time>2020-3-13T18:10:37Z</time></trkpt>
<trkpt lat="48.21732161" lon="-4.26680160"><ele></ele><time>2020-3-13T18:10:40Z</time></trkpt>
<trkpt lat="48.21736989" lon="-4.26704652"><ele></ele><time>2020-3-13T18:10:43Z</time></trkpt>
<trkpt lat="48.21755832" lon="-4.26765153"><ele></ele><time>2020-3-13T18:10:46Z</time></trkpt>
<trkpt lat="48.21773316" lon="-4.26822820"><ele></ele><time>2020-3-13T18:10:49Z</time></trkpt>
<trkpt lat="48.21774825" lon="-4.26834655"><ele></ele><time>2020-3-13T18:10:52Z</time></trkpt>
<trkpt lat="48.21775496" lon="-4.26846826"><ele></ele><time>2020-3-13T18:10:55Z</time></trkpt>
<trkpt lat="48.21775160" lon="-4.26870329"><ele></ele><time>2020-3-13T18:10:58Z</time></trkpt>
<trkpt lat="48.21774322" lon="-4.26881661"><ele></ele><time>2020-3-13T18:11:1Z</time></trkpt>
<trkpt lat="48.21772998" lon="-4.26892658"><ele></ele><time>2020-3-13T18:11:4Z</time></trkpt>
<trkpt lat="48.21760492" lon="-4.26970995"><ele></ele><time>2020-3-13T18:11:7Z</time></trkpt>
<trkpt lat="48.21749160" lon="-4.27051328"><ele></ele><time>2020-3-13T18:11:10Z</time></trkpt>
<trkpt lat="48.21746159" lon="-4.27092164"><ele></ele><time>2020-3-13T18:11:13Z</time></trkpt>
<trkpt lat="48.21745321" lon="-4.27099658"><ele></ele><time>2020-3-13T18:11:16Z</time></trkpt>
<trkpt lat="48.21745321" lon="-4.27105491"><ele></ele><time>2020-3-13T18:11:19Z</time></trkpt>
<trkpt lat="48.21743493" lon="-4.27152162"><ele></ele><time>2020-3-13T18:11:22Z</time></trkpt>
<trkpt lat="48.21743661" lon="-4.27158985"><ele></ele><time>2020-3-13T18:11:25Z</time></trkpt>
<trkpt lat="48.21737827" lon="-4.27221497"><ele></ele><time>2020-3-13T18:11:28Z</time></trkpt>
<trkpt lat="48.21729831" lon="-4.27265318"><ele></ele><time>2020-3-13T18:11:31Z</time></trkpt>
<trkpt lat="48.21728155" lon="-4.27273331"><ele></ele><time>2020-3-13T18:11:34Z</time></trkpt>
<trkpt lat="48.21716990" lon="-4.27321661"><ele></ele><time>2020-3-13T18:11:37Z</time></trkpt>
<trkpt lat="48.21715163" lon="-4.27328165"><ele></ele><time>2020-3-13T18:11:40Z</time></trkpt>
<trkpt lat="48.21686329" lon="-4.27446987"><ele></ele><time>2020-3-13T18:11:43Z</time></trkpt>
<trkpt lat="48.21685155" lon="-4.27457498"><ele></ele><time>2020-3-13T18:11:46Z</time></trkpt>
<trkpt lat="48.21680998" lon="-4.27487824"><ele></ele><time>2020-3-13T18:11:49Z</time></trkpt>
<trkpt lat="48.21679154" lon="-4.27495166"><ele></ele><time>2020-3-13T18:11:52Z</time></trkpt>
<trkpt lat="48.21647487" lon="-4.27643157"><ele></ele><time>2020-3-13T18:11:55Z</time></trkpt>
<trkpt lat="48.21646817" lon="-4.27647985"><ele></ele><time>2020-3-13T18:11:58Z</time></trkpt>
<trkpt lat="48.21629986" lon="-4.27739817"><ele></ele><time>2020-3-13T18:12:1Z</time></trkpt>
<trkpt lat="48.21621989" lon="-4.27762499"><ele></ele><time>2020-3-13T18:12:4Z</time></trkpt>
<trkpt lat="48.21620330" lon="-4.27765818"><ele></ele><time>2020-3-13T18:12:7Z</time></trkpt>
<trkpt lat="48.21614999" lon="-4.27775993"><ele></ele><time>2020-3-13T18:12:10Z</time></trkpt>
<trkpt lat="48.21609165" lon="-4.27785163"><ele></ele><time>2020-3-13T18:12:13Z</time></trkpt>
<trkpt lat="48.21606986" lon="-4.27787996"><ele></ele><time>2020-3-13T18:12:16Z</time></trkpt>
<trkpt lat="48.21595486" lon="-4.27802665"><ele></ele><time>2020-3-13T18:12:19Z</time></trkpt>
<trkpt lat="48.21592820" lon="-4.27805498"><ele></ele><time>2020-3-13T18:12:22Z</time></trkpt>
<trkpt lat="48.21590323" lon="-4.27808331"><ele></ele><time>2020-3-13T18:12:25Z</time></trkpt>
<trkpt lat="48.21587657" lon="-4.27810661"><ele></ele><time>2020-3-13T18:12:28Z</time></trkpt>
<trkpt lat="48.21584824" lon="-4.27812656"><ele></ele><time>2020-3-13T18:12:31Z</time></trkpt>
<trkpt lat="48.21576492" lon="-4.27818154"><ele></ele><time>2020-3-13T18:12:34Z</time></trkpt>
<trkpt lat="48.21573659" lon="-4.27819328"><ele></ele><time>2020-3-13T18:12:37Z</time></trkpt>
<trkpt lat="48.21563333" lon="-4.27822999"><ele></ele><time>2020-3-13T18:12:40Z</time></trkpt>
<trkpt lat="48.21560483" lon="-4.27823485"><ele></ele><time>2020-3-13T18:12:43Z</time></trkpt>
<trkpt lat="48.21543987" lon="-4.27825162"><ele></ele><time>2020-3-13T18:12:46Z</time></trkpt>
<trkpt lat="48.21541322" lon="-4.27824994"><ele></ele><time>2020-3-13T18:12:49Z</time></trkpt>
<trkpt lat="48.21533493" lon="-4.27824323"><ele></ele><time>2020-3-13T18:12:52Z</time></trkpt>
<trkpt lat="48.21319989" lon="-4.27830828"><ele></ele><time>2020-3-13T18:12:55Z</time></trkpt>
<trkpt lat="48.21305321" lon="-4.27835321"><ele></ele><time>2020-3-13T18:12:58Z</time></trkpt>
<trkpt lat="48.21298498" lon="-4.27839159"><ele></ele><time>2020-3-13T18:13:1Z</time></trkpt>
<trkpt lat="48.21285825" lon="-4.27849318"><ele></ele><time>2020-3-13T18:13:4Z</time></trkpt>
<trkpt lat="48.21279823" lon="-4.27855152"><ele></ele><time>2020-3-13T18:13:7Z</time></trkpt>
<trkpt lat="48.21268659" lon="-4.27868999"><ele></ele><time>2020-3-13T18:13:10Z</time></trkpt>
<trkpt lat="48.21254996" lon="-4.27893826"><ele></ele><time>2020-3-13T18:13:13Z</time></trkpt>
<trkpt lat="48.21251492" lon="-4.27903164"><ele></ele><time>2020-3-13T18:13:16Z</time></trkpt>
<trkpt lat="48.21238987" lon="-4.27949499"><ele></ele><time>2020-3-13T18:13:19Z</time></trkpt>
<trkpt lat="48.21224486" lon="-4.28031155"><ele></ele><time>2020-3-13T18:13:22Z</time></trkpt>
<trkpt lat="48.21224318" lon="-4.28034827"><ele></ele><time>2020-3-13T18:13:25Z</time></trkpt>
<trkpt lat="48.21224318" lon="-4.28038666"><ele></ele><time>2020-3-13T18:13:28Z</time></trkpt>
<trkpt lat="48.21224486" lon="-4.28038498"><ele></ele><time>2020-3-13T18:13:31Z</time></trkpt>
<trkpt lat="48.21224486" lon="-4.28038330"><ele></ele><time>2020-3-13T18:13:34Z</time></trkpt>
<trkpt lat="48.21224654" lon="-4.28038163"><ele></ele><time>2020-3-13T18:13:37Z</time></trkpt>
<trkpt lat="48.21224821" lon="-4.28037827"><ele></ele><time>2020-3-13T18:13:40Z</time></trkpt>
<trkpt lat="48.21224821" lon="-4.28037324"><ele></ele><time>2020-3-13T18:13:43Z</time></trkpt>
<trkpt lat="48.21224989" lon="-4.28037492"><ele></ele><time>2020-3-13T18:13:46Z</time></trkpt>
<trkpt lat="48.21225324" lon="-4.28038666"><ele></ele><time>2020-3-13T18:13:49Z</time></trkpt>
<trkpt lat="48.21229817" lon="-4.28050484"><ele></ele><time>2020-3-13T18:13:52Z</time></trkpt>
<trkpt lat="48.21232499" lon="-4.28053485"><ele></ele><time>2020-3-13T18:13:55Z</time></trkpt>
<trkpt lat="48.21235651" lon="-4.28055832"><ele></ele><time>2020-3-13T18:13:58Z</time></trkpt>
<trkpt lat="48.21315832" lon="-4.28123323"><ele></ele><time>2020-3-13T18:14:1Z</time></trkpt>
<trkpt lat="48.21321330" lon="-4.28129157"><ele></ele><time>2020-3-13T18:14:4Z</time></trkpt>
<trkpt lat="48.21326494" lon="-4.28135661"><ele></ele><time>2020-3-13T18:14:7Z</time></trkpt>
<trkpt lat="48.21331489" lon="-4.28143322"><ele></ele><time>2020-3-13T18:14:10Z</time></trkpt>
<trkpt lat="48.21340827" lon="-4.28160656"><ele></ele><time>2020-3-13T18:14:13Z</time></trkpt>
<trkpt lat="48.21344984" lon="-4.28170496"><ele></ele><time>2020-3-13T18:14:16Z</time></trkpt>
<trkpt lat="48.21348488" lon="-4.28180990"><ele></ele><time>2020-3-13T18:14:19Z</time></trkpt>
<trkpt lat="48.21351489" lon="-4.28192155"><ele></ele><time>2020-3-13T18:14:22Z</time></trkpt>
<trkpt lat="48.21358161" lon="-4.28225984"><ele></ele><time>2020-3-13T18:14:25Z</time></trkpt>
<trkpt lat="48.21410497" lon="-4.28447317"><ele></ele><time>2020-3-13T18:14:28Z</time></trkpt>
<trkpt lat="48.21418661" lon="-4.28469495"><ele></ele><time>2020-3-13T18:14:31Z</time></trkpt>
<trkpt lat="48.21457821" lon="-4.28545318"><ele></ele><time>2020-3-13T18:14:34Z</time></trkpt>
<trkpt lat="48.21465650" lon="-4.28563322"><ele></ele><time>2020-3-13T18:14:37Z</time></trkpt>
<trkpt lat="48.21467997" lon="-4.28573163"><ele></ele><time>2020-3-13T18:14:40Z</time></trkpt>
<trkpt lat="48.21469321" lon="-4.28583154"><ele></ele><time>2020-3-13T18:14:43Z</time></trkpt>
<trkpt lat="48.21469824" lon="-4.28592994"><ele></ele><time>2020-3-13T18:14:46Z</time></trkpt>
<trkpt lat="48.21469657" lon="-4.28602650"><ele></ele><time>2020-3-13T18:14:49Z</time></trkpt>
<trkpt lat="48.21468986" lon="-4.28611988"><ele></ele><time>2020-3-13T18:14:52Z</time></trkpt>
<trkpt lat="48.21467662" lon="-4.28621158"><ele></ele><time>2020-3-13T18:14:55Z</time></trkpt>
<trkpt lat="48.21461660" lon="-4.28654987"><ele></ele><time>2020-3-13T18:14:58Z</time></trkpt>
<trkpt lat="48.21459665" lon="-4.28662497"><ele></ele><time>2020-3-13T18:15:1Z</time></trkpt>
<trkpt lat="48.21454821" lon="-4.28677484"><ele></ele><time>2020-3-13T18:15:4Z</time></trkpt>
<trkpt lat="48.21451820" lon="-4.28684826"><ele></ele><time>2020-3-13T18:15:7Z</time></trkpt>
<trkpt lat="48.21441158" lon="-4.28706485"><ele></ele><time>2020-3-13T18:15:10Z</time></trkpt>
<trkpt lat="48.21418829" lon="-4.28748998"><ele></ele><time>2020-3-13T18:15:13Z</time></trkpt>
<trkpt lat="48.21415157" lon="-4.28755318"><ele></ele><time>2020-3-13T18:15:16Z</time></trkpt>
<trkpt lat="48.21366660" lon="-4.28845491"><ele></ele><time>2020-3-13T18:15:19Z</time></trkpt>
<trkpt lat="48.21364665" lon="-4.28853319"><ele></ele><time>2020-3-13T18:15:22Z</time></trkpt>
<trkpt lat="48.21363659" lon="-4.28857326"><ele></ele><time>2020-3-13T18:15:25Z</time></trkpt>
<trkpt lat="48.21362989" lon="-4.28861483"><ele></ele><time>2020-3-13T18:15:28Z</time></trkpt>
<trkpt lat="48.21362653" lon="-4.28865825"><ele></ele><time>2020-3-13T18:15:31Z</time></trkpt>
<trkpt lat="48.21362486" lon="-4.28873654"><ele></ele><time>2020-3-13T18:15:34Z</time></trkpt>
<trkpt lat="48.21362318" lon="-4.28873822"><ele></ele><time>2020-3-13T18:15:37Z</time></trkpt>
<trkpt lat="48.21362318" lon="-4.28873989"><ele></ele><time>2020-3-13T18:15:40Z</time></trkpt>
<trkpt lat="48.21362486" lon="-4.28873989"><ele></ele><time>2020-3-13T18:15:43Z</time></trkpt>
<trkpt lat="48.21362486" lon="-4.28873989"><ele></ele><time>2020-3-13T18:15:46Z</time></trkpt>
<trkpt lat="48.21362486" lon="-4.28873989"><ele></ele><time>2020-3-13T18:15:49Z</time></trkpt>
<trkpt lat="48.21362486" lon="-4.28873989"><ele></ele><time>2020-3-13T18:15:52Z</time></trkpt>
<trkpt lat="48.21362486" lon="-4.28873989"><ele></ele><time>2020-3-13T18:15:55Z</time></trkpt>
<trkpt lat="48.21362653" lon="-4.28873989"><ele></ele><time>2020-3-13T18:15:58Z</time></trkpt>
<trkpt lat="48.21362653" lon="-4.28873989"><ele></ele><time>2020-3-13T18:16:1Z</time></trkpt>
<trkpt lat="48.21362653" lon="-4.28873822"><ele></ele><time>2020-3-13T18:16:4Z</time></trkpt>
<trkpt lat="48.21362653" lon="-4.28873822"><ele></ele><time>2020-3-13T18:16:7Z</time></trkpt>
<trkpt lat="48.21362653" lon="-4.28873654"><ele></ele><time>2020-3-13T18:16:10Z</time></trkpt>
<trkpt lat="48.21362821" lon="-4.28873822"><ele></ele><time>2020-3-13T18:16:13Z</time></trkpt>
<trkpt lat="48.21362821" lon="-4.28874660"><ele></ele><time>2020-3-13T18:16:16Z</time></trkpt>
<trkpt lat="48.21365151" lon="-4.28972326"><ele></ele><time>2020-3-13T18:16:19Z</time></trkpt>
<trkpt lat="48.21366157" lon="-4.28981998"><ele></ele><time>2020-3-13T18:16:22Z</time></trkpt>
<trkpt lat="48.21369661" lon="-4.29001998"><ele></ele><time>2020-3-13T18:16:25Z</time></trkpt>
<trkpt lat="48.21372494" lon="-4.29011989"><ele></ele><time>2020-3-13T18:16:28Z</time></trkpt>
<trkpt lat="48.21375830" lon="-4.29021494"><ele></ele><time>2020-3-13T18:16:31Z</time></trkpt>
<trkpt lat="48.21389324" lon="-4.29046154"><ele></ele><time>2020-3-13T18:16:34Z</time></trkpt>
<trkpt lat="48.21399651" lon="-4.29058659"><ele></ele><time>2020-3-13T18:16:37Z</time></trkpt>
<trkpt lat="48.21409659" lon="-4.29066488"><ele></ele><time>2020-3-13T18:16:40Z</time></trkpt>
<trkpt lat="48.21430832" lon="-4.29077317"><ele></ele><time>2020-3-13T18:16:43Z</time></trkpt>
<trkpt lat="48.21447663" lon="-4.29081156"><ele></ele><time>2020-3-13T18:16:46Z</time></trkpt>
<trkpt lat="48.21474317" lon="-4.29087493"><ele></ele><time>2020-3-13T18:16:49Z</time></trkpt>
<trkpt lat="48.21476664" lon="-4.29089823"><ele></ele><time>2020-3-13T18:16:52Z</time></trkpt>
<trkpt lat="48.21478659" lon="-4.29093159"><ele></ele><time>2020-3-13T18:16:55Z</time></trkpt>
<trkpt lat="48.21479983" lon="-4.29096998"><ele></ele><time>2020-3-13T18:16:58Z</time></trkpt>
<trkpt lat="48.21480654" lon="-4.29100988"><ele></ele><time>2020-3-13T18:17:1Z</time></trkpt>
<trkpt lat="48.21480821" lon="-4.29104659"><ele></ele><time>2020-3-13T18:17:4Z</time></trkpt>
<trkpt lat="48.21480654" lon="-4.29108163"><ele></ele><time>2020-3-13T18:17:7Z</time></trkpt>
<trkpt lat="48.21480318" lon="-4.29111164"><ele></ele><time>2020-3-13T18:17:10Z</time></trkpt>
<trkpt lat="48.21479832" lon="-4.29115656"><ele></ele><time>2020-3-13T18:17:13Z</time></trkpt>
<trkpt lat="48.21479665" lon="-4.29116494"><ele></ele><time>2020-3-13T18:17:16Z</time></trkpt>
<trkpt lat="48.21479665" lon="-4.29116830"><ele></ele><time>2020-3-13T18:17:19Z</time></trkpt>
<trkpt lat="48.21479329" lon="-4.29117333"><ele></ele><time>2020-3-13T18:17:22Z</time></trkpt>
<trkpt lat="48.21479162" lon="-4.29118489"><ele></ele><time>2020-3-13T18:17:25Z</time></trkpt>
<trkpt lat="48.21477821" lon="-4.29125161"><ele></ele><time>2020-3-13T18:17:28Z</time></trkpt>
<trkpt lat="48.21473831" lon="-4.29146653"><ele></ele><time>2020-3-13T18:17:31Z</time></trkpt>
<trkpt lat="48.21473328" lon="-4.29150994"><ele></ele><time>2020-3-13T18:17:34Z</time></trkpt>
<trkpt lat="48.21471316" lon="-4.29162830"><ele></ele><time>2020-3-13T18:17:37Z</time></trkpt>
<trkpt lat="48.21460319" lon="-4.29230153"><ele></ele><time>2020-3-13T18:17:40Z</time></trkpt>
<trkpt lat="48.21459665" lon="-4.29233824"><ele></ele><time>2020-3-13T18:17:43Z</time></trkpt>
<trkpt lat="48.21446657" lon="-4.29322320"><ele></ele><time>2020-3-13T18:17:46Z</time></trkpt>
<trkpt lat="48.21445986" lon="-4.29325154"><ele></ele><time>2020-3-13T18:17:49Z</time></trkpt>
<trkpt lat="48.21444662" lon="-4.29330652"><ele></ele><time>2020-3-13T18:17:52Z</time></trkpt>
<trkpt lat="48.21444159" lon="-4.29333485"><ele></ele><time>2020-3-13T18:17:55Z</time></trkpt>
<trkpt lat="48.21401663" lon="-4.29586820"><ele></ele><time>2020-3-13T18:17:58Z</time></trkpt>
<trkpt lat="48.21400992" lon="-4.29589485"><ele></ele><time>2020-3-13T18:18:1Z</time></trkpt>
<trkpt lat="48.21385150" lon="-4.29689163"><ele></ele><time>2020-3-13T18:18:4Z</time></trkpt>
<trkpt lat="48.21384832" lon="-4.29690655"><ele></ele><time>2020-3-13T18:18:7Z</time></trkpt>
<trkpt lat="48.21384496" lon="-4.29691325"><ele></ele><time>2020-3-13T18:18:10Z</time></trkpt>
<trkpt lat="48.21384496" lon="-4.29691325"><ele></ele><time>2020-3-13T18:18:13Z</time></trkpt>
<trkpt lat="48.21384664" lon="-4.29691661"><ele></ele><time>2020-3-13T18:18:16Z</time></trkpt>
<trkpt lat="48.21384664" lon="-4.29691828"><ele></ele><time>2020-3-13T18:18:19Z</time></trkpt>
<trkpt lat="48.21384664" lon="-4.29691661"><ele></ele><time>2020-3-13T18:18:22Z</time></trkpt>
<trkpt lat="48.21384664" lon="-4.29691661"><ele></ele><time>2020-3-13T18:18:25Z</time></trkpt>
<trkpt lat="48.21384832" lon="-4.29691828"><ele></ele><time>2020-3-13T18:18:28Z</time></trkpt>
<trkpt lat="48.21384832" lon="-4.29691996"><ele></ele><time>2020-3-13T18:18:31Z</time></trkpt>
<trkpt lat="48.21384664" lon="-4.29691996"><ele></ele><time>2020-3-13T18:18:34Z</time></trkpt>
<trkpt lat="48.21384664" lon="-4.29691996"><ele></ele><time>2020-3-13T18:18:37Z</time></trkpt>
<trkpt lat="48.21384664" lon="-4.29691996"><ele></ele><time>2020-3-13T18:18:40Z</time></trkpt>
<trkpt lat="48.21384496" lon="-4.29691996"><ele></ele><time>2020-3-13T18:18:43Z</time></trkpt>
<trkpt lat="48.21384329" lon="-4.29691661"><ele></ele><time>2020-3-13T18:18:46Z</time></trkpt>
<trkpt lat="48.21384329" lon="-4.29691661"><ele></ele><time>2020-3-13T18:18:49Z</time></trkpt>
<trkpt lat="48.21384329" lon="-4.29691828"><ele></ele><time>2020-3-13T18:18:52Z</time></trkpt>
<trkpt lat="48.21384496" lon="-4.29691828"><ele></ele><time>2020-3-13T18:18:55Z</time></trkpt>
<trkpt lat="48.21384496" lon="-4.29691828"><ele></ele><time>2020-3-13T18:18:58Z</time></trkpt>
<trkpt lat="48.21384496" lon="-4.29691828"><ele></ele><time>2020-3-13T18:19:1Z</time></trkpt>
<trkpt lat="48.21384496" lon="-4.29691828"><ele></ele><time>2020-3-13T18:19:4Z</time></trkpt>
<trkpt lat="48.21384496" lon="-4.29691828"><ele></ele><time>2020-3-13T18:19:7Z</time></trkpt>
<trkpt lat="48.21384496" lon="-4.29691996"><ele></ele><time>2020-3-13T18:19:10Z</time></trkpt>
<trkpt lat="48.21384496" lon="-4.29691996"><ele></ele><time>2020-3-13T18:19:13Z</time></trkpt>
<trkpt lat="48.21384496" lon="-4.29691996"><ele></ele><time>2020-3-13T18:19:16Z</time></trkpt>
<trkpt lat="48.21384496" lon="-4.29692164"><ele></ele><time>2020-3-13T18:19:19Z</time></trkpt>
<trkpt lat="48.21384496" lon="-4.29692164"><ele></ele><time>2020-3-13T18:19:22Z</time></trkpt>
<trkpt lat="48.21384664" lon="-4.29692164"><ele></ele><time>2020-3-13T18:19:25Z</time></trkpt>
<trkpt lat="48.21384664" lon="-4.29692331"><ele></ele><time>2020-3-13T18:19:28Z</time></trkpt>
<trkpt lat="48.21384832" lon="-4.29692331"><ele></ele><time>2020-3-13T18:19:31Z</time></trkpt>
<trkpt lat="48.21384832" lon="-4.29692499"><ele></ele><time>2020-3-13T18:19:34Z</time></trkpt>
<trkpt lat="48.21384999" lon="-4.29692650"><ele></ele><time>2020-3-13T18:19:37Z</time></trkpt>
<trkpt lat="48.21384999" lon="-4.29692650"><ele></ele><time>2020-3-13T18:19:40Z</time></trkpt>
<trkpt lat="48.21385150" lon="-4.29692499"><ele></ele><time>2020-3-13T18:19:43Z</time></trkpt>
<trkpt lat="48.21385150" lon="-4.29692499"><ele></ele><time>2020-3-13T18:19:46Z</time></trkpt>
<trkpt lat="48.21385318" lon="-4.29692499"><ele></ele><time>2020-3-13T18:19:49Z</time></trkpt>
<trkpt lat="48.21385318" lon="-4.29692499"><ele></ele><time>2020-3-13T18:19:52Z</time></trkpt>
<trkpt lat="48.21385318" lon="-4.29692331"><ele></ele><time>2020-3-13T18:19:55Z</time></trkpt>
<trkpt lat="48.21385653" lon="-4.29691996"><ele></ele><time>2020-3-13T18:19:58Z</time></trkpt>
<trkpt lat="48.21385821" lon="-4.29691828"><ele></ele><time>2020-3-13T18:20:1Z</time></trkpt>
<trkpt lat="48.21385988" lon="-4.29692164"><ele></ele><time>2020-3-13T18:20:4Z</time></trkpt>
<trkpt lat="48.21386156" lon="-4.29692331"><ele></ele><time>2020-3-13T18:20:7Z</time></trkpt>
<trkpt lat="48.21386156" lon="-4.29692499"><ele></ele><time>2020-3-13T18:20:10Z</time></trkpt>
<trkpt lat="48.21386156" lon="-4.29692499"><ele></ele><time>2020-3-13T18:20:13Z</time></trkpt>
<trkpt lat="48.21386156" lon="-4.29692499"><ele></ele><time>2020-3-13T18:20:16Z</time></trkpt>
<trkpt lat="48.21386156" lon="-4.29692331"><ele></ele><time>2020-3-13T18:20:19Z</time></trkpt>
<trkpt lat="48.21386156" lon="-4.29692499"><ele></ele><time>2020-3-13T18:20:22Z</time></trkpt>
<trkpt lat="48.21385988" lon="-4.29692650"><ele></ele><time>2020-3-13T18:20:25Z</time></trkpt>
<trkpt lat="48.21385988" lon="-4.29692650"><ele></ele><time>2020-3-13T18:20:28Z</time></trkpt>
<trkpt lat="48.21385988" lon="-4.29692650"><ele></ele><time>2020-3-13T18:20:31Z</time></trkpt>
<trkpt lat="48.21385988" lon="-4.29692650"><ele></ele><time>2020-3-13T18:20:34Z</time></trkpt>
<trkpt lat="48.21385988" lon="-4.29692817"><ele></ele><time>2020-3-13T18:20:37Z</time></trkpt>
<trkpt lat="48.21385988" lon="-4.29692650"><ele></ele><time>2020-3-13T18:20:40Z</time></trkpt>
<trkpt lat="48.21386156" lon="-4.29692817"><ele></ele><time>2020-3-13T18:20:43Z</time></trkpt>
<trkpt lat="48.21386156" lon="-4.29692817"><ele></ele><time>2020-3-13T18:20:46Z</time></trkpt>
<trkpt lat="48.21386156" lon="-4.29692985"><ele></ele><time>2020-3-13T18:20:49Z</time></trkpt>
<trkpt lat="48.21385988" lon="-4.29693153"><ele></ele><time>2020-3-13T18:20:52Z</time></trkpt>
<trkpt lat="48.21385988" lon="-4.29693320"><ele></ele><time>2020-3-13T18:20:55Z</time></trkpt>
<trkpt lat="48.21385988" lon="-4.29693153"><ele></ele><time>2020-3-13T18:20:58Z</time></trkpt>
<trkpt lat="48.21384832" lon="-4.29692985"><ele></ele><time>2020-3-13T18:21:1Z</time></trkpt>
<trkpt lat="48.21384664" lon="-4.29692817"><ele></ele><time>2020-3-13T18:21:4Z</time></trkpt>
<trkpt lat="48.21384832" lon="-4.29692650"><ele></ele><time>2020-3-13T18:21:7Z</time></trkpt>
<trkpt lat="48.21384832" lon="-4.29692499"><ele></ele><time>2020-3-13T18:21:10Z</time></trkpt>
<trkpt lat="48.21384832" lon="-4.29692499"><ele></ele><time>2020-3-13T18:21:13Z</time></trkpt>
<trkpt lat="48.21384832" lon="-4.29692499"><ele></ele><time>2020-3-13T18:21:16Z</time></trkpt>
<trkpt lat="48.21384832" lon="-4.29692331"><ele></ele><time>2020-3-13T18:21:19Z</time></trkpt>
<trkpt lat="48.21384832" lon="-4.29692331"><ele></ele><time>2020-3-13T18:21:22Z</time></trkpt>
<trkpt lat="48.21384832" lon="-4.29692164"><ele></ele><time>2020-3-13T18:21:25Z</time></trkpt>
<trkpt lat="48.21384832" lon="-4.29692164"><ele></ele><time>2020-3-13T18:21:28Z</time></trkpt>
<trkpt lat="48.21384832" lon="-4.29692164"><ele></ele><time>2020-3-13T18:21:31Z</time></trkpt>
<trkpt lat="48.21384832" lon="-4.29691996"><ele></ele><time>2020-3-13T18:21:34Z</time></trkpt>
<trkpt lat="48.21384832" lon="-4.29691996"><ele></ele><time>2020-3-13T18:21:37Z</time></trkpt>
<trkpt lat="48.21384999" lon="-4.29691996"><ele></ele><time>2020-3-13T18:21:40Z</time></trkpt>
<trkpt lat="48.21384999" lon="-4.29691996"><ele></ele><time>2020-3-13T18:21:43Z</time></trkpt>
<trkpt lat="48.21384999" lon="-4.29691996"><ele></ele><time>2020-3-13T18:21:46Z</time></trkpt>
<trkpt lat="48.21384999" lon="-4.29691996"><ele></ele><time>2020-3-13T18:21:49Z</time></trkpt>
<trkpt lat="48.21384999" lon="-4.29691996"><ele></ele><time>2020-3-13T18:21:52Z</time></trkpt>
<trkpt lat="48.21385150" lon="-4.29691996"><ele></ele><time>2020-3-13T18:21:55Z</time></trkpt>
<trkpt lat="48.21385150" lon="-4.29691828"><ele></ele><time>2020-3-13T18:21:58Z</time></trkpt>
<trkpt lat="48.21385150" lon="-4.29691828"><ele></ele><time>2020-3-13T18:22:1Z</time></trkpt>
<trkpt lat="48.21385150" lon="-4.29691828"><ele></ele><time>2020-3-13T18:22:4Z</time></trkpt>
<trkpt lat="48.21385150" lon="-4.29691828"><ele></ele><time>2020-3-13T18:22:7Z</time></trkpt>
<trkpt lat="48.21385150" lon="-4.29691996"><ele></ele><time>2020-3-13T18:22:10Z</time></trkpt>
<trkpt lat="48.21385150" lon="-4.29691996"><ele></ele><time>2020-3-13T18:22:13Z</time></trkpt>
<trkpt lat="48.21385150" lon="-4.29691996"><ele></ele><time>2020-3-13T18:22:16Z</time></trkpt>
<trkpt lat="48.21385318" lon="-4.29692164"><ele></ele><time>2020-3-13T18:22:19Z</time></trkpt>
<trkpt lat="48.21385318" lon="-4.29692164"><ele></ele><time>2020-3-13T18:22:22Z</time></trkpt>
<trkpt lat="48.21385318" lon="-4.29692331"><ele></ele><time>2020-3-13T18:22:25Z</time></trkpt>
<trkpt lat="48.21385318" lon="-4.29692331"><ele></ele><time>2020-3-13T18:22:28Z</time></trkpt>
<trkpt lat="48.21385318" lon="-4.29692331"><ele></ele><time>2020-3-13T18:22:31Z</time></trkpt>
<trkpt lat="48.21385318" lon="-4.29692499"><ele></ele><time>2020-3-13T18:22:34Z</time></trkpt>
<trkpt lat="48.21385318" lon="-4.29692499"><ele></ele><time>2020-3-13T18:22:37Z</time></trkpt>
<trkpt lat="48.21385318" lon="-4.29692499"><ele></ele><time>2020-3-13T18:22:40Z</time></trkpt>
<trkpt lat="48.21385318" lon="-4.29692499"><ele></ele><time>2020-3-13T18:22:43Z</time></trkpt>
<trkpt lat="48.21385318" lon="-4.29692650"><ele></ele><time>2020-3-13T18:22:46Z</time></trkpt>
<trkpt lat="48.21385318" lon="-4.29692499"><ele></ele><time>2020-3-13T18:22:49Z</time></trkpt>
<trkpt lat="48.21385318" lon="-4.29692499"><ele></ele><time>2020-3-13T18:22:52Z</time></trkpt>
<trkpt lat="48.21385318" lon="-4.29692331"><ele></ele><time>2020-3-13T18:22:55Z</time></trkpt>
<trkpt lat="48.21385486" lon="-4.29692331"><ele></ele><time>2020-3-13T18:22:58Z</time></trkpt>
<trkpt lat="48.21385486" lon="-4.29692331"><ele></ele><time>2020-3-13T18:23:1Z</time></trkpt>
<trkpt lat="48.21385486" lon="-4.29692164"><ele></ele><time>2020-3-13T18:23:4Z</time></trkpt>
<trkpt lat="48.21385486" lon="-4.29692164"><ele></ele><time>2020-3-13T18:23:7Z</time></trkpt>
<trkpt lat="48.21385653" lon="-4.29692164"><ele></ele><time>2020-3-13T18:23:10Z</time></trkpt>
<trkpt lat="48.21385653" lon="-4.29691996"><ele></ele><time>2020-3-13T18:23:13Z</time></trkpt>
<trkpt lat="48.21385653" lon="-4.29691828"><ele></ele><time>2020-3-13T18:23:16Z</time></trkpt>
<trkpt lat="48.21385653" lon="-4.29691828"><ele></ele><time>2020-3-13T18:23:19Z</time></trkpt>
<trkpt lat="48.21385653" lon="-4.29691828"><ele></ele><time>2020-3-13T18:23:22Z</time></trkpt>
<trkpt lat="48.21385653" lon="-4.29691661"><ele></ele><time>2020-3-13T18:23:25Z</time></trkpt>
<trkpt lat="48.21385653" lon="-4.29691661"><ele></ele><time>2020-3-13T18:23:28Z</time></trkpt>
<trkpt lat="48.21385653" lon="-4.29691493"><ele></ele><time>2020-3-13T18:23:31Z</time></trkpt>
<trkpt lat="48.21385821" lon="-4.29691493"><ele></ele><time>2020-3-13T18:23:34Z</time></trkpt>
<trkpt lat="48.21385821" lon="-4.29691493"><ele></ele><time>2020-3-13T18:23:37Z</time></trkpt>
<trkpt lat="48.21385821" lon="-4.29691325"><ele></ele><time>2020-3-13T18:23:40Z</time></trkpt>
<trkpt lat="48.21385821" lon="-4.29691325"><ele></ele><time>2020-3-13T18:23:43Z</time></trkpt>
<trkpt lat="48.21385821" lon="-4.29691325"><ele></ele><time>2020-3-13T18:23:46Z</time></trkpt>
<trkpt lat="48.21385821" lon="-4.29691325"><ele></ele><time>2020-3-13T18:23:49Z</time></trkpt>
<trkpt lat="48.21385821" lon="-4.29691158"><ele></ele><time>2020-3-13T18:23:52Z</time></trkpt>
<trkpt lat="48.21385821" lon="-4.29691158"><ele></ele><time>2020-3-13T18:23:55Z</time></trkpt>
<trkpt lat="48.21385821" lon="-4.29691158"><ele></ele><time>2020-3-13T18:23:58Z</time></trkpt>
<trkpt lat="48.21385821" lon="-4.29690990"><ele></ele><time>2020-3-13T18:24:1Z</time></trkpt>
<trkpt lat="48.21385988" lon="-4.29691158"><ele></ele><time>2020-3-13T18:24:4Z</time></trkpt>
<trkpt lat="48.21385988" lon="-4.29691158"><ele></ele><time>2020-3-13T18:24:7Z</time></trkpt>
<trkpt lat="48.21386156" lon="-4.29691158"><ele></ele><time>2020-3-13T18:24:10Z</time></trkpt>
<trkpt lat="48.21386156" lon="-4.29691158"><ele></ele><time>2020-3-13T18:24:13Z</time></trkpt>
<trkpt lat="48.21385988" lon="-4.29691325"><ele></ele><time>2020-3-13T18:24:16Z</time></trkpt>
<trkpt lat="48.21385988" lon="-4.29691158"><ele></ele><time>2020-3-13T18:24:19Z</time></trkpt>
<trkpt lat="48.21385988" lon="-4.29691158"><ele></ele><time>2020-3-13T18:24:22Z</time></trkpt>
<trkpt lat="48.21385988" lon="-4.29691158"><ele></ele><time>2020-3-13T18:24:25Z</time></trkpt>
<trkpt lat="48.21385821" lon="-4.29690990"><ele></ele><time>2020-3-13T18:24:28Z</time></trkpt>
<trkpt lat="48.21385821" lon="-4.29691158"><ele></ele><time>2020-3-13T18:24:31Z</time></trkpt>
<trkpt lat="48.21385988" lon="-4.29691158"><ele></ele><time>2020-3-13T18:24:34Z</time></trkpt>
<trkpt lat="48.21386324" lon="-4.29691996"><ele></ele><time>2020-3-13T18:24:37Z</time></trkpt>
<trkpt lat="48.21387162" lon="-4.29692650"><ele></ele><time>2020-3-13T18:24:40Z</time></trkpt>
<trkpt lat="48.21389660" lon="-4.29694158"><ele></ele><time>2020-3-13T18:24:43Z</time></trkpt>
<trkpt lat="48.21391487" lon="-4.29694158"><ele></ele><time>2020-3-13T18:24:46Z</time></trkpt>
<trkpt lat="48.21450831" lon="-4.29687654"><ele></ele><time>2020-3-13T18:24:49Z</time></trkpt>
<trkpt lat="48.21519160" lon="-4.29682994"><ele></ele><time>2020-3-13T18:24:52Z</time></trkpt>
<trkpt lat="48.21522831" lon="-4.29684989"><ele></ele><time>2020-3-13T18:24:55Z</time></trkpt>
<trkpt lat="48.21526318" lon="-4.29688157"><ele></ele><time>2020-3-13T18:24:58Z</time></trkpt>
<trkpt lat="48.21529319" lon="-4.29692331"><ele></ele><time>2020-3-13T18:25:1Z</time></trkpt>
<trkpt lat="48.21531666" lon="-4.29697494"><ele></ele><time>2020-3-13T18:25:4Z</time></trkpt>
<trkpt lat="48.21532990" lon="-4.29703496"><ele></ele><time>2020-3-13T18:25:7Z</time></trkpt>
<trkpt lat="48.21533661" lon="-4.29709665"><ele></ele><time>2020-3-13T18:25:10Z</time></trkpt>
<trkpt lat="48.21534818" lon="-4.29741818"><ele></ele><time>2020-3-13T18:25:13Z</time></trkpt>
<trkpt lat="48.21534985" lon="-4.29748322"><ele></ele><time>2020-3-13T18:25:16Z</time></trkpt>
<trkpt lat="48.21534650" lon="-4.29754994"><ele></ele><time>2020-3-13T18:25:19Z</time></trkpt>
<trkpt lat="48.21534164" lon="-4.29761650"><ele></ele><time>2020-3-13T18:25:22Z</time></trkpt>
<trkpt lat="48.21530157" lon="-4.29795831"><ele></ele><time>2020-3-13T18:25:25Z</time></trkpt>
<trkpt lat="48.21520652" lon="-4.29872659"><ele></ele><time>2020-3-13T18:25:28Z</time></trkpt>
<trkpt lat="48.21520652" lon="-4.29879818"><ele></ele><time>2020-3-13T18:25:31Z</time></trkpt>
<trkpt lat="48.21522329" lon="-4.29908819"><ele></ele><time>2020-3-13T18:25:34Z</time></trkpt>
<trkpt lat="48.21525329" lon="-4.29930998"><ele></ele><time>2020-3-13T18:25:37Z</time></trkpt>
<trkpt lat="48.21527995" lon="-4.29945498"><ele></ele><time>2020-3-13T18:25:40Z</time></trkpt>
<trkpt lat="48.21531817" lon="-4.29959161"><ele></ele><time>2020-3-13T18:25:43Z</time></trkpt>
<trkpt lat="48.21536494" lon="-4.29971817"><ele></ele><time>2020-3-13T18:25:46Z</time></trkpt>
<trkpt lat="48.21544993" lon="-4.29989319"><ele></ele><time>2020-3-13T18:25:49Z</time></trkpt>
<trkpt lat="48.21554498" lon="-4.30005328"><ele></ele><time>2020-3-13T18:25:52Z</time></trkpt>
<trkpt lat="48.21561489" lon="-4.30015152"><ele></ele><time>2020-3-13T18:25:55Z</time></trkpt>
<trkpt lat="48.21569150" lon="-4.30023986"><ele></ele><time>2020-3-13T18:25:58Z</time></trkpt>
<trkpt lat="48.21584656" lon="-4.30038822"><ele></ele><time>2020-3-13T18:26:1Z</time></trkpt>
<trkpt lat="48.21604991" lon="-4.30053491"><ele></ele><time>2020-3-13T18:26:4Z</time></trkpt>
<trkpt lat="48.21682658" lon="-4.30099658"><ele></ele><time>2020-3-13T18:26:7Z</time></trkpt>
<trkpt lat="48.21686329" lon="-4.30101150"><ele></ele><time>2020-3-13T18:26:10Z</time></trkpt>
<trkpt lat="48.21725321" lon="-4.30127151"><ele></ele><time>2020-3-13T18:26:13Z</time></trkpt>
<trkpt lat="48.21728155" lon="-4.30130319"><ele></ele><time>2020-3-13T18:26:16Z</time></trkpt>
<trkpt lat="48.21732999" lon="-4.30137662"><ele></ele><time>2020-3-13T18:26:19Z</time></trkpt>
<trkpt lat="48.21734827" lon="-4.30141987"><ele></ele><time>2020-3-13T18:26:22Z</time></trkpt>
<trkpt lat="48.21736654" lon="-4.30146664"><ele></ele><time>2020-3-13T18:26:25Z</time></trkpt>
<trkpt lat="48.21737995" lon="-4.30151827"><ele></ele><time>2020-3-13T18:26:28Z</time></trkpt>
<trkpt lat="48.21738984" lon="-4.30157158"><ele></ele><time>2020-3-13T18:26:31Z</time></trkpt>
<trkpt lat="48.21739487" lon="-4.30162992"><ele></ele><time>2020-3-13T18:26:34Z</time></trkpt>
<trkpt lat="48.21739487" lon="-4.30168658"><ele></ele><time>2020-3-13T18:26:37Z</time></trkpt>
<trkpt lat="48.21736151" lon="-4.30278997"><ele></ele><time>2020-3-13T18:26:40Z</time></trkpt>
<trkpt lat="48.21734156" lon="-4.30309826"><ele></ele><time>2020-3-13T18:26:43Z</time></trkpt>
<trkpt lat="48.21733150" lon="-4.30318158"><ele></ele><time>2020-3-13T18:26:46Z</time></trkpt>
<trkpt lat="48.21731658" lon="-4.30326322"><ele></ele><time>2020-3-13T18:26:49Z</time></trkpt>
<trkpt lat="48.21725489" lon="-4.30351652"><ele></ele><time>2020-3-13T18:26:52Z</time></trkpt>
<trkpt lat="48.21706160" lon="-4.30415153"><ele></ele><time>2020-3-13T18:26:55Z</time></trkpt>
<trkpt lat="48.21668157" lon="-4.30541653"><ele></ele><time>2020-3-13T18:26:58Z</time></trkpt>
<trkpt lat="48.21665659" lon="-4.30554158"><ele></ele><time>2020-3-13T18:27:1Z</time></trkpt>
<trkpt lat="48.21649163" lon="-4.30640324"><ele></ele><time>2020-3-13T18:27:4Z</time></trkpt>
<trkpt lat="48.21645492" lon="-4.30650651"><ele></ele><time>2020-3-13T18:27:7Z</time></trkpt>
<trkpt lat="48.21637663" lon="-4.30668655"><ele></ele><time>2020-3-13T18:27:10Z</time></trkpt>
<trkpt lat="48.21605326" lon="-4.30747495"><ele></ele><time>2020-3-13T18:27:13Z</time></trkpt>
<trkpt lat="48.21603164" lon="-4.30755659"><ele></ele><time>2020-3-13T18:27:16Z</time></trkpt>
<trkpt lat="48.21594832" lon="-4.30797150"><ele></ele><time>2020-3-13T18:27:19Z</time></trkpt>
<trkpt lat="48.21589820" lon="-4.30840166"><ele></ele><time>2020-3-13T18:27:22Z</time></trkpt>
<trkpt lat="48.21558823" lon="-4.31194486"><ele></ele><time>2020-3-13T18:27:25Z</time></trkpt>
<trkpt lat="48.21558991" lon="-4.31200152"><ele></ele><time>2020-3-13T18:27:28Z</time></trkpt>
<trkpt lat="48.21560164" lon="-4.31221995"><ele></ele><time>2020-3-13T18:27:31Z</time></trkpt>
<trkpt lat="48.21562997" lon="-4.31237317"><ele></ele><time>2020-3-13T18:27:34Z</time></trkpt>
<trkpt lat="48.21564489" lon="-4.31242162"><ele></ele><time>2020-3-13T18:27:37Z</time></trkpt>
<trkpt lat="48.21573659" lon="-4.31265665"><ele></ele><time>2020-3-13T18:27:40Z</time></trkpt>
<trkpt lat="48.21575487" lon="-4.31268665"><ele></ele><time>2020-3-13T18:27:43Z</time></trkpt>
<trkpt lat="48.21582997" lon="-4.31278824"><ele></ele><time>2020-3-13T18:27:46Z</time></trkpt>
<trkpt lat="48.21592150" lon="-4.31289654"><ele></ele><time>2020-3-13T18:27:49Z</time></trkpt>
<trkpt lat="48.21599995" lon="-4.31296661"><ele></ele><time>2020-3-13T18:27:52Z</time></trkpt>
<trkpt lat="48.21605661" lon="-4.31301657"><ele></ele><time>2020-3-13T18:27:55Z</time></trkpt>
<trkpt lat="48.21607321" lon="-4.31303652"><ele></ele><time>2020-3-13T18:27:58Z</time></trkpt>
<trkpt lat="48.21610825" lon="-4.31306988"><ele></ele><time>2020-3-13T18:28:1Z</time></trkpt>
<trkpt lat="48.21612484" lon="-4.31308161"><ele></ele><time>2020-3-13T18:28:4Z</time></trkpt>
<trkpt lat="48.21615820" lon="-4.31310491"><ele></ele><time>2020-3-13T18:28:7Z</time></trkpt>
<trkpt lat="48.21617329" lon="-4.31312318"><ele></ele><time>2020-3-13T18:28:10Z</time></trkpt>
<trkpt lat="48.21624320" lon="-4.31319661"><ele></ele><time>2020-3-13T18:28:13Z</time></trkpt>
<trkpt lat="48.21626164" lon="-4.31320985"><ele></ele><time>2020-3-13T18:28:16Z</time></trkpt>
<trkpt lat="48.21629650" lon="-4.31324321"><ele></ele><time>2020-3-13T18:28:19Z</time></trkpt>
<trkpt lat="48.21649163" lon="-4.31343650"><ele></ele><time>2020-3-13T18:28:22Z</time></trkpt>
<trkpt lat="48.21680830" lon="-4.31372333"><ele></ele><time>2020-3-13T18:28:25Z</time></trkpt>
<trkpt lat="48.21682322" lon="-4.31373992"><ele></ele><time>2020-3-13T18:28:28Z</time></trkpt>
<trkpt lat="48.21727165" lon="-4.31416824"><ele></ele><time>2020-3-13T18:28:31Z</time></trkpt>
<trkpt lat="48.21761984" lon="-4.31448658"><ele></ele><time>2020-3-13T18:28:34Z</time></trkpt>
<trkpt lat="48.21854989" lon="-4.31536987"><ele></ele><time>2020-3-13T18:28:37Z</time></trkpt>
<trkpt lat="48.21855995" lon="-4.31538999"><ele></ele><time>2020-3-13T18:28:40Z</time></trkpt>
<trkpt lat="48.21856498" lon="-4.31541329"><ele></ele><time>2020-3-13T18:28:43Z</time></trkpt>
<trkpt lat="48.21855828" lon="-4.31543827"><ele></ele><time>2020-3-13T18:28:46Z</time></trkpt>
<trkpt lat="48.21853833" lon="-4.31545654"><ele></ele><time>2020-3-13T18:28:49Z</time></trkpt>
<trkpt lat="48.21850983" lon="-4.31545989"><ele></ele><time>2020-3-13T18:28:52Z</time></trkpt>
<trkpt lat="48.21840154" lon="-4.31545989"><ele></ele><time>2020-3-13T18:28:55Z</time></trkpt>
<trkpt lat="48.21835996" lon="-4.31545486"><ele></ele><time>2020-3-13T18:28:58Z</time></trkpt>
<trkpt lat="48.21784816" lon="-4.31536652"><ele></ele><time>2020-3-13T18:29:1Z</time></trkpt>
<trkpt lat="48.21779821" lon="-4.31537322"><ele></ele><time>2020-3-13T18:29:4Z</time></trkpt>
<trkpt lat="48.21776166" lon="-4.31540491"><ele></ele><time>2020-3-13T18:29:7Z</time></trkpt>
<trkpt lat="48.21773484" lon="-4.31545486"><ele></ele><time>2020-3-13T18:29:10Z</time></trkpt>
<trkpt lat="48.21772160" lon="-4.31550817"><ele></ele><time>2020-3-13T18:29:13Z</time></trkpt>
<trkpt lat="48.21770818" lon="-4.31560657"><ele></ele><time>2020-3-13T18:29:16Z</time></trkpt>
<trkpt lat="48.21770818" lon="-4.31566156"><ele></ele><time>2020-3-13T18:29:19Z</time></trkpt>
<trkpt lat="48.21774322" lon="-4.31743165"><ele></ele><time>2020-3-13T18:29:22Z</time></trkpt>
<trkpt lat="48.21764163" lon="-4.31814160"><ele></ele><time>2020-3-13T18:29:25Z</time></trkpt>
<trkpt lat="48.21755999" lon="-4.31845156"><ele></ele><time>2020-3-13T18:29:28Z</time></trkpt>
<trkpt lat="48.21746494" lon="-4.31879153"><ele></ele><time>2020-3-13T18:29:31Z</time></trkpt>
<trkpt lat="48.21742320" lon="-4.31886496"><ele></ele><time>2020-3-13T18:29:34Z</time></trkpt>
<trkpt lat="48.21737157" lon="-4.31891491"><ele></ele><time>2020-3-13T18:29:37Z</time></trkpt>
<trkpt lat="48.21731155" lon="-4.31893654"><ele></ele><time>2020-3-13T18:29:40Z</time></trkpt>
<trkpt lat="48.21725154" lon="-4.31893486"><ele></ele><time>2020-3-13T18:29:43Z</time></trkpt>
<trkpt lat="48.21719320" lon="-4.31892329"><ele></ele><time>2020-3-13T18:29:46Z</time></trkpt>
<trkpt lat="48.21696655" lon="-4.31888490"><ele></ele><time>2020-3-13T18:29:49Z</time></trkpt>
<trkpt lat="48.21691157" lon="-4.31889161"><ele></ele><time>2020-3-13T18:29:52Z</time></trkpt>
<trkpt lat="48.21680160" lon="-4.31892497"><ele></ele><time>2020-3-13T18:29:55Z</time></trkpt>
<trkpt lat="48.21674829" lon="-4.31895162"><ele></ele><time>2020-3-13T18:29:58Z</time></trkpt>
<trkpt lat="48.21604656" lon="-4.31936318"><ele></ele><time>2020-3-13T18:30:1Z</time></trkpt>
<trkpt lat="48.21593156" lon="-4.31945990"><ele></ele><time>2020-3-13T18:30:4Z</time></trkpt>
<trkpt lat="48.21550492" lon="-4.31981999"><ele></ele><time>2020-3-13T18:30:7Z</time></trkpt>
<trkpt lat="48.21543987" lon="-4.31984664"><ele></ele><time>2020-3-13T18:30:10Z</time></trkpt>
<trkpt lat="48.21537651" lon="-4.31986324"><ele></ele><time>2020-3-13T18:30:13Z</time></trkpt>
<trkpt lat="48.21532487" lon="-4.31986995"><ele></ele><time>2020-3-13T18:30:16Z</time></trkpt>
<trkpt lat="48.21519160" lon="-4.31987162"><ele></ele><time>2020-3-13T18:30:19Z</time></trkpt>
<trkpt lat="48.21516662" lon="-4.31988989"><ele></ele><time>2020-3-13T18:30:22Z</time></trkpt>
<trkpt lat="48.21514651" lon="-4.31992158"><ele></ele><time>2020-3-13T18:30:25Z</time></trkpt>
<trkpt lat="48.21512823" lon="-4.31996332"><ele></ele><time>2020-3-13T18:30:28Z</time></trkpt>
<trkpt lat="48.21509320" lon="-4.32007497"><ele></ele><time>2020-3-13T18:30:31Z</time></trkpt>
<trkpt lat="48.21508498" lon="-4.32013498"><ele></ele><time>2020-3-13T18:30:34Z</time></trkpt>
<trkpt lat="48.21508498" lon="-4.32019483"><ele></ele><time>2020-3-13T18:30:37Z</time></trkpt>
<trkpt lat="48.21509152" lon="-4.32024663"><ele></ele><time>2020-3-13T18:30:40Z</time></trkpt>
<trkpt lat="48.21511650" lon="-4.32029323"><ele></ele><time>2020-3-13T18:30:43Z</time></trkpt>
<trkpt lat="48.21515154" lon="-4.32032659"><ele></ele><time>2020-3-13T18:30:46Z</time></trkpt>
<trkpt lat="48.21551162" lon="-4.32061493"><ele></ele><time>2020-3-13T18:30:49Z</time></trkpt>
<trkpt lat="48.21552822" lon="-4.32064661"><ele></ele><time>2020-3-13T18:30:52Z</time></trkpt>
<trkpt lat="48.21552822" lon="-4.32068333"><ele></ele><time>2020-3-13T18:30:55Z</time></trkpt>
<trkpt lat="48.21551498" lon="-4.32071987"><ele></ele><time>2020-3-13T18:30:58Z</time></trkpt>
<trkpt lat="48.21549318" lon="-4.32075323"><ele></ele><time>2020-3-13T18:31:1Z</time></trkpt>
<trkpt lat="48.21546653" lon="-4.32078491"><ele></ele><time>2020-3-13T18:31:4Z</time></trkpt>
<trkpt lat="48.21541992" lon="-4.32085650"><ele></ele><time>2020-3-13T18:31:7Z</time></trkpt>
<trkpt lat="48.21482984" lon="-4.32202158"><ele></ele><time>2020-3-13T18:31:10Z</time></trkpt>
<trkpt lat="48.21266496" lon="-4.32581489"><ele></ele><time>2020-3-13T18:31:13Z</time></trkpt>
<trkpt lat="48.21265658" lon="-4.32589150"><ele></ele><time>2020-3-13T18:31:16Z</time></trkpt>
<trkpt lat="48.21266161" lon="-4.32596661"><ele></ele><time>2020-3-13T18:31:19Z</time></trkpt>
<trkpt lat="48.21267653" lon="-4.32604825"><ele></ele><time>2020-3-13T18:31:22Z</time></trkpt>
<trkpt lat="48.21270653" lon="-4.32611832"><ele></ele><time>2020-3-13T18:31:25Z</time></trkpt>
<trkpt lat="48.21274660" lon="-4.32617984"><ele></ele><time>2020-3-13T18:31:28Z</time></trkpt>
<trkpt lat="48.21279488" lon="-4.32623650"><ele></ele><time>2020-3-13T18:31:31Z</time></trkpt>
<trkpt lat="48.21284987" lon="-4.32628327"><ele></ele><time>2020-3-13T18:31:34Z</time></trkpt>
<trkpt lat="48.21323661" lon="-4.32658318"><ele></ele><time>2020-3-13T18:31:37Z</time></trkpt>
<trkpt lat="48.21327483" lon="-4.32664319"><ele></ele><time>2020-3-13T18:31:40Z</time></trkpt>
<trkpt lat="48.21330819" lon="-4.32670824"><ele></ele><time>2020-3-13T18:31:43Z</time></trkpt>
<trkpt lat="48.21333317" lon="-4.32677496"><ele></ele><time>2020-3-13T18:31:46Z</time></trkpt>
<trkpt lat="48.21335831" lon="-4.32684319"><ele></ele><time>2020-3-13T18:31:49Z</time></trkpt>
<trkpt lat="48.21337323" lon="-4.32691158"><ele></ele><time>2020-3-13T18:31:52Z</time></trkpt>
<trkpt lat="48.21339486" lon="-4.32704485"><ele></ele><time>2020-3-13T18:31:55Z</time></trkpt>
<trkpt lat="48.21341162" lon="-4.32716153"><ele></ele><time>2020-3-13T18:31:58Z</time></trkpt>
<trkpt lat="48.21341162" lon="-4.32721819"><ele></ele><time>2020-3-13T18:32:1Z</time></trkpt>
<trkpt lat="48.21347163" lon="-4.32821497"><ele></ele><time>2020-3-13T18:32:4Z</time></trkpt>
<trkpt lat="48.21350332" lon="-4.32871654"><ele></ele><time>2020-3-13T18:32:7Z</time></trkpt>
<trkpt lat="48.21349997" lon="-4.32875828"><ele></ele><time>2020-3-13T18:32:10Z</time></trkpt>
<trkpt lat="48.21347163" lon="-4.32893497"><ele></ele><time>2020-3-13T18:32:13Z</time></trkpt>
<trkpt lat="48.21346158" lon="-4.32897320"><ele></ele><time>2020-3-13T18:32:16Z</time></trkpt>
<trkpt lat="48.21338832" lon="-4.32923488"><ele></ele><time>2020-3-13T18:32:19Z</time></trkpt>
<trkpt lat="48.21335831" lon="-4.32930998"><ele></ele><time>2020-3-13T18:32:22Z</time></trkpt>
<trkpt lat="48.21324650" lon="-4.32957652"><ele></ele><time>2020-3-13T18:32:25Z</time></trkpt>
<trkpt lat="48.21316318" lon="-4.32975992"><ele></ele><time>2020-3-13T18:32:28Z</time></trkpt>
<trkpt lat="48.21313820" lon="-4.32980652"><ele></ele><time>2020-3-13T18:32:31Z</time></trkpt>
<trkpt lat="48.21267820" lon="-4.33068998"><ele></ele><time>2020-3-13T18:32:34Z</time></trkpt>
<trkpt lat="48.21264987" lon="-4.33076826"><ele></ele><time>2020-3-13T18:32:37Z</time></trkpt>
<trkpt lat="48.21260159" lon="-4.33093490"><ele></ele><time>2020-3-13T18:32:40Z</time></trkpt>
<trkpt lat="48.21252817" lon="-4.33130990"><ele></ele><time>2020-3-13T18:32:43Z</time></trkpt>
<trkpt lat="48.21229666" lon="-4.33250650"><ele></ele><time>2020-3-13T18:32:46Z</time></trkpt>
<trkpt lat="48.21224486" lon="-4.33263491"><ele></ele><time>2020-3-13T18:32:49Z</time></trkpt>
<trkpt lat="48.21212986" lon="-4.33285988"><ele></ele><time>2020-3-13T18:32:52Z</time></trkpt>
<trkpt lat="48.21187153" lon="-4.33340488"><ele></ele><time>2020-3-13T18:32:55Z</time></trkpt>
<trkpt lat="48.21185829" lon="-4.33344662"><ele></ele><time>2020-3-13T18:32:58Z</time></trkpt>
<trkpt lat="48.21173658" lon="-4.33377318"><ele></ele><time>2020-3-13T18:33:1Z</time></trkpt>
<trkpt lat="48.21130994" lon="-4.33505158"><ele></ele><time>2020-3-13T18:33:4Z</time></trkpt>
<trkpt lat="48.21122160" lon="-4.33532483"><ele></ele><time>2020-3-13T18:33:7Z</time></trkpt>
<trkpt lat="48.21119662" lon="-4.33534495"><ele></ele><time>2020-3-13T18:33:10Z</time></trkpt>
<trkpt lat="48.21116829" lon="-4.33534998"><ele></ele><time>2020-3-13T18:33:13Z</time></trkpt>
<trkpt lat="48.21113828" lon="-4.33534160"><ele></ele><time>2020-3-13T18:33:16Z</time></trkpt>
<trkpt lat="48.21110660" lon="-4.33532165"><ele></ele><time>2020-3-13T18:33:19Z</time></trkpt>
<trkpt lat="48.21107324" lon="-4.33529332"><ele></ele><time>2020-3-13T18:33:22Z</time></trkpt>
<trkpt lat="48.21076830" lon="-4.33499660"><ele></ele><time>2020-3-13T18:33:25Z</time></trkpt>
<trkpt lat="48.21010831" lon="-4.33434164"><ele></ele><time>2020-3-13T18:33:28Z</time></trkpt>
<trkpt lat="48.21003321" lon="-4.33430995"><ele></ele><time>2020-3-13T18:33:31Z</time></trkpt>
<trkpt lat="48.20995660" lon="-4.33429822"><ele></ele><time>2020-3-13T18:33:34Z</time></trkpt>
<trkpt lat="48.20987831" lon="-4.33431331"><ele></ele><time>2020-3-13T18:33:37Z</time></trkpt>
<trkpt lat="48.20980992" lon="-4.33436326"><ele></ele><time>2020-3-13T18:33:40Z</time></trkpt>
<trkpt lat="48.20975158" lon="-4.33443317"><ele></ele><time>2020-3-13T18:33:43Z</time></trkpt>
<trkpt lat="48.20960322" lon="-4.33466652"><ele></ele><time>2020-3-13T18:33:46Z</time></trkpt>
<trkpt lat="48.20934657" lon="-4.33513993"><ele></ele><time>2020-3-13T18:33:49Z</time></trkpt>
<trkpt lat="48.20890165" lon="-4.33612497"><ele></ele><time>2020-3-13T18:33:52Z</time></trkpt>
<trkpt lat="48.20889998" lon="-4.33617325"><ele></ele><time>2020-3-13T18:33:55Z</time></trkpt>
<trkpt lat="48.20888321" lon="-4.33636989"><ele></ele><time>2020-3-13T18:33:58Z</time></trkpt>
<trkpt lat="48.20887986" lon="-4.33651322"><ele></ele><time>2020-3-13T18:34:1Z</time></trkpt>
<trkpt lat="48.20889495" lon="-4.33664163"><ele></ele><time>2020-3-13T18:34:4Z</time></trkpt>
<trkpt lat="48.20889830" lon="-4.33668153"><ele></ele><time>2020-3-13T18:34:7Z</time></trkpt>
<trkpt lat="48.20891657" lon="-4.33692829"><ele></ele><time>2020-3-13T18:34:10Z</time></trkpt>
<trkpt lat="48.20901665" lon="-4.33856159"><ele></ele><time>2020-3-13T18:34:13Z</time></trkpt>
<trkpt lat="48.20901816" lon="-4.33860987"><ele></ele><time>2020-3-13T18:34:16Z</time></trkpt>
<trkpt lat="48.20921832" lon="-4.34054492"><ele></ele><time>2020-3-13T18:34:19Z</time></trkpt>
<trkpt lat="48.20926828" lon="-4.34075161"><ele></ele><time>2020-3-13T18:34:22Z</time></trkpt>
<trkpt lat="48.20928990" lon="-4.34084817"><ele></ele><time>2020-3-13T18:34:25Z</time></trkpt>
<trkpt lat="48.20976331" lon="-4.34238826"><ele></ele><time>2020-3-13T18:34:28Z</time></trkpt>
<trkpt lat="48.20978997" lon="-4.34246320"><ele></ele><time>2020-3-13T18:34:31Z</time></trkpt>
<trkpt lat="48.20992827" lon="-4.34282664"><ele></ele><time>2020-3-13T18:34:34Z</time></trkpt>
<trkpt lat="48.20993497" lon="-4.34283988"><ele></ele><time>2020-3-13T18:34:37Z</time></trkpt>
<trkpt lat="48.20995157" lon="-4.34287995"><ele></ele><time>2020-3-13T18:34:40Z</time></trkpt>
<trkpt lat="48.20994654" lon="-4.34289151"><ele></ele><time>2020-3-13T18:34:43Z</time></trkpt>
<trkpt lat="48.20992995" lon="-4.34292487"><ele></ele><time>2020-3-13T18:34:46Z</time></trkpt>
<trkpt lat="48.20992324" lon="-4.34294650"><ele></ele><time>2020-3-13T18:34:49Z</time></trkpt>
<trkpt lat="48.20989994" lon="-4.34303484"><ele></ele><time>2020-3-13T18:34:52Z</time></trkpt>
<trkpt lat="48.20989826" lon="-4.34306820"><ele></ele><time>2020-3-13T18:34:55Z</time></trkpt>
<trkpt lat="48.20985987" lon="-4.34392819"><ele></ele><time>2020-3-13T18:34:58Z</time></trkpt>
<trkpt lat="48.20986825" lon="-4.34400497"><ele></ele><time>2020-3-13T18:35:1Z</time></trkpt>
<trkpt lat="48.20989156" lon="-4.34407319"><ele></ele><time>2020-3-13T18:35:4Z</time></trkpt>
<trkpt lat="48.20992492" lon="-4.34413488"><ele></ele><time>2020-3-13T18:35:7Z</time></trkpt>
<trkpt lat="48.20996331" lon="-4.34418652"><ele></ele><time>2020-3-13T18:35:10Z</time></trkpt>
<trkpt lat="48.21007160" lon="-4.34431660"><ele></ele><time>2020-3-13T18:35:13Z</time></trkpt>
<trkpt lat="48.21009155" lon="-4.34436321"><ele></ele><time>2020-3-13T18:35:16Z</time></trkpt>
<trkpt lat="48.21009658" lon="-4.34441987"><ele></ele><time>2020-3-13T18:35:19Z</time></trkpt>
<trkpt lat="48.21008820" lon="-4.34448156"><ele></ele><time>2020-3-13T18:35:22Z</time></trkpt>
<trkpt lat="48.21007160" lon="-4.34454325"><ele></ele><time>2020-3-13T18:35:25Z</time></trkpt>
<trkpt lat="48.20995492" lon="-4.34494826"><ele></ele><time>2020-3-13T18:35:28Z</time></trkpt>
<trkpt lat="48.20991821" lon="-4.34500493"><ele></ele><time>2020-3-13T18:35:31Z</time></trkpt>
<trkpt lat="48.20987496" lon="-4.34505991"><ele></ele><time>2020-3-13T18:35:34Z</time></trkpt>
<trkpt lat="48.20982333" lon="-4.34510484"><ele></ele><time>2020-3-13T18:35:37Z</time></trkpt>
<trkpt lat="48.20976650" lon="-4.34514658"><ele></ele><time>2020-3-13T18:35:40Z</time></trkpt>
<trkpt lat="48.20960825" lon="-4.34528991"><ele></ele><time>2020-3-13T18:35:43Z</time></trkpt>
<trkpt lat="48.20956651" lon="-4.34536317"><ele></ele><time>2020-3-13T18:35:46Z</time></trkpt>
<trkpt lat="48.20950498" lon="-4.34553986"><ele></ele><time>2020-3-13T18:35:49Z</time></trkpt>
<trkpt lat="48.20949492" lon="-4.34563994"><ele></ele><time>2020-3-13T18:35:52Z</time></trkpt>
<trkpt lat="48.20946492" lon="-4.34584664"><ele></ele><time>2020-3-13T18:35:55Z</time></trkpt>
<trkpt lat="48.20944832" lon="-4.34594152"><ele></ele><time>2020-3-13T18:35:58Z</time></trkpt>
<trkpt lat="48.20942820" lon="-4.34603154"><ele></ele><time>2020-3-13T18:36:1Z</time></trkpt>
<trkpt lat="48.20938663" lon="-4.34611821"><ele></ele><time>2020-3-13T18:36:4Z</time></trkpt>
<trkpt lat="48.20928320" lon="-4.34627830"><ele></ele><time>2020-3-13T18:36:7Z</time></trkpt>
<trkpt lat="48.20921162" lon="-4.34633497"><ele></ele><time>2020-3-13T18:36:10Z</time></trkpt>
<trkpt lat="48.20912159" lon="-4.34637654"><ele></ele><time>2020-3-13T18:36:13Z</time></trkpt>
<trkpt lat="48.20862656" lon="-4.34660989"><ele></ele><time>2020-3-13T18:36:16Z</time></trkpt>
<trkpt lat="48.20855330" lon="-4.34666488"><ele></ele><time>2020-3-13T18:36:19Z</time></trkpt>
<trkpt lat="48.20831827" lon="-4.34687828"><ele></ele><time>2020-3-13T18:36:22Z</time></trkpt>
<trkpt lat="48.20811996" lon="-4.34711499"><ele></ele><time>2020-3-13T18:36:25Z</time></trkpt>
<trkpt lat="48.20806665" lon="-4.34719998"><ele></ele><time>2020-3-13T18:36:28Z</time></trkpt>
<trkpt lat="48.20758989" lon="-4.34788662"><ele></ele><time>2020-3-13T18:36:31Z</time></trkpt>
<trkpt lat="48.20754161" lon="-4.34793993"><ele></ele><time>2020-3-13T18:36:34Z</time></trkpt>
<trkpt lat="48.20744823" lon="-4.34801990"><ele></ele><time>2020-3-13T18:36:37Z</time></trkpt>
<trkpt lat="48.20732150" lon="-4.34812484"><ele></ele><time>2020-3-13T18:36:40Z</time></trkpt>
<trkpt lat="48.20730322" lon="-4.34815485"><ele></ele><time>2020-3-13T18:36:43Z</time></trkpt>
<trkpt lat="48.20728830" lon="-4.34819659"><ele></ele><time>2020-3-13T18:36:46Z</time></trkpt>
<trkpt lat="48.20727992" lon="-4.34824319"><ele></ele><time>2020-3-13T18:36:49Z</time></trkpt>
<trkpt lat="48.20728495" lon="-4.34829164"><ele></ele><time>2020-3-13T18:36:52Z</time></trkpt>
<trkpt lat="48.20729166" lon="-4.34833489"><ele></ele><time>2020-3-13T18:36:55Z</time></trkpt>
<trkpt lat="48.20730155" lon="-4.34837998"><ele></ele><time>2020-3-13T18:36:58Z</time></trkpt>
<trkpt lat="48.20731831" lon="-4.34842323"><ele></ele><time>2020-3-13T18:37:1Z</time></trkpt>
<trkpt lat="48.20736994" lon="-4.34855332"><ele></ele><time>2020-3-13T18:37:4Z</time></trkpt>
<trkpt lat="48.20737984" lon="-4.34859657"><ele></ele><time>2020-3-13T18:37:7Z</time></trkpt>
<trkpt lat="48.20738654" lon="-4.34863831"><ele></ele><time>2020-3-13T18:37:10Z</time></trkpt>
<trkpt lat="48.20740163" lon="-4.34870319"><ele></ele><time>2020-3-13T18:37:13Z</time></trkpt>
<trkpt lat="48.20741152" lon="-4.34873152"><ele></ele><time>2020-3-13T18:37:16Z</time></trkpt>
<trkpt lat="48.20751998" lon="-4.34900326"><ele></ele><time>2020-3-13T18:37:19Z</time></trkpt>
<trkpt lat="48.20752484" lon="-4.34902321"><ele></ele><time>2020-3-13T18:37:22Z</time></trkpt>
<trkpt lat="48.20753490" lon="-4.34908490"><ele></ele><time>2020-3-13T18:37:25Z</time></trkpt>
<trkpt lat="48.20754999" lon="-4.34914324"><ele></ele><time>2020-3-13T18:37:28Z</time></trkpt>
<trkpt lat="48.20755988" lon="-4.34915665"><ele></ele><time>2020-3-13T18:37:31Z</time></trkpt>
<trkpt lat="48.20757497" lon="-4.34916486"><ele></ele><time>2020-3-13T18:37:34Z</time></trkpt>
<trkpt lat="48.20758821" lon="-4.34916822"><ele></ele><time>2020-3-13T18:37:37Z</time></trkpt>
<trkpt lat="48.20760162" lon="-4.34916654"><ele></ele><time>2020-3-13T18:37:40Z</time></trkpt>
<trkpt lat="48.20763666" lon="-4.34915330"><ele></ele><time>2020-3-13T18:37:43Z</time></trkpt>
<trkpt lat="48.20767320" lon="-4.34912664"><ele></ele><time>2020-3-13T18:37:46Z</time></trkpt>
<trkpt lat="48.20779155" lon="-4.34903830"><ele></ele><time>2020-3-13T18:37:49Z</time></trkpt>
<trkpt lat="48.20804821" lon="-4.34880159"><ele></ele><time>2020-3-13T18:37:52Z</time></trkpt>
<trkpt lat="48.20814829" lon="-4.34871995"><ele></ele><time>2020-3-13T18:37:55Z</time></trkpt>
<trkpt lat="48.20824652" lon="-4.34866497"><ele></ele><time>2020-3-13T18:37:58Z</time></trkpt>
<trkpt lat="48.20832666" lon="-4.34863664"><ele></ele><time>2020-3-13T18:38:1Z</time></trkpt>
<trkpt lat="48.20849664" lon="-4.34857998"><ele></ele><time>2020-3-13T18:38:4Z</time></trkpt>
<trkpt lat="48.20851324" lon="-4.34857327"><ele></ele><time>2020-3-13T18:38:7Z</time></trkpt>
<trkpt lat="48.20853151" lon="-4.34856824"><ele></ele><time>2020-3-13T18:38:10Z</time></trkpt>
<trkpt lat="48.20855163" lon="-4.34856489"><ele></ele><time>2020-3-13T18:38:13Z</time></trkpt>
<trkpt lat="48.20857493" lon="-4.34856321"><ele></ele><time>2020-3-13T18:38:16Z</time></trkpt>
<trkpt lat="48.20860326" lon="-4.34857327"><ele></ele><time>2020-3-13T18:38:19Z</time></trkpt>
<trkpt lat="48.20862321" lon="-4.34857495"><ele></ele><time>2020-3-13T18:38:22Z</time></trkpt>
<trkpt lat="48.20864165" lon="-4.34858165"><ele></ele><time>2020-3-13T18:38:25Z</time></trkpt>
<trkpt lat="48.20866327" lon="-4.34859154"><ele></ele><time>2020-3-13T18:38:28Z</time></trkpt>
<trkpt lat="48.20871658" lon="-4.34862490"><ele></ele><time>2020-3-13T18:38:31Z</time></trkpt>
<trkpt lat="48.20873988" lon="-4.34865491"><ele></ele><time>2020-3-13T18:38:34Z</time></trkpt>
<trkpt lat="48.20875329" lon="-4.34866983"><ele></ele><time>2020-3-13T18:38:37Z</time></trkpt>
<trkpt lat="48.20883661" lon="-4.34873990"><ele></ele><time>2020-3-13T18:38:40Z</time></trkpt>
<trkpt lat="48.20891322" lon="-4.34879824"><ele></ele><time>2020-3-13T18:38:43Z</time></trkpt>
<trkpt lat="48.20892663" lon="-4.34881651"><ele></ele><time>2020-3-13T18:38:46Z</time></trkpt>
<trkpt lat="48.20899486" lon="-4.34890486"><ele></ele><time>2020-3-13T18:38:49Z</time></trkpt>
<trkpt lat="48.20900492" lon="-4.34892665"><ele></ele><time>2020-3-13T18:38:52Z</time></trkpt>
<trkpt lat="48.20902654" lon="-4.34897661"><ele></ele><time>2020-3-13T18:38:55Z</time></trkpt>
<trkpt lat="48.20906326" lon="-4.34906831"><ele></ele><time>2020-3-13T18:38:58Z</time></trkpt>
<trkpt lat="48.20906996" lon="-4.34908993"><ele></ele><time>2020-3-13T18:39:1Z</time></trkpt>
<trkpt lat="48.20911321" lon="-4.34924986"><ele></ele><time>2020-3-13T18:39:4Z</time></trkpt>
<trkpt lat="48.20914490" lon="-4.34934658"><ele></ele><time>2020-3-13T18:39:7Z</time></trkpt>
<trkpt lat="48.20915831" lon="-4.34938497"><ele></ele><time>2020-3-13T18:39:10Z</time></trkpt>
<trkpt lat="48.20921329" lon="-4.34950651"><ele></ele><time>2020-3-13T18:39:13Z</time></trkpt>
<trkpt lat="48.20921983" lon="-4.34951992"><ele></ele><time>2020-3-13T18:39:16Z</time></trkpt>
<trkpt lat="48.20924984" lon="-4.34957826"><ele></ele><time>2020-3-13T18:39:19Z</time></trkpt>
<trkpt lat="48.20925487" lon="-4.34959821"><ele></ele><time>2020-3-13T18:39:22Z</time></trkpt>
<trkpt lat="48.20927817" lon="-4.34967331"><ele></ele><time>2020-3-13T18:39:25Z</time></trkpt>
<trkpt lat="48.20928487" lon="-4.34968320"><ele></ele><time>2020-3-13T18:39:28Z</time></trkpt>
<trkpt lat="48.20931656" lon="-4.34971656"><ele></ele><time>2020-3-13T18:39:31Z</time></trkpt>
<trkpt lat="48.20932494" lon="-4.34972830"><ele></ele><time>2020-3-13T18:39:34Z</time></trkpt>
<trkpt lat="48.20933651" lon="-4.34975663"><ele></ele><time>2020-3-13T18:39:37Z</time></trkpt>
<trkpt lat="48.20934154" lon="-4.34977155"><ele></ele><time>2020-3-13T18:39:40Z</time></trkpt>
<trkpt lat="48.20934992" lon="-4.34978328"><ele></ele><time>2020-3-13T18:39:43Z</time></trkpt>
<trkpt lat="48.20936819" lon="-4.34980323"><ele></ele><time>2020-3-13T18:39:46Z</time></trkpt>
<trkpt lat="48.20937825" lon="-4.34980826"><ele></ele><time>2020-3-13T18:39:49Z</time></trkpt>
<trkpt lat="48.20941161" lon="-4.34982653"><ele></ele><time>2020-3-13T18:39:52Z</time></trkpt>
<trkpt lat="48.20942150" lon="-4.34983491"><ele></ele><time>2020-3-13T18:39:55Z</time></trkpt>
<trkpt lat="48.20945318" lon="-4.34985822"><ele></ele><time>2020-3-13T18:39:58Z</time></trkpt>
<trkpt lat="48.20946659" lon="-4.34986324"><ele></ele><time>2020-3-13T18:40:1Z</time></trkpt>
<trkpt lat="48.20950817" lon="-4.34988487"><ele></ele><time>2020-3-13T18:40:4Z</time></trkpt>
<trkpt lat="48.20951823" lon="-4.34988990"><ele></ele><time>2020-3-13T18:40:7Z</time></trkpt>
<trkpt lat="48.20952996" lon="-4.34989158"><ele></ele><time>2020-3-13T18:40:10Z</time></trkpt>
<trkpt lat="48.20956483" lon="-4.34990163"><ele></ele><time>2020-3-13T18:40:13Z</time></trkpt>
<trkpt lat="48.20957489" lon="-4.34989996"><ele></ele><time>2020-3-13T18:40:16Z</time></trkpt>
<trkpt lat="48.20959819" lon="-4.34989660"><ele></ele><time>2020-3-13T18:40:19Z</time></trkpt>
<trkpt lat="48.20961160" lon="-4.34989828"><ele></ele><time>2020-3-13T18:40:22Z</time></trkpt>
<trkpt lat="48.20962317" lon="-4.34990163"><ele></ele><time>2020-3-13T18:40:25Z</time></trkpt>
<trkpt lat="48.20967329" lon="-4.34991152"><ele></ele><time>2020-3-13T18:40:28Z</time></trkpt>
<trkpt lat="48.20972157" lon="-4.34991488"><ele></ele><time>2020-3-13T18:40:31Z</time></trkpt>
<trkpt lat="48.20973331" lon="-4.34991320"><ele></ele><time>2020-3-13T18:40:34Z</time></trkpt>
<trkpt lat="48.20974655" lon="-4.34991320"><ele></ele><time>2020-3-13T18:40:37Z</time></trkpt>
<trkpt lat="48.20975661" lon="-4.34991320"><ele></ele><time>2020-3-13T18:40:40Z</time></trkpt>
<trkpt lat="48.20980153" lon="-4.34990985"><ele></ele><time>2020-3-13T18:40:43Z</time></trkpt>
<trkpt lat="48.20981830" lon="-4.34991152"><ele></ele><time>2020-3-13T18:40:46Z</time></trkpt>
<trkpt lat="48.20985317" lon="-4.34992158"><ele></ele><time>2020-3-13T18:40:49Z</time></trkpt>
<trkpt lat="48.20986993" lon="-4.34992494"><ele></ele><time>2020-3-13T18:40:52Z</time></trkpt>
<trkpt lat="48.20988485" lon="-4.34992494"><ele></ele><time>2020-3-13T18:40:55Z</time></trkpt>
<trkpt lat="48.20989994" lon="-4.34992661"><ele></ele><time>2020-3-13T18:40:58Z</time></trkpt>
<trkpt lat="48.20994989" lon="-4.34993164"><ele></ele><time>2020-3-13T18:41:1Z</time></trkpt>
<trkpt lat="48.20996666" lon="-4.34993332"><ele></ele><time>2020-3-13T18:41:4Z</time></trkpt>
<trkpt lat="48.20998158" lon="-4.34993650"><ele></ele><time>2020-3-13T18:41:7Z</time></trkpt>
<trkpt lat="48.21009490" lon="-4.34996651"><ele></ele><time>2020-3-13T18:41:10Z</time></trkpt>
<trkpt lat="48.21013497" lon="-4.34997322"><ele></ele><time>2020-3-13T18:41:13Z</time></trkpt>
<trkpt lat="48.21020152" lon="-4.34998663"><ele></ele><time>2020-3-13T18:41:16Z</time></trkpt>
<trkpt lat="48.21044661" lon="-4.35004664"><ele></ele><time>2020-3-13T18:41:19Z</time></trkpt>
<trkpt lat="48.21046823" lon="-4.35005988"><ele></ele><time>2020-3-13T18:41:22Z</time></trkpt>
<trkpt lat="48.21051483" lon="-4.35009492"><ele></ele><time>2020-3-13T18:41:25Z</time></trkpt>
<trkpt lat="48.21053160" lon="-4.35012158"><ele></ele><time>2020-3-13T18:41:28Z</time></trkpt>
<trkpt lat="48.21054652" lon="-4.35015158"><ele></ele><time>2020-3-13T18:41:31Z</time></trkpt>
<trkpt lat="48.21056328" lon="-4.35019165"><ele></ele><time>2020-3-13T18:41:34Z</time></trkpt>
<trkpt lat="48.21056999" lon="-4.35023322"><ele></ele><time>2020-3-13T18:41:37Z</time></trkpt>
<trkpt lat="48.21056999" lon="-4.35027832"><ele></ele><time>2020-3-13T18:41:40Z</time></trkpt>
<trkpt lat="48.21056161" lon="-4.35043489"><ele></ele><time>2020-3-13T18:41:43Z</time></trkpt>
<trkpt lat="48.21055155" lon="-4.35068652"><ele></ele><time>2020-3-13T18:41:46Z</time></trkpt>
<trkpt lat="48.21054819" lon="-4.35071988"><ele></ele><time>2020-3-13T18:41:49Z</time></trkpt>
<trkpt lat="48.21053663" lon="-4.35081157"><ele></ele><time>2020-3-13T18:41:52Z</time></trkpt>
<trkpt lat="48.21052322" lon="-4.35101827"><ele></ele><time>2020-3-13T18:41:55Z</time></trkpt>
<trkpt lat="48.21051651" lon="-4.35118826"><ele></ele><time>2020-3-13T18:41:58Z</time></trkpt>
<trkpt lat="48.21051165" lon="-4.35121659"><ele></ele><time>2020-3-13T18:42:1Z</time></trkpt>
<trkpt lat="48.21050997" lon="-4.35124659"><ele></ele><time>2020-3-13T18:42:4Z</time></trkpt>
<trkpt lat="48.21048818" lon="-4.35153996"><ele></ele><time>2020-3-13T18:42:7Z</time></trkpt>
<trkpt lat="48.21047158" lon="-4.35171833"><ele></ele><time>2020-3-13T18:42:10Z</time></trkpt>
<trkpt lat="48.21046823" lon="-4.35174331"><ele></ele><time>2020-3-13T18:42:13Z</time></trkpt>
<trkpt lat="48.21042984" lon="-4.35207657"><ele></ele><time>2020-3-13T18:42:16Z</time></trkpt>
<trkpt lat="48.21042817" lon="-4.35222325"><ele></ele><time>2020-3-13T18:42:19Z</time></trkpt>
<trkpt lat="48.21043487" lon="-4.35231663"><ele></ele><time>2020-3-13T18:42:22Z</time></trkpt>
<trkpt lat="48.21043990" lon="-4.35233993"><ele></ele><time>2020-3-13T18:42:25Z</time></trkpt>
<trkpt lat="48.21044325" lon="-4.35235820"><ele></ele><time>2020-3-13T18:42:28Z</time></trkpt>
<trkpt lat="48.21048164" lon="-4.35250321"><ele></ele><time>2020-3-13T18:42:31Z</time></trkpt>
<trkpt lat="48.21049321" lon="-4.35252165"><ele></ele><time>2020-3-13T18:42:34Z</time></trkpt>
<trkpt lat="48.21050327" lon="-4.35254327"><ele></ele><time>2020-3-13T18:42:37Z</time></trkpt>
<trkpt lat="48.21057653" lon="-4.35270655"><ele></ele><time>2020-3-13T18:42:40Z</time></trkpt>
<trkpt lat="48.21058826" lon="-4.35272986"><ele></ele><time>2020-3-13T18:42:43Z</time></trkpt>
<trkpt lat="48.21060150" lon="-4.35274830"><ele></ele><time>2020-3-13T18:42:46Z</time></trkpt>
<trkpt lat="48.21063654" lon="-4.35278484"><ele></ele><time>2020-3-13T18:42:49Z</time></trkpt>
<trkpt lat="48.21067158" lon="-4.35281988"><ele></ele><time>2020-3-13T18:42:52Z</time></trkpt>
<trkpt lat="48.21068650" lon="-4.35284150"><ele></ele><time>2020-3-13T18:42:55Z</time></trkpt>
<trkpt lat="48.21069991" lon="-4.35286832"><ele></ele><time>2020-3-13T18:42:58Z</time></trkpt>
<trkpt lat="48.21071164" lon="-4.35289666"><ele></ele><time>2020-3-13T18:43:1Z</time></trkpt>
<trkpt lat="48.21071986" lon="-4.35292499"><ele></ele><time>2020-3-13T18:43:4Z</time></trkpt>
<trkpt lat="48.21072824" lon="-4.35295499"><ele></ele><time>2020-3-13T18:43:7Z</time></trkpt>
<trkpt lat="48.21073159" lon="-4.35298651"><ele></ele><time>2020-3-13T18:43:10Z</time></trkpt>
<trkpt lat="48.21073662" lon="-4.35305155"><ele></ele><time>2020-3-13T18:43:13Z</time></trkpt>
<trkpt lat="48.21073830" lon="-4.35308324"><ele></ele><time>2020-3-13T18:43:16Z</time></trkpt>
<trkpt lat="48.21073662" lon="-4.35311324"><ele></ele><time>2020-3-13T18:43:19Z</time></trkpt>
<trkpt lat="48.21072656" lon="-4.35327988"><ele></ele><time>2020-3-13T18:43:22Z</time></trkpt>
<trkpt lat="48.21072321" lon="-4.35330653"><ele></ele><time>2020-3-13T18:43:25Z</time></trkpt>
<trkpt lat="48.21067996" lon="-4.35359990"><ele></ele><time>2020-3-13T18:43:28Z</time></trkpt>
<trkpt lat="48.21064660" lon="-4.35378162"><ele></ele><time>2020-3-13T18:43:31Z</time></trkpt>
<trkpt lat="48.21053830" lon="-4.35457656"><ele></ele><time>2020-3-13T18:43:34Z</time></trkpt>
<trkpt lat="48.21052825" lon="-4.35461327"><ele></ele><time>2020-3-13T18:43:37Z</time></trkpt>
<trkpt lat="48.21051483" lon="-4.35464663"><ele></ele><time>2020-3-13T18:43:40Z</time></trkpt>
<trkpt lat="48.21049153" lon="-4.35471821"><ele></ele><time>2020-3-13T18:43:43Z</time></trkpt>
<trkpt lat="48.21045817" lon="-4.35477990"><ele></ele><time>2020-3-13T18:43:46Z</time></trkpt>
<trkpt lat="48.21043990" lon="-4.35481159"><ele></ele><time>2020-3-13T18:43:49Z</time></trkpt>
<trkpt lat="48.21025164" lon="-4.35514820"><ele></ele><time>2020-3-13T18:43:52Z</time></trkpt>
<trkpt lat="48.21020320" lon="-4.35527829"><ele></ele><time>2020-3-13T18:43:55Z</time></trkpt>
<trkpt lat="48.21001494" lon="-4.35576830"><ele></ele><time>2020-3-13T18:43:58Z</time></trkpt>
<trkpt lat="48.21001159" lon="-4.35576997"><ele></ele><time>2020-3-13T18:44:1Z</time></trkpt>
<trkpt lat="48.21001159" lon="-4.35577332"><ele></ele><time>2020-3-13T18:44:4Z</time></trkpt>
<trkpt lat="48.21000991" lon="-4.35577332"><ele></ele><time>2020-3-13T18:44:7Z</time></trkpt>
<trkpt lat="48.21000991" lon="-4.35577483"><ele></ele><time>2020-3-13T18:44:10Z</time></trkpt>
<trkpt lat="48.21000991" lon="-4.35577651"><ele></ele><time>2020-3-13T18:44:13Z</time></trkpt>
<trkpt lat="48.21000991" lon="-4.35577651"><ele></ele><time>2020-3-13T18:44:16Z</time></trkpt>
<trkpt lat="48.21000991" lon="-4.35577819"><ele></ele><time>2020-3-13T18:44:19Z</time></trkpt>
<trkpt lat="48.21000991" lon="-4.35577986"><ele></ele><time>2020-3-13T18:44:22Z</time></trkpt>
<trkpt lat="48.21000991" lon="-4.35578154"><ele></ele><time>2020-3-13T18:44:25Z</time></trkpt>
<trkpt lat="48.21001159" lon="-4.35578489"><ele></ele><time>2020-3-13T18:44:28Z</time></trkpt>
<trkpt lat="48.21001159" lon="-4.35578824"><ele></ele><time>2020-3-13T18:44:31Z</time></trkpt>
<trkpt lat="48.21001159" lon="-4.35578824"><ele></ele><time>2020-3-13T18:44:34Z</time></trkpt>
<trkpt lat="48.21000991" lon="-4.35578657"><ele></ele><time>2020-3-13T18:44:37Z</time></trkpt>
<trkpt lat="48.21000991" lon="-4.35578824"><ele></ele><time>2020-3-13T18:44:40Z</time></trkpt>
<trkpt lat="48.21000991" lon="-4.35578992"><ele></ele><time>2020-3-13T18:44:43Z</time></trkpt>
<trkpt lat="48.21001159" lon="-4.35579160"><ele></ele><time>2020-3-13T18:44:46Z</time></trkpt>
<trkpt lat="48.21001159" lon="-4.35579160"><ele></ele><time>2020-3-13T18:44:49Z</time></trkpt>
<trkpt lat="48.21001159" lon="-4.35578992"><ele></ele><time>2020-3-13T18:44:52Z</time></trkpt>
<trkpt lat="48.21000991" lon="-4.35578824"><ele></ele><time>2020-3-13T18:44:55Z</time></trkpt>
<trkpt lat="48.21000991" lon="-4.35578657"><ele></ele><time>2020-3-13T18:44:58Z</time></trkpt>
<trkpt lat="48.21001159" lon="-4.35578824"><ele></ele><time>2020-3-13T18:45:1Z</time></trkpt>
<trkpt lat="48.21001159" lon="-4.35578824"><ele></ele><time>2020-3-13T18:45:4Z</time></trkpt>
<trkpt lat="48.21001159" lon="-4.35578657"><ele></ele><time>2020-3-13T18:45:7Z</time></trkpt>
<trkpt lat="48.21000991" lon="-4.35578322"><ele></ele><time>2020-3-13T18:45:10Z</time></trkpt>
<trkpt lat="48.21000991" lon="-4.35577986"><ele></ele><time>2020-3-13T18:45:13Z</time></trkpt>
<trkpt lat="48.21000991" lon="-4.35577986"><ele></ele><time>2020-3-13T18:45:16Z</time></trkpt>
<trkpt lat="48.21000991" lon="-4.35577986"><ele></ele><time>2020-3-13T18:45:19Z</time></trkpt>
<trkpt lat="48.21000991" lon="-4.35578322"><ele></ele><time>2020-3-13T18:45:22Z</time></trkpt>
<trkpt lat="48.21000823" lon="-4.35579327"><ele></ele><time>2020-3-13T18:45:25Z</time></trkpt>
<trkpt lat="48.21000320" lon="-4.35580987"><ele></ele><time>2020-3-13T18:45:28Z</time></trkpt>
<trkpt lat="48.20999499" lon="-4.35582496"><ele></ele><time>2020-3-13T18:45:31Z</time></trkpt>
<trkpt lat="48.20998493" lon="-4.35584826"><ele></ele><time>2020-3-13T18:45:34Z</time></trkpt>
<trkpt lat="48.20989323" lon="-4.35606485"><ele></ele><time>2020-3-13T18:45:37Z</time></trkpt>
<trkpt lat="48.20988150" lon="-4.35611497"><ele></ele><time>2020-3-13T18:45:40Z</time></trkpt>
<trkpt lat="48.20987999" lon="-4.35616828"><ele></ele><time>2020-3-13T18:45:43Z</time></trkpt>
<trkpt lat="48.20988653" lon="-4.35622997"><ele></ele><time>2020-3-13T18:45:46Z</time></trkpt>
<trkpt lat="48.20990664" lon="-4.35628160"><ele></ele><time>2020-3-13T18:45:49Z</time></trkpt>
<trkpt lat="48.20993162" lon="-4.35632485"><ele></ele><time>2020-3-13T18:45:52Z</time></trkpt>
<trkpt lat="48.20996331" lon="-4.35635318"><ele></ele><time>2020-3-13T18:45:55Z</time></trkpt>
<trkpt lat="48.21091817" lon="-4.35719322"><ele></ele><time>2020-3-13T18:45:58Z</time></trkpt>
<trkpt lat="48.21094332" lon="-4.35722490"><ele></ele><time>2020-3-13T18:46:1Z</time></trkpt>
<trkpt lat="48.21096159" lon="-4.35725826"><ele></ele><time>2020-3-13T18:46:4Z</time></trkpt>
<trkpt lat="48.21097165" lon="-4.35729833"><ele></ele><time>2020-3-13T18:46:7Z</time></trkpt>
<trkpt lat="48.21097483" lon="-4.35734326"><ele></ele><time>2020-3-13T18:46:10Z</time></trkpt>
<trkpt lat="48.21096494" lon="-4.35739153"><ele></ele><time>2020-3-13T18:46:13Z</time></trkpt>
<trkpt lat="48.21094818" lon="-4.35743998"><ele></ele><time>2020-3-13T18:46:16Z</time></trkpt>
<trkpt lat="48.21092655" lon="-4.35748994"><ele></ele><time>2020-3-13T18:46:19Z</time></trkpt>
<trkpt lat="48.20982484" lon="-4.36002664"><ele></ele><time>2020-3-13T18:46:22Z</time></trkpt>
<trkpt lat="48.20981327" lon="-4.36009822"><ele></ele><time>2020-3-13T18:46:25Z</time></trkpt>
<trkpt lat="48.20981159" lon="-4.36017651"><ele></ele><time>2020-3-13T18:46:28Z</time></trkpt>
<trkpt lat="48.20981830" lon="-4.36025496"><ele></ele><time>2020-3-13T18:46:31Z</time></trkpt>
<trkpt lat="48.20983322" lon="-4.36041992"><ele></ele><time>2020-3-13T18:46:34Z</time></trkpt>
<trkpt lat="48.20982819" lon="-4.36050491"><ele></ele><time>2020-3-13T18:46:37Z</time></trkpt>
<trkpt lat="48.20981495" lon="-4.36058823"><ele></ele><time>2020-3-13T18:46:40Z</time></trkpt>
<trkpt lat="48.20979651" lon="-4.36067154"><ele></ele><time>2020-3-13T18:46:43Z</time></trkpt>
<trkpt lat="48.20974823" lon="-4.36083650"><ele></ele><time>2020-3-13T18:46:46Z</time></trkpt>
<trkpt lat="48.20903996" lon="-4.36300657"><ele></ele><time>2020-3-13T18:46:49Z</time></trkpt>
<trkpt lat="48.20901984" lon="-4.36302820"><ele></ele><time>2020-3-13T18:46:52Z</time></trkpt>
<trkpt lat="48.20899318" lon="-4.36304328"><ele></ele><time>2020-3-13T18:46:55Z</time></trkpt>
<trkpt lat="48.20895832" lon="-4.36305150"><ele></ele><time>2020-3-13T18:46:58Z</time></trkpt>
<trkpt lat="48.20888321" lon="-4.36308486"><ele></ele><time>2020-3-13T18:47:1Z</time></trkpt>
<trkpt lat="48.20884332" lon="-4.36312157"><ele></ele><time>2020-3-13T18:47:4Z</time></trkpt>
<trkpt lat="48.20880157" lon="-4.36316499"><ele></ele><time>2020-3-13T18:47:7Z</time></trkpt>
<trkpt lat="48.20872329" lon="-4.36327496"><ele></ele><time>2020-3-13T18:47:10Z</time></trkpt>
<trkpt lat="48.20707155" lon="-4.36607485"><ele></ele><time>2020-3-13T18:47:13Z</time></trkpt>
<trkpt lat="48.20705495" lon="-4.36613151"><ele></ele><time>2020-3-13T18:47:16Z</time></trkpt>
<trkpt lat="48.20704825" lon="-4.36618985"><ele></ele><time>2020-3-13T18:47:19Z</time></trkpt>
<trkpt lat="48.20705328" lon="-4.36624651"><ele></ele><time>2020-3-13T18:47:22Z</time></trkpt>
<trkpt lat="48.20706820" lon="-4.36629831"><ele></ele><time>2020-3-13T18:47:25Z</time></trkpt>
<trkpt lat="48.20708999" lon="-4.36633821"><ele></ele><time>2020-3-13T18:47:28Z</time></trkpt>
<trkpt lat="48.20711664" lon="-4.36637325"><ele></ele><time>2020-3-13T18:47:31Z</time></trkpt>
<trkpt lat="48.20717666" lon="-4.36642320"><ele></ele><time>2020-3-13T18:47:34Z</time></trkpt>
<trkpt lat="48.20725662" lon="-4.36648825"><ele></ele><time>2020-3-13T18:47:37Z</time></trkpt>
<trkpt lat="48.20727992" lon="-4.36651322"><ele></ele><time>2020-3-13T18:47:40Z</time></trkpt>
<trkpt lat="48.20750154" lon="-4.36676317"><ele></ele><time>2020-3-13T18:47:43Z</time></trkpt>
<trkpt lat="48.20884164" lon="-4.36848498"><ele></ele><time>2020-3-13T18:47:46Z</time></trkpt>
<trkpt lat="48.20886997" lon="-4.36852488"><ele></ele><time>2020-3-13T18:47:49Z</time></trkpt>
<trkpt lat="48.20892998" lon="-4.36859663"><ele></ele><time>2020-3-13T18:47:52Z</time></trkpt>
<trkpt lat="48.20896485" lon="-4.36861490"><ele></ele><time>2020-3-13T18:47:55Z</time></trkpt>
<trkpt lat="48.20900660" lon="-4.36861826"><ele></ele><time>2020-3-13T18:47:58Z</time></trkpt>
<trkpt lat="48.20905152" lon="-4.36860166"><ele></ele><time>2020-3-13T18:48:1Z</time></trkpt>
<trkpt lat="48.20909494" lon="-4.36855992"><ele></ele><time>2020-3-13T18:48:4Z</time></trkpt>
<trkpt lat="48.20913165" lon="-4.36850493"><ele></ele><time>2020-3-13T18:48:7Z</time></trkpt>
<trkpt lat="48.20919988" lon="-4.36838490"><ele></ele><time>2020-3-13T18:48:10Z</time></trkpt>
<trkpt lat="48.20937993" lon="-4.36801828"><ele></ele><time>2020-3-13T18:48:13Z</time></trkpt>
<trkpt lat="48.20941664" lon="-4.36796665"><ele></ele><time>2020-3-13T18:48:16Z</time></trkpt>
<trkpt lat="48.20955662" lon="-4.36771821"><ele></ele><time>2020-3-13T18:48:19Z</time></trkpt>
<trkpt lat="48.20968151" lon="-4.36746491"><ele></ele><time>2020-3-13T18:48:22Z</time></trkpt>
<trkpt lat="48.20970984" lon="-4.36741160"><ele></ele><time>2020-3-13T18:48:25Z</time></trkpt>
<trkpt lat="48.20971487" lon="-4.36740489"><ele></ele><time>2020-3-13T18:48:28Z</time></trkpt>
<trkpt lat="48.20971487" lon="-4.36740657"><ele></ele><time>2020-3-13T18:48:31Z</time></trkpt>
<trkpt lat="48.20971151" lon="-4.36740824"><ele></ele><time>2020-3-13T18:48:34Z</time></trkpt>
<trkpt lat="48.20971151" lon="-4.36740992"><ele></ele><time>2020-3-13T18:48:37Z</time></trkpt>
<trkpt lat="48.20970984" lon="-4.36741160"><ele></ele><time>2020-3-13T18:48:40Z</time></trkpt>
<trkpt lat="48.20970984" lon="-4.36741160"><ele></ele><time>2020-3-13T18:48:43Z</time></trkpt>
<trkpt lat="48.20971151" lon="-4.36741327"><ele></ele><time>2020-3-13T18:48:46Z</time></trkpt>
<trkpt lat="48.20971151" lon="-4.36741327"><ele></ele><time>2020-3-13T18:48:49Z</time></trkpt>
<trkpt lat="48.20971319" lon="-4.36741327"><ele></ele><time>2020-3-13T18:48:52Z</time></trkpt>
<trkpt lat="48.20971990" lon="-4.36741327"><ele></ele><time>2020-3-13T18:48:55Z</time></trkpt>
<trkpt lat="48.20972995" lon="-4.36741830"><ele></ele><time>2020-3-13T18:48:58Z</time></trkpt>
<trkpt lat="48.20973984" lon="-4.36742987"><ele></ele><time>2020-3-13T18:49:1Z</time></trkpt>
<trkpt lat="48.20974823" lon="-4.36745150"><ele></ele><time>2020-3-13T18:49:4Z</time></trkpt>
<trkpt lat="48.20974990" lon="-4.36748821"><ele></ele><time>2020-3-13T18:49:7Z</time></trkpt>
<trkpt lat="48.20974823" lon="-4.36753498"><ele></ele><time>2020-3-13T18:49:10Z</time></trkpt>
<trkpt lat="48.20974320" lon="-4.36758996"><ele></ele><time>2020-3-13T18:49:13Z</time></trkpt>
<trkpt lat="48.20968486" lon="-4.36795659"><ele></ele><time>2020-3-13T18:49:16Z</time></trkpt>
<trkpt lat="48.20963826" lon="-4.36816999"><ele></ele><time>2020-3-13T18:49:19Z</time></trkpt>
<trkpt lat="48.20960154" lon="-4.36829488"><ele></ele><time>2020-3-13T18:49:22Z</time></trkpt>
<trkpt lat="48.20957824" lon="-4.36835490"><ele></ele><time>2020-3-13T18:49:25Z</time></trkpt>
<trkpt lat="48.20951990" lon="-4.36851331"><ele></ele><time>2020-3-13T18:49:28Z</time></trkpt>
<trkpt lat="48.20951655" lon="-4.36855824"><ele></ele><time>2020-3-13T18:49:31Z</time></trkpt>
<trkpt lat="48.20952828" lon="-4.36859831"><ele></ele><time>2020-3-13T18:49:34Z</time></trkpt>
<trkpt lat="48.20955662" lon="-4.36862664"><ele></ele><time>2020-3-13T18:49:37Z</time></trkpt>
<trkpt lat="48.20959484" lon="-4.36864826"><ele></ele><time>2020-3-13T18:49:40Z</time></trkpt>
<trkpt lat="48.21132151" lon="-4.36962995"><ele></ele><time>2020-3-13T18:49:43Z</time></trkpt>
<trkpt lat="48.21160666" lon="-4.36984989"><ele></ele><time>2020-3-13T18:49:46Z</time></trkpt>
<trkpt lat="48.21239825" lon="-4.37059488"><ele></ele><time>2020-3-13T18:49:49Z</time></trkpt>
<trkpt lat="48.21607656" lon="-4.37422156"><ele></ele><time>2020-3-13T18:49:52Z</time></trkpt>
<trkpt lat="48.21611160" lon="-4.37426665"><ele></ele><time>2020-3-13T18:49:55Z</time></trkpt>
<trkpt lat="48.21649985" lon="-4.37478817"><ele></ele><time>2020-3-13T18:49:58Z</time></trkpt>
<trkpt lat="48.21649331" lon="-4.37479823"><ele></ele><time>2020-3-13T18:50:1Z</time></trkpt>
<trkpt lat="48.21646984" lon="-4.37482656"><ele></ele><time>2020-3-13T18:50:4Z</time></trkpt>
<trkpt lat="48.21645995" lon="-4.37483159"><ele></ele><time>2020-3-13T18:50:7Z</time></trkpt>
<trkpt lat="48.21645660" lon="-4.37482992"><ele></ele><time>2020-3-13T18:50:10Z</time></trkpt>
<trkpt lat="48.21645827" lon="-4.37483327"><ele></ele><time>2020-3-13T18:50:13Z</time></trkpt>
<trkpt lat="48.21646330" lon="-4.37485322"><ele></ele><time>2020-3-13T18:50:16Z</time></trkpt>
<trkpt lat="48.21645995" lon="-4.37486663"><ele></ele><time>2020-3-13T18:50:19Z</time></trkpt>
<trkpt lat="48.21645325" lon="-4.37486998"><ele></ele><time>2020-3-13T18:50:22Z</time></trkpt>
<trkpt lat="48.21644654" lon="-4.37486998"><ele></ele><time>2020-3-13T18:50:25Z</time></trkpt>
<trkpt lat="48.21643983" lon="-4.37486831"><ele></ele><time>2020-3-13T18:50:28Z</time></trkpt>
<trkpt lat="48.21643665" lon="-4.37486663"><ele></ele><time>2020-3-13T18:50:31Z</time></trkpt>
<trkpt lat="48.21643497" lon="-4.37486495"><ele></ele><time>2020-3-13T18:50:34Z</time></trkpt>
<trkpt lat="48.21643162" lon="-4.37486328"><ele></ele><time>2020-3-13T18:50:37Z</time></trkpt>
<trkpt lat="48.21643162" lon="-4.37486328"><ele></ele><time>2020-3-13T18:50:40Z</time></trkpt>
<trkpt lat="48.21642994" lon="-4.37486328"><ele></ele><time>2020-3-13T18:50:43Z</time></trkpt>
<trkpt lat="48.21642827" lon="-4.37486328"><ele></ele><time>2020-3-13T18:50:46Z</time></trkpt>
<trkpt lat="48.21642827" lon="-4.37486328"><ele></ele><time>2020-3-13T18:50:49Z</time></trkpt>
<trkpt lat="48.21642659" lon="-4.37486328"><ele></ele><time>2020-3-13T18:50:52Z</time></trkpt>
<trkpt lat="48.21642491" lon="-4.37486328"><ele></ele><time>2020-3-13T18:50:55Z</time></trkpt>
<trkpt lat="48.21642491" lon="-4.37486328"><ele></ele><time>2020-3-13T18:50:58Z</time></trkpt>
<trkpt lat="48.21642491" lon="-4.37486328"><ele></ele><time>2020-3-13T18:51:1Z</time></trkpt>
<trkpt lat="48.21642324" lon="-4.37486160"><ele></ele><time>2020-3-13T18:51:4Z</time></trkpt>
<trkpt lat="48.21642324" lon="-4.37486160"><ele></ele><time>2020-3-13T18:51:7Z</time></trkpt>
<trkpt lat="48.21642156" lon="-4.37486160"><ele></ele><time>2020-3-13T18:51:10Z</time></trkpt>
<trkpt lat="48.21642156" lon="-4.37486160"><ele></ele><time>2020-3-13T18:51:13Z</time></trkpt>
<trkpt lat="48.21641989" lon="-4.37486160"><ele></ele><time>2020-3-13T18:51:16Z</time></trkpt>
<trkpt lat="48.21641989" lon="-4.37486160"><ele></ele><time>2020-3-13T18:51:19Z</time></trkpt>
<trkpt lat="48.21641989" lon="-4.37486160"><ele></ele><time>2020-3-13T18:51:22Z</time></trkpt>
<trkpt lat="48.21641821" lon="-4.37486160"><ele></ele><time>2020-3-13T18:51:25Z</time></trkpt>
<trkpt lat="48.21641821" lon="-4.37486160"><ele></ele><time>2020-3-13T18:51:28Z</time></trkpt>
<trkpt lat="48.21641821" lon="-4.37485992"><ele></ele><time>2020-3-13T18:51:31Z</time></trkpt>
<trkpt lat="48.21641653" lon="-4.37485992"><ele></ele><time>2020-3-13T18:51:34Z</time></trkpt>
<trkpt lat="48.21641653" lon="-4.37485992"><ele></ele><time>2020-3-13T18:51:37Z</time></trkpt>
<trkpt lat="48.21641653" lon="-4.37485992"><ele></ele><time>2020-3-13T18:51:40Z</time></trkpt>
<trkpt lat="48.21641653" lon="-4.37485825"><ele></ele><time>2020-3-13T18:51:43Z</time></trkpt>
<trkpt lat="48.21641486" lon="-4.37485825"><ele></ele><time>2020-3-13T18:51:46Z</time></trkpt>
<trkpt lat="48.21641486" lon="-4.37485825"><ele></ele><time>2020-3-13T18:51:49Z</time></trkpt>
<trkpt lat="48.21641486" lon="-4.37485825"><ele></ele><time>2020-3-13T18:51:52Z</time></trkpt>
<trkpt lat="48.21641486" lon="-4.37485825"><ele></ele><time>2020-3-13T18:51:55Z</time></trkpt>
<trkpt lat="48.21641318" lon="-4.37485825"><ele></ele><time>2020-3-13T18:51:58Z</time></trkpt>
<trkpt lat="48.21641318" lon="-4.37485825"><ele></ele><time>2020-3-13T18:52:1Z</time></trkpt>
<trkpt lat="48.21641318" lon="-4.37485825"><ele></ele><time>2020-3-13T18:52:4Z</time></trkpt>
<trkpt lat="48.21641318" lon="-4.37485825"><ele></ele><time>2020-3-13T18:52:7Z</time></trkpt>
<trkpt lat="48.21641150" lon="-4.37485825"><ele></ele><time>2020-3-13T18:52:10Z</time></trkpt>
<trkpt lat="48.21641150" lon="-4.37485825"><ele></ele><time>2020-3-13T18:52:13Z</time></trkpt>
<trkpt lat="48.21641150" lon="-4.37485825"><ele></ele><time>2020-3-13T18:52:16Z</time></trkpt>
<trkpt lat="48.21641150" lon="-4.37485825"><ele></ele><time>2020-3-13T18:52:19Z</time></trkpt>
<trkpt lat="48.21641318" lon="-4.37485825"><ele></ele><time>2020-3-13T18:52:22Z</time></trkpt>
<trkpt lat="48.21641318" lon="-4.37485992"><ele></ele><time>2020-3-13T18:52:25Z</time></trkpt>
<trkpt lat="48.21641150" lon="-4.37485992"><ele></ele><time>2020-3-13T18:52:28Z</time></trkpt>
<trkpt lat="48.21641150" lon="-4.37485992"><ele></ele><time>2020-3-13T18:52:31Z</time></trkpt>
<trkpt lat="48.21641150" lon="-4.37485992"><ele></ele><time>2020-3-13T18:52:34Z</time></trkpt>
<trkpt lat="48.21641150" lon="-4.37485992"><ele></ele><time>2020-3-13T18:52:37Z</time></trkpt>
<trkpt lat="48.21641150" lon="-4.37485992"><ele></ele><time>2020-3-13T18:52:40Z</time></trkpt>
<trkpt lat="48.21641150" lon="-4.37485992"><ele></ele><time>2020-3-13T18:52:43Z</time></trkpt>
<trkpt lat="48.21641150" lon="-4.37485992"><ele></ele><time>2020-3-13T18:52:46Z</time></trkpt>
<trkpt lat="48.21641150" lon="-4.37485992"><ele></ele><time>2020-3-13T18:52:49Z</time></trkpt>
<trkpt lat="48.21640999" lon="-4.37485992"><ele></ele><time>2020-3-13T18:52:52Z</time></trkpt>
<trkpt lat="48.21640999" lon="-4.37485992"><ele></ele><time>2020-3-13T18:52:55Z</time></trkpt>
<trkpt lat="48.21640999" lon="-4.37485992"><ele></ele><time>2020-3-13T18:52:58Z</time></trkpt>
<trkpt lat="48.21640999" lon="-4.37486160"><ele></ele><time>2020-3-13T18:53:1Z</time></trkpt>
<trkpt lat="48.21640999" lon="-4.37486160"><ele></ele><time>2020-3-13T18:53:4Z</time></trkpt>
<trkpt lat="48.21640999" lon="-4.37486160"><ele></ele><time>2020-3-13T18:53:7Z</time></trkpt>
<trkpt lat="48.21640999" lon="-4.37486160"><ele></ele><time>2020-3-13T18:53:10Z</time></trkpt>
<trkpt lat="48.21640999" lon="-4.37486160"><ele></ele><time>2020-3-13T18:53:13Z</time></trkpt>
<trkpt lat="48.21640999" lon="-4.37486160"><ele></ele><time>2020-3-13T18:53:16Z</time></trkpt>
<trkpt lat="48.21640999" lon="-4.37486160"><ele></ele><time>2020-3-13T18:53:19Z</time></trkpt>
<trkpt lat="48.21640832" lon="-4.37486328"><ele></ele><time>2020-3-13T18:53:22Z</time></trkpt>
<trkpt lat="48.21640832" lon="-4.37486328"><ele></ele><time>2020-3-13T18:53:25Z</time></trkpt>
<trkpt lat="48.21640832" lon="-4.37486328"><ele></ele><time>2020-3-13T18:53:28Z</time></trkpt>
<trkpt lat="48.21640832" lon="-4.37486328"><ele></ele><time>2020-3-13T18:53:31Z</time></trkpt>
<trkpt lat="48.21640832" lon="-4.37486495"><ele></ele><time>2020-3-13T18:53:34Z</time></trkpt>
<trkpt lat="48.21640832" lon="-4.37486495"><ele></ele><time>2020-3-13T18:53:37Z</time></trkpt>
<trkpt lat="48.21640832" lon="-4.37486495"><ele></ele><time>2020-3-13T18:53:40Z</time></trkpt>
<trkpt lat="48.21640832" lon="-4.37486495"><ele></ele><time>2020-3-13T18:53:43Z</time></trkpt>
<trkpt lat="48.21640832" lon="-4.37486663"><ele></ele><time>2020-3-13T18:53:46Z</time></trkpt>
<trkpt lat="48.21640664" lon="-4.37486663"><ele></ele><time>2020-3-13T18:53:49Z</time></trkpt>
<trkpt lat="48.21640664" lon="-4.37486663"><ele></ele><time>2020-3-13T18:53:52Z</time></trkpt>
<trkpt lat="48.21640664" lon="-4.37486663"><ele></ele><time>2020-3-13T18:53:55Z</time></trkpt>
<trkpt lat="48.21640664" lon="-4.37486663"><ele></ele><time>2020-3-13T18:53:58Z</time></trkpt>
<trkpt lat="48.21640664" lon="-4.37486663"><ele></ele><time>2020-3-13T18:54:1Z</time></trkpt>
<trkpt lat="48.21640664" lon="-4.37486663"><ele></ele><time>2020-3-13T18:54:4Z</time></trkpt>
<trkpt lat="48.21640497" lon="-4.37486663"><ele></ele><time>2020-3-13T18:54:7Z</time></trkpt>
<trkpt lat="48.21640497" lon="-4.37486495"><ele></ele><time>2020-3-13T18:54:10Z</time></trkpt>
<trkpt lat="48.21640497" lon="-4.37486495"><ele></ele><time>2020-3-13T18:54:13Z</time></trkpt>
<trkpt lat="48.21640497" lon="-4.37486495"><ele></ele><time>2020-3-13T18:54:16Z</time></trkpt>
<trkpt lat="48.21640497" lon="-4.37486495"><ele></ele><time>2020-3-13T18:54:19Z</time></trkpt>
<trkpt lat="48.21640329" lon="-4.37486495"><ele></ele><time>2020-3-13T18:54:22Z</time></trkpt>
<trkpt lat="48.21640329" lon="-4.37486328"><ele></ele><time>2020-3-13T18:54:25Z</time></trkpt>
<trkpt lat="48.21640329" lon="-4.37486328"><ele></ele><time>2020-3-13T18:54:28Z</time></trkpt>
<trkpt lat="48.21640329" lon="-4.37486328"><ele></ele><time>2020-3-13T18:54:31Z</time></trkpt>
<trkpt lat="48.21640329" lon="-4.37486328"><ele></ele><time>2020-3-13T18:54:34Z</time></trkpt>
<trkpt lat="48.21640329" lon="-4.37486328"><ele></ele><time>2020-3-13T18:54:37Z</time></trkpt>
<trkpt lat="48.21640329" lon="-4.37486160"><ele></ele><time>2020-3-13T18:54:40Z</time></trkpt>
<trkpt lat="48.21640329" lon="-4.37486160"><ele></ele><time>2020-3-13T18:54:43Z</time></trkpt>
<trkpt lat="48.21640161" lon="-4.37486160"><ele></ele><time>2020-3-13T18:54:46Z</time></trkpt>
<trkpt lat="48.21640161" lon="-4.37486160"><ele></ele><time>2020-3-13T18:54:49Z</time></trkpt>
<trkpt lat="48.21640161" lon="-4.37486160"><ele></ele><time>2020-3-13T18:54:52Z</time></trkpt>
<trkpt lat="48.21640161" lon="-4.37486160"><ele></ele><time>2020-3-13T18:54:55Z</time></trkpt>
<trkpt lat="48.21640161" lon="-4.37486160"><ele></ele><time>2020-3-13T18:54:58Z</time></trkpt>
<trkpt lat="48.21640161" lon="-4.37486160"><ele></ele><time>2020-3-13T18:55:1Z</time></trkpt>
<trkpt lat="48.21640161" lon="-4.37486160"><ele></ele><time>2020-3-13T18:55:4Z</time></trkpt>
<trkpt lat="48.21640161" lon="-4.37486160"><ele></ele><time>2020-3-13T18:55:7Z</time></trkpt>
<trkpt lat="48.21640161" lon="-4.37486160"><ele></ele><time>2020-3-13T18:55:10Z</time></trkpt>
<trkpt lat="48.21640161" lon="-4.37486160"><ele></ele><time>2020-3-13T18:55:13Z</time></trkpt>
<trkpt lat="48.21640161" lon="-4.37486160"><ele></ele><time>2020-3-13T18:55:16Z</time></trkpt>
<trkpt lat="48.21640161" lon="-4.37486160"><ele></ele><time>2020-3-13T18:55:19Z</time></trkpt>
<trkpt lat="48.21640161" lon="-4.37486160"><ele></ele><time>2020-3-13T18:55:22Z</time></trkpt>
<trkpt lat="48.21640161" lon="-4.37486160"><ele></ele><time>2020-3-13T18:55:25Z</time></trkpt>
<trkpt lat="48.21640161" lon="-4.37486160"><ele></ele><time>2020-3-13T18:55:28Z</time></trkpt>
<trkpt lat="48.21640161" lon="-4.37486160"><ele></ele><time>2020-3-13T18:55:31Z</time></trkpt>
<trkpt lat="48.21640161" lon="-4.37486160"><ele></ele><time>2020-3-13T18:55:34Z</time></trkpt>
<trkpt lat="48.21640161" lon="-4.37486160"><ele></ele><time>2020-3-13T18:55:37Z</time></trkpt>
<trkpt lat="48.21640161" lon="-4.37486160"><ele></ele><time>2020-3-13T18:55:40Z</time></trkpt>
<trkpt lat="48.21640161" lon="-4.37486160"><ele></ele><time>2020-3-13T18:55:43Z</time></trkpt>
<trkpt lat="48.21640161" lon="-4.37486160"><ele></ele><time>2020-3-13T18:55:46Z</time></trkpt>
<trkpt lat="48.21640161" lon="-4.37486160"><ele></ele><time>2020-3-13T18:55:49Z</time></trkpt>
<trkpt lat="48.21640161" lon="-4.37486328"><ele></ele><time>2020-3-13T18:55:52Z</time></trkpt>
<trkpt lat="48.21639994" lon="-4.37486328"><ele></ele><time>2020-3-13T18:55:55Z</time></trkpt>
<trkpt lat="48.21639994" lon="-4.37486328"><ele></ele><time>2020-3-13T18:55:58Z</time></trkpt>
<trkpt lat="48.21639994" lon="-4.37486328"><ele></ele><time>2020-3-13T18:56:1Z</time></trkpt>
<trkpt lat="48.21639994" lon="-4.37486328"><ele></ele><time>2020-3-13T18:56:4Z</time></trkpt>
<trkpt lat="48.21639994" lon="-4.37486328"><ele></ele><time>2020-3-13T18:56:7Z</time></trkpt>
<trkpt lat="48.21639994" lon="-4.37486328"><ele></ele><time>2020-3-13T18:56:10Z</time></trkpt>
<trkpt lat="48.21639994" lon="-4.37486328"><ele></ele><time>2020-3-13T18:56:13Z</time></trkpt>
<trkpt lat="48.21639994" lon="-4.37486328"><ele></ele><time>2020-3-13T18:56:16Z</time></trkpt>
<trkpt lat="48.21639994" lon="-4.37486328"><ele></ele><time>2020-3-13T18:56:19Z</time></trkpt>
<trkpt lat="48.21639994" lon="-4.37486328"><ele></ele><time>2020-3-13T18:56:22Z</time></trkpt>
<trkpt lat="48.21639994" lon="-4.37486328"><ele></ele><time>2020-3-13T18:56:25Z</time></trkpt>
<trkpt lat="48.21639994" lon="-4.37486328"><ele></ele><time>2020-3-13T18:56:28Z</time></trkpt>
<trkpt lat="48.21639994" lon="-4.37486328"><ele></ele><time>2020-3-13T18:56:31Z</time></trkpt>
<trkpt lat="48.21639994" lon="-4.37486328"><ele></ele><time>2020-3-13T18:56:34Z</time></trkpt>
<trkpt lat="48.21639994" lon="-4.37486495"><ele></ele><time>2020-3-13T18:56:37Z</time></trkpt>
<trkpt lat="48.21639994" lon="-4.37486495"><ele></ele><time>2020-3-13T18:56:40Z</time></trkpt>
<trkpt lat="48.21639994" lon="-4.37486495"><ele></ele><time>2020-3-13T18:56:43Z</time></trkpt>
<trkpt lat="48.21639994" lon="-4.37486495"><ele></ele><time>2020-3-13T18:56:46Z</time></trkpt>
<trkpt lat="48.21639994" lon="-4.37486663"><ele></ele><time>2020-3-13T18:56:49Z</time></trkpt>
<trkpt lat="48.21639994" lon="-4.37486663"><ele></ele><time>2020-3-13T18:56:52Z</time></trkpt>
<trkpt lat="48.21639994" lon="-4.37486495"><ele></ele><time>2020-3-13T18:56:55Z</time></trkpt>
<trkpt lat="48.21639826" lon="-4.37486495"><ele></ele><time>2020-3-13T18:56:58Z</time></trkpt>
<trkpt lat="48.21639826" lon="-4.37486663"><ele></ele><time>2020-3-13T18:57:1Z</time></trkpt>
<trkpt lat="48.21639826" lon="-4.37486663"><ele></ele><time>2020-3-13T18:57:4Z</time></trkpt>
<trkpt lat="48.21639826" lon="-4.37486663"><ele></ele><time>2020-3-13T18:57:7Z</time></trkpt>
<trkpt lat="48.21639826" lon="-4.37486663"><ele></ele><time>2020-3-13T18:57:10Z</time></trkpt>
<trkpt lat="48.21639826" lon="-4.37486663"><ele></ele><time>2020-3-13T18:57:13Z</time></trkpt>
<trkpt lat="48.21639826" lon="-4.37486831"><ele></ele><time>2020-3-13T18:57:16Z</time></trkpt>
<trkpt lat="48.21639658" lon="-4.37486831"><ele></ele><time>2020-3-13T18:57:19Z</time></trkpt>
<trkpt lat="48.21639658" lon="-4.37486831"><ele></ele><time>2020-3-13T18:57:22Z</time></trkpt>
<trkpt lat="48.21639658" lon="-4.37486831"><ele></ele><time>2020-3-13T18:57:25Z</time></trkpt>
<trkpt lat="48.21639658" lon="-4.37486831"><ele></ele><time>2020-3-13T18:57:28Z</time></trkpt>
<trkpt lat="48.21639658" lon="-4.37486663"><ele></ele><time>2020-3-13T18:57:31Z</time></trkpt>
<trkpt lat="48.21639658" lon="-4.37486663"><ele></ele><time>2020-3-13T18:57:34Z</time></trkpt>
<trkpt lat="48.21639658" lon="-4.37486831"><ele></ele><time>2020-3-13T18:57:37Z</time></trkpt>
<trkpt lat="48.21639658" lon="-4.37486998"><ele></ele><time>2020-3-13T18:57:40Z</time></trkpt>
<trkpt lat="48.21639658" lon="-4.37486998"><ele></ele><time>2020-3-13T18:57:43Z</time></trkpt>
<trkpt lat="48.21639994" lon="-4.37486998"><ele></ele><time>2020-3-13T18:57:46Z</time></trkpt>
<trkpt lat="48.21640161" lon="-4.37487166"><ele></ele><time>2020-3-13T18:57:49Z</time></trkpt>
<trkpt lat="48.21640497" lon="-4.37487317"><ele></ele><time>2020-3-13T18:57:52Z</time></trkpt>
<trkpt lat="48.21640832" lon="-4.37487317"><ele></ele><time>2020-3-13T18:57:55Z</time></trkpt>
<trkpt lat="48.21641150" lon="-4.37487166"><ele></ele><time>2020-3-13T18:57:58Z</time></trkpt>
<trkpt lat="48.21641486" lon="-4.37486998"><ele></ele><time>2020-3-13T18:58:1Z</time></trkpt>
<trkpt lat="48.21641653" lon="-4.37486831"><ele></ele><time>2020-3-13T18:58:4Z</time></trkpt>
<trkpt lat="48.21641486" lon="-4.37486831"><ele></ele><time>2020-3-13T18:58:7Z</time></trkpt>
<trkpt lat="48.21641150" lon="-4.37486998"><ele></ele><time>2020-3-13T18:58:10Z</time></trkpt>
<trkpt lat="48.21640664" lon="-4.37487484"><ele></ele><time>2020-3-13T18:58:13Z</time></trkpt>
<trkpt lat="48.21639826" lon="-4.37487484"><ele></ele><time>2020-3-13T18:58:16Z</time></trkpt>
<trkpt lat="48.21639491" lon="-4.37487317"><ele></ele><time>2020-3-13T18:58:19Z</time></trkpt>
<trkpt lat="48.21639323" lon="-4.37487317"><ele></ele><time>2020-3-13T18:58:22Z</time></trkpt>
<trkpt lat="48.21639323" lon="-4.37487317"><ele></ele><time>2020-3-13T18:58:25Z</time></trkpt>
<trkpt lat="48.21639323" lon="-4.37487317"><ele></ele><time>2020-3-13T18:58:28Z</time></trkpt>
<trkpt lat="48.21639323" lon="-4.37487317"><ele></ele><time>2020-3-13T18:58:31Z</time></trkpt>
<trkpt lat="48.21639323" lon="-4.37487317"><ele></ele><time>2020-3-13T18:58:34Z</time></trkpt>
<trkpt lat="48.21639323" lon="-4.37487484"><ele></ele><time>2020-3-13T18:58:37Z</time></trkpt>
<trkpt lat="48.21639323" lon="-4.37487652"><ele></ele><time>2020-3-13T18:58:40Z</time></trkpt>
<trkpt lat="48.21639491" lon="-4.37487987"><ele></ele><time>2020-3-13T18:58:43Z</time></trkpt>
<trkpt lat="48.21639658" lon="-4.37487987"><ele></ele><time>2020-3-13T18:58:46Z</time></trkpt>
<trkpt lat="48.21639826" lon="-4.37488323"><ele></ele><time>2020-3-13T18:58:49Z</time></trkpt>
<trkpt lat="48.21639994" lon="-4.37488490"><ele></ele><time>2020-3-13T18:58:52Z</time></trkpt>
<trkpt lat="48.21640161" lon="-4.37488490"><ele></ele><time>2020-3-13T18:58:55Z</time></trkpt>
<trkpt lat="48.21640664" lon="-4.37488155"><ele></ele><time>2020-3-13T18:58:58Z</time></trkpt>
<trkpt lat="48.21641150" lon="-4.37487652"><ele></ele><time>2020-3-13T18:59:1Z</time></trkpt>
<trkpt lat="48.21641653" lon="-4.37487317"><ele></ele><time>2020-3-13T18:59:4Z</time></trkpt>
<trkpt lat="48.21642156" lon="-4.37487317"><ele></ele><time>2020-3-13T18:59:7Z</time></trkpt>
<trkpt lat="48.21642994" lon="-4.37486998"><ele></ele><time>2020-3-13T18:59:10Z</time></trkpt>
<trkpt lat="48.21644151" lon="-4.37486160"><ele></ele><time>2020-3-13T18:59:13Z</time></trkpt>
<trkpt lat="48.21645995" lon="-4.37485825"><ele></ele><time>2020-3-13T18:59:16Z</time></trkpt>
<trkpt lat="48.21647822" lon="-4.37486663"><ele></ele><time>2020-3-13T18:59:19Z</time></trkpt>
<trkpt lat="48.21649650" lon="-4.37488323"><ele></ele><time>2020-3-13T18:59:22Z</time></trkpt>
<trkpt lat="48.21651829" lon="-4.37490653"><ele></ele><time>2020-3-13T18:59:25Z</time></trkpt>
<trkpt lat="48.21674661" lon="-4.37512161"><ele></ele><time>2020-3-13T18:59:28Z</time></trkpt>
<trkpt lat="48.21679322" lon="-4.37513820"><ele></ele><time>2020-3-13T18:59:31Z</time></trkpt>
<trkpt lat="48.21683999" lon="-4.37514156"><ele></ele><time>2020-3-13T18:59:34Z</time></trkpt>
<trkpt lat="48.21692984" lon="-4.37514491"><ele></ele><time>2020-3-13T18:59:37Z</time></trkpt>
<trkpt lat="48.21697158" lon="-4.37515664"><ele></ele><time>2020-3-13T18:59:40Z</time></trkpt>
<trkpt lat="48.21700830" lon="-4.37517827"><ele></ele><time>2020-3-13T18:59:43Z</time></trkpt>
<trkpt lat="48.21704316" lon="-4.37520660"><ele></ele><time>2020-3-13T18:59:46Z</time></trkpt>
<trkpt lat="48.21714827" lon="-4.37531489"><ele></ele><time>2020-3-13T18:59:49Z</time></trkpt>
<trkpt lat="48.21717828" lon="-4.37536317"><ele></ele><time>2020-3-13T18:59:52Z</time></trkpt>
<trkpt lat="48.21720158" lon="-4.37541665"><ele></ele><time>2020-3-13T18:59:55Z</time></trkpt>
<trkpt lat="48.21722153" lon="-4.37547331"><ele></ele><time>2020-3-13T18:59:58Z</time></trkpt>
<trkpt lat="48.21735983" lon="-4.37585821"><ele></ele><time>2020-3-13T19:0:1Z</time></trkpt>
<trkpt lat="48.21738816" lon="-4.37590330"><ele></ele><time>2020-3-13T19:0:4Z</time></trkpt>
<trkpt lat="48.21773316" lon="-4.37635324"><ele></ele><time>2020-3-13T19:0:7Z</time></trkpt>
<trkpt lat="48.21776317" lon="-4.37638493"><ele></ele><time>2020-3-13T19:0:10Z</time></trkpt>
<trkpt lat="48.21796651" lon="-4.37655324"><ele></ele><time>2020-3-13T19:0:13Z</time></trkpt>
<trkpt lat="48.21818327" lon="-4.37669489"><ele></ele><time>2020-3-13T19:0:16Z</time></trkpt>
<trkpt lat="48.21835996" lon="-4.37678324"><ele></ele><time>2020-3-13T19:0:19Z</time></trkpt>
<trkpt lat="48.21861326" lon="-4.37687829"><ele></ele><time>2020-3-13T19:0:22Z</time></trkpt>
<trkpt lat="48.21899665" lon="-4.37697820"><ele></ele><time>2020-3-13T19:0:25Z</time></trkpt>
<trkpt lat="48.21911651" lon="-4.37699999"><ele></ele><time>2020-3-13T19:0:28Z</time></trkpt>
<trkpt lat="48.21920821" lon="-4.37700988"><ele></ele><time>2020-3-13T19:0:31Z</time></trkpt>
<trkpt lat="48.21927493" lon="-4.37701324"><ele></ele><time>2020-3-13T19:0:34Z</time></trkpt>
<trkpt lat="48.21931818" lon="-4.37701324"><ele></ele><time>2020-3-13T19:0:37Z</time></trkpt>
<trkpt lat="48.21933997" lon="-4.37701324"><ele></ele><time>2020-3-13T19:0:40Z</time></trkpt>
<trkpt lat="48.21972319" lon="-4.37695490"><ele></ele><time>2020-3-13T19:0:43Z</time></trkpt>
<trkpt lat="48.22003819" lon="-4.37683990"><ele></ele><time>2020-3-13T19:0:46Z</time></trkpt>
<trkpt lat="48.22008160" lon="-4.37681995"><ele></ele><time>2020-3-13T19:0:49Z</time></trkpt>
<trkpt lat="48.22038486" lon="-4.37663152"><ele></ele><time>2020-3-13T19:0:52Z</time></trkpt>
<trkpt lat="48.22042493" lon="-4.37659816"><ele></ele><time>2020-3-13T19:0:55Z</time></trkpt>
<trkpt lat="48.22076657" lon="-4.37628485"><ele></ele><time>2020-3-13T19:0:58Z</time></trkpt>
<trkpt lat="48.22078820" lon="-4.37626155"><ele></ele><time>2020-3-13T19:1:1Z</time></trkpt>
<trkpt lat="48.22129162" lon="-4.37556987"><ele></ele><time>2020-3-13T19:1:4Z</time></trkpt>
<trkpt lat="48.22494328" lon="-4.37037829"><ele></ele><time>2020-3-13T19:1:7Z</time></trkpt>
<trkpt lat="48.22496993" lon="-4.37035163"><ele></ele><time>2020-3-13T19:1:10Z</time></trkpt>
<trkpt lat="48.22521317" lon="-4.37012499"><ele></ele><time>2020-3-13T19:1:13Z</time></trkpt>
<trkpt lat="48.22527151" lon="-4.37008325"><ele></ele><time>2020-3-13T19:1:16Z</time></trkpt>
<trkpt lat="48.22585992" lon="-4.36974663"><ele></ele><time>2020-3-13T19:1:19Z</time></trkpt>
<trkpt lat="48.22648655" lon="-4.36937833"><ele></ele><time>2020-3-13T19:1:22Z</time></trkpt>
<trkpt lat="48.22651321" lon="-4.36935318"><ele></ele><time>2020-3-13T19:1:25Z</time></trkpt>
<trkpt lat="48.22690498" lon="-4.36896996"><ele></ele><time>2020-3-13T19:1:28Z</time></trkpt>
<trkpt lat="48.22692660" lon="-4.36893995"><ele></ele><time>2020-3-13T19:1:31Z</time></trkpt>
</trkseg></trk></gpx>